ECMWFFLT1_500_spd_000.txt.gz
Wind_Speed
26 26 26 26 26 25 23 21 21 21 22 22 22 22 22 23 24 25 26 26 26 26 26 26 27 26 26 28 29 30 30 30 29 29 28 26 26 27 28 27 29 29 25 19 19 24 28 29 31 35 37 39 40 41 42 41 41 40 41 42 43 43 43
26 26 26 26 25 24 23 21 20 20 20 21 21 21 22 23 24 24 25 26 26 26 26 26 26 26 25 25 26 26 27 27 27 28 29 28 28 28 27 27 28 27 26 25 22 22 24 26 28 31 33 36 38 40 41 42 41 41 41 42 43 43 42
25 26 25 25 24 23 23 22 21 20 20 20 20 20 20 21 23 24 24 25 25 25 25 25 25 25 25 24 24 24 24 25 25 26 28 28 29 29 29 29 28 28 28 28 28 27 27 27 29 31 33 35 37 39 41 42 42 42 42 43 44 44 43
24 24 24 23 23 23 22 22 22 21 21 20 19 19 19 20 21 23 24 24 25 25 24 24 24 24 24 24 23 23 23 24 24 25 26 27 28 28 29 29 29 28 29 29 29 30 31 31 32 33 34 36 38 39 40 41 42 42 43 44 45 46 46
23 23 23 22 22 22 22 22 22 22 22 21 20 19 19 19 20 22 23 23 24 24 24 24 24 24 23 23 23 23 23 24 24 25 25 26 26 27 28 28 28 28 28 28 29 30 31 33 34 35 37 38 39 40 42 42 42 42 42 43 44 46 48
22 22 22 22 22 21 21 21 22 22 22 21 20 20 19 19 20 21 22 22 23 23 23 23 23 23 23 23 23 23 23 23 24 24 24 25 25 26 26 27 27 27 27 27 28 29 30 31 32 34 37 39 40 40 42 44 44 43 42 42 42 43 45
22 22 23 22 22 22 21 21 22 22 22 21 20 20 19 19 19 20 21 21 22 23 23 23 23 23 23 23 23 23 23 23 24 24 24 24 25 25 26 26 27 27 27 28 28 28 29 30 31 31 33 36 37 38 41 43 44 43 42 42 42 41 41
24 23 23 23 22 22 22 22 22 22 22 21 20 19 19 19 19 19 20 21 22 23 23 23 23 24 24 24 24 23 23 22 23 24 24 24 25 25 26 26 27 27 28 28 29 29 29 30 30 30 31 32 33 34 35 38 40 40 40 41 42 42 40
26 26 25 24 23 23 23 23 23 23 23 22 20 19 19 19 19 19 20 21 22 23 23 24 24 25 25 25 25 25 25 24 23 23 24 25 25 25 26 27 27 28 28 29 29 30 30 31 31 31 31 31 32 32 32 33 34 35 37 39 41 41 41
27 27 27 26 25 24 23 23 24 24 24 23 22 21 20 20 19 20 20 21 21 22 23 24 24 25 26 26 26 26 26 27 26 25 25 26 26 27 27 27 28 28 29 30 30 31 31 32 32 32 31 32 32 32 32 31 31 32 34 36 38 40 40
27 28 28 28 27 26 25 24 25 25 25 25 24 22 22 21 21 21 21 22 22 23 23 24 24 25 26 26 27 27 27 28 29 29 29 29 29 30 30 30 30 31 31 31 32 32 33 33 34 34 34 33 33 33 33 32 31 31 32 34 35 37 38
25 26 27 28 29 29 28 27 27 27 27 27 26 25 25 24 24 24 24 24 25 25 25 26 26 27 27 28 28 28 29 30 30 31 31 31 32 32 33 34 34 34 34 35 35 35 36 36 36 37 37 37 36 36 36 35 33 31 32 33 34 36 37
25 26 26 26 27 28 29 29 29 29 29 30 29 29 28 27 27 27 27 27 27 28 28 28 29 29 29 29 30 30 31 31 32 32 33 33 34 35 35 36 37 38 38 38 38 38 39 39 40 40 40 40 41 40 40 39 38 35 34 35 35 36 37
29 28 28 27 26 27 28 28 28 29 30 31 32 32 32 32 31 31 30 31 31 31 31 31 31 31 31 31 31 32 33 33 34 34 35 35 35 36 37 38 39 39 40 41 42 42 42 42 42 43 44 44 44 44 44 43 42 40 38 38 38 38 38
33 32 31 31 30 30 30 29 29 28 29 30 31 32 33 34 35 35 34 34 34 35 35 34 34 34 34 34 34 35 35 36 36 36 37 37 37 37 38 39 39 40 41 42 43 43 44 44 45 45 46 46 47 47 48 47 47 45 43 42 42 42 41
36 36 35 35 35 35 35 34 34 33 32 31 32 33 34 34 35 35 35 34 35 36 36 36 36 36 35 35 35 36 36 37 37 38 38 38 39 39 39 39 40 41 41 42 43 44 45 46 46 47 47 48 49 49 50 50 50 50 48 46 45 45 45
36 36 37 37 38 39 40 39 38 37 36 34 32 32 34 35 36 35 34 33 33 34 36 36 35 35 35 34 34 35 35 36 37 37 38 38 38 38 38 38 39 40 41 41 42 44 45 46 47 48 49 50 51 52 52 53 53 53 52 49 48 48 48
35 35 36 37 37 38 40 42 41 39 38 35 32 31 33 34 35 35 36 35 35 34 35 36 35 34 34 33 32 32 33 34 35 36 36 36 35 35 34 34 35 36 37 37 39 41 43 44 46 47 49 50 52 53 55 56 56 56 55 53 51 50 50
38 38 37 37 39 40 41 42 42 41 40 39 36 35 33 33 34 34 35 36 37 36 36 36 36 35 34 33 32 32 32 33 33 34 34 33 31 30 30 30 30 31 32 33 34 35 37 40 42 44 46 48 51 53 54 57 58 59 59 58 56 53 53
40 40 39 39 41 43 44 44 44 43 42 41 40 38 36 37 38 38 37 37 37 37 38 38 37 37 36 34 33 32 31 31 31 31 30 29 28 28 28 29 29 30 31 31 32 33 34 37 39 41 43 45 48 50 52 55 57 60 61 62 61 58 56
41 41 41 41 41 44 47 47 46 46 45 44 42 41 39 39 39 39 40 40 40 39 39 40 39 39 38 37 36 34 32 31 31 30 30 30 29 29 29 30 30 30 31 31 32 32 34 35 37 39 42 44 46 48 50 53 55 58 60 62 63 62 61
44 44 44 44 44 46 48 48 48 47 48 47 45 44 44 43 42 41 40 41 42 43 43 43 41 40 40 40 39 37 35 33 33 32 32 32 32 31 32 32 32 32 32 32 32 33 34 35 37 39 41 43 46 47 49 52 54 56 59 61 62 62 62
45 45 45 45 46 46 47 48 49 50 51 50 49 49 50 48 47 46 44 42 43 44 44 45 45 43 42 41 41 40 38 37 36 35 35 34 34 34 34 34 34 34 34 34 34 34 35 37 39 41 42 44 46 48 49 51 53 56 58 60 61 62 62
45 45 45 45 46 46 47 48 49 52 53 52 52 53 54 53 51 50 46 43 42 42 43 44 45 45 43 42 41 40 40 40 39 38 37 37 36 36 36 36 36 36 36 36 36 37 38 39 41 42 44 46 48 49 51 52 53 55 58 60 61 62 62
48 47 45 45 45 46 47 49 51 53 54 54 54 54 55 55 53 50 47 44 41 40 40 41 42 43 43 43 42 40 40 41 41 41 41 40 39 37 37 37 38 38 38 38 39 40 41 42 43 44 46 47 49 50 52 54 55 56 58 59 61 62 62
51 49 47 45 46 48 50 51 51 52 53 54 53 53 55 55 52 50 49 45 42 42 42 42 43 44 43 44 44 43 41 41 42 44 44 43 41 39 38 38 38 39 41 42 43 44 45 45 46 47 48 49 50 51 53 54 55 57 58 60 61 62 63
52 51 50 48 47 50 52 52 51 51 51 53 53 54 55 52 52 53 49 43 41 44 46 46 46 46 45 45 46 48 47 44 44 46 46 44 42 40 39 39 40 41 43 45 47 48 48 48 49 49 50 51 53 54 55 57 58 60 60 61 62 62 63
53 52 52 50 50 52 53 52 51 49 49 51 54 56 55 52 52 52 48 42 41 44 48 50 49 48 48 47 46 47 48 48 48 48 47 46 44 43 42 43 43 44 46 48 50 51 52 52 52 52 53 54 56 58 60 62 65 66 66 65 64 63 64
56 54 54 52 52 54 55 54 52 51 52 54 56 57 58 56 55 54 51 46 45 45 47 50 51 51 51 49 47 45 46 47 48 48 47 47 47 46 46 46 47 48 49 51 52 54 55 55 54 54 55 56 59 61 64 67 70 71 71 69 67 65 65
59 58 57 56 56 57 57 56 54 54 56 58 60 61 61 59 59 58 55 52 50 47 45 45 46 49 50 51 51 49 46 46 47 47 48 48 48 47 48 49 51 51 53 54 55 56 57 57 57 57 58 59 62 65 68 71 72 72 71 70 68 67 65
60 60 60 60 59 59 59 58 54 53 54 56 58 59 58 57 57 56 55 54 52 46 41 39 40 43 46 49 51 50 48 46 46 46 47 47 47 48 49 52 54 55 56 57 57 57 58 58 58 59 61 63 66 69 71 72 70 69 68 68 67 66 65
59 60 60 61 61 60 60 60 59 58 59 59 59 58 56 55 55 56 56 54 46 40 38 37 38 40 43 46 48 48 48 46 44 44 45 46 47 50 52 55 56 58 59 59 58 58 58 60 61 62 65 67 70 72 71 68 65 64 64 64 64 64 64
58 59 60 60 61 61 61 62 63 63 62 61 60 59 58 57 56 58 57 51 43 39 38 39 39 40 41 43 45 47 48 47 46 45 46 47 49 51 54 56 57 58 59 59 59 59 60 63 65 66 68 71 73 71 67 63 62 62 63 63 64 64 64
59 60 61 62 63 63 62 63 62 60 58 55 53 52 52 53 55 56 55 52 50 48 47 47 48 48 47 46 47 47 47 48 49 49 48 49 50 52 54 55 56 57 58 59 60 61 63 66 68 70 72 73 71 66 63 62 63 64 64 64 65 65 65
61 61 60 60 61 61 62 61 58 54 52 51 48 46 45 47 50 53 53 53 54 53 51 52 53 53 52 51 51 50 49 49 49 50 50 50 51 52 52 53 54 56 58 60 62 64 66 68 70 73 74 70 66 64 64 64 63 62 61 60 60 61 62
60 54 50 51 53 54 55 55 54 53 53 53 52 50 47 46 47 48 48 48 48 47 46 46 47 48 49 50 50 51 51 51 51 50 50 50 51 51 52 54 56 58 61 63 65 66 68 71 74 73 69 65 64 65 64 61 60 59 59 58 58 58 59
54 44 42 46 48 46 46 46 46 47 50 52 52 51 50 49 48 47 45 43 42 42 41 41 43 44 45 46 48 49 49 50 50 50 50 50 51 53 54 57 59 61 64 65 66 68 70 73 73 68 64 63 64 62 60 58 59 59 59 58 58 57 57

ECMWFFLT1_500_spd_003.txt.gz
Wind_Speed
22 23 23 24 24 24 25 25 26 26 26 26 26 26 25 24 23 24 24 25 26 26 26 27 27 27 26 26 27 28 29 31 31 31 31 30 28 26 25 23 24 24 23 24 25 23 26 30 33 34 37 40 39 38 42 47 49 46 43 43 44 43 42
21 22 22 22 23 23 24 24 24 25 25 25 25 24 23 23 23 23 24 25 26 26 26 26 26 26 26 25 25 26 27 28 29 30 30 30 29 29 29 28 27 27 26 25 24 22 22 26 29 31 31 32 33 33 34 38 44 46 43 41 42 41 40
21 21 21 22 22 23 23 24 24 24 23 23 23 23 22 22 22 22 23 24 25 25 25 25 25 25 25 25 25 25 25 26 27 27 27 28 29 28 30 30 29 29 27 26 25 23 23 23 23 26 29 31 32 33 32 32 37 43 43 41 40 40 39
20 20 21 21 22 22 23 23 24 23 23 23 22 22 22 21 21 21 22 23 24 25 25 24 24 24 24 24 24 24 24 24 25 25 25 26 27 27 27 29 30 29 28 28 27 24 24 24 22 22 25 29 31 31 31 31 33 38 41 42 42 42 42
19 19 20 21 21 21 22 22 23 23 23 23 22 22 22 21 21 21 21 22 23 24 24 23 23 23 23 23 23 23 23 24 24 24 24 24 25 25 25 27 28 29 28 28 28 26 25 25 24 24 25 27 30 31 31 31 32 35 38 39 41 42 42
18 18 19 19 20 21 21 21 22 22 23 22 22 22 21 21 21 21 21 22 22 23 22 22 21 21 21 22 22 23 23 23 23 24 24 23 24 25 25 25 26 27 27 27 27 27 26 26 26 26 27 28 30 32 33 33 33 34 35 37 39 40 41
20 19 19 19 19 20 20 21 21 22 22 22 21 21 21 20 20 21 21 21 22 22 22 21 21 20 20 20 21 21 22 22 22 23 23 23 23 23 24 24 24 25 26 25 25 26 25 25 25 26 27 28 29 31 34 35 36 36 36 37 37 38 39
22 21 20 19 19 19 20 20 21 21 21 21 21 20 20 20 20 20 20 21 21 21 21 21 20 20 19 19 20 20 21 21 21 22 23 23 23 23 23 24 24 24 25 25 25 25 25 25 25 25 26 27 27 28 30 32 34 37 38 39 39 39 39
23 22 22 21 20 19 20 20 21 21 22 21 20 19 19 19 19 19 19 19 20 21 21 21 21 20 20 20 20 20 20 21 21 22 22 23 23 23 23 23 24 24 24 25 25 25 25 26 26 26 26 26 26 26 27 27 29 31 34 37 39 40 40
22 22 21 21 21 20 20 20 21 22 22 22 21 20 19 19 19 19 19 19 19 19 20 21 21 21 21 21 21 21 21 22 22 22 22 23 23 24 23 23 24 24 25 25 26 27 27 27 27 27 27 27 27 26 26 25 26 28 30 32 34 37 38
23 23 22 21 21 20 20 20 21 22 22 22 22 21 20 19 18 19 19 19 19 19 20 20 21 22 22 23 23 23 23 24 24 25 25 24 24 25 25 25 25 26 27 27 27 28 29 29 29 29 28 28 28 28 27 26 26 28 29 30 32 33 35
22 23 23 23 22 22 21 21 21 21 22 23 23 22 22 21 20 20 20 20 20 20 20 21 21 22 22 23 24 25 25 26 26 27 27 27 27 27 28 28 28 28 29 29 30 30 30 31 31 31 31 30 30 30 29 28 27 29 30 30 31 33 34
22 22 23 23 23 23 23 22 21 21 21 21 22 23 23 23 23 23 23 23 23 23 23 23 23 23 24 24 25 26 27 27 28 29 29 29 30 30 30 30 30 30 31 31 31 32 32 32 32 33 33 34 33 33 32 32 31 31 32 32 33 34 35
27 27 27 26 25 26 25 25 24 22 21 21 20 21 22 23 24 24 24 25 25 26 27 27 27 27 27 27 27 28 29 29 30 31 31 32 32 32 33 33 32 32 33 33 33 34 34 34 34 35 35 35 36 35 35 35 35 35 35 36 36 36 37
30 30 30 28 28 28 28 28 27 26 24 24 23 22 22 23 24 25 26 26 26 27 28 28 29 30 30 30 30 31 31 32 32 33 33 34 34 34 35 35 35 35 35 35 35 36 36 37 37 37 37 37 37 37 37 37 37 37 37 39 40 40 40
31 32 32 31 30 30 30 30 30 30 29 28 28 27 28 28 27 27 27 28 28 29 29 29 29 29 30 31 31 32 33 34 34 35 35 35 36 36 36 37 37 37 37 37 38 38 38 38 39 39 40 40 40 40 40 39 39 38 38 39 41 42 42
32 34 34 34 33 32 32 32 32 32 31 31 31 32 32 31 31 31 29 28 29 30 31 31 30 30 31 31 32 32 33 34 35 36 36 37 37 37 37 38 38 38 39 39 39 39 38 38 38 39 39 40 41 41 41 41 41 40 39 39 40 43 44
35 35 35 35 34 33 33 34 33 33 32 32 32 32 32 32 33 34 33 32 31 30 30 31 32 33 33 33 34 34 34 35 36 36 37 37 38 38 38 38 38 37 37 37 37 38 37 37 36 36 37 38 39 40 41 42 42 41 39 38 38 41 44
36 36 35 34 34 33 34 36 36 35 35 35 35 35 34 34 34 34 34 35 34 32 31 33 33 34 34 34 35 36 37 37 37 37 37 37 37 37 37 37 37 36 36 35 35 34 33 33 32 33 33 35 36 38 39 41 41 41 40 38 36 38 41
35 36 36 36 36 36 37 37 37 37 36 37 37 37 37 37 37 37 37 37 37 34 34 35 36 36 36 36 36 37 38 39 40 39 39 38 38 37 37 37 37 36 35 34 33 31 30 29 29 30 31 32 33 34 35 36 38 39 39 38 36 36 38
36 37 38 38 39 39 40 40 39 39 39 39 40 40 40 40 39 40 40 40 39 37 37 37 38 38 37 37 39 39 39 40 42 42 42 41 40 38 38 38 37 37 36 35 33 31 30 30 30 30 30 31 31 32 32 33 35 36 38 38 37 37 37
39 39 40 41 41 41 41 41 41 41 41 42 44 43 43 44 44 43 44 42 40 39 39 40 40 40 38 38 40 41 42 42 43 44 44 43 42 41 40 39 39 39 38 36 35 34 33 32 31 31 31 31 31 32 32 34 35 36 38 38 38 38 39
45 43 43 43 43 43 42 43 43 44 43 45 47 46 45 46 46 45 45 44 42 42 42 43 43 43 42 42 43 44 44 45 45 45 45 45 45 44 43 42 41 41 40 39 38 36 35 35 34 34 33 33 33 34 34 36 37 38 39 39 40 40 41
49 47 45 45 45 44 44 44 44 45 45 47 49 48 46 47 48 47 48 47 47 46 46 46 46 46 44 44 44 45 45 45 45 46 45 46 46 45 44 44 44 44 43 42 41 40 39 37 37 37 36 35 35 36 37 37 38 38 39 40 41 41 42
52 49 48 48 47 46 46 45 46 46 47 49 52 51 48 47 47 49 50 49 48 49 49 49 48 46 44 43 42 41 41 42 44 45 45 45 45 45 44 44 45 46 46 45 45 43 42 40 40 39 39 38 38 39 40 40 39 40 40 42 42 43 44
55 52 51 50 50 50 50 49 49 49 50 51 53 53 50 48 48 50 51 49 49 50 50 50 49 48 46 44 43 41 40 41 42 43 44 44 44 45 45 45 45 46 47 47 47 46 45 44 43 42 42 41 41 41 42 42 42 43 44 45 46 46 47
57 56 55 54 53 53 53 53 52 51 52 53 54 54 53 51 51 52 52 51 52 52 51 50 51 51 49 47 45 44 42 43 44 44 44 45 45 46 46 47 47 47 47 47 47 48 48 47 46 45 44 44 44 44 44 44 45 46 47 48 49 50 50
59 59 59 58 57 56 56 55 54 53 53 54 55 55 55 54 53 52 51 51 53 53 52 52 52 51 48 47 47 45 43 43 44 45 45 46 47 48 48 48 49 49 50 51 51 52 52 51 50 49 48 48 48 48 48 48 48 49 51 52 53 53 53
60 60 60 60 59 59 57 56 56 55 55 56 56 56 56 55 53 52 51 52 53 53 52 52 53 52 51 51 51 50 47 44 43 44 45 47 49 51 52 52 51 51 52 54 56 57 58 56 55 53 53 52 52 52 52 52 52 53 54 55 56 56 56
59 59 59 59 59 59 59 58 57 57 57 57 57 58 58 57 55 54 55 55 56 55 54 54 55 55 54 54 54 52 50 49 47 46 46 47 50 52 54 54 55 54 53 54 55 57 58 58 57 57 56 55 55 55 55 55 55 56 57 58 58 58 58
59 59 58 58 58 59 59 58 58 58 58 59 59 59 59 57 55 55 55 55 54 53 53 53 53 54 54 55 52 49 47 49 50 49 47 48 50 52 54 55 57 57 57 57 57 57 58 58 58 58 58 58 57 56 56 56 57 58 60 60 60 60 61
57 58 58 57 57 57 57 57 57 56 56 57 58 58 58 56 55 55 54 53 53 53 54 55 56 57 58 59 57 51 48 49 50 48 48 47 48 49 51 53 55 56 57 58 58 58 58 58 57 58 59 59 58 58 58 59 60 61 62 62 62 62 63
56 56 56 56 56 55 55 54 54 54 54 53 53 54 56 56 56 56 54 55 57 58 59 60 60 60 60 60 58 56 53 51 51 49 48 46 45 46 47 49 51 54 55 56 57 57 57 56 56 57 58 59 59 60 61 62 62 63 63 63 64 64 65
54 55 55 54 54 53 52 52 53 53 52 52 52 53 54 55 55 56 56 58 60 60 58 56 56 56 55 53 52 52 50 50 51 50 48 46 46 46 47 48 50 52 53 54 55 56 56 56 56 56 57 59 60 62 63 64 64 66 67 67 67 68 68
54 54 55 54 54 54 53 52 53 53 53 54 54 54 53 53 53 54 55 56 55 53 52 51 50 51 50 49 48 48 48 49 51 53 53 53 53 54 54 55 54 54 54 54 55 55 56 57 58 59 59 60 61 62 64 66 67 69 70 71 71 71 71
53 53 54 54 54 53 53 52 53 52 52 52 51 51 50 49 47 48 49 50 50 50 51 52 53 52 51 50 48 47 47 48 49 51 53 54 55 55 55 56 55 54 54 55 55 56 57 58 59 59 59 60 61 64 66 68 70 71 72 72 72 72 73
54 53 54 54 54 53 53 52 51 48 48 47 45 42 39 37 37 39 41 43 45 46 48 49 51 52 52 52 51 49 47 45 46 48 48 49 50 51 51 51 51 51 52 52 53 54 55 56 57 58 59 62 64 67 69 70 71 71 71 72 73 74 75

ECMWFFLT1_500_spd_006.txt.gz
Wind_Speed
25 25 24 24 24 25 25 25 26 26 26 26 26 26 26 26 26 27 27 27 27 27 28 28 27 26 26 27 27 27 27 27 28 28 28 29 28 27 25 25 24 25 25 24 22 23 27 28 30 35 40 43 46 47 47 46 46 47 48 48 48 48 48
24 24 24 24 24 23 24 24 24 24 25 25 25 25 25 25 26 26 26 25 26 26 27 27 26 25 25 26 26 26 26 27 27 27 28 29 30 31 32 32 31 31 31 30 27 24 24 25 25 29 32 35 40 43 45 47 47 48 48 48 48 49 49
24 24 24 23 23 23 22 22 22 22 23 23 24 25 25 25 25 25 24 24 24 25 25 25 25 24 23 24 25 25 25 26 27 27 27 28 29 31 32 33 33 33 32 32 31 29 27 24 22 24 29 30 33 36 37 39 40 43 45 46 47 47 47
23 23 23 23 22 22 21 21 21 21 21 21 22 23 23 23 24 23 23 23 23 23 23 23 23 23 22 22 23 24 24 24 25 26 26 26 27 28 29 30 31 31 31 30 31 30 29 25 21 21 25 28 30 32 33 32 31 34 38 39 39 40 40
22 22 22 22 22 22 21 20 20 20 19 19 19 20 21 22 22 22 21 21 21 22 22 22 21 21 21 21 21 22 23 23 23 24 24 24 24 25 26 27 27 28 28 28 28 28 28 26 24 21 22 24 26 28 32 33 31 31 32 33 34 34 34
22 21 21 21 22 22 21 21 20 19 18 18 18 18 19 19 20 20 20 20 20 21 21 21 21 20 20 20 20 20 21 21 22 22 23 23 23 23 24 24 25 25 25 25 25 25 25 25 24 23 22 23 24 24 27 31 32 31 30 30 31 33 33
22 22 22 21 21 21 22 21 20 20 18 17 17 17 17 17 17 18 18 19 19 20 21 21 21 20 19 19 18 18 19 19 20 20 21 21 21 21 22 22 23 23 23 24 23 22 22 23 23 23 23 23 24 25 25 27 29 30 29 30 31 33 33
21 22 22 22 21 21 21 21 21 20 19 17 16 16 16 16 15 15 16 17 18 19 20 21 21 20 20 19 18 18 18 18 18 18 19 20 20 20 20 21 21 21 21 22 22 21 20 20 21 21 21 22 23 24 25 26 27 28 29 30 31 33 34
18 19 20 21 21 21 21 21 21 20 19 18 17 16 16 16 15 14 14 14 15 17 18 19 20 20 20 20 19 19 19 18 18 18 18 19 20 20 20 20 21 21 21 21 21 21 20 19 19 20 20 20 21 22 23 25 26 28 29 29 29 30 32
17 18 19 19 19 19 19 20 20 20 20 19 18 17 17 16 16 15 14 14 14 15 16 18 19 20 20 20 21 20 20 20 20 20 20 20 20 20 21 21 21 21 22 22 22 22 21 20 20 20 20 20 20 21 21 22 24 26 27 28 28 28 28
18 18 18 19 20 20 19 19 18 19 19 19 19 18 18 18 17 17 16 15 15 15 15 16 17 19 20 21 21 21 21 22 22 22 22 21 21 21 21 22 22 22 23 23 23 23 23 22 21 21 21 21 21 21 21 22 24 25 25 26 27 27 27
20 20 19 18 18 18 18 18 17 17 17 18 18 18 18 18 18 18 18 18 18 18 17 18 18 19 20 21 21 21 22 22 23 23 23 23 23 23 23 23 23 23 23 24 24 24 24 24 24 23 23 23 23 23 23 23 25 27 26 26 27 27 27
23 22 21 20 20 19 19 19 19 19 18 17 17 17 17 17 18 18 19 19 20 20 21 21 21 21 22 22 23 23 23 23 23 24 24 25 25 25 25 24 25 25 25 25 26 26 26 26 26 26 26 26 26 26 26 26 27 29 29 28 28 29 29
25 25 25 24 24 25 25 24 23 23 22 21 20 19 18 17 17 17 18 19 19 20 21 22 23 24 25 26 26 26 26 26 26 26 25 26 26 27 27 27 27 27 27 27 27 27 28 28 27 27 27 27 27 27 28 28 28 30 31 31 31 31 31
26 26 26 26 27 29 30 30 28 27 26 25 24 23 22 21 20 20 21 21 21 21 22 23 24 25 27 28 29 29 29 30 30 29 29 29 29 29 29 29 29 30 30 30 30 29 29 29 29 29 29 29 29 29 29 30 30 31 32 33 32 32 33
29 28 27 27 28 29 31 32 32 30 29 27 26 25 25 24 24 24 25 25 25 25 25 25 26 27 29 29 30 30 31 32 32 32 32 32 32 32 32 32 32 32 32 32 33 32 32 32 32 32 32 32 32 32 31 31 31 32 32 33 33 33 33
34 32 30 28 29 30 31 31 32 32 31 30 30 29 28 27 27 27 27 27 27 26 26 27 27 29 30 31 31 31 31 32 33 33 33 33 33 34 34 34 34 34 35 35 35 35 35 35 35 35 35 35 35 34 33 32 32 32 32 33 34 34 34
37 37 34 32 31 32 33 33 33 33 34 33 33 32 31 30 29 28 28 28 27 27 27 28 28 29 31 32 32 32 32 32 33 33 33 33 33 34 35 35 36 36 37 37 37 37 37 37 37 37 37 36 36 35 35 34 32 32 32 32 33 34 34
39 39 37 35 33 33 33 34 34 35 36 36 35 34 33 33 32 30 30 30 30 30 30 30 29 30 31 32 33 34 34 33 33 32 33 32 32 33 35 36 37 37 38 38 38 38 39 38 38 38 38 38 38 37 35 34 33 32 32 32 33 33 34
40 38 35 35 36 35 35 35 35 36 38 38 38 36 35 35 35 35 34 34 34 34 33 33 32 32 33 34 34 34 35 35 35 34 34 34 33 34 34 36 38 39 39 39 39 39 39 39 39 39 39 39 39 39 37 36 35 34 33 33 33 33 33
42 39 37 37 38 38 37 37 36 37 38 39 40 39 37 36 37 37 37 36 36 36 36 36 36 37 37 36 36 36 36 37 37 37 37 36 36 36 35 36 37 39 41 41 41 41 40 40 40 40 41 41 41 41 40 38 37 36 36 35 34 34 33
41 39 38 39 40 40 40 39 39 39 39 40 41 41 39 38 39 40 39 37 37 38 38 38 40 41 40 39 37 37 37 38 38 38 38 39 40 39 39 38 38 39 42 43 44 43 43 42 42 42 42 43 43 43 42 40 39 38 37 36 35 34 34
42 41 40 41 43 43 43 42 42 41 41 42 43 43 42 41 41 42 41 40 39 39 39 40 41 43 43 42 40 39 39 39 39 39 40 41 43 43 43 43 41 41 42 44 46 46 45 45 44 44 44 45 46 45 43 42 40 39 38 37 36 35 35
49 47 46 45 46 46 46 45 45 44 44 44 45 46 46 45 45 44 44 43 43 43 42 42 43 44 45 44 44 43 43 43 43 43 42 43 43 43 43 44 45 44 44 45 46 47 48 47 46 46 46 46 47 47 45 43 41 40 39 38 37 37 37
54 53 52 51 51 51 50 49 49 49 49 49 49 48 48 48 48 47 46 45 45 45 45 45 44 45 46 46 47 46 45 44 45 45 44 43 43 43 42 43 45 46 47 46 47 48 49 49 48 47 47 47 48 48 48 46 43 42 42 41 40 40 40
56 56 56 56 56 56 55 55 54 53 53 54 53 52 50 49 49 49 48 48 48 47 47 47 47 47 47 49 50 50 47 46 46 46 46 45 44 45 45 44 45 46 48 48 47 48 49 50 50 49 48 48 48 49 50 49 47 45 45 44 44 43 44
59 59 59 59 58 58 58 58 58 57 57 57 57 56 54 52 51 50 51 51 51 50 49 49 49 49 50 52 53 53 51 49 48 48 47 47 47 46 46 46 46 47 49 49 49 48 48 49 50 50 50 49 49 50 51 52 51 50 48 48 47 48 48
61 60 60 60 59 59 59 59 59 59 58 58 58 58 57 56 54 54 53 54 54 52 50 50 50 51 53 53 53 52 52 50 49 48 47 47 47 46 46 46 47 48 49 50 50 50 51 51 50 50 50 50 50 51 51 52 52 52 50 50 50 51 52
60 60 60 60 59 59 58 58 58 58 58 58 58 58 58 58 57 57 57 56 56 54 53 52 51 52 54 53 52 52 52 51 51 50 49 49 49 48 47 47 49 50 50 50 49 49 51 53 53 52 51 50 50 51 52 52 52 52 53 54 54 55 56
58 58 58 58 58 58 57 57 57 57 57 57 57 57 58 58 58 59 59 58 58 57 55 54 53 54 55 54 53 53 53 53 53 53 52 52 51 49 48 48 49 50 49 49 50 50 50 52 53 53 53 53 52 52 53 53 54 55 56 56 56 56 57
57 57 57 57 56 56 56 55 55 56 56 57 57 57 58 58 58 58 59 58 58 57 56 56 56 55 54 52 51 51 51 52 53 53 53 53 52 51 50 50 50 51 50 49 50 52 52 51 52 52 53 54 55 56 56 57 57 58 58 58 58 58 59
54 54 55 55 55 55 54 54 54 54 55 55 56 56 56 57 57 57 56 56 57 57 57 57 56 55 54 53 54 53 53 53 54 55 56 55 54 54 55 54 54 54 53 51 51 53 54 53 52 51 51 52 54 56 58 60 61 61 62 62 62 62 62
52 52 53 53 53 53 53 53 53 53 54 54 54 54 55 55 55 55 55 55 55 56 56 55 54 54 54 56 57 57 56 55 56 57 58 58 58 58 58 57 56 55 54 53 53 54 55 55 54 52 51 51 51 53 55 56 58 60 61 62 62 63 63
52 52 52 53 53 53 53 53 53 53 52 52 52 52 53 53 53 53 53 54 54 54 53 51 50 50 52 53 54 55 55 55 56 56 57 57 58 58 58 57 56 55 54 52 51 53 55 55 54 53 52 51 50 50 50 51 53 55 57 58 60 62 63
53 53 53 53 54 53 53 53 53 52 52 51 50 50 50 51 51 51 51 51 51 50 49 49 49 49 50 51 52 53 54 55 55 55 56 56 57 58 58 58 58 58 56 54 52 52 53 55 56 56 55 55 54 55 56 56 57 57 56 57 59 60 62
53 53 54 54 54 53 53 52 52 52 52 50 49 49 49 49 49 49 49 49 49 48 48 48 48 49 49 49 50 51 52 52 53 53 54 54 55 55 56 57 57 58 58 57 56 54 53 55 57 59 59 60 61 62 61 60 60 60 59 59 59 59 60
52 52 53 53 53 52 52 51 51 52 51 51 49 48 48 48 48 47 46 46 45 45 45 46 46 46 46 45 46 46 46 46 47 47 48 49 50 51 52 53 53 54 55 56 57 56 55 54 55 56 58 59 59 59 59 58 58 59 59 58 58 59 60

ECMWFFLT1_500_spd_009.txt.gz
Wind_Speed
27 26 26 27 27 28 28 29 29 28 28 27 27 26 26 26 26 27 28 28 29 29 28 29 28 28 28 27 27 28 28 28 28 29 29 29 30 30 30 30 29 28 27 23 19 16 17 16 17 21 27 34 39 42 44 46 47 46 46 44 40 37 39
27 26 26 27 27 27 27 28 27 26 26 25 25 25 24 24 24 25 26 26 27 28 27 28 28 28 28 27 27 27 27 27 26 28 28 29 29 30 30 30 30 30 28 26 23 20 19 19 19 20 21 25 31 37 42 45 46 46 45 45 45 41 37
26 26 26 26 27 27 26 26 25 25 24 24 23 23 23 23 23 23 23 24 25 26 26 27 27 27 28 27 26 26 27 26 25 26 27 28 28 28 29 30 30 31 30 30 29 28 28 26 25 24 24 23 25 30 37 43 45 46 47 45 45 42 36
25 25 25 25 25 25 25 24 24 23 22 22 22 22 22 22 22 22 22 22 23 24 25 25 26 26 26 26 25 25 26 25 24 25 25 26 27 27 27 28 29 30 30 30 31 32 31 29 26 25 25 25 25 26 30 36 40 43 46 47 46 45 41
24 23 23 23 23 23 23 22 21 21 20 20 20 20 20 20 20 20 20 21 22 22 23 23 24 25 25 24 24 23 24 24 24 23 24 25 25 26 26 26 27 28 29 29 30 30 30 28 26 25 24 24 25 25 25 30 34 35 38 41 43 45 45
22 22 22 21 21 21 20 20 19 19 19 18 18 19 19 19 18 18 19 20 21 21 22 22 22 23 23 23 22 22 22 23 23 22 23 23 24 24 24 24 25 25 26 27 27 27 26 25 24 23 23 22 23 23 22 24 28 30 33 35 36 38 39
21 21 21 21 20 20 19 19 18 18 18 17 17 18 18 18 17 17 17 17 19 20 21 21 21 22 22 22 21 21 21 21 22 21 22 22 22 23 23 23 23 23 23 24 24 24 23 22 22 22 22 21 20 22 21 21 22 25 28 32 34 33 34
21 21 21 21 21 20 19 19 19 18 18 18 18 18 18 17 16 16 16 16 17 18 19 20 20 21 21 21 21 20 19 20 20 21 21 21 21 21 21 21 21 21 21 21 22 22 22 21 20 20 20 19 19 20 20 21 21 22 22 25 29 31 33
19 20 20 20 20 20 19 19 19 18 18 18 18 18 17 17 16 15 15 15 16 16 17 18 18 18 19 19 19 19 18 18 19 19 20 20 20 20 20 19 19 20 20 20 20 20 21 20 19 18 18 18 18 19 19 20 21 22 21 21 23 26 27
19 19 19 19 19 19 18 18 18 17 17 17 17 17 17 17 16 15 15 15 15 16 17 17 17 17 17 17 17 17 17 17 18 18 19 19 20 20 20 19 19 19 19 19 19 19 19 18 17 17 17 17 17 18 18 19 20 21 21 21 21 22 23
21 21 20 19 19 19 18 18 18 19 18 18 17 17 17 18 18 17 16 16 16 16 17 17 18 18 17 17 17 16 16 17 17 18 19 19 19 19 19 19 20 20 19 19 19 19 18 18 17 16 16 16 17 18 18 18 19 20 21 21 21 21 21
24 23 22 21 20 20 20 20 21 21 20 20 19 18 18 18 19 18 18 18 18 18 18 18 19 19 19 18 18 18 17 17 17 17 18 19 19 19 19 19 20 20 20 20 20 20 20 19 19 18 17 17 18 18 19 19 20 21 21 22 22 22 22
25 25 25 24 23 23 23 23 22 22 21 20 19 18 18 18 18 18 18 18 19 19 20 20 20 20 20 20 20 20 20 20 20 19 19 19 19 20 20 20 20 20 21 21 21 22 22 21 21 21 21 20 20 20 20 21 22 23 24 24 24 25 24
25 25 25 24 24 24 24 24 23 23 23 22 21 20 19 18 18 19 19 19 19 19 19 20 20 21 21 21 21 21 22 22 23 23 22 22 22 22 22 22 22 22 22 22 22 23 23 24 24 23 23 23 23 23 23 23 23 24 26 26 26 27 27
26 25 24 23 23 24 24 24 24 25 25 26 26 25 24 23 22 21 21 21 21 21 21 20 21 22 22 22 22 22 22 23 24 24 24 24 24 25 25 25 25 25 25 25 25 24 25 25 25 25 26 26 25 25 25 25 25 25 26 28 28 28 28
27 26 27 27 26 25 26 26 27 27 27 28 29 29 29 28 27 25 23 23 24 24 24 24 24 25 25 26 26 25 25 26 26 26 26 25 25 26 26 27 27 28 28 28 28 28 27 27 27 28 28 28 28 28 28 28 28 28 28 30 30 30 30
30 29 29 31 31 29 30 30 30 30 30 30 31 31 32 31 29 28 26 24 25 25 25 26 26 26 27 27 27 27 28 28 28 28 28 27 27 27 27 28 28 29 29 29 29 29 30 30 30 30 30 30 30 31 31 31 31 31 31 32 33 33 32
33 32 31 34 35 33 33 33 32 32 33 32 31 30 30 30 29 29 28 27 26 26 26 26 27 27 27 28 28 28 28 29 29 30 30 29 29 29 29 29 30 30 30 30 30 30 30 30 31 31 31 32 32 32 33 34 34 34 34 34 35 36 35
35 34 34 34 36 35 35 34 34 34 34 33 32 30 29 29 28 27 28 28 27 28 29 29 29 29 30 30 30 29 29 29 29 30 31 31 31 31 31 31 31 32 32 32 32 32 31 31 31 31 32 32 33 33 33 34 36 36 36 36 36 37 37
38 39 39 39 41 41 38 35 35 37 36 34 34 34 33 32 30 29 30 30 29 30 31 32 32 32 33 33 33 32 31 31 31 31 32 33 33 33 33 33 33 34 34 34 34 34 34 34 33 33 33 33 33 33 34 34 35 36 37 38 38 38 38
39 42 44 45 46 44 40 38 39 41 38 35 35 37 38 37 34 32 33 33 34 34 33 34 35 35 35 35 36 36 36 35 34 34 35 35 35 35 35 35 35 36 36 37 37 37 37 37 36 36 35 35 34 34 35 35 35 36 38 39 39 39 40
40 42 43 44 44 43 42 43 44 43 41 38 37 38 40 39 37 36 36 37 38 37 36 36 37 37 37 36 37 37 37 37 37 36 36 37 37 37 37 37 37 37 38 39 39 39 39 39 39 39 38 38 37 37 37 37 37 38 38 39 40 41 42
46 45 45 45 45 43 43 43 42 40 39 38 39 40 41 41 41 42 41 41 41 40 38 38 39 39 39 40 39 37 36 38 39 39 39 39 38 37 38 39 39 39 40 41 42 42 42 42 41 41 41 40 40 39 39 39 39 40 40 41 41 43 44
51 51 51 51 51 49 48 47 45 43 40 38 38 40 42 43 44 45 46 45 45 44 42 40 41 42 43 44 43 41 40 40 40 40 41 42 41 39 39 40 41 40 41 42 44 45 45 44 44 43 43 43 43 43 42 42 41 42 42 43 43 44 45
51 51 52 54 54 54 53 54 54 52 49 45 43 42 43 45 45 47 48 47 48 48 46 43 43 44 46 46 45 45 45 44 42 42 42 43 44 43 43 43 43 42 42 42 44 45 46 46 46 45 45 45 45 45 45 45 44 44 44 45 45 45 46
51 50 50 51 52 52 52 53 54 53 52 50 48 47 47 48 49 50 51 50 51 51 48 48 48 48 48 48 47 48 49 48 46 47 47 47 47 47 47 47 47 47 46 45 45 45 46 47 48 47 47 46 46 46 46 46 46 46 46 46 46 47 47
54 53 52 52 53 52 53 53 53 53 53 52 51 50 50 50 52 53 53 54 56 54 52 52 53 53 52 52 51 52 53 52 50 50 50 50 49 49 50 50 50 51 51 50 49 48 47 48 48 49 49 49 49 48 47 47 47 47 48 47 47 47 48
56 57 57 56 56 56 57 56 56 56 55 55 54 53 53 53 53 54 55 56 58 57 55 55 55 55 55 55 54 54 55 55 53 53 52 52 51 51 51 51 52 52 52 52 51 50 49 49 49 49 50 50 51 50 50 49 49 49 49 49 48 48 48
56 56 57 58 58 58 58 58 58 57 56 56 56 55 55 55 55 55 55 57 59 57 55 55 55 56 57 56 55 55 55 55 55 55 54 54 53 52 53 53 53 53 53 53 53 52 51 51 51 51 51 51 51 51 51 51 51 51 51 51 50 50 49
54 55 56 56 56 57 57 57 57 57 56 56 55 54 54 53 54 56 56 57 58 56 54 54 56 56 56 55 55 54 54 54 55 55 54 54 53 54 54 54 53 53 53 53 54 53 52 52 53 53 53 53 52 52 51 51 51 52 52 51 51 51 51
54 54 55 55 56 55 55 55 55 55 54 54 53 53 53 52 53 55 55 56 56 54 53 55 56 55 54 54 53 54 54 55 55 54 54 54 54 55 55 54 54 54 54 54 55 54 54 54 54 55 55 55 54 54 53 52 52 52 52 52 51 51 52
53 54 54 54 55 55 55 54 54 53 52 52 52 52 52 51 52 54 54 54 54 54 55 56 55 54 53 53 53 53 54 55 55 54 54 54 55 55 55 55 55 55 55 56 56 56 56 56 57 57 58 58 57 56 55 55 54 53 53 53 54 53 53
52 52 52 53 53 53 54 54 53 53 52 51 52 52 52 53 53 53 52 52 53 53 54 54 54 53 53 52 52 53 53 54 54 54 54 54 54 54 55 55 55 54 54 55 55 55 55 56 57 58 59 59 59 59 57 56 55 55 55 55 55 56 56
51 51 51 51 51 52 52 53 53 53 52 52 52 52 52 53 53 52 51 51 52 52 52 52 52 52 52 51 52 52 52 52 52 52 52 52 52 52 53 54 54 54 54 54 54 53 54 54 55 56 58 59 59 60 59 58 56 56 56 56 57 57 57
50 50 50 50 51 51 52 52 52 53 52 52 52 51 52 53 53 52 51 52 52 50 50 50 50 49 49 50 51 51 50 50 50 50 50 50 50 50 51 52 53 53 53 54 54 54 54 54 54 55 56 57 58 59 59 59 58 57 56 57 57 58 58
50 50 50 50 51 51 52 51 52 52 53 52 51 51 52 53 52 52 52 52 51 49 48 48 48 48 48 48 49 49 48 49 48 48 48 48 48 49 50 51 52 52 53 53 53 53 52 52 53 53 54 56 57 58 58 58 58 58 57 57 57 58 59
50 49 49 49 50 51 51 51 51 51 52 52 51 52 53 53 52 52 51 51 50 48 47 48 47 46 45 45 45 45 46 47 47 46 46 46 47 48 49 50 51 51 50 50 50 51 52 53 54 55 56 57 57 58 59 60 59 59 58 58 58 58 59

ECMWFFLT1_500_spd_012.txt.gz
Wind_Speed
21 22 22 22 23 23 23 22 22 22 23 24 24 25 25 26 26 27 27 27 27 27 27 27 27 28 27 26 26 26 25 25 25 26 26 26 25 25 25 25 26 27 27 26 26 24 24 22 20 17 13 16 22 27 31 34 37 41 43 43 41 41 42
22 22 22 22 23 23 22 22 22 22 23 23 23 24 24 24 25 25 26 26 26 26 26 26 26 27 26 26 25 25 24 24 24 24 25 25 25 25 24 24 25 26 27 27 26 25 24 23 21 18 15 13 16 19 21 24 29 36 40 41 41 40 41
22 21 21 21 21 22 22 22 22 22 23 23 23 23 23 23 23 23 24 24 25 25 25 25 26 25 25 24 24 23 23 23 23 23 24 25 24 24 23 23 24 25 25 26 26 25 25 25 23 22 21 21 21 20 18 18 20 26 32 37 39 41 42
21 20 20 20 20 20 20 21 21 22 22 23 22 22 22 22 22 22 22 23 23 24 24 24 24 24 23 22 21 21 21 21 21 22 23 24 24 23 23 23 23 23 24 24 24 24 25 25 25 25 25 24 23 22 21 19 19 20 24 30 35 38 42
18 18 18 19 19 19 19 19 20 20 21 22 21 21 21 21 21 21 21 22 22 22 22 22 22 22 21 20 20 20 20 19 19 20 21 22 22 22 23 23 22 22 23 23 23 23 23 24 24 25 24 23 21 21 21 20 20 20 21 24 28 32 38
15 16 17 18 19 19 19 19 19 19 20 20 20 20 20 20 20 20 21 21 21 21 21 21 20 20 19 18 18 18 18 18 17 18 19 20 21 21 21 22 22 21 21 22 22 22 22 22 22 22 21 20 19 20 20 20 20 20 20 21 22 26 32
15 16 17 18 19 19 19 19 19 19 19 20 19 19 19 18 18 18 19 19 20 20 20 20 19 19 18 18 18 17 17 16 16 16 17 17 18 19 20 20 21 21 20 20 21 20 20 20 20 20 19 18 18 18 18 19 20 20 19 19 20 21 25
15 16 18 19 19 19 19 19 19 19 20 20 20 19 19 19 18 18 18 18 19 19 19 19 19 19 18 18 18 17 17 16 15 15 16 16 16 17 18 18 18 18 18 18 19 18 18 18 18 18 17 16 17 17 17 17 18 19 19 19 19 19 20
16 16 18 19 18 19 19 19 19 19 19 19 19 19 19 19 18 18 18 18 18 18 18 18 17 17 18 17 17 17 17 16 16 15 15 16 16 16 17 17 16 16 15 15 16 16 16 16 16 16 15 15 15 16 15 15 16 17 18 18 19 18 18
16 17 19 19 19 19 19 19 19 19 18 18 18 18 17 18 18 18 18 18 19 19 18 17 17 16 16 16 16 16 16 16 16 15 14 15 16 16 16 17 17 16 15 14 14 14 15 15 15 15 14 13 14 15 15 15 15 16 16 17 17 17 17
18 18 20 21 21 21 21 21 21 20 19 18 17 17 16 16 17 17 18 19 19 19 19 19 18 17 16 16 16 15 15 15 15 15 14 14 15 16 17 17 17 17 17 16 15 15 14 14 14 14 14 13 13 14 15 15 15 15 15 16 16 15 15
20 20 21 22 23 23 23 22 22 21 19 18 17 17 17 16 17 17 18 19 19 20 20 19 19 18 18 18 17 17 17 16 16 15 15 15 15 16 17 17 17 18 18 18 18 18 17 16 15 15 15 15 14 14 15 16 17 16 16 17 17 17 16
22 22 22 24 24 24 23 22 22 22 20 19 18 17 17 17 17 17 17 18 19 19 20 20 19 19 19 19 19 19 19 19 18 18 18 18 17 17 18 18 18 18 19 19 19 20 20 19 18 17 17 17 17 16 16 17 18 19 19 19 19 19 19
25 23 24 25 25 24 23 23 23 23 22 21 20 19 18 19 19 19 18 18 19 19 19 19 19 19 19 19 19 19 19 19 19 19 18 18 19 19 20 20 20 20 20 20 20 21 21 21 21 21 20 20 19 19 19 19 19 20 21 21 22 22 22
28 25 25 27 27 25 24 25 25 24 22 22 21 21 20 21 21 21 21 20 20 21 21 21 21 21 21 21 21 20 20 20 20 20 20 19 19 20 20 21 22 23 23 23 23 23 24 24 24 23 23 23 23 22 22 22 22 22 22 23 23 24 24
31 29 28 29 30 28 26 27 27 25 23 23 23 23 22 23 23 23 23 23 22 23 23 24 24 24 24 24 24 24 24 23 23 23 23 22 22 22 22 22 22 23 24 25 25 26 26 26 27 27 27 27 27 26 25 25 25 25 25 25 25 26 26
35 33 32 33 32 30 28 28 27 26 27 27 26 25 24 24 23 24 24 25 25 25 25 25 25 25 24 23 24 24 25 25 26 26 25 25 25 25 24 24 24 24 25 25 26 27 27 28 28 29 30 30 30 30 30 29 29 28 28 28 29 28 28
39 37 35 35 34 32 30 29 29 30 30 30 30 29 26 25 24 25 26 27 27 28 27 26 25 26 25 25 24 24 24 25 26 26 27 27 27 27 27 27 26 26 26 26 27 27 28 29 29 30 30 31 32 32 32 32 32 32 31 31 31 32 31
43 42 39 37 35 33 32 32 32 32 32 32 33 33 30 27 26 26 27 28 27 26 27 27 26 26 26 26 26 26 25 26 27 27 28 29 29 30 30 30 29 29 29 29 28 28 28 29 30 31 31 31 31 32 32 33 34 34 34 33 33 34 34
42 43 43 41 39 36 36 37 36 35 35 35 35 37 36 32 30 30 30 30 28 25 25 26 27 27 28 27 28 28 28 28 29 29 30 31 32 33 33 33 33 32 32 33 32 31 31 31 31 31 32 32 32 32 32 33 33 34 34 34 34 34 35
40 38 39 39 39 38 38 39 39 37 38 37 35 34 33 31 30 29 28 28 30 30 29 29 29 28 28 28 30 30 30 31 31 31 32 33 34 34 35 35 35 34 33 33 34 34 33 33 33 33 33 33 34 34 34 34 34 34 35 35 35 35 35
44 41 39 39 39 40 39 39 39 38 38 39 38 38 38 37 34 33 33 31 30 31 32 33 32 31 28 29 31 32 32 32 32 32 33 34 35 36 36 37 37 36 35 34 34 34 34 34 34 34 34 35 35 36 36 36 36 36 36 36 36 36 36
48 46 45 45 45 45 44 44 43 42 41 40 41 42 44 42 38 38 40 39 33 31 32 33 34 34 31 29 32 34 34 34 34 35 36 37 37 38 39 39 38 38 37 36 36 36 35 35 35 35 35 36 37 37 37 38 38 39 39 38 38 38 38
51 50 49 48 48 49 49 48 48 49 48 46 44 44 45 45 42 39 40 41 39 37 38 38 38 38 36 32 32 34 35 36 36 38 39 40 40 39 40 41 41 40 39 38 38 38 38 38 38 38 38 38 39 39 39 39 39 40 41 41 41 41 41
54 54 52 51 50 50 50 49 50 50 51 50 49 48 48 49 49 48 46 46 45 43 43 43 43 43 42 40 38 37 37 38 38 40 41 42 42 42 42 44 44 44 43 42 42 43 43 43 43 42 42 42 42 42 43 43 42 42 42 42 42 43 44
56 55 54 53 52 51 51 50 50 51 52 52 52 51 50 49 50 52 53 52 51 50 50 51 50 49 49 48 45 43 43 43 43 43 43 44 45 46 47 48 48 47 48 48 48 47 47 47 47 46 45 45 45 45 45 46 46 46 45 44 44 44 45
55 55 55 54 53 54 53 52 51 51 52 53 54 54 53 52 52 53 55 55 55 54 55 55 54 53 53 52 51 50 49 48 48 47 46 47 48 50 51 52 52 52 52 52 52 52 52 52 51 50 49 48 48 47 47 47 48 48 48 48 47 47 47
53 54 54 54 54 55 55 54 53 53 54 54 55 55 56 56 55 55 57 57 58 57 55 54 52 51 52 52 52 52 52 52 51 50 49 50 51 52 53 54 55 55 56 56 55 55 55 55 54 53 53 52 51 50 49 50 50 50 49 49 49 49 49
51 52 53 54 55 55 56 56 56 57 57 57 57 57 57 58 58 58 59 60 61 59 55 53 50 49 49 50 51 52 52 52 52 51 51 51 51 52 53 54 55 55 55 55 55 55 56 56 55 55 55 54 53 52 51 51 51 51 51 50 50 51 51
51 52 52 53 54 54 55 56 57 57 58 58 58 58 58 58 59 59 59 61 62 60 57 54 50 47 47 48 50 50 50 50 50 50 50 50 50 51 52 53 53 53 53 53 53 53 54 54 54 54 54 54 53 52 52 52 53 53 52 52 52 52 52
51 52 52 53 53 54 54 55 55 56 56 57 57 57 57 57 57 58 59 60 61 59 57 54 50 47 47 48 48 48 47 47 47 47 48 49 49 49 50 51 51 51 51 51 51 51 52 52 52 53 53 53 53 53 53 53 53 54 54 54 54 54 54
52 52 53 53 54 54 54 55 55 55 56 56 56 56 56 56 56 57 57 57 56 55 53 52 51 49 48 47 47 47 46 45 46 47 48 48 48 48 49 50 50 50 50 50 50 51 51 51 51 51 52 52 53 53 53 53 53 53 54 54 54 54 55
53 53 53 54 54 55 55 55 55 55 55 56 56 56 56 56 56 55 54 53 52 52 51 51 51 50 49 48 47 46 46 46 47 48 48 48 48 49 49 50 49 49 50 50 50 51 51 51 51 51 52 52 52 52 52 52 52 52 52 52 53 53 53
53 53 54 54 54 54 54 54 55 55 55 55 55 55 55 56 55 54 53 52 51 50 50 50 50 50 49 48 48 47 48 48 48 48 48 49 49 49 50 50 49 49 49 50 50 50 50 50 51 51 51 51 51 51 51 51 51 51 52 52 52 52 53
52 52 53 54 54 54 53 53 54 54 54 54 54 54 54 54 53 53 52 51 50 50 50 50 50 49 49 48 48 49 49 49 48 48 48 49 49 49 49 49 49 49 49 50 50 50 50 50 50 50 50 50 50 51 51 51 51 51 51 52 52 53 53
51 51 51 52 52 52 52 52 52 53 53 54 53 53 53 52 51 50 50 49 49 49 49 49 49 49 49 49 49 49 49 49 49 48 47 47 48 48 48 48 48 48 49 49 49 49 49 49 48 49 49 50 50 50 50 50 50 50 51 52 53 54 55
49 49 50 50 50 50 50 50 51 51 52 53 52 52 52 51 49 49 49 48 48 48 48 48 49 49 49 49 49 48 48 48 47 46 45 45 45 45 45 46 46 46 47 47 47 47 47 47 48 48 49 50 50 50 50 50 51 52 54 56 57 58 59

ECMWFFLT1_500_spd_015.txt.gz
Wind_Speed
15 15 15 15 16 16 17 17 18 18 18 18 18 18 18 18 18 18 18 19 20 20 20 21 22 22 22 22 21 22 21 21 21 21 21 20 20 20 20 20 21 20 20 21 22 22 22 22 21 21 20 19 19 16 13 13 17 23 28 31 33 33 36
17 17 17 17 17 17 16 17 18 18 19 19 19 18 18 18 18 18 18 19 19 20 20 21 21 21 22 22 22 21 21 20 20 20 20 20 19 19 19 20 21 20 20 21 21 22 22 22 21 21 20 20 18 15 14 14 14 15 19 24 30 33 35
19 19 19 19 19 18 17 17 18 18 19 19 19 19 19 19 18 18 18 18 19 19 19 20 20 20 20 20 20 20 19 19 19 19 19 19 18 18 19 19 20 19 19 20 21 21 21 21 21 21 21 20 19 19 19 18 16 14 15 17 23 29 33
21 20 20 20 19 19 18 18 18 18 19 19 19 19 19 19 18 18 18 18 18 18 19 19 19 19 19 19 19 18 18 17 17 17 17 18 17 17 17 18 18 18 19 19 20 21 21 21 21 21 21 21 21 21 20 19 17 17 16 16 19 23 29
22 21 20 20 19 19 19 18 18 18 18 19 19 18 18 18 18 17 17 17 17 17 17 17 17 18 18 18 17 17 16 16 16 16 16 16 17 17 16 17 17 17 17 18 19 20 20 20 20 20 20 21 21 22 21 21 20 19 18 17 17 20 24
23 22 20 19 19 19 18 18 18 18 18 18 18 18 18 17 17 17 16 16 16 16 16 16 16 15 15 15 15 14 14 14 14 14 15 15 16 16 16 15 15 15 16 16 17 19 19 19 19 19 19 20 20 20 21 21 21 20 20 18 17 18 19
23 22 20 19 18 18 17 16 17 17 18 18 18 18 18 18 17 17 16 16 15 15 15 15 15 14 14 13 13 12 11 11 11 12 13 13 14 15 15 14 14 14 15 15 15 16 17 17 17 18 18 18 19 18 19 20 20 21 21 19 18 18 18
22 21 19 19 18 17 16 15 15 16 17 17 17 17 17 17 17 17 16 16 15 15 14 14 14 14 14 12 11 10 9 9 9 9 10 11 12 13 13 13 13 12 13 13 13 14 15 15 15 15 16 16 17 17 17 18 19 21 21 19 18 18 19
21 20 19 18 18 17 15 14 14 14 15 16 16 16 16 16 16 16 16 15 15 14 14 13 13 13 13 13 11 10 9 8 8 8 8 9 10 11 11 12 12 11 11 12 12 12 13 13 13 13 14 14 15 15 16 17 18 19 20 19 19 19 20
21 20 18 17 17 17 15 13 14 14 15 15 15 16 16 15 15 14 14 14 13 13 13 13 13 13 13 13 12 11 10 9 8 8 8 8 8 9 10 10 11 11 11 11 11 11 11 12 12 12 13 13 13 14 14 15 16 17 18 18 18 19 19
22 20 19 17 17 17 16 14 15 16 16 16 16 16 16 15 14 14 13 13 13 13 13 13 14 14 13 13 13 13 12 11 10 9 9 9 9 9 10 11 11 11 11 11 11 11 11 11 12 12 12 13 13 14 14 15 15 16 17 17 16 17 17
24 22 20 18 18 17 17 17 17 17 18 18 17 16 16 15 15 14 14 13 13 13 13 13 14 14 14 14 14 14 14 13 12 11 11 10 10 10 11 11 12 12 12 12 12 12 12 12 12 12 13 13 14 15 15 16 16 16 17 17 17 16 17
26 25 23 21 20 19 19 19 18 18 19 18 18 17 16 16 16 15 14 13 14 14 13 13 13 14 14 15 15 15 15 15 14 14 13 13 12 13 13 13 14 14 14 14 14 14 14 14 14 14 14 15 15 16 17 18 18 18 19 19 19 18 18
29 29 26 23 22 21 20 20 19 19 19 19 19 18 18 18 18 17 16 15 15 16 15 15 15 14 14 14 14 15 15 15 15 14 14 14 13 13 14 14 14 15 16 16 16 16 16 16 16 16 17 17 17 17 18 19 20 20 21 21 21 21 21
33 33 28 23 22 21 20 21 20 20 19 19 20 20 20 20 20 20 19 19 19 19 19 19 18 18 17 16 16 16 16 16 16 16 16 16 16 15 15 15 15 15 16 17 18 18 18 18 19 19 19 20 20 20 20 21 21 22 23 23 23 24 24
34 34 29 25 24 23 22 23 23 22 21 21 22 23 23 22 21 22 22 22 23 23 23 23 22 21 20 20 19 19 18 18 19 19 19 19 19 19 18 17 17 17 16 17 18 19 20 20 20 20 21 22 22 22 23 23 24 24 25 26 26 26 26
33 34 33 32 31 28 25 26 27 25 24 23 23 23 24 24 24 24 25 25 25 26 27 27 26 24 23 22 22 21 20 19 19 20 20 20 21 21 21 20 19 19 18 18 18 19 20 21 21 22 22 23 23 24 24 25 25 26 26 28 29 29 29
35 36 37 38 34 29 27 27 28 28 27 26 26 25 25 26 26 27 27 28 29 29 29 30 29 27 25 24 23 23 22 21 21 21 22 21 21 22 23 22 21 21 21 20 20 20 21 22 23 23 24 25 25 26 26 26 26 27 27 28 29 30 31
35 37 38 38 35 31 29 29 29 31 32 31 29 28 28 28 29 30 30 31 32 32 32 31 30 30 28 26 25 24 24 23 23 23 23 23 23 24 25 25 24 24 23 23 23 23 24 24 25 26 27 27 28 28 28 28 28 28 28 28 29 30 31
35 37 39 39 37 34 33 32 32 33 34 34 32 32 32 31 31 32 32 33 34 36 35 32 30 31 29 26 25 24 24 25 26 25 25 24 24 25 26 27 27 26 26 25 25 25 25 26 27 28 29 29 30 30 30 30 30 30 30 30 30 30 31
38 39 40 40 39 37 36 36 35 34 33 34 34 35 36 35 35 35 36 35 34 33 33 32 30 30 28 26 26 25 26 27 28 28 27 27 27 27 27 28 28 28 28 28 27 27 27 28 28 29 30 30 31 32 32 32 32 32 32 31 31 31 32
43 42 42 43 43 43 42 41 40 38 37 36 35 36 37 36 35 35 36 37 33 29 29 30 30 28 28 28 28 27 28 30 30 30 29 29 29 28 28 29 30 30 31 31 31 31 31 31 31 31 31 31 32 32 33 33 33 33 33 33 33 33 33
48 47 46 46 45 45 45 44 44 44 43 42 41 40 39 38 38 38 37 37 36 33 33 33 33 32 32 31 31 31 30 30 31 31 32 32 31 31 31 32 33 33 34 34 35 35 35 34 34 34 33 34 34 34 34 35 35 35 35 35 35 35 35
51 51 51 50 49 48 47 47 47 48 47 47 46 45 45 45 45 45 42 40 40 40 40 39 38 37 36 35 35 35 34 33 32 32 33 33 33 33 34 34 35 35 36 37 38 38 38 38 38 37 37 37 38 38 39 39 39 39 39 39 38 38 38
54 55 55 55 54 53 52 51 51 52 51 51 50 50 49 49 49 49 47 45 45 45 45 44 44 44 42 41 40 40 40 41 39 38 37 37 38 39 38 39 39 40 41 42 43 43 42 42 42 42 42 42 42 43 43 44 44 45 45 44 43 43 42
54 55 56 57 58 58 58 57 56 56 55 54 54 53 53 52 51 50 49 48 48 49 49 49 49 49 48 47 47 46 46 47 47 46 46 46 46 46 45 45 46 46 46 47 47 47 46 45 45 45 45 46 46 47 47 48 50 50 50 50 49 48 47
50 52 53 55 56 57 58 58 58 58 57 56 55 55 55 54 54 52 51 51 51 51 52 53 52 51 50 50 50 50 50 51 51 52 52 52 51 50 49 49 49 48 48 48 48 48 47 47 47 47 48 48 48 49 50 51 52 53 53 53 53 52 52
49 50 51 52 53 53 54 54 55 55 55 54 54 54 54 54 54 54 54 53 52 51 52 53 53 52 52 51 50 50 50 51 52 53 54 55 54 53 52 51 50 50 50 49 49 48 47 47 47 48 48 48 49 50 50 51 52 53 53 54 54 54 54
50 51 51 52 52 51 51 51 52 52 52 53 53 53 53 53 53 53 53 52 51 51 51 52 52 51 51 51 52 52 51 52 52 51 51 51 52 51 51 51 50 51 51 50 49 48 48 48 48 47 47 48 48 49 50 51 51 51 52 53 54 54 54
52 52 52 52 52 51 51 51 51 51 51 52 52 52 52 53 52 52 52 51 51 50 50 50 49 49 49 49 50 50 50 51 51 50 49 50 49 49 49 49 49 49 48 48 48 48 48 48 48 48 48 48 48 49 49 50 50 50 51 52 53 54 54
52 52 52 52 52 51 50 50 50 51 51 52 52 52 52 52 51 51 51 51 51 50 50 49 48 48 47 47 47 47 47 47 48 48 49 50 49 49 48 47 47 47 47 47 47 47 47 48 48 48 48 48 48 49 49 49 49 50 50 51 52 53 53
51 51 51 52 52 51 51 51 51 51 51 52 52 53 53 53 52 51 50 51 51 51 51 51 50 48 48 47 47 46 46 45 46 46 47 47 47 47 47 46 46 46 46 46 46 46 47 48 48 48 48 48 49 49 50 49 49 50 50 50 51 51 52
52 51 51 51 51 51 51 52 52 52 53 53 53 54 54 54 53 53 52 52 52 52 53 52 51 50 50 48 47 47 46 45 45 45 45 46 46 46 45 45 45 45 45 45 45 46 47 47 47 48 48 49 49 50 50 50 50 50 50 50 50 51 51
52 52 51 50 50 50 50 51 52 53 53 54 54 55 55 54 54 53 53 53 53 53 53 53 52 51 50 49 48 47 47 46 45 45 46 46 47 46 45 45 45 45 45 46 46 47 47 47 48 49 50 50 50 50 50 50 50 50 50 50 50 51 51
52 52 51 50 49 48 49 49 50 51 52 52 53 54 53 52 51 52 52 52 52 52 52 52 51 50 49 49 48 47 47 47 46 46 46 46 47 46 46 45 46 46 47 47 47 48 48 48 49 50 50 50 50 50 50 50 50 50 50 50 50 50 51
50 50 50 49 48 47 47 48 48 48 49 50 50 51 50 50 49 49 50 50 50 49 49 49 48 47 47 47 47 47 47 47 46 46 46 47 47 47 47 47 47 48 48 48 47 47 48 49 50 50 50 50 49 49 49 49 49 49 49 49 49 50 51
49 49 49 49 48 47 46 46 46 46 46 47 48 48 47 47 47 47 47 47 47 46 45 45 45 45 45 45 45 46 46 46 46 47 47 48 48 49 49 48 47 47 47 46 45 46 47 48 48 48 48 48 47 47 46 46 46 47 47 47 48 49 50

ECMWFFLT1_500_spd_018.txt.gz
Wind_Speed
16 14 13 12 12 12 13 12 11 10 10 10 10 11 12 13 13 14 14 14 14 15 15 15 16 16 16 17 17 17 17 17 18 18 18 18 18 19 19 20 20 20 20 21 21 22 23 23 22 22 23 23 23 23 22 21 20 19 18 21 24 25 27
15 16 15 14 14 13 14 15 13 11 10 10 10 10 11 12 13 13 14 14 14 14 15 15 15 16 16 16 17 17 17 18 18 19 19 19 19 19 19 20 20 20 20 20 21 22 23 24 23 23 24 24 24 24 23 22 20 18 16 18 20 23 26
15 16 17 17 16 15 15 15 15 13 11 10 10 10 11 12 13 13 13 14 14 14 15 15 15 15 15 16 16 17 17 17 18 18 19 19 19 19 19 19 20 19 19 19 21 22 23 23 24 24 24 25 25 25 25 23 21 20 19 18 17 17 20
16 17 19 19 18 17 15 16 16 14 12 10 10 10 11 12 12 13 13 13 14 14 14 14 14 14 15 15 15 15 16 16 17 17 18 18 19 18 18 18 18 18 18 19 20 21 22 22 22 23 23 24 25 25 25 25 22 20 20 19 17 16 16
19 18 20 21 21 19 16 15 16 14 12 10 10 10 11 11 12 12 13 13 13 13 13 13 13 13 14 14 14 14 14 14 15 15 16 16 17 17 16 16 16 16 16 17 18 19 20 21 20 21 22 23 24 24 25 25 23 21 21 20 19 17 17
20 19 19 21 21 20 17 16 15 14 11 9 9 10 11 11 11 11 12 12 12 13 13 13 13 12 12 13 13 13 13 13 13 13 14 14 14 14 14 13 12 13 14 15 16 17 18 18 18 18 19 20 21 22 23 23 22 22 21 20 19 18 18
20 18 19 21 21 20 18 16 15 13 10 8 8 9 11 11 12 11 11 11 12 12 12 12 12 12 11 11 12 12 12 12 12 12 12 12 12 12 12 11 10 10 10 11 12 13 14 15 14 15 16 17 18 19 20 21 21 20 19 18 18 18 19
19 17 20 22 21 19 18 16 14 12 9 7 7 8 9 10 11 11 11 11 11 11 12 12 12 11 11 10 10 10 10 10 11 11 11 11 11 11 11 10 9 9 9 9 9 9 10 11 11 11 12 13 14 15 16 17 18 18 17 17 17 18 19
19 18 20 22 21 19 17 16 14 12 10 7 7 8 9 9 10 10 11 10 10 10 10 11 11 11 11 10 10 9 9 9 10 11 11 11 11 11 11 10 9 9 9 9 9 9 9 9 9 8 9 10 12 12 13 14 15 15 15 16 16 17 18
21 21 21 22 22 20 17 16 15 13 11 10 8 9 9 10 10 10 10 10 10 10 10 10 10 10 10 11 11 10 10 10 10 10 11 11 11 11 11 11 10 9 9 9 9 9 9 9 9 9 8 9 10 11 11 12 13 12 13 14 15 15 16
22 23 22 22 22 21 18 17 16 15 13 12 10 10 10 10 10 10 10 10 10 10 10 11 11 11 11 11 11 11 11 11 11 11 12 12 12 12 12 12 11 10 9 9 9 10 10 10 10 10 10 10 10 11 11 12 12 12 12 13 14 14 14
21 23 24 22 20 21 20 19 18 16 15 14 12 12 12 12 12 12 11 11 11 11 11 11 11 11 12 12 12 12 12 13 13 13 13 13 13 13 13 13 13 12 11 11 10 10 10 11 11 11 11 12 12 12 13 13 13 13 13 14 14 14 14
21 24 25 23 19 20 21 20 19 18 16 15 14 14 14 14 14 14 14 14 14 13 12 12 11 11 12 13 13 13 13 13 14 14 14 14 15 15 15 15 15 15 14 14 13 12 12 12 12 12 13 13 14 14 15 15 15 15 15 16 16 16 17
22 24 25 24 21 20 21 21 20 19 18 17 17 17 17 17 16 16 17 17 17 17 16 15 13 13 13 14 15 15 15 15 15 15 15 15 15 15 15 16 16 16 16 15 15 14 14 13 14 14 14 15 15 16 16 17 18 18 18 18 18 19 19
22 23 24 25 23 21 22 22 21 19 20 19 19 20 19 19 19 18 18 19 19 19 19 18 17 16 16 16 17 17 18 18 18 18 18 18 17 17 17 16 16 16 16 16 16 16 15 15 15 15 16 16 17 17 18 19 20 20 21 21 21 21 22
23 23 24 26 26 24 23 24 23 21 20 21 22 22 22 21 21 20 20 21 21 21 20 20 20 20 20 19 19 19 20 21 22 22 22 22 21 20 19 19 18 18 18 18 18 18 17 17 17 16 16 17 17 18 18 19 20 21 22 23 24 24 25
25 25 25 26 27 26 25 26 27 25 23 23 24 25 25 24 23 22 22 23 23 23 22 22 22 22 23 23 22 23 23 23 24 25 25 25 24 23 21 21 20 20 19 19 19 19 18 18 18 17 17 17 17 18 18 19 20 21 22 24 25 25 26
28 28 26 26 26 25 25 27 28 27 26 26 26 26 27 27 26 25 25 25 25 25 24 24 24 25 25 25 26 26 26 26 26 26 26 26 26 25 24 22 22 21 20 20 20 19 20 19 19 19 19 19 19 20 20 20 21 21 22 24 25 26 27
29 29 29 29 27 27 28 28 28 28 27 26 25 26 27 27 28 28 28 28 27 28 27 26 27 28 28 29 29 30 30 29 28 27 28 27 27 26 26 25 24 24 23 22 22 22 22 22 21 21 22 22 22 22 22 22 23 23 24 25 26 27 28
31 32 32 32 30 30 31 31 30 30 29 27 25 24 24 25 27 29 31 31 30 30 29 28 29 32 33 34 34 34 33 31 29 29 29 28 28 28 28 28 27 27 26 25 25 24 24 24 23 23 23 24 24 24 25 25 25 25 26 27 27 28 29
35 36 36 35 34 32 32 33 32 32 33 32 29 27 28 28 27 27 29 32 33 33 32 31 32 34 36 37 37 35 33 32 31 31 30 28 28 28 29 30 30 29 29 29 28 27 27 26 26 26 26 26 27 27 27 27 27 28 28 29 29 30 31
39 40 39 39 37 35 33 34 34 34 35 36 36 35 35 34 32 31 30 30 31 33 34 34 35 35 35 35 33 30 29 31 32 32 31 30 30 30 31 32 32 32 32 31 30 30 30 29 29 29 29 29 29 29 29 30 30 30 30 31 31 32 33
40 41 42 42 41 39 37 37 37 38 39 40 41 41 39 38 37 37 36 35 34 34 35 37 37 36 35 34 33 32 32 32 31 32 33 33 33 34 34 34 34 34 33 33 33 33 33 32 32 32 31 31 31 32 34 35 35 35 35 35 35 35 36
40 41 42 43 43 42 42 42 42 42 43 44 45 45 44 42 41 40 40 40 39 39 39 40 40 40 39 39 38 38 39 39 36 34 35 35 36 36 36 35 34 34 33 34 35 36 34 33 34 35 35 35 37 40 41 42 42 42 41 41 40 40 40
40 41 42 43 43 42 42 42 42 43 43 44 45 46 45 45 45 44 44 44 44 44 44 43 43 43 43 42 41 41 42 43 42 40 40 40 41 41 41 40 39 39 39 38 38 38 37 37 39 41 43 44 45 47 47 47 47 46 46 45 45 45 45
39 40 41 41 41 40 40 41 41 41 41 42 42 43 44 44 45 46 46 47 48 48 48 47 46 45 44 43 43 44 44 45 45 44 44 45 45 45 46 47 47 48 48 48 46 45 45 46 48 49 50 51 51 51 50 49 49 49 48 48 48 48 48
39 39 39 39 39 40 40 41 42 42 42 42 42 42 42 43 44 45 45 46 46 47 47 47 46 45 44 43 43 44 45 46 47 47 47 47 47 47 47 48 50 51 53 54 53 51 50 51 52 52 53 54 53 52 51 50 50 50 49 49 49 49 50
41 40 40 40 41 43 44 44 44 44 44 44 44 44 44 44 44 44 44 45 44 44 44 44 44 44 43 43 43 43 44 45 46 47 47 47 48 48 48 48 48 50 51 52 51 50 50 51 51 52 52 51 51 50 50 50 50 50 50 50 51 51 51
43 41 42 43 45 47 48 48 47 47 48 48 48 48 47 46 45 45 45 45 44 44 44 44 43 43 44 43 43 43 43 44 45 46 47 47 47 48 47 46 46 47 48 48 47 47 48 50 50 50 50 50 49 50 51 51 51 51 51 52 52 52 52
45 44 45 46 48 49 50 50 51 51 51 51 51 51 50 49 48 47 46 46 45 45 45 45 45 44 44 44 44 44 44 44 45 46 46 47 46 46 46 45 45 46 48 47 47 47 48 48 49 49 49 49 49 50 52 52 52 52 52 52 52 52 53
48 49 50 50 51 52 52 52 53 53 53 53 52 52 51 51 50 49 48 48 47 46 45 45 45 45 45 45 45 45 44 44 44 45 45 45 45 45 44 45 45 46 47 47 47 47 47 48 48 48 49 48 49 50 51 52 52 52 52 52 52 52 52
53 54 54 54 53 53 53 53 54 54 54 53 52 51 51 51 51 50 50 49 48 48 47 46 46 46 46 46 46 46 46 45 45 46 46 46 46 45 44 45 46 46 46 46 47 47 48 48 48 49 49 49 49 50 51 51 51 51 52 52 52 52 53
56 55 55 54 54 53 54 54 55 54 53 52 51 50 49 50 51 51 51 51 51 51 50 50 49 48 48 48 48 47 47 47 47 47 48 48 47 46 46 46 47 47 46 47 47 48 48 49 49 49 49 49 50 50 51 51 52 52 52 52 53 53 54
57 56 55 54 54 54 55 55 55 54 53 53 51 50 50 50 51 51 52 52 52 52 52 51 50 49 49 49 48 48 47 47 47 47 47 47 46 46 47 47 48 48 48 49 49 49 49 49 49 49 49 50 51 51 51 51 52 53 53 54 54 55 55
60 59 57 56 55 55 54 54 54 54 53 52 51 50 50 49 50 50 50 50 50 50 49 49 48 48 48 47 47 47 46 45 45 45 45 45 46 47 47 48 48 48 48 49 49 49 49 49 49 50 50 51 51 52 52 53 53 54 55 55 56 56 57
62 61 59 58 56 55 54 53 52 52 52 50 49 48 47 47 48 48 48 48 48 48 47 47 47 47 46 46 45 45 44 44 43 43 44 44 45 46 47 47 47 48 48 48 48 49 49 50 50 50 51 51 52 52 53 54 54 55 55 56 56 56 57
62 61 60 59 57 56 54 53 52 51 50 49 47 46 46 46 46 46 46 46 46 46 46 46 46 46 45 45 44 44 43 43 42 43 43 44 44 44 45 45 46 47 47 48 48 49 49 50 50 50 50 50 50 51 51 52 53 53 54 54 54 54 55

ECMWFFLT1_500_spd_021.txt.gz
Wind_Speed
14 15 16 18 18 19 19 19 18 16 16 17 17 17 18 18 18 18 18 19 19 18 17 17 17 17 18 18 19 19 20 21 22 22 23 23 24 24 24 24 24 24 24 25 25 25 25 24 24 24 24 24 24 24 25 25 24 23 23 23 23 22 21
18 15 14 17 19 18 18 18 19 19 17 17 17 17 17 17 17 17 17 18 17 17 16 16 16 16 17 18 18 19 20 20 21 22 22 23 23 23 23 24 24 24 25 25 25 25 25 25 25 25 25 25 25 25 25 26 25 24 23 22 22 23 20
19 15 14 16 19 20 19 18 18 18 18 17 17 16 15 14 14 15 15 15 16 15 15 15 16 16 17 18 18 19 19 20 20 21 21 22 22 22 23 23 23 24 24 25 25 25 25 25 25 25 26 26 25 25 25 26 25 24 23 23 23 24 23
20 19 16 16 19 22 22 20 17 16 17 16 16 16 14 12 12 13 13 14 14 14 15 15 16 16 17 17 18 18 18 19 19 19 20 20 20 21 22 22 22 23 24 24 24 24 24 24 24 25 26 26 25 25 24 25 25 25 25 24 24 25 25
22 23 23 22 24 25 24 22 19 17 16 15 15 15 14 12 11 12 13 13 13 13 13 14 15 15 16 16 16 17 17 17 18 18 18 19 19 20 20 21 21 21 22 22 22 22 22 22 23 24 24 25 25 24 23 23 24 24 25 25 25 26 27
26 27 27 27 27 25 23 21 19 17 17 15 14 13 13 12 11 12 12 12 12 11 11 12 13 14 14 15 15 15 16 16 16 17 17 18 18 19 19 19 19 19 20 20 20 20 20 20 21 22 22 23 23 22 22 22 23 24 24 24 25 26 27
29 27 24 24 24 22 21 19 17 16 16 15 13 12 12 11 11 11 11 11 11 11 11 11 11 12 12 13 13 14 14 15 15 16 16 17 17 18 18 18 18 18 18 18 19 18 18 18 19 20 20 20 20 20 20 20 21 22 23 23 24 24 26
27 24 19 20 21 20 19 18 16 16 16 15 14 13 12 11 10 10 10 10 10 10 10 10 10 10 11 11 12 12 13 13 14 14 15 15 16 16 17 17 17 16 16 17 17 17 17 17 17 17 17 17 17 18 18 19 20 21 21 21 21 22 23
18 17 17 19 20 19 18 18 17 17 16 15 15 14 13 12 11 10 9 8 8 8 8 9 9 9 9 9 10 10 11 11 12 12 13 13 14 15 15 15 15 15 15 16 17 17 17 16 16 16 15 15 15 15 15 15 16 17 18 18 18 19 20
15 15 16 18 18 18 19 19 19 18 16 15 15 15 15 14 12 11 9 8 8 8 8 8 8 8 8 8 8 8 9 10 10 11 12 12 13 14 14 14 14 14 14 15 15 16 16 16 16 15 15 15 14 14 14 13 13 14 15 15 16 16 17
15 15 16 16 17 18 20 21 21 20 18 16 16 15 15 15 14 13 10 9 8 8 8 8 9 9 9 9 8 8 8 9 10 10 11 12 12 13 14 14 14 14 14 14 14 15 15 16 16 16 15 15 14 14 14 13 13 13 13 14 14 14 15
15 15 16 16 17 18 20 21 22 22 20 17 17 16 16 16 16 15 13 11 10 10 10 10 10 10 10 10 10 9 9 9 10 11 11 12 13 13 14 14 15 15 15 14 14 14 15 15 15 16 16 16 15 15 15 14 14 14 14 14 14 14 15
15 15 16 17 17 17 20 22 24 23 21 19 17 17 17 16 16 16 16 15 13 12 12 11 11 11 11 11 11 10 10 10 10 11 12 13 14 14 15 15 16 16 16 16 16 15 15 15 16 16 17 17 17 16 16 16 15 15 16 15 15 16 16
16 15 16 16 17 17 19 21 21 19 20 19 19 19 19 18 18 17 17 17 15 14 14 13 13 13 13 13 12 12 12 12 12 13 13 14 14 15 15 16 17 17 17 17 17 17 17 17 16 17 17 17 18 18 18 18 17 17 17 17 17 17 17
16 16 16 16 16 17 17 16 16 17 20 21 21 21 21 19 19 18 18 17 16 15 15 15 15 15 15 15 15 14 14 15 15 15 16 16 16 17 17 18 19 19 19 19 19 19 18 18 17 17 18 18 18 19 19 19 19 19 18 18 18 19 19
16 16 16 16 16 17 16 16 17 19 22 23 24 23 22 21 20 20 19 19 19 17 16 16 16 16 16 17 18 18 17 17 17 18 19 19 20 20 20 20 20 21 22 22 22 22 21 21 21 20 20 19 19 19 19 19 20 20 20 19 19 19 19
17 17 18 18 18 18 18 18 17 18 22 24 24 23 22 21 20 19 19 19 20 20 19 18 18 18 18 19 20 20 20 20 20 20 21 22 22 23 23 23 22 23 23 24 24 24 24 24 24 24 23 22 22 21 20 20 20 20 21 21 20 19 19
20 21 21 20 19 19 19 20 19 19 20 20 20 21 22 22 21 20 20 20 20 21 21 20 19 20 21 22 22 22 22 22 22 22 23 24 25 26 26 25 25 24 24 24 25 25 25 26 25 25 25 24 24 23 22 21 21 21 21 22 22 22 21
23 23 22 21 21 21 21 21 20 21 21 22 23 24 23 23 23 24 25 25 25 25 25 24 23 23 24 24 24 24 24 24 24 24 25 26 29 30 31 29 27 26 26 25 26 26 26 27 27 27 27 26 26 25 25 24 24 24 23 23 23 24 23
24 24 23 22 23 23 22 21 21 23 25 26 26 26 25 26 26 26 27 27 27 27 28 27 28 28 28 28 27 27 26 26 25 25 26 28 30 32 33 31 30 29 28 27 27 27 27 28 28 28 29 28 28 28 28 27 26 26 26 25 25 25 24
27 25 24 23 23 24 24 24 25 25 26 27 26 26 27 28 26 25 26 27 26 26 26 27 28 29 30 31 30 30 29 29 29 27 26 26 28 30 31 32 31 31 31 30 29 28 28 29 29 30 30 30 30 30 30 29 29 28 28 27 27 26 25
29 28 26 25 26 26 25 26 27 26 26 27 27 26 26 26 26 25 25 26 26 26 27 28 28 29 29 29 30 30 31 32 32 31 28 27 26 27 28 30 32 32 32 32 32 31 31 32 32 33 33 33 33 33 33 32 32 31 30 30 30 30 30
32 31 30 28 28 28 26 26 27 27 26 28 29 29 30 30 30 30 30 30 31 32 33 32 31 31 31 30 30 31 32 33 34 34 33 32 31 30 30 31 33 33 33 34 35 35 36 37 37 37 36 36 36 36 36 36 36 35 34 34 34 35 35
36 36 34 32 31 30 28 28 30 29 29 30 31 31 32 32 32 32 33 34 36 37 36 33 32 33 33 33 33 33 34 34 35 36 36 35 36 35 34 36 37 37 37 38 38 38 38 39 39 39 38 37 38 38 38 39 39 39 38 38 38 39 40
39 38 37 36 34 32 31 32 33 32 31 32 33 33 33 33 33 33 34 34 36 36 33 32 32 33 34 35 36 36 37 37 38 39 38 38 38 39 39 40 42 41 41 42 42 43 43 43 42 42 40 40 41 42 42 42 43 42 42 42 43 44 45
41 40 40 39 38 37 35 34 34 34 33 34 35 35 34 33 32 32 33 34 36 35 33 32 33 34 35 36 37 38 39 39 39 40 41 41 42 42 42 44 44 45 45 46 46 46 47 47 47 47 46 46 48 50 51 51 50 50 50 50 51 52 54
43 42 41 41 41 40 39 38 37 36 36 36 36 36 35 35 34 35 37 38 37 37 36 36 36 36 37 37 37 38 38 39 39 39 40 42 42 43 44 45 46 47 48 49 49 49 49 50 50 51 50 50 51 53 55 55 55 56 56 56 57 58 58
44 43 42 42 41 41 40 40 39 39 39 38 38 37 37 38 38 39 40 40 40 40 40 40 40 40 39 39 39 39 39 39 39 39 40 40 41 42 44 45 46 47 48 49 49 49 50 52 52 52 52 51 51 53 54 55 55 55 55 56 56 57 57
42 42 42 42 42 42 42 42 42 41 40 40 39 39 40 41 42 42 43 43 43 43 44 44 44 43 42 41 41 40 40 40 41 41 41 41 41 42 43 44 45 45 46 47 47 48 50 52 52 52 52 51 51 52 54 54 55 54 54 55 56 56 56
43 44 44 44 45 45 44 44 44 43 42 41 41 41 42 43 44 44 45 45 45 45 46 47 47 46 44 43 43 42 42 42 42 42 43 43 43 43 43 44 44 45 45 46 47 48 49 50 51 52 52 52 52 53 54 55 55 55 55 55 56 56 56
45 46 46 46 45 45 45 45 44 44 43 42 42 43 44 45 46 46 46 46 46 46 47 48 48 47 45 45 44 44 44 44 43 43 43 43 43 44 44 45 45 45 46 47 48 49 50 51 52 53 53 53 54 54 55 55 55 56 56 56 56 56 56
43 42 43 43 44 45 46 46 46 46 45 45 45 47 48 48 48 48 47 47 47 47 48 48 47 47 46 46 46 46 45 45 44 44 44 44 44 45 45 45 46 46 47 48 49 50 51 52 53 53 53 54 54 55 55 55 55 55 55 55 56 56 57
45 45 45 45 45 45 46 48 49 49 49 50 51 51 50 49 48 48 47 47 47 48 48 48 48 48 48 47 47 47 47 46 46 46 45 45 45 45 45 45 46 46 46 47 48 49 49 50 51 51 52 53 54 54 54 54 54 54 55 55 56 57 58
48 50 51 50 50 50 51 51 53 54 55 55 54 53 51 49 48 48 48 48 48 48 48 48 48 48 48 48 47 47 47 46 46 45 45 45 45 45 44 45 45 46 46 46 46 46 47 47 48 49 50 51 52 53 53 54 54 55 55 56 56 57 57
56 56 57 58 56 56 56 56 56 56 57 56 55 53 53 52 51 50 50 49 48 48 48 47 47 46 46 46 46 45 45 45 45 44 44 44 44 44 44 45 46 46 46 45 44 44 45 46 47 48 48 50 50 51 52 53 54 55 55 55 55 56 57
62 61 63 65 63 61 60 58 57 56 56 56 56 56 56 55 53 52 50 49 48 47 47 46 45 44 44 44 44 43 43 43 42 42 42 43 43 44 45 45 46 45 44 44 44 44 45 45 45 46 46 47 48 49 50 51 52 53 54 54 54 55 56
60 60 63 65 63 62 61 59 58 58 58 57 58 57 57 55 53 51 50 49 48 47 46 45 44 44 43 43 43 42 42 42 42 42 42 42 43 44 45 45 45 44 44 44 44 45 45 45 44 44 45 45 45 46 47 48 49 50 50 51 52 53 54

ECMWFFLT1_500_spd_024.txt.gz
Wind_Speed
17 16 15 15 16 16 15 12 11 13 16 17 18 19 19 19 20 21 21 20 20 20 20 21 21 22 22 23 24 25 26 27 27 26 25 24 25 25 26 26 26 26 27 27 28 27 27 27 27 27 27 27 28 28 27 28 28 28 27 26 25 25 26
19 18 18 20 21 20 18 14 11 12 15 17 18 20 20 20 20 21 22 22 22 22 22 22 22 22 22 23 24 24 25 26 26 26 26 25 25 26 26 26 27 27 27 28 28 29 29 29 29 28 28 28 28 29 28 28 28 28 28 28 28 28 28
21 20 20 21 20 20 19 15 11 12 15 17 18 20 21 21 21 22 22 23 23 23 23 23 23 22 22 22 22 23 24 24 24 25 25 25 25 25 25 25 26 26 27 27 28 28 29 29 29 29 28 28 28 28 28 28 28 28 28 28 28 28 29
21 20 20 21 19 19 19 18 16 18 19 19 19 19 20 21 21 22 23 24 24 24 24 23 23 22 22 21 21 22 22 22 22 23 23 23 23 24 24 24 25 25 26 26 27 27 28 29 29 28 28 28 28 28 28 28 27 27 27 27 27 28 29
22 20 21 22 22 21 21 20 21 22 20 18 18 18 19 20 21 21 22 24 24 24 24 23 23 22 21 20 20 20 20 20 20 21 21 21 22 22 23 23 24 24 25 25 25 26 27 27 27 27 27 26 27 27 27 27 26 26 26 26 26 26 27
24 23 23 24 26 27 25 22 20 18 17 16 16 16 17 18 19 20 22 23 24 24 23 23 21 20 19 17 17 17 17 18 18 19 19 20 21 22 22 23 23 23 23 24 24 24 25 25 25 25 25 25 25 25 25 25 25 25 24 24 24 24 25
25 25 25 27 30 30 27 22 17 15 14 14 13 14 15 16 17 19 20 22 22 22 22 21 20 18 16 15 14 14 14 15 16 17 17 18 19 20 21 21 22 22 22 22 22 22 22 22 22 22 22 22 22 22 22 22 23 22 22 22 22 22 23
24 24 23 24 25 23 21 18 14 12 12 12 12 13 14 15 15 17 18 20 21 21 21 21 20 18 16 14 13 12 12 13 13 14 14 15 15 16 17 18 18 19 19 19 19 19 19 20 20 19 19 19 19 19 19 19 19 19 19 20 20 20 20
20 19 18 18 15 15 15 15 13 13 12 12 12 12 13 14 15 15 17 19 20 20 20 20 20 19 17 16 14 13 12 12 12 12 11 11 11 12 12 13 13 14 15 15 16 16 17 17 17 16 16 15 15 16 16 16 16 16 16 16 17 17 17
16 15 16 16 14 13 15 15 14 14 13 13 13 12 13 14 15 15 16 17 18 19 19 19 19 18 18 17 17 16 15 14 13 12 11 10 9 9 9 9 10 10 11 12 12 13 14 15 15 15 14 14 14 14 14 13 14 14 13 13 13 13 14
12 12 13 13 13 14 15 16 15 14 15 15 14 13 14 15 16 16 16 17 17 17 18 18 17 17 17 17 17 17 17 16 15 14 13 11 10 9 9 9 9 9 9 10 10 11 12 13 14 14 14 14 13 13 13 13 13 12 13 13 12 12 12
10 10 11 12 13 14 15 15 14 15 16 17 16 16 16 16 17 18 17 17 17 17 17 17 17 17 17 17 17 17 17 16 16 15 14 13 12 11 10 10 10 10 10 11 11 12 12 13 14 14 14 14 14 14 14 14 13 13 13 13 13 13 13
11 12 12 12 13 14 14 14 14 15 17 19 20 18 16 16 17 18 18 18 18 17 17 17 17 17 17 17 17 17 17 16 16 15 14 13 12 11 11 10 10 11 11 12 12 13 14 14 15 15 16 16 16 16 16 15 15 14 14 14 14 14 14
11 11 11 12 12 13 13 14 14 15 17 18 17 15 14 15 16 17 18 19 19 18 18 18 18 18 18 18 18 17 17 17 16 15 14 13 12 12 11 11 12 12 13 13 14 14 14 15 16 16 17 17 17 18 18 18 17 16 16 16 16 16 16
8 8 9 10 10 12 13 13 14 15 14 14 14 15 16 16 16 17 19 19 20 19 18 18 17 18 18 19 19 19 19 18 17 16 15 14 13 13 13 14 14 15 16 17 17 17 17 17 17 17 18 18 18 18 19 19 19 18 18 17 17 17 17
10 10 11 11 10 10 12 13 13 14 14 15 16 18 18 18 18 18 19 20 20 20 19 19 18 18 18 19 20 20 20 20 20 19 18 16 15 15 15 15 16 17 18 19 20 21 21 21 21 20 20 20 21 21 20 20 20 21 20 19 19 18 18
14 13 13 12 11 11 13 13 14 14 14 15 17 18 19 19 19 18 17 18 20 20 20 19 19 20 20 20 20 20 21 21 22 22 21 19 19 18 18 18 17 17 19 20 21 22 23 24 23 23 22 22 22 22 22 22 22 22 23 22 22 21 20
16 15 14 13 13 13 13 14 14 15 15 16 17 19 19 18 17 16 16 17 18 20 20 20 21 21 21 21 20 20 20 21 23 23 23 22 22 21 21 20 19 19 19 21 22 24 25 25 26 25 25 25 24 24 24 24 24 24 24 24 24 24 23
17 17 15 14 13 14 14 15 16 17 17 17 17 18 19 19 20 20 20 19 19 20 22 23 23 23 22 21 20 20 21 22 24 25 25 24 23 23 22 22 23 23 23 23 24 25 26 26 27 27 28 27 27 27 27 27 27 27 27 27 27 27 27
20 19 18 17 16 16 17 17 18 18 18 17 18 19 21 23 23 23 22 21 21 21 23 24 25 25 25 24 23 23 23 23 25 27 27 27 25 24 24 25 26 27 27 26 26 26 26 27 27 28 29 30 30 29 30 30 30 30 31 31 31 31 30
26 25 25 25 24 22 20 20 19 19 20 21 22 22 23 24 25 23 22 23 24 24 25 25 26 27 27 26 25 24 22 23 25 26 27 28 27 26 26 26 28 30 31 30 29 27 27 28 28 29 29 29 30 30 31 32 32 33 33 34 34 34 34
31 31 31 31 30 28 25 23 22 22 23 25 25 24 24 25 24 23 23 24 24 24 23 23 24 26 28 27 26 24 24 26 27 27 28 28 28 28 27 27 29 31 32 33 32 30 30 30 29 30 30 30 31 31 32 33 34 35 36 36 37 37 37
34 33 34 34 33 31 29 27 25 25 26 27 26 25 25 24 23 23 26 26 24 23 25 25 25 27 27 28 28 29 30 31 31 32 33 33 32 31 30 28 29 31 33 35 35 34 34 33 32 31 32 33 34 35 36 37 37 38 38 39 40 40 41
37 36 36 36 35 34 32 30 29 29 28 28 27 26 26 27 28 28 29 28 25 25 28 29 28 28 29 31 32 34 33 32 32 34 35 36 36 35 35 33 33 34 36 38 39 38 38 37 37 36 36 37 38 40 41 41 40 40 40 40 41 41 42
39 38 37 37 37 36 33 31 31 31 31 31 31 29 29 30 31 31 30 31 30 30 31 32 32 34 35 35 34 32 31 31 33 34 34 35 36 37 37 38 38 39 40 41 43 43 43 43 43 42 43 43 44 45 45 46 45 44 44 45 45 45 45
41 39 38 38 37 36 34 34 35 34 34 33 33 31 30 29 29 30 31 33 34 34 34 35 35 36 36 34 32 31 32 33 34 35 35 36 37 38 38 39 39 40 41 43 44 45 46 46 46 46 47 47 48 48 49 49 49 48 48 50 51 51 51
41 40 40 40 39 39 39 40 40 38 37 37 35 34 34 33 33 33 34 35 36 36 35 35 35 34 33 33 34 35 36 36 35 35 36 37 38 39 39 40 40 41 42 43 44 45 46 46 47 47 48 48 49 50 51 51 50 50 50 52 53 54 55
41 42 42 42 42 43 43 43 43 41 40 41 41 40 39 38 37 36 36 36 36 36 35 34 34 34 34 35 36 38 38 38 38 37 37 37 38 39 40 41 42 42 43 43 44 44 45 46 47 47 48 49 49 50 50 50 50 51 52 53 54 54 55
43 43 43 44 44 44 43 41 40 40 39 40 41 41 40 39 37 36 36 36 36 36 35 35 35 36 37 38 39 40 41 41 40 39 39 39 39 39 40 41 42 43 43 44 44 45 46 47 47 48 49 50 50 50 51 51 52 52 53 54 54 55 55
41 41 42 42 41 40 38 37 37 37 38 39 40 41 41 40 38 37 37 36 36 37 37 37 37 38 40 41 42 43 43 43 42 42 42 42 41 40 40 41 41 42 43 43 44 45 46 47 48 49 50 50 51 51 51 52 53 53 54 54 55 56 56
39 40 40 40 40 39 40 41 41 41 42 42 43 43 42 41 39 38 38 38 38 38 39 39 40 41 42 43 44 44 44 44 44 44 44 43 43 42 42 42 42 42 42 43 44 45 46 47 47 48 49 49 50 50 50 51 52 52 53 53 54 55 57
40 41 40 40 40 40 41 41 41 41 40 41 41 41 40 39 39 38 39 39 40 40 41 42 42 43 44 45 44 44 44 44 44 45 45 44 44 43 43 43 43 43 43 43 44 45 45 46 46 46 47 47 47 47 48 49 50 51 51 53 54 55 56
38 39 39 39 39 38 37 38 39 38 38 39 39 40 40 39 39 40 41 42 42 43 43 44 44 45 46 45 45 45 45 45 46 45 45 44 44 44 44 44 44 44 44 44 45 45 45 45 44 44 44 45 46 46 47 48 48 49 50 51 52 53 54
39 39 40 41 40 39 38 38 38 38 39 41 42 42 42 42 42 42 43 44 44 45 45 46 46 46 46 45 46 46 46 47 46 46 45 44 44 43 43 43 44 44 45 45 45 45 44 44 43 43 44 44 45 45 46 47 47 48 49 49 50 51 53
50 48 47 46 45 45 45 44 42 41 43 46 48 47 46 45 45 46 46 47 47 48 48 49 48 48 47 47 48 48 48 47 46 45 45 44 43 43 43 43 43 44 44 44 44 44 43 43 43 43 43 43 44 44 45 46 46 47 48 49 49 50 51
59 58 56 55 55 54 53 52 51 49 49 50 50 50 50 51 52 53 53 52 52 52 51 50 50 49 49 49 49 48 48 47 46 46 45 44 43 43 42 42 43 43 43 44 43 43 42 42 42 42 42 42 43 44 45 45 46 47 48 49 49 50 51
60 60 59 59 60 60 59 59 58 57 57 57 56 56 58 59 58 58 57 56 55 54 53 53 52 52 51 49 48 47 46 46 46 46 45 45 44 43 43 43 43 43 43 42 42 41 41 40 41 41 41 42 43 44 45 46 46 47 47 48 48 49 50

ECMWFFLT1_500_spd_027.txt.gz
Wind_Speed
17 17 17 16 15 15 15 15 17 18 18 18 16 14 13 13 14 15 17 18 19 19 20 20 20 21 21 22 22 23 23 23 23 23 24 25 25 25 25 25 25 24 23 23 23 23 24 24 24 24 24 24 25 26 26 27 28 28 28 28 28 29 29
14 14 16 17 18 19 19 19 19 18 18 18 16 14 13 13 14 16 17 19 19 20 20 21 22 22 22 23 23 23 23 23 23 23 23 24 24 25 25 25 26 26 25 24 24 24 24 25 25 25 25 25 26 26 27 27 27 28 28 28 29 29 30
14 14 15 17 19 21 22 22 20 18 17 18 17 16 16 17 17 17 18 19 20 21 21 22 23 24 24 24 24 24 24 24 24 24 24 24 24 24 24 25 25 25 25 25 25 24 24 25 25 25 25 26 26 27 27 27 27 27 28 28 28 29 30
18 17 17 18 20 23 24 24 22 19 18 19 20 21 22 21 19 18 18 19 21 22 22 23 23 24 25 25 25 25 25 25 25 25 25 25 24 24 24 24 25 25 25 25 24 24 24 24 24 25 25 25 26 26 27 27 27 27 26 26 27 27 29
22 20 20 20 22 24 25 24 24 22 21 21 22 23 24 22 20 18 18 19 20 21 22 23 24 24 25 26 27 27 27 26 26 26 26 25 25 24 24 24 24 24 24 24 23 23 23 22 23 23 23 24 24 25 25 26 26 25 25 24 24 25 26
24 23 22 22 24 25 26 25 26 26 25 24 23 24 24 22 19 18 18 18 19 20 21 22 23 24 25 26 27 28 28 27 27 26 25 25 24 23 23 23 22 22 22 22 21 21 20 20 20 20 21 21 22 22 23 24 24 24 23 22 22 23 24
25 24 23 23 25 25 26 26 27 28 28 26 24 24 23 21 18 17 17 17 17 17 19 20 22 23 25 26 27 28 28 28 27 27 25 24 23 23 22 21 21 20 20 19 19 18 17 17 17 17 17 17 18 18 19 20 20 20 20 19 19 20 20
24 24 24 24 24 24 25 25 26 26 25 23 22 22 21 19 17 16 15 15 15 15 17 18 20 22 24 25 27 27 28 28 27 27 26 24 23 23 22 21 20 19 18 18 17 16 15 14 14 14 15 15 14 15 15 16 16 16 15 15 15 16 16
22 22 21 19 19 20 21 20 19 18 17 17 18 20 19 17 15 15 14 14 14 15 16 17 19 21 22 24 25 26 27 27 26 26 26 25 24 23 23 22 21 19 18 17 16 15 14 13 12 12 13 13 12 13 13 13 13 13 12 12 12 12 12
16 16 15 14 14 15 17 16 14 14 14 15 17 18 17 15 14 14 13 14 14 15 16 17 18 19 21 22 23 24 24 24 24 24 24 24 23 22 22 21 20 18 17 16 15 14 13 12 12 11 11 11 11 12 12 12 13 12 12 12 11 11 11
12 11 11 11 12 13 14 14 14 14 14 14 16 16 15 14 13 13 13 14 15 16 16 17 18 19 20 20 21 21 21 21 21 21 21 21 21 20 20 19 18 17 16 15 14 14 13 12 11 11 11 11 11 11 11 12 12 12 12 12 12 12 12
11 11 11 11 11 12 13 13 14 15 14 14 15 15 14 13 12 13 14 15 15 16 17 17 17 18 18 19 19 19 19 19 19 19 19 19 19 19 18 18 17 17 16 15 15 14 14 13 13 12 12 12 12 12 13 13 13 13 13 13 13 13 13
11 11 12 13 13 13 13 15 15 15 15 15 15 14 14 13 14 14 14 14 14 15 16 17 18 18 18 18 18 18 18 18 18 18 18 18 18 18 18 17 17 17 16 16 16 15 15 15 14 14 14 14 14 14 14 14 14 14 14 14 14 15 15
12 12 12 13 14 14 15 15 16 16 16 16 15 14 13 14 14 14 13 13 13 14 15 17 18 18 18 18 18 19 19 19 19 19 19 19 19 19 18 18 17 16 16 16 15 15 15 16 16 16 17 17 17 16 16 15 15 15 15 15 15 16 16
13 14 14 13 13 14 15 15 16 17 17 17 16 14 13 13 13 13 14 14 14 14 15 16 17 18 19 19 19 19 19 19 19 20 20 20 20 20 19 19 18 17 17 16 16 16 17 17 18 18 19 20 20 20 19 18 18 17 17 17 17 17 17
14 15 15 15 15 15 15 15 16 17 16 16 16 16 15 15 15 15 16 16 16 16 16 17 17 17 18 19 19 20 19 19 19 20 21 21 21 21 20 20 19 18 18 18 18 18 19 19 19 19 20 20 21 22 22 22 21 21 21 21 20 20 20
14 15 16 17 17 17 17 17 17 17 16 15 16 17 17 17 16 17 17 18 17 17 17 18 18 19 20 21 21 21 21 21 21 21 21 21 22 22 22 21 21 20 20 19 20 20 21 21 21 21 21 21 22 22 23 24 24 24 24 23 23 23 22
15 16 17 17 17 18 18 18 17 17 16 16 16 17 18 18 18 18 19 18 18 17 17 18 19 20 20 21 21 21 22 22 22 22 22 21 22 22 23 23 24 24 23 23 22 22 22 22 22 23 24 24 24 24 24 25 25 25 26 25 25 25 25
16 15 16 17 17 17 18 17 16 15 15 16 16 18 19 19 20 20 20 19 19 19 20 20 20 20 21 22 22 22 22 23 23 23 22 22 22 22 23 23 24 25 25 25 24 23 23 23 24 25 25 26 26 26 26 26 27 27 28 27 27 26 27
19 18 17 17 17 17 17 18 17 17 18 18 18 19 20 21 21 21 21 22 22 23 23 23 22 22 22 23 23 23 22 22 23 24 24 24 24 24 25 25 26 27 27 26 26 25 26 27 27 28 27 27 27 28 28 28 29 29 30 30 29 29 29
23 22 22 22 22 22 22 23 24 23 22 21 21 22 22 23 23 24 25 25 25 25 25 24 22 22 23 24 24 24 23 23 25 26 27 27 26 25 25 26 27 27 28 27 27 27 27 28 30 30 30 29 28 29 30 30 31 32 33 33 32 32 32
26 26 27 27 28 29 29 29 29 28 26 25 25 25 26 27 28 28 28 27 27 27 26 25 23 23 24 24 25 26 26 26 26 28 30 28 26 24 24 25 26 27 28 29 30 30 29 29 30 30 30 29 29 30 31 32 33 34 35 36 35 35 35
30 30 31 31 32 33 33 33 33 32 31 30 29 30 31 31 31 30 28 29 29 28 26 24 24 25 26 25 26 26 27 28 29 31 31 29 28 27 28 28 28 29 31 32 33 34 34 34 34 34 34 33 32 32 33 35 36 36 37 38 38 38 38
34 34 34 34 35 35 35 35 35 35 35 35 35 35 34 33 32 30 28 30 30 29 28 25 24 27 29 29 29 28 29 30 31 31 31 30 30 32 33 33 31 31 32 34 35 37 38 39 40 40 40 40 40 39 39 39 39 40 40 40 41 41 41
38 38 38 38 38 38 38 38 37 38 38 38 39 38 36 33 32 30 29 31 32 32 32 30 27 30 33 32 32 31 31 31 31 31 32 32 33 34 35 34 32 32 33 34 36 38 40 41 43 44 45 46 47 47 46 45 45 45 45 45 45 46 47
41 41 41 42 42 41 41 40 40 40 40 40 40 38 36 35 34 33 31 33 35 35 36 35 33 34 35 35 34 33 32 33 34 35 36 35 34 35 34 34 34 34 35 36 37 39 40 42 43 45 46 47 48 48 48 48 49 49 49 49 50 50 51
43 43 44 45 45 44 43 42 42 42 41 42 42 40 37 35 34 34 33 34 34 35 36 36 34 34 36 36 37 36 36 37 37 37 37 35 35 36 36 36 36 37 38 39 39 40 41 42 43 43 44 46 47 47 48 48 49 49 49 49 50 51 52
43 43 44 44 44 45 44 43 43 43 42 43 44 42 39 37 37 37 37 37 37 37 37 36 36 36 37 37 38 38 38 39 38 37 37 37 37 37 37 37 38 39 40 40 41 41 41 42 43 43 44 44 45 46 47 48 48 48 48 49 49 50 51
44 42 41 41 42 43 43 43 43 43 43 45 46 45 44 43 43 43 43 42 41 41 40 39 39 39 38 38 38 38 38 38 39 38 38 38 38 38 38 39 40 40 41 41 41 42 42 43 43 44 44 45 45 46 46 47 48 48 49 50 50 51 51
44 42 41 41 40 41 41 42 43 43 44 45 46 47 46 46 46 46 46 46 45 44 43 42 41 40 39 39 39 38 38 39 40 40 39 39 38 38 39 40 40 40 41 41 41 42 42 43 44 45 46 46 46 46 47 48 48 49 49 50 51 51 51
44 42 40 40 40 40 40 41 42 42 44 45 46 46 46 45 43 41 42 43 43 43 43 42 41 41 41 41 40 40 40 41 41 41 40 39 39 39 40 40 41 40 41 42 43 43 43 44 45 46 46 47 47 47 48 48 49 49 50 50 51 51 51
44 43 42 42 43 44 44 43 42 41 41 42 43 43 43 42 40 39 39 41 42 42 43 43 43 44 43 42 42 42 42 43 43 43 42 42 42 42 42 42 42 42 42 43 44 44 44 45 46 46 47 47 48 48 48 49 49 50 50 50 51 51 51
51 51 51 51 51 51 49 47 45 44 43 42 43 43 42 43 43 43 42 42 43 43 43 43 43 43 42 41 41 42 42 43 43 44 44 45 45 45 44 44 43 43 44 45 45 45 45 45 45 46 46 47 47 47 47 48 48 49 50 50 51 51 51
56 56 57 58 58 56 53 50 49 47 44 42 42 43 43 44 44 43 42 41 41 41 40 40 40 40 40 40 41 41 42 42 43 45 46 46 47 47 47 46 45 45 45 45 45 45 45 45 45 45 45 46 46 46 47 47 48 48 49 49 50 50 51
56 55 56 57 58 57 55 53 50 47 43 41 41 42 43 42 42 41 40 39 39 40 40 41 41 41 41 42 42 42 43 43 44 46 47 48 49 49 48 47 47 46 46 45 45 45 44 45 44 44 44 45 45 46 46 47 47 48 48 48 48 49 50
56 55 54 55 56 56 56 55 51 46 44 44 45 45 44 44 43 43 41 40 41 42 43 44 45 45 44 44 44 44 44 46 48 50 51 52 51 50 49 48 48 47 46 45 44 44 44 44 44 44 44 44 45 46 46 47 47 47 47 47 47 47 48
59 57 55 55 55 55 56 57 57 54 50 49 49 48 47 47 46 46 45 44 45 47 47 48 50 49 48 48 47 47 49 50 52 53 52 51 50 49 49 48 47 46 45 45 44 44 43 43 43 44 44 45 45 45 46 46 46 46 45 45 45 45 46

ECMWFFLT1_500_spd_030.txt.gz
Wind_Speed
13 14 13 12 11 11 12 13 13 13 13 13 13 12 12 12 12 12 13 13 13 13 14 15 16 17 18 19 20 20 20 20 20 20 21 22 22 23 23 23 23 22 21 20 19 18 19 21 21 21 22 22 22 22 23 23 23 24 25 25 25 25 25
14 14 13 11 11 12 14 15 15 15 15 15 15 15 14 13 13 13 13 14 15 16 16 16 16 17 18 19 20 21 21 22 21 21 21 22 23 23 23 23 23 22 21 20 20 20 21 22 23 22 22 23 23 23 23 24 24 24 24 25 25 25 25
15 15 14 14 13 14 15 17 17 17 17 17 17 16 16 15 15 16 16 18 19 20 19 18 17 17 18 19 20 21 22 23 23 23 22 22 22 22 22 22 22 22 22 22 21 22 22 23 23 23 23 23 23 23 24 24 23 24 24 24 25 25 25
16 16 17 17 17 18 19 20 20 20 20 19 19 18 17 17 17 18 19 19 20 20 20 20 19 18 19 19 20 21 22 23 24 24 24 24 24 23 23 22 21 22 22 22 22 22 22 22 22 22 22 22 23 23 22 22 22 22 23 23 24 24 24
17 17 18 19 19 20 21 22 22 23 22 22 21 21 20 20 20 20 20 20 20 20 20 20 19 18 18 18 19 20 21 23 24 25 25 25 25 25 24 23 22 22 22 22 22 22 21 21 21 21 21 21 21 20 20 20 20 20 21 21 22 23 23
18 18 19 20 21 22 23 24 25 25 25 24 24 24 23 23 23 23 22 21 20 20 19 19 19 18 17 17 18 19 20 21 23 24 25 26 26 26 25 24 24 23 23 23 22 22 21 20 20 20 20 20 19 19 18 18 18 18 19 20 20 21 21
19 20 20 21 21 23 24 25 26 25 25 25 26 25 24 24 25 24 22 21 20 19 18 17 17 16 16 16 16 17 19 20 22 23 24 25 25 26 25 25 25 24 24 23 22 21 20 19 19 18 18 18 18 17 17 16 16 16 17 17 17 18 19
20 20 21 22 23 24 24 25 25 25 25 25 26 26 24 24 23 21 20 19 19 19 17 16 15 15 15 15 15 16 18 20 21 23 24 25 25 24 24 24 23 23 23 22 21 20 19 18 17 17 17 16 16 16 16 15 15 15 14 14 15 15 16
20 20 20 21 22 22 22 22 21 21 21 22 22 22 21 20 18 17 17 17 18 17 16 15 15 14 14 14 14 15 16 18 20 21 22 23 22 22 21 21 20 20 20 19 18 17 17 16 16 16 16 15 15 15 14 14 14 13 13 13 13 13 13
19 18 17 17 18 18 18 18 18 18 18 19 19 18 17 16 16 16 16 17 17 16 15 15 14 14 14 14 14 14 15 17 18 19 20 20 20 19 18 18 18 17 17 17 16 16 15 15 15 14 14 14 13 13 13 12 13 13 13 13 12 13 13
19 18 17 16 17 16 16 16 17 18 18 18 18 17 16 16 17 17 17 17 16 16 15 15 14 13 13 13 13 14 14 16 17 17 18 18 18 17 17 16 16 16 15 15 15 14 14 14 13 13 13 12 12 12 12 12 12 12 13 13 13 13 13
18 16 16 16 16 16 16 15 16 17 17 17 16 16 16 17 18 18 18 18 17 16 16 15 14 13 13 13 13 13 14 15 16 16 17 17 17 17 16 16 15 15 15 14 14 14 13 13 13 13 13 13 13 13 13 13 14 14 14 14 14 14 14
16 16 16 16 15 15 15 15 16 17 17 17 16 16 16 17 18 18 19 19 18 17 17 16 16 14 13 12 12 13 14 15 15 16 16 16 16 16 17 17 17 16 16 15 15 14 14 14 14 14 14 14 15 15 15 16 16 16 17 16 16 16 16
16 16 16 15 15 15 15 15 16 17 18 18 18 17 17 17 18 19 20 20 20 19 18 17 17 16 15 14 13 14 15 15 16 16 16 16 16 17 17 17 17 17 17 17 16 16 16 15 15 15 15 15 15 16 16 17 18 18 18 18 18 18 18
17 17 16 15 15 15 15 15 15 15 15 16 17 18 18 18 18 19 20 21 21 21 19 18 17 17 17 16 15 15 15 16 17 18 18 18 18 18 18 17 17 17 17 17 17 17 17 17 17 17 17 17 17 17 18 19 19 20 21 21 21 21 21
17 17 17 16 16 15 15 15 15 14 14 15 16 18 20 20 19 19 19 19 19 19 19 18 18 18 18 18 18 18 17 18 18 19 19 19 20 20 19 19 19 18 18 18 18 18 18 18 18 18 19 19 19 19 20 20 21 21 22 23 23 24 24
17 18 18 18 18 17 17 17 16 15 15 15 16 18 19 19 19 19 19 20 20 20 20 19 19 20 20 20 21 21 20 19 19 19 19 20 20 21 21 21 21 21 20 20 19 20 19 19 20 20 21 21 21 21 21 22 23 23 24 24 25 25 25
17 18 18 19 19 19 19 19 18 17 16 16 16 17 18 19 19 20 20 20 21 21 21 20 20 20 21 21 22 22 21 20 20 20 21 21 21 22 22 23 23 23 23 23 23 23 23 22 23 23 23 24 24 23 23 24 25 25 26 27 27 27 26
20 20 20 20 20 20 21 21 20 19 18 18 17 17 17 17 18 19 20 20 21 21 21 20 20 20 21 21 21 21 21 21 21 22 22 23 24 24 25 25 25 25 25 25 26 26 26 26 26 26 25 26 26 26 27 27 28 28 28 29 29 29 29
23 23 22 21 21 21 22 22 22 21 20 20 19 19 18 18 18 19 20 21 21 21 20 20 20 21 23 24 24 24 24 24 24 24 25 26 26 27 27 27 26 26 26 26 27 27 28 28 28 28 28 28 29 29 29 30 31 31 31 31 31 31 31
23 23 23 22 22 22 22 23 23 22 21 21 21 22 22 23 24 23 23 22 23 23 22 22 22 23 25 27 28 28 27 26 27 27 28 28 29 29 28 28 28 28 28 28 27 28 28 29 29 29 29 30 31 30 30 31 32 33 33 33 34 33 33
22 22 23 23 23 23 24 25 25 25 25 25 26 27 28 28 29 28 27 26 25 26 27 27 26 27 28 28 29 29 29 29 28 28 29 30 30 30 30 31 31 30 30 29 27 27 27 28 29 30 30 32 33 34 34 34 34 34 34 35 35 35 35
24 24 25 25 25 26 27 28 29 29 30 30 30 31 31 32 32 32 31 30 30 30 31 31 30 30 29 30 29 29 29 29 28 27 29 31 31 31 31 32 32 32 32 30 29 28 29 29 30 31 33 35 36 38 39 39 39 39 39 39 38 38 38
29 28 28 29 29 30 31 31 32 33 33 33 34 34 34 34 35 35 35 35 35 35 35 34 34 33 33 33 32 30 30 29 28 29 30 32 32 32 32 33 33 33 34 34 33 33 33 34 34 34 36 37 39 40 42 43 43 44 44 45 44 44 44
34 33 33 33 34 34 35 35 35 36 36 37 37 38 38 39 38 38 38 38 38 38 38 38 37 37 36 35 33 31 30 30 30 31 33 34 35 35 34 34 35 35 35 36 37 37 37 37 37 37 37 38 39 40 42 43 44 45 46 47 48 49 49
37 37 37 37 37 38 38 38 38 39 39 39 40 41 42 43 42 41 40 40 41 41 41 39 38 38 38 37 35 33 32 32 32 33 35 36 37 37 36 35 35 36 37 38 39 39 39 39 39 39 39 39 40 41 42 43 45 45 46 47 49 49 49
41 41 41 41 42 41 41 41 41 41 40 40 42 44 45 45 45 44 43 42 42 42 41 40 40 40 40 40 39 37 36 35 35 37 39 39 39 39 38 37 37 38 39 40 41 40 39 39 40 40 41 42 42 43 44 44 44 45 45 46 47 48 48
44 43 42 42 42 42 42 41 40 40 41 42 43 44 45 46 46 45 44 44 44 43 43 42 42 42 42 42 41 40 39 37 37 38 39 39 39 39 39 40 41 42 42 42 41 41 40 41 41 41 42 42 43 43 44 44 44 44 45 45 46 47 47
42 41 40 40 40 41 41 41 42 44 45 44 44 44 46 47 47 47 46 45 46 46 45 44 43 42 41 41 40 39 38 38 39 40 39 38 38 39 40 41 42 42 43 43 42 42 42 42 42 42 42 42 42 43 43 44 44 44 45 46 46 47 48
46 46 46 46 46 45 45 46 48 49 47 46 46 46 47 48 49 49 48 47 47 47 46 45 44 43 43 42 42 42 42 42 43 45 44 43 42 41 41 41 42 43 43 44 44 43 43 42 42 42 42 43 43 43 44 44 45 45 46 46 47 47 48
52 52 52 51 50 50 50 50 51 50 48 47 47 47 47 48 49 49 47 46 46 48 48 47 47 47 47 47 47 48 48 48 48 49 48 47 45 44 43 44 44 45 45 45 45 45 44 43 43 43 44 44 45 45 45 46 46 46 46 47 47 47 48
56 56 56 55 55 54 53 52 51 50 48 48 48 49 48 48 48 46 45 44 44 46 48 49 50 50 50 50 50 51 51 51 51 50 49 48 47 46 46 45 46 46 46 46 46 46 46 46 46 46 46 47 47 47 47 47 47 47 47 48 48 48 49
60 60 59 59 59 58 57 55 53 51 49 49 49 49 49 48 47 46 45 45 45 46 48 49 49 49 49 49 49 49 49 49 49 48 48 47 47 47 46 46 46 46 46 47 47 47 47 47 48 48 49 49 48 48 48 48 48 48 48 49 49 50 50
64 63 62 61 60 60 59 57 55 53 52 51 51 51 50 51 50 49 49 48 48 49 49 48 48 48 48 47 46 46 46 46 46 46 47 47 48 48 47 47 47 46 47 46 46 46 47 49 50 51 52 51 49 48 48 48 48 49 49 50 50 51 51
66 65 63 62 61 60 59 57 56 56 56 56 57 56 56 56 56 56 55 52 51 51 50 49 48 48 48 48 47 47 47 47 47 47 48 49 49 49 48 47 47 46 45 45 44 46 49 52 53 53 52 50 49 48 48 48 48 49 50 50 51 51 52
66 65 64 63 62 60 59 57 57 56 56 58 59 60 60 61 60 59 58 55 52 51 50 50 50 50 50 50 50 49 48 47 47 47 46 46 47 48 48 47 46 45 45 44 45 49 52 52 52 51 50 50 49 48 48 49 49 50 51 51 51 51 51
68 67 66 65 64 63 62 60 59 58 57 57 57 58 59 60 59 59 58 56 54 53 52 52 51 50 50 50 49 47 46 45 45 45 45 45 46 47 48 48 48 47 46 47 49 51 52 51 50 49 48 48 48 48 49 49 50 50 50 51 51 51 50

ECMWFFLT1_500_spd_033.txt.gz
Wind_Speed
13 13 13 13 12 12 12 11 11 11 11 11 11 10 10 10 11 13 14 14 14 14 14 14 14 14 15 15 16 17 16 15 15 15 14 13 14 16 16 16 17 19 20 20 19 19 20 20 18 17 18 17 18 20 21 23 23 24 24 25 25 25 24
13 13 13 13 12 11 10 10 10 10 11 11 12 12 12 12 12 12 13 14 14 14 14 14 15 15 16 16 16 16 16 16 15 15 15 15 15 16 16 17 18 19 20 19 19 19 20 20 20 19 19 19 20 21 22 23 24 25 25 26 26 26 26
14 14 13 13 12 11 11 10 11 11 11 12 12 13 14 14 14 13 13 13 14 15 15 16 17 17 17 17 17 17 17 16 15 15 15 16 16 16 17 18 18 19 20 20 20 21 21 21 21 20 20 21 21 22 23 23 24 25 25 26 26 27 26
15 14 14 13 13 13 13 13 14 14 14 14 14 15 15 15 16 15 15 15 15 16 17 18 19 18 17 17 18 18 17 16 16 15 14 15 16 16 17 18 18 18 20 21 22 21 20 20 20 21 21 22 22 22 22 23 24 24 25 25 26 26 26
16 15 14 13 13 14 15 16 16 16 16 16 16 17 17 17 17 17 17 17 18 18 18 19 20 19 19 18 19 19 19 18 17 16 15 15 15 15 16 17 17 18 20 21 22 21 21 20 20 22 23 23 23 22 22 22 23 23 23 24 24 24 24
16 15 14 13 14 15 16 17 17 17 18 18 19 20 19 19 18 18 18 18 18 19 20 21 21 20 19 19 19 19 19 19 17 16 16 15 15 15 15 16 17 18 19 21 21 22 22 22 22 23 24 23 23 22 22 21 21 21 21 21 21 21 21
17 16 15 15 16 17 17 18 18 19 20 20 20 20 20 20 19 18 19 19 19 20 21 22 21 19 18 18 18 19 19 18 17 16 15 15 14 14 14 15 16 17 19 20 21 21 22 22 22 23 22 22 22 21 20 19 19 19 19 19 19 19 19
19 18 17 17 18 18 18 18 18 18 17 17 17 17 18 17 17 17 18 19 20 20 20 19 19 18 18 18 18 18 18 18 17 16 15 14 14 13 14 15 15 16 17 18 19 19 20 20 20 20 20 20 19 18 18 17 17 17 16 16 17 17 17
21 20 20 19 19 19 18 17 15 14 13 14 14 15 16 16 16 16 16 17 18 18 17 17 17 17 18 18 18 18 18 17 16 15 14 13 13 13 14 14 15 15 16 16 17 17 18 18 18 18 18 17 17 17 17 16 16 15 15 15 15 15 15
23 23 22 21 20 19 17 15 14 14 14 14 14 15 16 17 17 17 16 16 16 16 16 16 17 17 18 18 18 18 17 16 15 14 13 13 13 13 13 14 14 14 14 15 15 15 16 16 16 16 16 15 15 15 15 15 14 14 14 14 14 14 14
25 25 23 22 21 19 17 16 16 15 15 15 15 15 15 16 17 17 17 17 17 16 16 17 17 17 18 18 18 18 18 17 15 14 13 13 13 13 13 13 14 14 14 14 14 15 15 15 15 15 15 15 15 15 15 15 14 14 14 13 14 14 14
25 24 24 23 22 20 17 17 17 16 16 16 15 15 15 15 15 15 15 16 17 17 17 17 17 18 18 19 19 19 19 18 16 15 14 13 13 13 12 13 13 13 13 14 14 14 14 15 15 15 15 15 16 16 16 16 15 15 14 14 15 15 15
22 22 22 22 21 20 18 18 18 17 16 16 16 16 16 15 15 15 15 15 16 17 17 17 17 18 18 19 19 19 19 19 17 16 16 15 15 14 14 13 13 13 14 14 14 14 15 15 16 16 16 16 17 17 17 17 16 16 16 16 16 17 17
22 22 22 22 21 20 19 19 19 17 17 17 16 16 16 16 16 16 16 16 16 17 17 18 18 19 19 19 19 18 19 19 18 18 17 17 16 15 15 15 15 15 15 15 15 16 16 16 16 17 17 17 17 17 17 17 18 18 18 18 18 19 19
24 24 24 23 22 21 20 19 19 18 18 17 16 16 15 15 15 15 15 15 16 17 17 18 18 18 18 18 18 18 18 19 19 19 19 18 17 16 16 16 16 16 16 16 17 17 17 17 17 17 17 18 18 18 18 19 19 19 19 19 20 21 21
24 24 24 24 23 21 21 21 20 20 19 18 17 16 15 15 14 14 15 15 15 16 17 17 16 16 17 18 18 18 19 19 20 20 20 19 19 18 18 18 18 18 18 18 18 18 19 19 19 19 19 19 19 19 19 20 20 20 20 21 21 22 22
23 23 23 24 23 22 22 22 22 21 20 19 18 18 17 16 16 15 15 15 15 15 16 17 17 18 19 20 20 21 21 21 21 21 21 20 20 21 21 21 21 21 21 21 20 20 21 21 21 21 21 21 20 21 21 22 22 22 22 23 23 23 23
22 23 23 24 24 24 24 23 23 22 22 20 20 20 20 19 18 18 17 16 16 16 16 17 17 19 20 20 21 21 21 22 22 21 21 21 22 23 23 23 23 23 23 23 23 23 23 23 23 23 24 24 23 23 25 26 26 26 26 25 25 26 26
23 24 24 25 25 25 25 24 24 23 23 22 22 22 21 21 21 20 20 19 17 16 16 16 17 18 19 20 20 20 20 21 22 22 22 22 23 24 25 26 26 26 26 26 26 26 26 26 25 26 26 26 25 25 26 26 27 28 28 29 29 29 29
24 24 24 25 25 25 25 25 24 24 23 23 24 24 24 23 23 22 21 19 17 15 15 15 16 17 19 20 20 20 20 21 22 23 24 25 25 26 27 27 28 29 29 29 29 29 28 28 27 27 28 28 27 27 27 28 29 28 29 30 30 30 30
24 24 25 26 27 27 26 25 25 25 24 24 25 25 24 24 23 23 21 20 19 18 18 19 19 19 20 21 22 22 23 24 25 26 26 27 27 28 30 30 31 32 32 32 31 31 30 30 28 28 29 29 29 30 30 30 31 31 31 31 31 32 32
24 24 25 26 26 27 27 27 26 26 25 24 24 24 24 23 23 23 24 25 25 24 24 24 23 23 23 24 25 27 28 29 29 29 29 29 29 30 32 33 34 35 34 34 33 33 32 32 31 30 30 31 31 31 31 30 31 32 32 33 33 34 35
24 24 25 25 25 26 26 26 27 27 26 26 26 26 26 26 26 27 28 29 29 29 29 29 28 28 28 28 29 31 32 33 33 32 32 32 32 32 34 35 35 35 34 34 34 34 34 34 34 33 33 33 33 32 32 31 32 33 34 35 36 37 37
25 26 26 26 27 27 26 27 27 28 29 29 29 30 30 30 30 31 31 32 32 32 33 33 33 33 33 32 33 34 35 35 36 35 35 35 35 35 35 35 34 34 34 35 36 36 36 36 35 35 35 35 35 35 35 35 35 36 36 38 39 40 41
29 29 29 29 30 30 30 30 30 31 32 32 33 33 33 33 34 34 35 35 35 35 36 38 37 37 37 36 36 37 38 38 38 38 38 38 37 37 36 36 36 35 35 35 35 37 38 37 37 37 37 37 37 38 38 38 38 39 39 40 41 43 44
33 33 34 34 34 34 34 35 35 35 35 36 37 37 37 37 37 38 38 38 38 38 39 40 39 39 39 39 39 40 41 41 41 40 40 39 38 38 38 39 39 39 38 37 35 35 36 35 36 37 38 38 38 39 39 39 40 41 42 42 43 45 46
36 37 37 37 37 38 38 38 38 38 38 39 40 40 40 40 40 40 40 40 40 40 40 41 41 40 40 41 42 42 42 43 42 41 40 39 39 38 39 41 42 40 38 38 36 35 35 34 35 37 37 38 39 40 40 41 42 42 43 43 44 44 45
39 39 39 40 40 40 41 41 41 42 43 43 44 44 44 44 44 44 43 43 41 41 42 42 42 41 41 42 43 44 44 45 44 43 42 42 42 41 41 43 44 42 40 40 39 39 40 39 39 39 39 39 40 41 41 42 43 43 43 43 44 44 44
42 43 42 42 42 42 42 41 41 42 43 44 44 44 44 43 43 43 44 44 43 43 44 43 43 43 43 43 45 46 47 47 46 45 45 45 45 46 45 45 46 46 46 45 45 43 43 43 42 42 42 42 42 42 43 43 44 44 44 44 45 45 45
48 48 47 46 45 44 43 42 42 41 41 41 41 42 42 43 43 44 45 47 47 48 47 46 45 45 46 47 48 48 49 49 48 48 47 46 46 46 45 45 47 48 48 48 47 47 46 46 45 45 45 44 44 44 44 44 45 46 46 46 46 46 47
50 49 48 48 47 47 47 47 47 47 46 46 47 47 48 49 49 49 49 50 51 51 50 48 48 47 48 49 49 49 49 50 49 48 47 47 47 47 46 46 47 48 50 51 51 52 51 51 50 48 48 47 47 46 45 46 47 47 47 47 48 48 49
51 51 51 52 52 53 53 53 53 52 51 52 52 53 53 53 53 53 53 53 53 53 52 50 49 49 48 48 48 48 49 49 50 50 50 50 50 50 50 51 51 52 53 54 55 56 55 54 53 51 49 48 47 46 46 47 47 47 47 48 49 51 51
57 57 58 58 58 58 57 57 56 55 55 54 55 55 56 56 56 56 56 56 56 55 52 49 49 49 49 48 49 49 48 48 49 50 51 52 52 52 53 53 54 55 56 56 57 57 56 55 53 51 49 48 48 47 47 47 46 45 46 49 51 52 52
62 62 62 62 62 61 60 60 59 58 57 56 56 57 57 57 58 57 56 55 54 53 51 50 50 50 49 48 49 48 47 47 48 49 50 51 51 52 53 53 54 54 54 54 54 54 53 52 50 49 49 48 49 48 47 46 45 45 48 50 52 52 52
64 64 63 64 64 64 64 63 63 62 61 59 58 58 57 56 58 58 55 55 56 56 55 54 52 51 50 49 48 47 46 47 48 49 50 52 52 51 51 52 52 51 50 49 49 49 49 49 48 48 49 49 49 48 47 46 46 48 51 53 53 53 53
66 66 66 66 66 66 66 66 66 66 65 64 62 61 59 58 58 58 56 57 58 58 57 56 54 54 54 52 51 51 51 52 53 53 52 54 53 52 52 53 52 50 49 49 48 48 48 47 46 46 46 47 47 48 48 48 49 52 55 56 56 55 54
69 69 69 69 69 69 69 69 69 69 68 67 66 64 62 58 55 55 56 57 57 56 56 57 57 58 58 58 57 58 58 58 58 56 54 54 53 52 54 55 54 52 51 50 49 48 47 45 43 43 44 46 48 49 51 53 54 56 58 59 58 57 56

ECMWFFLT1_500_spd_036.txt.gz
Wind_Speed
16 14 14 13 13 13 12 12 11 10 10 11 12 12 12 11 10 9 9 10 10 10 9 8 9 9 9 9 10 10 10 10 11 12 11 10 9 9 10 10 10 12 13 14 15 16 15 14 14 15 15 16 17 16 15 16 18 18 18 18 18 18 17
15 15 15 15 13 12 11 10 9 8 8 10 11 12 12 12 11 11 10 10 10 10 9 9 10 11 12 12 12 11 11 11 12 12 13 12 11 12 12 12 11 12 13 14 14 14 14 14 14 15 16 17 17 17 17 18 19 19 18 18 18 18 18
13 15 15 14 13 12 11 10 8 7 7 9 9 10 11 12 12 13 12 12 12 11 11 10 11 12 13 14 13 13 12 12 12 13 14 14 14 15 15 15 14 13 13 13 13 13 13 14 15 15 16 16 16 16 17 18 18 19 18 17 18 19 19
12 14 14 13 12 12 11 10 9 9 8 9 10 11 12 12 13 14 14 14 14 14 13 13 13 13 14 15 15 14 13 13 13 14 15 15 16 17 17 16 15 14 12 12 12 12 13 13 14 15 15 15 15 15 16 17 18 18 18 17 17 18 18
12 13 12 12 12 11 10 9 9 10 9 10 11 11 12 13 14 15 15 16 16 16 15 14 14 14 15 16 16 16 14 13 14 14 15 16 16 17 17 16 15 14 12 12 11 12 12 12 13 14 15 15 16 16 16 16 16 17 17 17 17 17 18
12 13 12 12 13 11 10 10 9 9 9 11 12 12 13 14 14 14 15 16 16 16 16 15 15 15 16 17 17 17 15 14 14 14 14 15 15 16 17 16 15 14 12 12 11 11 12 12 13 14 14 15 15 15 15 15 15 15 16 16 16 17 17
14 13 12 13 13 13 11 10 10 9 10 11 12 11 12 11 11 12 12 13 14 14 15 16 16 16 17 17 16 16 15 14 14 14 14 14 14 14 14 13 12 11 11 11 11 11 12 13 13 14 14 14 14 14 14 14 14 14 15 15 16 16 16
15 14 13 14 15 14 13 12 11 11 11 10 9 9 9 8 8 9 10 12 12 12 13 14 15 16 16 16 15 15 15 15 14 14 14 13 12 12 11 11 10 10 10 10 11 11 12 13 13 14 14 14 14 13 13 13 14 14 14 15 15 15 15
17 16 15 16 17 16 16 15 12 12 10 9 9 9 8 8 8 8 10 11 12 12 12 13 14 14 14 14 15 15 16 16 16 16 16 15 14 13 12 12 11 11 11 11 11 11 11 12 12 13 14 14 14 13 13 13 13 14 14 14 14 14 13
19 18 17 19 20 20 18 17 14 13 11 10 11 11 10 10 9 9 10 11 12 12 12 12 12 13 13 14 14 15 16 17 17 17 17 17 17 16 15 15 14 13 13 12 12 11 11 12 12 12 13 13 14 14 14 14 14 13 13 13 13 13 13
20 20 19 20 21 22 21 19 16 14 13 13 13 13 12 12 11 10 10 11 11 11 11 11 11 11 12 12 13 14 15 16 16 17 17 17 17 17 16 15 14 14 13 13 12 12 12 12 12 12 13 13 13 14 14 15 15 14 14 14 14 14 14
21 23 22 22 22 23 23 21 19 17 16 16 15 15 14 13 12 12 11 11 11 11 10 10 10 10 10 10 11 12 13 14 15 16 17 17 17 17 16 15 14 14 14 13 13 13 13 12 12 13 14 14 14 14 14 15 15 15 15 15 15 15 15
22 25 26 25 23 24 24 23 21 20 18 17 17 16 16 15 14 14 13 13 13 12 12 12 12 11 11 10 10 11 12 13 14 15 16 17 17 17 17 16 16 16 15 15 15 15 14 14 14 14 15 16 16 16 16 16 16 16 16 16 16 16 16
24 26 28 27 25 24 24 23 22 21 19 19 18 17 17 16 15 15 15 14 14 14 14 14 14 14 13 12 11 12 12 13 13 14 14 15 16 17 18 18 18 18 18 17 17 17 16 16 16 16 16 17 17 17 17 18 18 17 17 18 18 17 17
25 27 27 26 26 25 25 24 22 21 20 19 18 17 17 17 16 16 16 15 15 14 14 14 15 15 15 14 12 11 11 11 12 13 14 15 16 17 18 18 19 19 19 19 19 19 18 18 18 18 18 18 19 19 19 19 19 20 19 19 19 18 18
25 27 27 26 25 26 26 26 24 22 21 19 18 18 18 18 18 18 18 17 16 15 15 14 14 15 15 14 13 12 11 11 12 13 14 15 16 17 18 18 19 20 20 21 21 20 20 20 19 20 20 20 21 21 21 21 21 21 21 20 20 20 20
26 27 26 26 27 28 28 27 25 23 21 20 20 20 20 20 20 20 19 18 17 17 16 15 14 14 14 14 14 13 13 13 13 14 14 15 15 16 17 18 19 20 21 21 22 22 22 22 22 22 22 22 23 23 24 24 23 23 23 23 23 23 24
26 27 28 29 30 29 29 27 25 24 23 23 22 22 22 22 22 22 21 19 19 20 18 16 15 14 14 14 14 14 14 14 14 14 14 14 14 15 17 18 19 21 22 23 23 24 24 24 24 24 24 24 24 25 26 26 26 26 26 25 25 26 26
23 25 27 29 30 29 28 26 25 25 24 24 24 24 24 23 23 23 22 21 21 21 20 18 16 15 14 14 14 15 15 15 15 14 14 14 14 16 17 19 21 22 23 24 25 26 27 27 26 26 26 26 26 27 28 28 28 29 28 27 27 26 26
20 22 23 25 26 27 26 25 25 25 25 25 26 26 25 25 24 23 22 22 22 21 20 19 17 14 13 14 15 16 17 17 16 16 16 16 17 18 20 21 23 25 26 27 28 28 29 30 29 29 29 28 28 28 29 30 29 29 29 29 29 28 29
21 21 20 21 23 24 25 25 25 25 25 26 26 26 26 25 24 23 23 22 22 21 20 19 18 16 15 16 16 17 18 18 19 19 20 20 21 22 23 24 25 27 28 28 29 31 32 32 32 31 31 32 31 31 31 31 31 30 30 31 31 31 31
20 20 20 21 22 24 25 25 26 25 25 25 27 27 26 25 25 26 25 24 24 23 23 22 21 21 21 21 20 20 21 22 22 23 24 25 26 27 28 29 28 29 29 29 30 31 31 32 33 33 33 33 33 33 33 33 33 32 32 32 32 32 32
17 18 19 20 22 23 24 25 26 27 25 24 25 27 27 26 27 28 27 27 26 26 25 25 25 25 25 26 25 25 25 26 26 27 28 29 31 32 33 33 31 31 31 32 32 32 31 31 32 32 32 34 34 35 35 35 34 34 34 34 35 35 35
17 17 18 19 21 22 23 24 26 28 26 23 23 25 25 25 26 27 28 28 28 28 28 28 29 28 29 30 30 30 30 30 30 31 31 32 34 35 37 36 33 31 32 32 32 33 33 33 33 32 31 33 36 37 37 36 35 35 35 36 37 38 38
20 20 21 22 22 23 24 26 27 28 28 27 26 25 25 25 26 26 28 28 29 30 31 31 32 33 33 33 33 33 33 33 34 35 35 35 36 37 37 36 34 33 33 33 34 34 34 35 36 35 35 36 38 37 35 35 36 36 36 37 38 38 39
24 25 25 26 26 26 28 29 29 29 31 32 30 28 27 27 28 29 30 31 32 33 33 34 35 36 37 36 36 36 36 37 37 37 38 38 38 40 41 40 39 38 38 38 38 37 36 35 35 36 37 38 38 37 34 33 34 35 36 36 37 37 38
28 29 29 30 29 30 31 32 31 31 31 32 31 31 30 31 32 33 33 34 35 35 36 37 38 40 40 39 39 39 39 39 40 40 40 40 41 44 44 42 41 42 42 42 41 41 39 37 35 36 36 38 39 38 36 35 34 34 35 36 36 37 38
32 33 34 34 33 33 34 35 34 34 34 35 36 36 36 36 37 37 37 38 39 39 39 41 42 44 44 44 42 41 40 39 39 40 41 41 42 44 43 43 43 45 46 45 44 43 43 42 41 40 39 39 41 40 38 37 36 36 36 37 38 39 40
36 37 38 38 38 37 37 37 38 38 39 39 40 40 40 41 41 41 41 42 43 43 42 43 45 47 47 46 44 43 41 40 40 42 43 43 45 46 46 46 47 48 48 48 46 45 45 45 44 43 42 41 42 42 41 40 40 39 39 40 41 42 43
40 41 42 42 42 42 42 42 42 41 41 42 43 44 45 44 43 44 44 44 44 44 43 44 45 46 46 45 44 44 44 45 45 46 47 48 48 49 49 50 50 50 50 50 49 47 45 44 43 43 43 44 44 45 45 45 44 44 43 44 44 45 46
43 43 44 45 44 44 45 45 44 44 44 46 48 48 48 47 46 46 46 45 45 45 45 46 47 48 47 47 48 49 49 49 50 50 50 50 50 51 51 51 51 50 50 50 50 48 47 46 45 45 46 47 47 47 47 47 46 46 45 45 46 47 47
44 44 45 46 46 45 46 47 47 48 49 47 47 47 48 48 47 47 48 48 50 51 51 51 51 52 52 52 52 52 52 52 53 52 52 52 51 50 50 50 50 49 50 49 48 47 48 48 48 48 49 49 49 49 48 48 47 46 45 45 45 45 45
46 46 45 46 46 47 48 49 50 51 50 49 50 51 52 53 54 55 55 55 56 56 54 53 53 53 54 54 53 52 52 52 53 53 52 51 49 47 47 49 49 50 50 49 49 48 49 48 48 47 47 48 48 48 48 47 47 46 45 44 44 44 44
47 47 47 48 48 49 51 52 53 54 55 57 58 59 59 59 60 61 62 61 60 59 57 55 55 55 54 54 53 53 52 52 52 51 48 46 46 46 47 49 50 50 51 50 51 50 49 47 46 46 47 48 48 47 46 45 45 45 45 44 44 43 42
53 54 55 56 57 58 58 59 60 60 61 62 63 63 62 62 62 63 63 63 62 62 60 58 57 57 57 57 56 54 53 51 50 48 46 47 48 48 49 51 51 50 51 51 50 50 48 47 47 48 49 49 49 48 46 45 45 45 45 44 42 40 40
62 62 63 64 64 64 64 63 63 63 64 64 64 64 64 64 64 64 64 64 64 63 62 61 60 59 59 58 57 56 55 52 50 48 49 52 52 50 50 52 52 51 50 50 50 50 50 50 51 51 51 51 50 50 49 47 47 47 46 44 42 40 41
64 65 65 66 66 66 66 66 65 66 66 66 66 66 66 66 66 66 65 65 66 65 64 64 63 62 61 59 58 57 56 55 54 53 53 53 52 50 52 55 55 54 53 53 53 54 54 54 53 52 51 52 52 51 51 50 50 49 47 45 43 43 44

ECMWFFLT1_500_spd_039.txt.gz
Wind_Speed
15 15 16 17 17 16 14 13 12 11 11 11 10 10 10 9 8 7 6 5 4 5 5 5 5 5 5 4 4 5 6 7 8 9 10 11 10 10 10 10 10 11 10 10 10 11 11 11 11 10 9 9 9 10 10 10 10 10 10 10 11 11 11
11 14 16 18 18 17 15 14 13 12 11 10 9 9 10 10 10 10 9 7 6 6 6 6 6 6 6 6 6 6 7 8 8 9 10 11 11 11 10 11 12 11 11 12 12 12 11 10 10 9 9 10 10 10 9 9 10 11 11 11 11 11 12
11 14 15 17 18 17 16 15 13 12 10 9 8 8 9 10 10 10 10 9 7 7 7 8 8 8 8 7 7 7 7 8 9 9 10 11 12 11 11 12 12 12 13 13 13 12 11 11 10 10 10 11 10 9 8 9 10 11 12 12 11 11 12
10 12 14 16 17 17 16 14 13 11 10 9 8 8 9 10 10 10 10 9 9 9 9 10 10 10 9 9 8 8 8 9 10 10 11 11 11 12 12 13 13 14 14 14 13 12 12 12 12 11 11 11 10 9 9 10 11 12 13 13 12 11 11
8 9 12 15 16 16 15 13 12 11 10 10 10 10 10 10 11 11 11 11 11 10 10 11 11 11 10 10 9 9 9 9 10 10 11 11 11 12 13 14 15 15 15 14 13 13 13 13 12 12 11 11 11 10 11 12 12 12 13 13 12 11 11
9 9 11 14 16 16 15 12 10 10 10 11 11 11 11 11 12 12 12 12 11 11 10 11 11 11 11 11 10 10 10 9 9 9 9 10 11 12 13 14 15 15 15 15 14 14 13 12 12 13 12 11 10 10 12 13 13 12 12 11 11 10 11
11 12 12 14 16 16 15 12 10 10 11 11 11 11 11 12 12 12 13 12 11 10 9 9 10 11 11 11 11 10 9 9 8 8 8 9 10 11 12 13 14 15 15 15 16 15 14 13 13 14 13 10 9 10 12 12 11 11 11 11 10 10 11
14 14 14 16 17 17 15 13 12 11 11 11 11 11 11 11 11 11 11 10 10 9 9 8 8 8 9 9 9 9 8 8 7 7 7 7 8 9 10 12 13 14 14 14 14 14 13 13 13 13 11 9 8 10 11 10 10 10 9 10 10 10 10
13 14 16 18 19 17 16 14 13 12 12 11 11 11 11 10 10 9 9 9 8 7 7 6 6 6 6 7 7 8 8 7 7 7 7 7 7 7 9 10 10 11 12 12 12 12 11 11 11 11 10 8 9 10 10 9 9 8 8 8 9 9 10
11 12 15 19 21 20 17 16 15 14 13 12 11 12 13 12 10 10 9 9 7 6 5 5 4 5 5 6 7 7 7 7 6 6 6 6 6 7 8 9 9 9 10 10 10 10 10 10 10 9 9 8 9 9 8 8 7 7 7 8 8 9 9
14 14 15 18 22 22 19 16 16 16 15 14 13 14 15 14 12 11 11 10 8 6 5 5 5 5 5 5 6 6 6 6 6 5 5 6 6 7 8 8 8 8 8 9 9 9 9 9 9 8 7 7 8 8 7 7 7 7 8 8 9 9 9
16 18 18 17 20 23 21 17 15 15 15 15 15 15 16 16 14 13 12 11 10 8 7 6 6 6 6 6 6 6 6 6 6 6 6 7 7 7 7 7 7 7 8 8 8 8 8 9 9 8 8 8 8 8 7 7 8 8 9 10 10 10 10
18 19 19 18 18 21 23 20 17 15 15 16 17 18 18 18 17 15 14 13 12 11 10 9 8 7 7 7 8 8 8 7 7 7 6 7 7 7 7 7 7 7 8 8 8 8 9 9 9 8 9 8 9 9 9 9 9 9 10 11 11 11 12
18 19 19 18 18 19 22 23 22 20 17 17 18 19 19 19 17 16 15 14 14 13 13 11 11 10 9 9 8 8 8 7 7 7 6 7 7 7 7 7 7 8 8 9 9 9 10 10 10 10 10 10 10 11 11 12 12 11 12 13 13 13 14
16 18 18 19 19 19 20 23 24 23 20 18 18 18 19 18 17 16 16 15 15 15 14 14 13 12 11 10 9 8 8 7 7 7 7 7 7 7 7 8 8 8 9 9 10 11 11 12 12 12 12 12 12 13 13 14 14 15 15 16 16 16 17
17 18 18 19 20 20 20 21 22 23 21 19 18 17 17 17 17 17 16 16 15 15 15 14 14 13 12 10 9 9 9 9 9 9 9 9 9 9 9 9 10 10 10 10 11 11 13 14 15 15 15 15 15 16 16 17 17 18 18 19 19 19 19
19 18 18 19 19 19 19 20 21 22 20 19 18 18 18 18 18 17 16 16 15 14 14 14 14 14 13 11 10 11 11 11 11 11 11 11 11 11 11 11 10 10 11 11 12 13 14 16 17 18 18 18 18 19 19 19 20 21 21 22 23 23 22
21 18 16 16 17 17 18 19 20 21 21 20 20 20 20 20 19 18 17 16 16 15 15 14 14 13 13 12 11 12 12 12 12 12 12 12 12 12 11 10 10 11 12 14 15 15 16 18 19 20 21 21 22 23 23 23 23 23 24 24 25 25 25
21 17 13 12 13 14 16 19 21 23 24 23 22 22 21 20 19 18 17 18 17 17 16 14 13 13 12 12 11 11 12 12 13 13 14 14 14 13 12 11 12 13 14 16 18 19 19 20 20 20 21 22 23 25 26 26 26 26 26 26 26 27 27
19 17 14 13 14 15 16 18 21 23 23 24 24 23 22 20 19 18 18 19 18 17 16 14 12 12 11 10 10 10 11 12 13 14 15 15 15 15 15 15 16 16 18 19 21 22 23 22 22 22 22 23 24 26 27 28 29 29 29 29 28 28 28
17 16 16 15 16 17 17 17 19 20 21 22 23 23 22 21 20 20 20 20 19 18 16 14 13 12 11 11 11 11 12 14 14 15 16 16 16 17 17 19 19 20 22 23 24 25 25 25 24 24 24 25 26 26 27 28 30 31 31 31 30 30 30
15 15 15 15 16 17 17 17 18 20 21 22 22 22 21 21 21 22 21 21 19 19 17 15 14 14 14 15 15 16 16 17 18 19 19 19 19 18 19 21 22 23 26 27 27 27 27 27 27 26 26 27 27 27 28 30 30 31 31 31 32 32 32
16 16 15 14 13 15 18 19 20 20 21 21 21 22 21 21 22 23 23 23 21 21 20 19 18 17 17 18 19 20 21 22 23 24 24 24 23 23 23 25 26 27 28 28 28 27 27 28 29 28 27 27 28 28 30 31 32 32 32 33 34 35 35
15 15 14 13 13 12 15 19 19 19 20 20 21 22 22 22 22 21 22 23 23 23 23 22 22 21 21 22 23 24 25 26 27 28 28 28 29 29 29 31 31 30 30 29 29 30 31 32 32 31 30 30 30 32 33 33 33 34 35 36 36 35 34
16 16 15 15 15 14 15 18 18 17 19 20 21 22 23 23 22 21 20 21 22 22 22 23 23 24 24 25 26 27 28 29 30 30 30 31 32 33 34 35 35 35 34 33 33 34 35 35 35 34 34 33 33 34 35 34 33 33 33 35 35 33 32
22 22 21 20 21 22 23 23 21 20 21 22 23 24 24 24 25 23 22 23 23 23 24 24 25 26 27 28 29 30 31 31 32 32 33 34 35 36 37 37 38 39 38 37 36 36 36 36 35 34 35 35 36 37 36 36 36 35 35 36 34 32 32
24 25 25 26 27 28 28 26 25 24 25 25 26 27 27 27 27 26 26 26 26 26 27 27 28 29 30 31 32 33 33 34 34 35 36 37 38 39 39 39 38 39 40 40 40 39 40 39 38 38 39 40 41 40 39 38 39 39 39 38 35 34 34
28 29 29 30 30 30 30 29 28 28 28 29 30 31 31 31 30 29 28 28 29 30 30 30 31 32 33 33 34 35 36 37 37 37 37 37 39 41 41 41 40 41 42 43 44 45 45 45 44 44 44 44 44 43 41 40 40 40 39 38 37 37 38
32 32 33 33 33 33 33 33 32 32 32 33 35 36 36 35 34 33 32 31 32 32 32 33 34 35 36 36 38 39 40 40 40 39 38 38 39 41 43 44 44 44 45 46 48 50 50 50 49 48 47 46 45 44 43 41 39 39 38 38 38 39 41
34 35 35 35 35 35 35 35 35 36 36 38 38 39 39 39 38 37 35 34 34 35 35 36 37 38 39 40 41 42 42 42 42 41 41 42 43 44 45 46 46 47 49 51 51 52 52 52 53 51 49 47 45 44 43 41 40 39 39 39 40 41 42
36 36 37 37 37 37 37 37 37 38 39 41 42 43 43 44 44 43 41 39 39 39 38 39 40 40 41 42 42 42 43 43 44 45 46 47 48 47 47 48 50 51 52 52 51 51 51 52 52 52 51 49 47 45 43 41 40 40 40 40 41 41 42
38 38 39 39 39 40 40 40 40 41 42 43 44 45 47 48 49 49 48 47 47 45 43 42 42 41 41 42 43 44 44 46 48 50 51 52 51 50 49 51 52 52 51 50 48 47 47 48 49 49 49 48 47 46 44 43 42 41 41 40 40 40 41
41 41 42 42 42 43 43 43 43 44 44 45 45 46 47 48 49 50 50 50 51 50 49 48 46 45 44 46 47 48 50 52 54 56 55 54 53 53 52 53 53 52 51 50 48 46 46 46 45 45 46 46 47 46 46 46 45 42 40 40 40 41 42
42 43 44 45 46 47 47 47 47 47 47 47 48 48 49 50 51 52 52 53 53 53 53 53 52 51 52 53 54 55 56 57 58 58 56 56 55 54 53 53 54 53 51 50 49 48 47 46 44 44 46 47 48 49 48 48 46 43 42 42 43 43 44
41 43 44 46 47 48 49 49 49 48 47 47 49 50 52 54 55 56 56 56 56 57 58 58 57 57 59 60 61 61 59 58 58 57 57 57 57 55 54 53 52 50 49 48 48 48 47 47 47 47 48 49 49 49 48 48 46 45 45 46 46 46 46
47 48 48 49 50 50 51 52 53 53 53 54 55 56 57 59 60 61 62 63 64 64 65 65 65 65 64 64 64 63 60 59 58 57 57 58 57 55 54 52 49 47 45 44 45 47 48 49 50 51 52 52 51 50 48 48 47 47 48 49 49 49 48
52 52 53 54 54 55 57 58 59 60 61 62 63 63 63 63 64 65 66 68 69 69 69 69 69 68 67 66 65 64 62 61 60 59 58 58 57 55 53 49 48 49 49 48 49 51 52 53 54 54 53 53 53 53 52 52 51 51 51 51 51 50 48

ECMWFFLT1_500_spd_042.txt.gz
Wind_Speed
9 10 10 9 8 8 9 9 9 9 10 10 11 11 11 11 10 9 8 7 6 5 5 5 5 6 7 8 9 8 8 7 6 6 6 6 7 8 8 7 7 8 9 9 10 10 11 10 10 9 9 8 8 8 9 10 10 11 11 11 11 13 14
6 7 9 10 10 9 10 10 11 11 11 11 11 11 11 12 11 10 9 8 7 7 6 6 6 6 7 8 9 9 9 8 7 7 6 6 7 8 8 8 8 9 10 10 11 12 12 11 10 10 10 9 9 9 11 11 11 12 11 11 12 14 15
4 5 8 10 11 11 11 11 11 11 11 11 10 10 10 11 11 11 10 10 10 9 9 9 8 8 8 8 9 10 10 9 9 8 7 6 7 8 8 8 9 10 11 12 13 13 12 12 11 11 10 10 10 11 12 12 12 13 12 12 13 15 15
5 5 7 9 11 12 11 11 11 11 11 10 10 9 9 10 10 10 10 10 11 12 12 11 10 10 10 10 11 11 11 11 10 9 8 7 7 7 8 8 9 10 11 12 13 13 13 12 12 12 12 12 12 12 13 14 14 14 13 13 14 16 15
6 5 6 7 10 11 11 11 11 11 11 11 11 11 10 10 11 11 11 12 13 14 15 14 13 13 13 13 13 13 13 12 11 10 10 9 8 8 7 8 9 10 11 11 11 12 13 13 13 13 13 13 13 14 15 15 15 15 14 14 14 15 15
7 7 7 7 9 11 11 11 11 10 11 12 13 13 13 12 13 14 15 15 16 17 17 17 16 16 16 16 15 15 14 14 12 12 11 11 10 9 8 9 10 10 11 11 11 12 13 13 13 13 13 13 14 16 16 16 16 15 14 14 14 14 14
10 10 10 10 10 12 12 12 11 11 12 13 14 15 15 14 15 16 17 19 20 20 19 19 18 18 17 17 17 16 15 14 14 13 13 12 11 10 10 10 11 10 10 10 11 12 13 12 13 13 13 14 16 16 16 15 15 14 14 14 14 14 14
13 13 12 12 13 14 14 13 13 13 13 14 14 14 15 15 15 16 17 18 20 20 19 19 18 18 17 17 16 15 14 13 13 13 13 12 12 11 11 10 10 10 10 10 11 12 12 12 12 13 14 15 16 15 14 14 14 14 14 13 13 13 13
14 14 14 14 15 16 16 15 14 14 15 15 14 14 14 14 14 14 14 15 16 17 17 17 17 16 16 15 13 11 10 11 12 12 12 12 12 11 10 9 9 10 10 10 11 11 11 12 12 13 14 15 14 13 12 13 13 13 13 13 12 12 12
16 15 15 15 16 17 17 16 16 16 17 17 15 14 14 14 14 14 13 13 14 14 15 15 15 14 14 13 11 10 10 10 11 12 13 13 13 11 11 10 10 10 10 10 10 11 11 11 11 13 14 14 12 11 11 11 11 12 12 12 11 11 11
18 18 17 16 17 17 17 17 17 18 18 18 17 16 15 15 15 15 14 14 14 14 14 13 13 13 13 13 12 11 12 12 12 12 13 13 13 13 12 11 11 10 10 10 10 10 9 10 11 11 12 12 11 11 11 10 11 11 11 12 12 12 12
18 19 19 19 19 18 17 16 18 18 18 19 19 18 17 16 16 16 15 15 14 14 13 13 12 13 13 14 14 14 14 13 13 13 14 14 14 14 13 12 11 11 11 10 10 10 10 10 11 11 12 12 12 12 12 11 11 11 11 12 12 13 14
18 19 21 22 22 21 19 17 17 19 19 18 18 17 17 17 17 17 16 16 16 15 14 13 13 13 14 14 15 15 15 15 15 15 15 15 14 14 13 13 12 11 11 11 11 11 11 12 12 12 12 12 12 12 12 11 11 11 12 13 14 14 15
20 21 22 24 24 22 20 18 17 19 21 20 18 16 16 17 18 18 18 17 16 16 15 14 14 15 15 15 16 16 16 16 16 16 16 15 14 14 13 13 12 11 11 11 11 12 12 12 11 10 10 10 11 11 11 11 12 12 13 14 14 15 15
20 19 19 20 22 20 18 17 16 18 22 23 20 18 16 16 17 18 18 17 16 16 16 15 15 15 15 15 16 16 15 16 16 16 15 14 14 14 13 13 13 12 12 13 12 12 12 10 9 8 8 8 9 10 10 11 12 13 13 14 15 15 15
21 18 16 15 17 17 16 16 17 19 22 24 23 20 17 16 16 16 17 17 17 16 16 16 16 15 15 15 15 15 15 15 14 14 14 14 14 13 13 13 13 13 13 12 12 11 10 8 7 7 8 8 9 10 11 11 12 13 13 14 15 16 17
24 20 17 15 15 15 15 16 18 20 22 23 22 20 17 16 16 16 17 17 17 16 16 17 17 16 16 15 15 15 15 14 14 14 14 13 13 12 12 12 12 12 11 11 10 9 8 7 7 8 9 10 11 11 12 12 13 14 15 16 16 17 18
23 23 23 19 16 15 16 17 18 19 21 22 22 20 18 17 17 18 18 17 16 16 16 16 16 16 16 15 16 15 15 15 15 15 14 13 12 11 11 10 10 9 8 8 8 8 9 9 10 11 11 12 12 13 14 15 15 16 17 18 18 19 20
21 26 27 22 16 14 15 16 17 18 20 22 22 20 19 19 19 19 18 17 16 15 15 15 16 16 16 16 16 16 16 17 17 16 15 13 12 11 10 10 10 9 9 10 11 11 12 13 14 15 16 17 18 18 18 18 18 19 19 20 20 21 22
19 23 25 21 16 14 14 15 15 16 19 22 23 23 22 20 19 19 19 18 17 16 15 15 16 16 16 16 17 17 17 17 17 16 15 13 11 11 11 12 12 12 13 14 15 15 16 17 18 19 20 21 21 20 20 20 20 19 20 20 21 23 24
16 18 20 20 18 17 16 17 16 17 19 22 23 23 22 20 19 19 19 19 18 18 17 16 16 17 17 17 17 17 17 17 17 17 15 14 13 13 14 15 15 15 16 16 17 19 19 19 19 19 20 21 21 22 23 24 23 22 21 21 23 24 26
15 16 18 19 18 17 18 19 20 21 21 22 22 23 21 20 19 19 19 19 18 18 17 17 17 17 17 17 17 17 18 18 18 18 17 17 17 17 18 19 19 19 20 20 21 22 23 23 22 21 21 22 24 26 28 29 28 27 26 26 26 27 28
17 17 17 17 17 17 17 17 20 22 23 21 21 23 22 21 20 20 19 19 18 18 18 18 18 18 19 19 19 19 20 19 19 19 19 19 19 20 21 22 23 23 24 24 25 25 26 26 25 24 24 25 27 28 29 29 29 29 30 30 29 29 30
15 16 16 16 16 16 15 16 17 19 22 23 22 23 23 22 21 21 21 21 20 20 20 21 21 21 21 22 22 22 22 22 21 21 21 21 21 22 23 23 24 25 26 27 28 28 29 29 28 27 27 27 28 28 28 29 29 30 30 31 32 33 33
14 14 15 15 15 15 15 17 18 18 21 23 22 22 23 23 22 22 23 22 22 21 21 21 22 23 24 24 24 24 24 24 24 23 23 23 24 24 25 25 26 27 28 29 29 30 30 30 30 30 29 28 28 29 29 30 31 32 33 34 36 37 37
19 18 17 16 17 18 18 19 20 19 19 20 22 22 22 23 23 24 24 24 23 23 22 22 23 24 25 25 25 25 25 25 25 25 25 26 26 27 28 28 29 30 31 30 30 30 31 31 32 32 32 32 31 32 33 34 36 37 37 38 39 40 40
23 23 22 21 21 22 21 20 21 21 19 20 22 23 22 23 24 24 24 25 25 25 25 25 25 26 26 27 27 27 27 27 27 27 27 28 29 30 32 33 33 32 32 31 31 31 32 33 34 35 35 35 36 37 38 40 42 43 42 42 42 42 42
23 24 24 25 25 25 24 22 23 24 22 21 22 22 22 24 26 26 27 27 27 28 29 29 29 29 30 30 31 31 31 30 30 30 30 30 31 33 33 33 32 32 32 33 34 35 36 37 39 39 40 40 40 41 43 45 46 47 47 46 45 44 42
25 25 25 25 26 27 27 27 28 29 27 26 27 27 28 29 29 30 31 31 31 32 33 33 33 33 33 34 35 35 35 34 33 33 33 33 34 33 32 32 33 35 36 37 37 39 42 43 44 44 44 44 45 46 48 49 49 49 48 47 46 45 43
28 28 28 28 29 29 30 31 32 33 34 35 35 36 34 33 33 34 35 36 36 36 37 37 37 37 37 38 39 39 39 38 37 37 36 37 38 37 37 38 39 39 39 40 41 43 46 47 48 47 46 46 47 49 50 49 49 49 49 48 48 46 44
31 32 33 33 33 33 33 34 35 36 37 38 39 39 38 37 38 38 39 40 40 40 40 40 40 40 41 41 42 42 42 42 41 41 40 41 43 43 42 42 42 42 42 43 45 47 49 49 49 48 47 48 49 50 50 50 51 51 49 48 47 46 44
35 36 36 36 37 37 36 36 37 37 38 39 40 41 41 41 41 41 42 43 44 44 45 45 44 44 45 45 46 45 45 45 46 45 44 44 45 45 44 43 43 44 46 47 48 50 50 50 49 49 49 49 49 50 51 52 52 50 48 47 46 45 43
39 39 40 40 40 41 41 40 40 40 40 41 42 42 43 43 44 44 45 46 47 48 49 50 50 50 50 51 51 51 51 50 50 50 49 47 46 46 46 47 47 49 51 51 51 51 52 52 51 50 50 49 48 49 51 52 50 48 47 47 45 44 43
38 40 41 42 42 43 44 44 44 45 45 45 45 45 46 47 47 48 48 49 50 51 52 52 53 53 53 54 54 54 55 55 54 53 52 51 49 49 50 51 53 55 57 56 55 54 54 54 53 52 51 50 49 50 51 51 50 48 47 46 46 46 45
38 38 39 39 40 41 42 43 44 45 46 47 48 48 48 49 49 50 50 51 52 52 53 54 54 54 54 54 54 54 55 56 56 55 55 55 54 54 55 57 58 60 61 61 58 56 55 54 53 52 51 51 51 50 49 49 49 49 48 47 47 47 45
42 42 42 42 43 44 45 45 46 46 47 48 49 50 50 51 51 51 51 51 52 52 52 52 53 54 54 54 55 56 56 57 59 60 60 60 60 61 62 63 62 62 62 60 57 56 54 52 51 49 49 50 51 49 46 45 45 47 48 48 48 47 47
43 43 44 45 46 47 48 49 50 51 52 52 52 53 53 54 55 55 55 55 56 56 56 56 57 58 59 60 61 62 62 62 63 64 64 64 65 65 65 63 60 60 59 56 54 53 51 49 48 47 45 46 47 46 44 43 45 48 51 51 50 50 49

ECMWFFLT1_500_spd_048.txt.gz
Wind_Speed
21 20 21 22 22 22 21 20 19 18 17 16 15 15 14 14 14 13 12 11 11 10 9 8 8 8 8 7 7 7 6 6 6 6 6 6 5 5 5 5 6 6 7 8 9 10 10 12 13 14 14 14 13 13 13 14 14 15 16 15 15 15 15
21 22 23 23 23 23 22 21 21 20 18 17 16 15 15 15 14 14 13 12 12 11 10 9 8 8 8 8 8 8 7 7 7 7 6 6 6 6 6 5 6 7 7 8 9 10 10 12 14 15 15 15 16 15 15 15 16 17 17 17 17 17 17
22 24 24 24 24 24 23 23 22 21 19 18 17 16 16 15 14 14 14 13 13 12 11 10 10 9 8 8 8 8 8 8 8 8 7 7 7 7 7 7 7 8 8 9 10 11 11 12 14 15 16 17 18 18 18 18 19 19 19 19 19 19 20
25 26 27 26 26 24 23 23 22 21 20 19 18 17 16 15 15 14 14 13 13 13 12 12 12 11 10 8 8 8 9 9 9 9 9 9 8 8 8 8 9 9 10 10 11 12 12 13 14 15 16 17 18 19 19 19 20 20 21 21 21 22 22
28 28 28 27 25 24 23 23 23 21 20 19 18 18 16 15 15 14 13 13 12 13 13 13 13 13 11 10 10 10 10 10 10 10 11 11 10 10 10 10 11 11 12 12 12 12 12 13 14 15 15 16 17 18 18 19 20 20 21 22 22 22 22
29 29 27 25 24 23 23 23 22 21 20 19 18 18 17 16 15 14 13 12 12 13 13 13 13 14 13 13 13 12 12 12 12 12 13 13 12 12 12 12 13 13 13 12 12 12 13 14 14 15 15 16 16 16 16 17 18 19 20 21 21 21 22
29 27 25 23 23 23 23 22 22 21 20 19 19 18 17 16 15 14 13 12 13 13 13 13 13 14 15 15 15 14 14 13 13 14 14 15 15 14 14 14 14 14 13 12 12 12 13 14 14 15 15 15 15 14 15 16 18 19 19 20 20 21 21
27 26 24 23 21 21 21 21 21 21 20 19 19 18 17 16 14 14 14 14 14 14 14 14 15 16 16 17 16 16 16 15 15 14 15 16 16 15 14 14 14 13 13 12 12 13 14 15 15 15 14 14 14 14 15 16 18 19 19 19 20 20 20
27 25 24 23 22 21 20 19 19 19 18 18 17 17 16 15 15 14 14 14 14 14 15 15 16 17 17 18 18 18 18 17 16 15 15 16 16 16 15 15 14 13 13 13 13 14 15 15 15 14 14 14 14 14 15 17 18 18 18 19 19 19 19
26 26 25 24 23 21 19 18 17 16 15 16 16 16 16 16 16 16 15 15 15 15 16 16 17 17 18 18 18 18 18 17 16 15 15 15 16 15 15 15 15 14 14 14 14 15 15 15 14 14 14 14 14 15 16 17 18 18 18 18 18 18 17
26 27 26 25 23 21 18 16 16 15 15 15 16 17 17 18 18 17 17 16 16 16 17 17 16 16 16 16 16 17 17 17 17 17 16 16 15 15 15 15 15 15 15 15 15 15 15 15 14 15 15 15 15 15 16 16 17 17 17 17 17 17 17
23 23 24 24 23 20 16 15 16 15 15 16 16 17 18 18 18 19 18 18 17 17 18 17 16 16 14 14 14 15 15 16 16 16 16 16 16 16 16 16 16 15 15 15 15 15 15 15 15 15 15 15 15 15 15 16 16 17 17 17 17 17 17
20 21 23 23 21 19 16 16 16 15 14 16 16 17 18 19 19 20 20 19 19 19 18 17 17 16 14 13 13 14 14 15 15 14 14 15 16 16 16 16 15 15 15 15 16 16 16 17 17 17 17 17 16 16 16 16 17 18 18 18 17 18 18
18 19 21 21 20 20 18 17 17 15 15 16 17 16 17 18 20 21 21 21 20 20 20 19 17 16 15 13 13 13 14 14 13 13 13 14 15 15 16 15 15 15 16 17 17 18 19 19 19 19 19 18 18 17 17 18 18 18 17 17 16 16 16
17 18 19 19 20 21 20 18 17 17 18 19 20 19 18 18 19 21 22 22 22 22 22 21 19 17 16 15 14 14 14 14 14 14 14 14 15 16 16 16 16 16 17 18 19 20 21 21 21 21 21 20 19 19 18 18 17 17 16 16 15 15 16
18 19 20 21 21 22 21 19 17 17 20 22 23 23 21 20 20 21 22 23 23 23 23 22 21 19 18 17 16 16 16 16 15 15 15 16 16 17 17 17 18 18 19 19 20 21 21 22 22 22 22 21 21 20 19 18 18 18 18 18 17 17 16
18 20 21 22 23 23 23 20 18 18 20 22 23 23 22 21 20 20 21 23 23 23 22 21 21 20 19 19 18 18 18 17 17 16 16 17 17 18 18 19 19 20 20 21 21 22 22 22 23 23 23 23 22 20 19 19 19 18 18 17 16 16 16
19 20 21 21 22 23 22 22 21 19 19 21 21 21 21 20 19 19 20 22 24 24 23 21 21 21 21 21 21 21 20 19 18 17 17 17 18 18 18 19 20 21 22 22 22 22 23 23 23 24 24 24 23 21 20 18 17 16 16 16 16 17 18
20 20 21 21 21 21 22 22 23 22 21 20 19 19 20 19 18 18 18 21 24 26 26 25 24 23 23 24 23 22 21 21 20 19 18 18 18 18 19 20 21 21 22 22 23 23 23 23 24 24 24 23 22 20 18 17 16 16 17 18 18 19 20
20 20 22 22 21 20 20 21 21 21 23 22 19 18 19 18 18 18 19 21 23 26 27 28 27 26 26 25 24 23 22 21 21 20 19 19 19 19 20 20 21 21 22 22 23 23 23 23 23 23 22 21 20 19 18 18 18 19 20 20 20 20 21
22 21 22 24 25 24 25 26 25 23 24 25 20 18 17 16 17 17 17 19 22 23 25 27 27 26 26 25 24 23 23 22 22 21 21 20 20 20 21 21 22 22 22 22 22 22 22 22 22 22 22 22 22 22 21 21 21 21 21 21 21 22 22
24 23 23 23 25 26 27 28 27 25 26 26 22 18 18 17 16 16 15 17 19 21 23 25 25 26 26 25 24 24 23 23 23 23 22 21 21 21 22 22 23 22 22 22 22 22 22 22 23 24 25 25 25 25 25 24 24 23 23 22 22 22 22
21 21 22 21 21 22 22 20 18 17 19 23 21 18 20 20 18 17 17 17 19 21 22 24 25 26 26 26 25 25 24 24 24 23 23 22 22 23 23 23 23 23 23 23 23 24 24 25 25 26 27 27 27 27 27 26 25 24 24 23 22 22 21
19 20 21 21 20 21 22 20 16 13 13 17 19 20 22 21 19 18 18 19 21 22 23 23 24 24 25 26 26 26 25 24 23 23 23 23 24 24 24 24 24 24 25 25 26 27 27 28 28 28 29 29 29 29 28 27 26 25 24 24 23 22 22
19 19 19 19 19 19 20 20 18 17 16 17 19 22 22 20 18 16 16 18 21 23 23 23 22 23 24 24 25 25 24 23 23 23 24 24 25 25 25 26 26 26 27 28 29 30 31 31 31 30 30 30 29 29 28 28 28 27 26 26 25 25 24
20 20 20 20 19 19 20 20 20 20 20 20 20 21 21 20 18 16 15 17 19 21 23 23 22 22 22 23 23 23 23 23 23 24 25 25 26 26 27 28 28 29 30 31 31 32 32 32 32 31 31 30 30 30 30 30 30 30 29 29 29 29 29
20 20 21 21 22 22 22 22 22 23 23 22 21 20 20 20 20 20 18 17 18 20 22 24 24 24 23 23 23 23 23 24 24 25 25 26 27 28 29 30 31 32 33 33 33 33 33 33 33 33 33 32 32 32 32 32 32 32 31 32 32 33 34
20 21 21 21 22 23 23 23 23 23 23 23 22 23 23 23 23 23 22 21 21 21 22 24 26 26 26 25 24 24 24 25 25 26 26 27 28 29 30 31 32 33 34 34 34 35 35 35 35 36 35 35 34 34 34 34 34 34 34 35 36 36 37
22 22 22 22 22 22 22 22 21 22 23 23 24 25 25 25 24 25 26 27 26 24 24 25 27 28 28 27 27 26 26 26 26 27 28 29 30 31 32 33 34 35 35 36 37 38 39 39 39 39 38 37 38 38 37 37 38 38 38 39 38 39 40
24 24 24 24 24 24 25 25 24 24 25 24 23 25 27 28 29 29 28 29 28 27 27 27 28 30 30 30 29 29 28 29 30 31 31 32 33 34 35 36 37 37 38 39 40 41 42 42 42 42 42 42 42 42 41 41 41 41 42 42 42 42 42
27 27 27 27 27 27 29 29 28 28 28 26 26 28 31 31 32 31 30 30 30 30 30 31 31 32 33 34 33 33 33 33 34 35 36 37 38 39 40 41 41 41 41 42 43 43 44 44 45 45 45 45 45 44 44 44 44 44 44 44 44 44 45
29 30 29 29 30 30 30 30 31 31 31 30 31 33 34 34 34 33 32 33 33 34 35 35 35 36 36 37 38 39 40 40 40 40 41 41 42 43 44 45 44 43 43 43 44 45 45 46 46 46 46 46 46 47 47 47 48 48 48 47 47 48 49
31 32 31 31 32 32 32 32 33 33 33 34 35 35 36 37 37 37 37 37 37 38 39 40 41 41 41 42 44 45 46 47 47 46 46 46 46 47 48 48 47 47 47 47 47 48 48 48 49 50 51 52 53 54 54 55 55 55 55 55 55 55 54
35 35 34 34 34 35 35 35 35 35 36 37 38 39 39 39 40 41 41 42 43 43 44 45 46 47 47 48 49 49 50 51 51 51 50 50 50 50 51 51 51 52 53 53 53 53 53 53 54 54 55 56 57 58 58 59 58 58 59 59 58 58 57
39 40 40 40 40 40 40 40 40 40 40 40 40 41 41 42 43 44 45 46 47 47 48 48 49 50 51 51 52 53 53 53 53 53 53 53 53 54 54 55 55 57 58 58 57 57 57 58 58 58 59 59 59 59 59 60 59 58 57 57 57 57 57
42 43 44 44 45 45 45 45 45 44 44 43 43 42 42 42 43 44 44 45 46 47 47 48 49 50 51 51 52 52 53 53 53 53 53 54 54 55 56 57 58 60 61 62 62 61 61 61 60 60 60 60 59 59 59 60 60 59 58 59 59 59 59
43 44 45 45 46 46 47 47 47 47 46 46 45 45 44 44 44 45 45 46 47 48 49 49 50 50 51 51 52 52 52 53 54 54 54 55 55 56 57 58 59 61 62 63 64 64 64 63 62 62 61 61 61 61 61 61 62 63 63 63 63 61 59

ECMWFFLT1_500_spd_051.txt.gz
Wind_Speed
26 26 25 24 24 23 24 24 24 23 22 22 21 20 18 17 17 16 15 14 14 13 13 13 13 12 11 10 8 7 7 7 8 8 9 9 9 9 9 8 8 7 5 5 6 6 6 7 7 8 8 9 9 10 11 12 12 12 13 14 14 15 15
25 27 26 25 25 25 25 25 24 24 24 23 22 21 20 19 18 18 17 16 15 14 14 13 13 13 12 11 9 8 8 8 8 8 9 9 9 9 9 9 9 8 6 6 6 7 8 8 8 9 9 10 11 12 12 12 12 12 14 15 15 15 15
26 27 27 26 27 26 26 25 25 25 24 24 23 21 21 20 20 20 18 17 16 15 14 14 13 14 13 12 11 10 9 9 9 9 9 10 10 10 10 10 10 9 8 8 7 8 9 8 8 9 10 11 11 12 13 12 13 13 14 15 15 15 15
27 29 28 28 27 26 26 26 25 25 25 24 23 22 22 21 21 20 19 17 17 16 15 15 15 14 14 13 12 11 10 10 10 10 10 10 11 11 11 11 11 11 10 9 9 10 9 9 10 10 10 11 11 12 13 13 13 14 14 14 14 14 15
29 31 30 29 27 26 27 27 26 25 25 25 24 23 23 22 21 20 19 18 17 17 16 16 16 16 15 14 13 12 11 11 10 10 10 11 12 13 13 13 13 12 12 11 11 11 10 10 10 10 10 11 11 12 12 12 13 14 14 14 14 14 15
29 31 30 28 27 27 27 27 26 25 25 25 24 24 23 22 21 20 19 18 17 17 17 17 17 17 16 15 15 14 13 12 11 11 11 12 13 14 14 14 14 13 13 13 13 12 11 11 11 11 11 11 12 13 13 13 13 14 14 14 14 15 15
26 28 28 28 27 27 27 26 25 25 25 25 24 23 22 21 20 19 19 18 17 16 16 16 17 17 17 17 17 16 14 14 13 12 13 13 14 14 15 15 15 15 15 14 14 14 13 12 12 12 12 12 13 14 14 14 14 15 15 15 15 16 16
25 26 27 27 27 26 26 25 25 25 25 24 23 22 21 20 19 19 19 18 17 16 16 15 15 16 16 17 17 17 16 16 15 14 14 15 15 16 16 16 16 16 16 15 15 15 14 13 13 13 13 13 14 15 16 15 15 15 15 15 16 16 16
25 26 26 26 25 25 25 24 24 24 23 22 22 21 20 19 18 18 18 18 18 18 17 16 15 15 15 16 17 17 17 17 17 16 16 15 16 16 16 16 16 16 16 15 15 15 15 15 15 14 14 14 15 16 16 16 16 16 16 16 16 16 16
26 27 27 26 26 26 24 23 23 22 20 19 20 19 19 18 17 17 18 19 19 19 18 17 15 15 15 16 16 17 18 18 18 17 16 15 15 15 15 16 16 16 16 16 17 17 16 15 15 15 15 15 16 16 16 16 16 16 16 16 16 15 15
27 27 27 27 27 25 23 22 20 19 17 17 17 17 17 17 17 17 18 18 19 19 19 17 16 16 16 16 16 16 16 17 16 16 15 14 14 14 14 15 17 17 17 17 17 17 17 16 15 15 16 15 15 15 15 15 15 15 16 15 15 14 14
25 26 26 26 25 23 22 20 18 16 15 15 15 16 17 17 17 17 17 17 18 19 19 18 17 16 16 16 15 15 15 14 14 13 13 13 13 13 13 15 17 17 17 17 18 18 17 16 16 16 15 15 15 15 15 15 14 15 15 14 14 14 14
22 24 24 23 22 21 22 21 18 15 14 15 15 16 17 17 17 17 17 18 19 19 19 19 18 17 16 16 15 15 13 12 12 12 12 13 13 13 13 14 16 17 17 17 17 17 16 15 14 14 14 14 14 14 15 15 14 14 14 14 14 14 15
19 20 20 20 19 20 21 20 18 16 15 15 16 17 18 18 17 16 16 17 19 20 20 20 19 18 17 16 16 15 13 11 11 11 12 13 13 13 13 14 15 16 16 17 16 16 15 14 14 14 14 14 15 15 15 16 15 15 15 16 16 16 16
17 18 19 19 19 19 19 19 18 17 16 16 16 17 18 18 18 16 16 17 18 21 22 22 21 20 19 17 17 16 14 12 12 12 13 13 13 14 14 14 14 15 16 16 16 16 15 15 15 15 16 16 16 16 17 17 17 16 17 17 17 17 17
17 18 19 19 19 18 18 19 19 18 18 18 19 19 20 20 20 20 19 19 19 21 23 23 23 22 21 19 18 17 16 15 14 14 14 15 15 15 15 15 15 16 17 17 17 18 18 18 18 18 18 18 18 17 17 18 18 18 18 18 18 18 18
17 17 18 19 18 18 18 18 19 19 19 19 20 21 21 22 23 24 23 22 21 22 23 24 24 23 22 21 20 18 18 18 17 17 17 17 17 17 17 17 17 18 19 19 20 20 20 20 20 20 20 19 19 18 18 19 19 20 20 19 19 19 19
16 16 18 19 18 18 18 19 20 20 20 20 21 21 21 22 23 24 24 23 22 22 22 23 24 23 22 21 20 19 19 20 20 20 20 19 19 19 19 19 19 20 20 21 21 21 21 21 21 21 21 20 20 20 20 20 21 22 22 21 21 21 20
16 17 19 19 19 18 18 18 19 21 22 23 23 22 21 21 21 22 22 22 21 21 20 22 23 24 22 21 20 19 19 20 20 21 21 22 22 22 21 22 21 21 21 21 21 21 21 21 21 22 22 21 21 21 22 22 23 24 24 23 22 22 21
19 19 19 19 19 19 18 18 19 20 22 24 24 24 23 22 20 20 20 20 20 19 19 20 22 24 24 23 22 21 21 21 22 22 23 23 23 23 23 23 22 22 22 22 22 22 22 22 22 23 23 23 23 23 24 24 25 25 25 24 23 23 23
21 22 21 20 19 18 18 18 19 20 21 23 24 25 26 25 22 19 19 19 19 18 18 19 21 22 24 24 24 24 24 24 23 23 23 23 23 23 23 23 23 23 23 22 22 22 23 23 24 24 24 24 24 25 25 26 26 26 26 25 26 26 26
23 24 24 23 20 18 19 21 21 21 23 25 26 27 27 25 23 21 19 18 18 17 17 18 20 21 22 22 23 23 24 24 24 23 23 23 23 23 24 24 24 23 23 23 23 23 24 24 25 25 25 26 26 26 27 27 27 26 27 27 27 27 27
24 24 24 24 24 23 24 25 22 20 19 20 22 25 28 28 25 22 20 19 18 18 18 18 19 19 19 20 21 22 23 24 24 24 24 24 24 24 24 24 24 24 24 24 24 24 25 25 25 25 26 27 27 27 27 28 28 28 28 29 29 29 29
23 23 23 24 24 26 27 25 20 17 16 15 15 17 24 28 27 23 22 21 20 20 20 20 20 19 19 19 20 22 23 24 25 25 25 25 24 24 24 24 24 24 25 25 26 26 26 26 26 26 27 27 28 28 29 30 30 31 31 31 31 31 31
22 21 21 21 20 22 23 21 18 16 15 14 13 13 15 20 24 24 23 23 22 22 22 22 22 21 21 21 21 22 23 24 25 26 26 25 25 25 25 25 25 25 26 27 27 27 27 27 27 28 28 29 30 31 32 33 33 33 33 33 33 33 33
18 17 17 18 18 18 18 17 16 15 13 13 13 13 13 15 19 22 24 25 24 24 23 23 24 23 22 22 22 23 24 25 26 26 26 25 25 25 25 25 26 27 28 28 29 29 29 29 30 31 32 32 33 34 35 35 35 35 35 35 35 35 36
17 16 17 18 18 18 18 18 18 17 17 16 16 16 16 17 19 22 25 26 25 24 24 25 24 23 23 23 24 25 25 26 26 27 27 26 26 26 27 27 28 28 29 30 31 31 32 33 34 35 35 36 36 37 38 37 36 37 37 37 38 38 38
18 18 18 18 19 20 20 20 20 20 20 20 19 18 18 18 19 21 23 24 24 24 25 26 26 24 24 24 25 26 27 28 28 28 28 29 29 29 29 29 29 30 31 32 33 34 36 37 38 39 39 39 39 40 40 39 38 39 39 39 40 40 40
20 20 20 21 21 21 20 20 20 20 21 21 20 20 19 18 18 20 22 24 25 26 27 28 27 26 25 25 25 26 28 29 30 31 31 31 31 31 31 31 31 32 33 34 35 36 38 39 40 41 41 41 41 42 42 41 41 41 42 42 42 43 43
22 22 23 23 23 22 22 21 20 21 21 20 20 20 19 20 21 23 25 27 28 29 29 29 29 29 29 29 28 28 29 31 32 33 33 33 33 33 33 33 33 34 35 37 38 39 40 41 42 43 44 44 43 43 43 42 43 43 44 45 45 46 46
25 25 25 25 24 23 23 23 23 23 23 23 23 21 18 20 24 26 27 29 30 31 32 32 32 33 33 33 32 31 31 31 32 33 35 35 36 36 36 36 36 37 38 39 41 42 43 44 45 46 46 46 46 45 45 45 46 47 47 48 49 49 49
26 26 26 26 25 24 24 23 24 25 26 27 27 25 22 23 27 30 30 31 32 33 34 35 36 36 36 35 35 34 33 33 34 35 36 37 39 40 40 40 41 41 42 43 44 45 46 47 48 49 49 49 48 48 48 49 49 50 50 51 51 51 51
27 27 26 26 25 25 25 25 26 27 29 30 31 30 29 30 33 35 36 37 38 38 38 39 39 40 40 39 39 39 38 38 38 39 40 41 42 43 45 46 46 47 48 48 49 50 50 51 51 52 52 52 52 52 52 52 52 52 53 53 53 54 55
29 28 27 27 27 27 28 29 30 32 33 34 34 35 35 34 35 37 38 40 41 42 43 43 44 44 44 44 44 44 45 45 45 45 46 46 47 48 49 50 51 53 54 55 55 55 54 54 54 55 55 56 56 56 56 56 57 57 58 58 58 59 60
29 29 29 30 30 32 33 35 36 36 37 37 38 38 38 38 38 38 39 40 41 42 43 45 46 47 48 48 48 48 49 49 49 50 50 51 52 53 53 54 56 57 58 59 59 59 59 58 58 58 58 59 59 59 59 60 61 62 63 63 63 64 64
31 32 33 34 36 38 39 40 40 40 40 40 41 41 42 42 42 42 42 43 43 44 45 46 47 48 49 50 51 52 52 52 53 53 54 55 56 57 57 58 59 60 61 63 63 63 62 62 62 62 62 62 63 63 63 63 64 64 65 65 65 64 64
36 37 38 40 41 42 42 42 42 42 42 42 43 44 44 45 45 45 45 45 45 45 46 47 48 49 50 51 52 53 53 54 54 55 55 56 57 57 58 59 60 61 62 63 64 64 64 64 63 63 64 64 65 65 66 65 65 65 66 66 65 65 65

ECMWFFLT1_500_spd_054.txt.gz
Wind_Speed
25 25 24 24 25 24 23 22 21 21 21 21 22 21 20 19 19 18 17 17 17 17 16 16 16 15 16 16 15 15 15 14 14 13 13 14 13 12 11 10 10 10 9 9 8 9 9 8 8 7 8 7 6 6 6 7 7 7 7 7 7 8 9
24 24 25 25 25 24 24 23 23 22 22 22 22 21 21 20 19 18 17 17 18 17 17 16 16 16 16 16 16 16 15 15 14 12 11 12 13 12 11 10 10 10 10 10 9 9 10 10 9 9 9 9 8 8 8 8 8 8 8 9 9 9 9
25 28 29 28 25 24 24 24 23 22 22 22 22 21 21 20 20 19 18 18 18 18 17 17 16 17 17 17 16 16 16 15 14 12 11 11 11 11 9 9 11 11 11 11 10 10 11 11 10 10 10 10 9 9 9 9 9 10 10 10 10 11 11
26 28 28 26 24 24 24 24 24 22 22 22 22 21 21 21 20 19 19 18 18 18 18 17 17 18 18 17 17 16 16 16 15 14 14 12 11 10 8 9 11 11 11 12 11 10 11 11 11 11 11 10 10 10 10 11 11 11 11 11 12 12 12
26 28 27 24 24 24 24 25 24 22 21 22 22 22 22 21 20 19 19 19 19 19 19 18 18 18 18 18 18 17 16 16 15 15 15 15 13 12 11 11 12 11 12 13 12 11 12 12 12 12 12 12 11 11 11 12 11 11 11 12 12 13 13
30 29 27 25 24 24 25 25 23 22 21 22 22 23 22 21 20 19 19 19 20 20 20 19 19 19 19 18 18 18 17 16 15 15 15 15 15 14 13 13 14 14 14 14 14 13 13 13 13 14 14 13 12 11 12 12 12 12 12 12 13 13 13
31 29 27 26 24 24 24 24 23 21 21 23 23 23 23 21 21 20 20 20 20 20 21 20 20 19 19 19 19 19 18 17 16 15 15 15 15 14 14 14 15 16 16 15 15 14 14 14 15 16 15 14 13 13 13 14 13 13 13 13 14 14 13
29 28 27 26 24 24 25 24 23 22 22 23 24 24 23 22 21 21 21 21 20 21 21 20 20 20 20 20 20 20 19 19 18 17 16 16 16 15 15 16 16 17 17 16 16 15 15 15 17 16 15 14 15 14 15 15 15 14 14 14 14 14 14
28 28 28 26 23 23 24 24 24 24 23 23 24 24 23 22 22 22 21 21 20 20 20 20 19 19 19 20 20 21 20 20 20 19 18 18 18 17 17 17 18 18 17 17 17 16 15 16 17 16 15 15 16 15 16 15 15 15 14 15 14 14 14
28 28 28 25 21 21 24 25 26 25 23 23 24 24 24 23 22 22 21 21 20 19 19 19 19 19 19 19 19 20 20 20 20 20 20 20 19 19 18 18 18 19 17 16 16 16 15 16 17 16 16 16 16 16 16 15 15 15 15 15 14 14 13
28 28 27 24 20 22 26 26 25 23 22 23 23 23 24 23 22 22 21 20 19 19 19 19 20 20 19 19 19 19 19 19 20 20 20 20 20 20 19 17 17 18 17 15 15 15 15 16 17 17 17 17 17 17 16 15 15 15 14 14 14 13 13
27 27 26 24 23 25 26 25 22 21 21 23 23 22 21 21 21 20 20 19 18 18 18 19 20 21 20 20 19 18 17 18 18 19 19 19 19 19 18 17 17 16 16 15 14 14 15 16 17 18 18 18 17 17 16 15 15 14 14 14 14 14 13
24 24 25 25 24 24 23 22 20 20 21 22 21 19 18 19 19 18 18 19 19 18 18 18 19 20 20 20 19 18 17 17 17 17 18 18 18 18 17 17 17 16 16 15 14 14 15 16 18 18 18 17 16 16 15 15 14 14 14 14 14 14 14
21 20 21 23 23 22 21 20 20 20 21 21 19 17 18 19 19 18 18 19 19 19 18 18 18 19 19 19 19 19 18 17 17 16 17 17 17 16 16 16 16 16 15 15 15 15 16 17 18 18 17 17 16 16 16 16 15 14 14 14 15 15 14
20 19 19 21 21 21 20 20 20 20 21 20 18 18 19 20 20 19 19 19 19 19 18 18 19 19 20 20 20 20 19 18 17 17 17 16 16 15 15 15 15 15 15 15 16 16 16 16 17 18 18 17 17 17 17 17 16 15 15 16 16 16 16
20 19 19 19 19 18 18 17 18 20 21 21 20 19 20 21 20 19 19 19 19 18 18 17 19 20 21 22 21 21 20 18 18 17 17 16 15 15 15 15 15 15 15 15 16 16 17 17 18 19 19 19 19 19 19 19 18 18 18 18 18 18 17
20 19 19 19 17 16 16 17 18 20 21 22 22 22 21 21 21 20 20 20 20 19 18 18 19 20 21 23 23 23 22 20 19 18 18 17 17 17 16 16 16 16 16 16 17 17 18 19 19 20 20 21 21 21 21 21 21 21 21 20 20 20 19
20 19 18 17 16 16 16 17 19 20 22 23 23 23 22 22 23 23 22 22 23 23 22 21 21 20 21 23 24 24 23 22 20 19 19 19 19 19 18 19 19 18 18 18 19 20 20 20 20 21 21 21 22 22 22 22 23 23 22 21 21 21 22
20 18 17 16 16 16 16 17 19 20 22 23 23 23 22 23 25 25 23 23 24 24 23 23 22 21 21 22 23 24 24 23 21 20 20 20 20 20 20 21 21 21 21 21 21 21 21 21 21 22 22 22 22 22 22 23 24 23 23 22 22 23 24
19 17 16 17 17 17 17 18 20 22 23 23 23 23 24 25 27 26 24 22 22 22 21 21 22 21 21 22 23 24 24 23 22 21 20 20 20 21 21 22 22 23 23 23 23 23 23 23 23 23 23 22 22 23 23 23 24 24 24 24 24 25 25
18 17 17 17 17 17 17 19 21 22 23 24 23 24 25 26 28 28 26 24 22 20 19 19 20 21 21 21 22 23 24 24 24 23 23 22 22 22 23 23 23 24 24 24 24 24 24 24 24 24 24 23 23 23 24 24 25 25 25 25 26 27 27
18 18 19 19 18 18 18 20 21 22 23 24 23 23 23 25 27 28 27 26 24 21 19 19 20 21 21 22 22 23 25 26 26 26 26 25 25 25 24 24 24 24 25 25 25 25 24 24 25 25 24 24 24 25 25 25 26 26 26 26 27 28 28
20 21 21 21 20 20 21 21 22 23 24 24 23 22 22 23 25 28 28 27 25 23 21 20 20 21 21 22 22 23 24 25 26 26 26 26 25 25 25 25 24 25 25 25 25 25 25 25 25 26 26 26 26 26 26 27 27 27 27 28 28 28 29
22 22 22 21 21 21 23 23 24 26 27 26 23 21 20 20 21 25 28 28 27 26 24 21 20 20 21 21 22 22 23 24 24 25 25 25 25 25 26 26 26 26 26 26 26 26 26 27 27 27 27 27 27 27 28 28 29 29 29 29 29 29 30
24 23 22 22 21 22 22 23 25 28 28 25 21 18 17 17 18 20 24 28 30 28 25 23 21 21 22 22 23 23 23 24 24 24 24 25 26 27 27 27 28 28 28 28 28 28 28 28 28 28 28 29 29 29 30 30 30 30 30 30 31 31 32
25 24 23 22 22 22 22 22 24 25 21 18 16 16 16 15 15 16 18 23 27 28 25 23 22 23 24 24 24 25 25 26 25 25 25 26 27 28 29 29 29 29 29 29 29 30 30 29 29 30 30 31 31 31 32 32 32 32 32 33 34 34 35
25 25 24 22 21 20 20 20 20 19 16 14 15 15 15 14 15 15 15 16 19 22 22 23 24 26 26 25 25 25 26 26 26 26 27 28 29 29 30 31 31 31 32 32 32 32 32 32 32 32 32 33 33 34 34 34 34 35 36 37 38 38 39
25 24 23 22 21 21 20 20 19 19 18 17 17 16 16 17 17 18 17 16 17 19 21 24 25 26 26 25 24 24 25 26 26 27 28 29 30 30 31 32 33 34 34 34 35 35 36 36 35 35 35 35 36 36 37 37 37 38 40 41 42 42 43
25 24 23 23 22 22 21 21 21 21 21 21 21 20 20 20 20 19 19 19 19 19 21 23 24 24 24 23 23 24 26 27 28 28 29 29 30 31 32 34 34 35 36 37 38 38 39 38 38 38 38 38 38 39 39 40 40 42 43 44 45 46 46
26 25 24 24 24 23 23 22 22 22 22 22 22 21 21 21 20 19 19 19 20 21 22 23 23 24 24 24 25 27 28 30 30 30 30 31 32 33 34 35 36 37 38 39 40 40 41 41 41 41 40 41 41 41 42 42 43 45 46 47 47 48 48
26 26 26 26 25 25 24 24 24 24 24 23 22 22 21 21 20 20 20 20 21 22 23 24 25 26 27 27 29 30 31 32 33 33 34 35 35 36 36 37 38 39 40 40 41 42 42 43 43 43 43 43 43 43 44 45 45 47 48 49 49 50 51
26 27 27 27 27 26 25 25 26 25 25 24 24 23 23 22 22 22 23 23 23 24 24 25 26 27 28 30 31 32 33 34 35 37 38 39 39 40 39 39 40 40 41 41 42 43 44 45 45 46 46 47 46 46 47 48 48 49 50 51 52 53 53
27 28 29 29 28 28 27 27 27 26 26 25 25 25 24 24 24 25 25 26 26 27 28 28 29 30 32 33 34 35 36 37 38 40 41 42 43 43 43 43 43 42 43 43 44 45 46 47 48 49 50 51 51 51 51 52 53 54 54 55 55 55 56
30 30 31 31 30 29 29 28 28 28 27 27 27 26 26 26 27 27 28 29 30 31 32 33 34 35 36 37 38 39 40 41 41 42 43 44 45 45 46 47 47 47 48 48 49 49 50 51 52 53 54 55 56 57 57 58 59 60 60 59 59 59 58
31 31 32 32 31 31 31 30 30 30 30 29 29 29 29 29 30 31 32 33 34 35 35 36 37 37 38 39 40 41 42 43 43 44 45 46 47 48 49 50 50 51 52 53 53 54 54 55 56 56 57 58 60 61 62 63 64 65 64 63 63 63 63
31 32 33 33 33 33 33 32 32 32 32 31 31 31 31 33 34 35 36 37 38 38 39 40 40 41 41 42 43 44 45 45 46 47 48 49 50 51 52 53 53 54 55 56 57 57 58 58 59 60 61 62 63 64 65 66 67 68 67 67 67 68 68
33 34 34 34 34 34 34 34 33 33 33 33 34 35 36 37 38 38 38 39 40 40 41 42 43 43 44 44 45 46 47 48 48 49 50 51 52 53 54 55 56 57 58 59 59 60 61 62 63 63 64 65 66 67 67 68 68 69 69 69 70 70 69

ECMWFFLT1_500_spd_057.txt.gz
Wind_Speed
22 23 23 24 24 22 22 23 20 18 18 17 17 17 16 15 15 15 15 16 16 16 15 14 14 14 14 14 14 14 13 13 13 13 13 13 13 11 12 12 11 11 12 11 10 9 8 9 9 8 9 9 9 8 7 8 8 8 8 8 8 8 8
22 22 22 24 24 21 21 23 21 19 19 17 17 17 16 16 16 16 16 16 17 16 15 15 15 15 15 14 14 14 14 14 14 13 12 13 13 11 11 11 11 12 12 12 11 10 9 9 10 9 9 10 10 10 9 10 10 10 10 10 10 10 10
23 22 21 24 25 22 22 23 21 19 19 17 18 17 17 16 16 17 17 17 17 16 16 16 16 16 15 15 15 15 15 14 14 13 13 13 13 12 11 11 11 11 12 11 11 11 10 10 10 10 10 10 11 10 11 11 11 11 11 11 11 11 11
23 21 22 23 25 24 23 22 20 19 19 18 17 17 17 17 17 17 17 17 17 17 16 16 16 16 16 15 14 15 16 16 15 14 13 13 13 12 12 12 11 11 11 11 11 11 11 10 11 10 10 11 11 11 11 11 12 12 12 12 12 11 11
24 22 24 24 24 23 22 20 19 19 19 18 17 17 17 17 17 17 17 17 17 17 17 17 17 16 16 15 15 15 16 16 16 16 14 14 14 13 13 13 12 12 11 11 12 12 11 11 11 11 12 12 12 11 11 11 12 12 12 12 12 12 12
26 23 24 25 26 24 21 19 20 19 19 18 17 17 17 17 18 17 17 17 17 17 18 18 18 17 17 16 16 16 17 17 17 17 16 15 15 15 15 14 14 14 12 12 13 13 12 12 12 12 13 14 13 12 11 11 12 12 12 12 12 13 13
26 25 24 26 27 25 22 19 20 20 19 19 18 18 18 18 18 18 18 18 18 18 18 19 19 18 18 18 17 17 17 18 18 17 17 16 15 16 16 14 14 14 13 13 14 15 13 13 13 14 14 15 14 13 12 12 13 13 13 13 13 13 13
27 27 25 26 29 29 24 21 21 21 20 20 20 20 19 18 18 18 19 19 18 18 19 20 20 20 19 19 18 18 19 19 19 17 17 16 16 16 16 15 14 14 14 14 16 16 15 15 15 15 15 15 14 14 14 14 14 15 15 15 15 14 14
28 30 27 26 29 30 27 24 23 22 22 21 21 20 19 19 19 19 19 19 19 19 20 21 21 21 20 19 19 19 20 20 19 18 18 17 17 18 18 17 16 15 16 17 17 17 17 17 17 16 15 16 15 15 15 15 15 16 16 16 15 14 14
29 30 28 26 29 29 27 26 24 23 23 22 22 21 20 20 19 19 19 19 20 20 21 21 21 21 21 20 19 20 20 20 20 19 19 19 19 19 19 18 17 18 19 19 19 19 19 19 18 17 17 17 16 16 16 16 16 16 16 16 15 15 14
31 29 27 25 27 28 27 26 24 23 23 23 22 22 20 19 19 19 19 19 20 21 21 21 21 21 21 19 19 19 20 20 19 19 18 19 19 19 19 19 19 19 20 20 20 21 20 19 18 17 17 17 16 17 17 16 16 16 16 16 15 14 14
26 27 28 27 27 27 26 25 24 22 23 23 23 22 20 19 18 19 19 20 21 21 21 21 21 21 21 20 19 19 19 20 19 18 18 18 19 19 19 19 19 19 20 19 20 21 20 19 18 17 17 17 17 17 18 16 15 15 16 15 14 14 14
21 27 31 31 28 27 25 24 22 21 23 24 24 20 18 18 18 18 19 20 20 20 20 20 21 21 21 20 20 20 20 21 20 19 18 18 17 18 18 18 19 19 19 19 19 19 19 18 18 18 18 18 17 18 18 16 15 16 16 15 15 16 16
21 27 30 30 28 26 24 23 21 22 24 24 21 18 17 17 17 18 19 19 19 20 20 20 21 21 20 20 20 21 21 21 21 20 18 17 16 16 17 17 18 18 18 19 19 19 19 19 18 18 19 19 18 18 18 16 15 16 16 16 17 18 18
23 26 27 27 26 23 22 21 22 22 22 20 18 17 17 17 17 18 18 18 18 19 19 20 20 20 20 20 21 21 21 21 21 20 19 18 16 16 16 16 17 17 18 18 18 19 20 20 19 19 20 19 18 18 20 18 16 17 18 18 19 20 20
23 25 25 24 22 20 20 21 21 20 18 18 17 17 17 17 18 18 18 18 18 18 19 20 20 21 20 21 21 22 22 22 21 20 19 19 18 16 16 15 16 16 16 17 18 19 20 20 21 21 20 19 19 20 21 19 18 19 19 19 20 21 21
24 24 23 22 20 19 20 21 20 18 18 18 18 18 19 19 19 19 19 18 18 19 19 20 20 21 20 20 20 21 22 22 22 21 21 20 19 17 17 17 16 15 15 17 17 18 20 20 20 20 20 20 20 21 21 21 19 19 20 20 20 21 21
25 25 24 22 20 20 20 20 19 19 18 18 18 19 19 19 19 20 19 19 20 20 20 20 21 21 20 20 20 21 22 22 23 23 22 22 20 18 18 18 18 17 17 18 18 19 20 20 20 20 21 22 21 21 22 22 21 20 20 20 21 21 22
26 27 24 21 21 21 20 20 19 20 19 19 19 19 19 20 21 21 20 21 21 21 21 21 22 22 23 23 23 23 23 23 23 23 23 23 22 20 19 20 20 19 19 20 20 20 21 21 21 22 23 23 23 23 23 23 23 21 21 21 21 22 23
25 25 22 21 20 19 20 20 19 20 20 20 21 20 21 22 22 21 22 22 23 22 23 23 23 24 25 26 26 26 25 24 23 23 23 23 23 22 21 21 21 22 22 22 22 21 22 23 23 24 24 25 25 25 24 24 24 23 22 22 23 23 24
24 22 19 18 18 17 18 19 18 19 20 22 22 22 22 22 22 22 22 23 24 24 23 23 23 23 24 25 26 26 25 24 23 23 23 24 24 24 24 23 23 23 24 23 22 22 23 24 24 25 25 25 25 25 25 25 25 25 25 24 25 26 26
23 22 19 16 15 16 17 18 18 19 21 22 22 22 23 22 22 23 23 24 26 26 25 25 24 23 22 23 23 24 24 23 23 23 24 24 24 25 26 26 25 24 24 24 24 24 24 25 26 26 25 25 25 26 26 26 26 27 26 27 28 28 28
19 19 16 14 14 16 17 18 19 20 20 21 21 22 23 23 23 23 24 25 26 27 27 27 26 25 24 23 23 23 23 22 22 22 23 24 25 26 28 28 28 28 28 28 27 27 26 26 26 26 26 26 26 27 27 28 27 27 27 29 30 29 29
18 18 17 16 16 16 17 19 19 20 20 21 22 22 24 24 24 23 24 25 26 27 27 28 28 27 26 25 24 23 23 22 22 22 23 24 25 27 28 29 30 31 30 30 29 28 27 27 27 27 28 28 28 29 30 30 30 29 29 31 32 31 30
22 20 19 18 18 18 19 19 20 21 22 23 23 24 25 25 25 25 25 24 24 25 27 28 28 28 28 27 24 23 22 21 21 22 23 24 25 26 28 29 29 30 29 29 28 28 28 28 28 29 30 31 32 32 33 33 33 33 33 34 33 33 33
23 21 20 19 19 20 20 20 20 21 22 23 24 25 26 26 28 28 25 22 20 20 22 24 26 28 29 28 25 22 20 20 21 22 23 24 25 25 26 27 27 27 27 27 27 28 28 29 29 30 31 32 33 34 34 35 35 35 35 35 36 36 36
25 23 23 21 20 20 21 21 22 23 24 23 23 23 22 21 23 23 21 20 18 16 16 18 21 26 29 28 24 22 21 21 22 23 23 23 23 24 25 25 25 26 26 27 27 28 28 29 30 31 32 33 34 34 35 36 36 36 37 37 38 39 39
27 25 25 23 22 23 24 24 23 23 23 22 21 20 17 15 16 18 19 19 18 16 16 15 16 19 24 24 22 22 22 23 23 23 22 21 21 22 23 24 25 26 27 27 28 29 29 30 31 32 33 34 35 36 36 37 38 38 39 40 40 41 41
28 27 26 25 25 25 26 25 24 24 23 22 21 19 17 17 17 18 19 19 18 18 18 16 15 16 19 22 22 23 24 24 24 23 22 22 22 24 25 26 27 28 28 29 29 30 31 32 33 34 35 36 37 38 38 39 40 41 42 43 43 44 44
29 27 26 27 26 25 24 25 26 26 25 24 23 21 20 20 20 20 20 19 19 19 18 17 17 17 19 21 23 24 24 24 24 24 24 25 26 26 27 28 29 30 30 31 31 32 33 34 35 36 37 38 39 39 40 41 41 42 44 45 46 47 47
28 26 26 27 27 25 24 25 26 26 26 25 24 23 22 22 21 21 20 19 18 18 18 18 18 19 20 21 23 24 25 25 26 27 28 28 28 28 28 30 31 32 32 33 34 35 36 37 38 39 39 40 40 41 41 42 43 43 45 46 48 49 49
27 27 27 28 28 28 27 27 27 27 27 26 25 24 24 23 23 22 20 19 18 18 19 19 20 20 21 23 24 25 26 27 29 30 30 31 31 30 30 32 34 35 35 36 37 37 38 39 40 41 41 42 42 43 43 44 44 45 46 47 49 50 52
28 28 29 30 30 30 30 29 29 28 27 26 26 26 26 26 25 24 22 21 21 22 22 22 22 22 23 24 25 26 27 29 30 31 32 32 33 34 35 36 37 38 39 39 40 41 41 42 43 43 44 45 46 46 47 47 48 49 50 50 51 52 53
29 30 30 30 29 29 29 29 29 28 28 27 27 28 28 28 27 27 26 25 25 25 25 24 24 25 25 26 27 28 29 31 31 32 34 36 37 38 39 39 39 40 41 42 42 44 44 45 45 46 47 48 49 50 51 51 52 53 54 54 55 55 56
29 30 30 29 28 28 29 29 29 29 30 30 30 30 30 30 29 29 29 28 28 27 27 27 27 27 29 30 31 32 33 34 35 36 38 39 40 41 43 43 42 42 43 45 46 47 48 48 49 49 51 52 53 54 54 55 55 56 57 58 59 59 60
30 30 30 30 30 30 30 31 32 32 33 33 33 33 32 32 32 32 32 31 30 29 29 29 30 31 32 33 34 35 36 37 39 40 41 42 43 45 46 46 46 46 47 49 49 50 51 51 52 53 54 55 56 57 58 58 59 60 60 61 62 63 64
30 31 31 31 32 32 33 34 34 35 35 35 35 35 35 34 34 34 34 34 32 31 31 32 33 35 36 36 37 38 39 40 41 43 44 45 46 47 48 49 49 50 50 51 52 52 53 54 55 56 57 58 59 60 61 61 62 63 63 64 65 66 67

ECMWFFLT1_500_spd_060.txt.gz
Wind_Speed
22 21 21 22 23 22 22 20 17 17 19 20 19 18 16 14 14 15 14 13 12 11 11 10 10 9 9 9 9 9 10 11 11 11 11 11 10 9 10 11 11 11 10 9 9 9 8 8 7 6 6 6 5 5 6 6 6 5 5 5 5 6 7
20 22 21 21 21 21 21 20 19 19 19 21 21 18 15 14 15 15 14 14 13 11 11 10 10 10 9 9 9 10 10 10 11 12 12 12 11 9 9 10 11 10 9 10 9 9 9 8 8 8 7 6 6 6 6 6 6 6 6 6 6 7 7
20 21 21 20 19 19 20 20 20 20 20 21 20 17 15 15 15 15 15 14 13 11 11 11 11 10 10 9 9 10 10 11 11 11 12 13 12 10 10 10 10 9 9 9 9 9 9 8 8 8 8 8 8 7 7 6 6 6 6 6 6 7 7
20 19 20 19 19 19 20 19 18 19 21 22 20 18 16 15 15 15 15 14 13 11 11 11 11 10 10 10 9 10 11 12 11 11 12 13 13 12 11 10 9 9 9 9 9 9 9 8 8 9 9 9 9 8 8 7 7 6 6 6 6 7 7
17 18 17 18 18 18 17 18 19 20 22 22 20 18 16 15 15 15 15 14 13 12 12 12 11 11 11 11 10 11 12 13 12 10 12 14 14 13 13 12 10 9 9 10 9 9 8 8 8 9 9 9 9 10 9 8 7 6 6 6 7 8 8
16 16 16 17 18 18 17 18 20 21 22 22 20 18 16 15 15 16 15 15 14 13 13 12 12 12 12 11 11 12 12 13 13 11 12 14 14 15 15 14 13 11 11 12 11 10 10 10 10 10 10 10 10 11 11 10 8 7 7 7 8 9 10
17 16 15 17 19 19 18 19 21 21 22 22 20 17 16 16 16 17 17 16 15 14 14 13 13 13 13 13 13 13 13 13 13 13 13 14 14 15 16 15 14 12 12 13 12 11 11 11 12 12 12 12 12 12 12 11 10 8 8 7 8 10 10
18 18 16 16 19 20 20 20 21 22 22 22 20 18 17 17 17 18 18 17 16 15 14 14 14 14 14 14 14 14 14 14 14 14 14 14 14 15 16 16 14 13 13 13 13 12 12 13 14 14 13 14 13 13 12 11 11 10 9 9 9 10 11
19 18 18 18 18 20 22 21 22 23 24 22 19 18 17 17 19 19 18 17 16 15 15 15 15 16 16 15 15 15 15 15 15 15 15 15 15 16 16 16 15 14 14 15 15 14 13 15 16 15 15 16 16 14 13 13 13 12 11 10 11 11 11
20 19 20 20 20 20 22 23 23 23 24 20 18 18 18 18 19 19 18 17 17 16 16 16 16 16 16 16 16 16 16 15 15 15 15 15 16 17 17 16 16 15 16 18 18 16 16 17 17 17 17 17 17 16 14 14 14 13 12 12 12 12 11
21 20 21 22 22 22 22 23 23 26 26 20 18 19 18 18 20 20 19 18 17 18 17 17 17 17 17 17 16 16 16 15 15 15 15 15 15 16 16 16 16 16 17 19 19 18 18 19 19 18 18 17 16 16 14 14 14 14 13 13 13 12 12
22 21 22 23 24 25 25 24 24 30 30 24 20 20 19 19 21 20 20 18 18 18 18 17 18 18 18 17 17 16 15 15 15 15 14 14 15 15 15 16 16 16 18 19 20 20 19 20 20 19 18 17 17 16 14 13 14 14 13 13 13 13 12
22 22 23 24 25 27 26 24 25 30 31 27 23 21 20 20 21 21 21 19 19 19 19 18 18 18 18 18 17 17 16 16 15 15 15 14 15 16 16 16 17 17 18 19 20 20 20 20 20 19 18 18 18 17 15 14 13 14 14 13 14 13 13
23 23 24 23 25 26 23 24 26 28 28 26 22 20 20 21 23 23 21 20 19 19 19 19 19 18 18 18 17 17 17 16 16 16 16 16 16 16 17 17 17 17 18 19 19 20 20 20 20 19 19 19 19 18 17 14 13 15 15 14 15 14 14
22 24 22 22 26 26 25 25 24 25 25 24 21 20 21 23 24 23 21 21 20 20 20 19 18 18 17 17 17 17 16 16 16 17 17 17 17 18 17 18 17 17 18 19 18 19 20 19 19 19 18 18 18 18 17 13 12 15 16 15 16 16 16
22 22 21 22 25 25 26 22 19 22 22 21 20 21 23 23 23 23 22 21 21 20 19 18 17 17 17 17 17 17 17 17 17 17 18 18 19 19 18 17 17 18 19 18 18 18 19 18 18 17 17 16 17 18 17 13 13 16 18 17 18 18 18
21 21 20 20 20 21 23 20 20 21 20 20 21 21 22 22 22 22 22 22 20 19 18 17 17 16 16 17 18 18 18 17 17 18 18 18 19 20 19 18 18 19 19 18 18 18 18 17 17 17 16 16 17 18 17 15 15 17 19 20 20 20 20
23 21 20 19 19 19 21 23 23 21 20 20 21 20 20 20 21 22 22 21 19 18 17 17 17 17 18 18 19 19 18 18 17 17 17 17 19 20 21 20 20 20 19 19 19 19 18 17 18 17 17 17 18 19 19 18 18 18 20 22 22 21 22
23 21 19 20 22 23 24 24 22 21 20 20 19 19 20 20 21 21 22 21 19 18 17 17 18 19 19 19 19 19 18 18 18 18 18 18 19 20 22 22 22 20 20 21 21 21 19 19 19 19 19 19 20 21 21 21 20 19 21 23 23 23 24
21 18 19 23 24 25 25 23 23 22 21 20 19 19 20 20 21 22 22 22 20 19 19 19 20 20 20 20 20 20 20 20 20 21 22 22 21 21 22 23 23 22 23 22 21 21 21 20 20 20 21 21 20 22 23 23 22 21 21 22 24 25 25
18 18 22 27 27 27 26 25 24 22 20 20 20 20 20 21 22 23 24 23 21 21 21 21 21 21 21 21 21 21 21 21 23 24 24 24 23 22 21 23 24 24 24 23 22 22 22 21 21 21 22 22 21 22 24 24 24 24 23 23 24 25 26
20 22 26 27 25 25 25 23 22 20 20 21 20 21 22 22 23 23 22 21 21 22 23 22 22 22 22 23 22 21 20 21 21 22 23 23 23 21 21 22 24 24 24 23 23 23 23 23 23 22 23 24 23 23 24 24 25 25 25 25 25 25 27
22 24 24 22 20 22 23 21 21 21 21 21 21 21 21 20 20 20 20 20 22 23 23 24 24 24 24 23 23 22 21 20 20 21 22 23 23 21 20 21 22 23 24 25 24 25 25 25 25 25 25 26 25 24 24 25 25 26 26 27 27 27 28
18 20 21 18 17 19 20 19 20 20 20 19 19 19 19 18 18 19 20 22 22 23 24 25 26 25 25 25 25 25 25 23 22 22 22 23 23 21 20 20 21 22 24 24 24 25 25 25 26 26 26 26 25 25 25 26 26 27 27 28 29 30 30
17 18 19 17 16 16 16 16 17 18 18 18 18 18 18 19 20 21 22 22 23 24 25 25 26 26 26 26 27 27 27 26 25 24 22 22 22 21 20 20 20 21 21 22 22 22 23 23 24 24 25 26 26 26 26 27 27 28 28 29 30 32 32
18 19 20 20 18 16 15 16 17 17 18 18 18 19 20 21 21 22 23 23 24 24 24 25 26 27 27 27 27 28 28 28 27 25 22 21 20 20 19 20 20 20 20 20 20 19 20 21 22 23 24 26 27 27 27 28 28 29 30 30 31 33 34
19 21 21 21 19 18 18 18 18 18 18 19 20 21 21 22 22 23 23 24 24 25 27 28 27 25 24 24 25 27 28 29 27 25 22 20 20 20 20 20 20 19 19 19 19 19 20 22 23 24 25 26 27 28 28 29 30 30 31 32 33 35 36
21 23 23 22 21 21 21 21 20 20 20 20 21 22 22 22 22 22 21 21 21 22 24 25 24 21 19 19 21 23 26 28 27 25 22 21 20 21 21 21 20 19 18 19 20 21 22 23 24 25 26 27 28 29 30 31 31 32 33 34 35 36 37
22 24 24 23 21 22 21 21 21 22 21 21 20 20 21 21 21 20 18 17 17 18 18 19 20 19 18 18 18 20 22 23 23 22 21 21 22 23 22 21 21 20 21 22 23 24 25 25 26 27 28 29 30 31 32 33 33 34 35 36 36 37 38
20 22 24 24 23 23 23 24 25 25 24 24 22 22 22 22 22 20 18 17 17 17 17 18 19 19 19 19 19 18 17 18 19 20 22 23 24 24 24 24 24 24 24 24 25 26 27 27 28 29 30 31 32 33 34 35 35 36 36 37 37 38 39
20 21 22 24 25 26 27 28 28 27 27 27 25 24 25 25 24 22 20 19 19 20 20 20 20 20 20 19 18 17 16 17 20 23 25 26 25 25 26 26 26 26 25 26 27 28 29 30 31 32 33 34 35 36 37 38 38 38 38 38 39 40 42
28 27 26 26 27 27 29 29 28 28 28 27 25 24 25 25 25 23 22 21 21 21 22 22 21 21 20 19 18 17 17 19 22 25 26 26 26 26 27 27 27 28 28 28 29 30 32 34 35 36 37 38 39 40 40 41 41 41 42 42 42 43 44
31 31 31 31 30 30 30 29 27 26 26 26 25 25 25 25 25 24 23 23 22 22 23 23 22 21 20 20 20 20 21 23 25 26 26 27 27 27 28 28 29 30 31 32 33 34 36 37 38 39 40 41 42 43 43 44 45 46 46 47 47 47 48
32 32 32 32 32 31 30 29 28 28 28 28 28 28 28 27 26 25 26 25 24 24 25 25 24 23 23 23 23 23 24 25 26 27 27 29 29 28 28 29 30 31 33 35 36 38 39 39 40 41 43 44 45 46 47 48 49 49 50 50 51 51 51
28 28 28 28 29 29 29 29 29 30 30 30 30 29 29 28 28 27 27 27 27 27 27 27 27 27 27 26 26 26 26 26 27 27 28 30 31 31 30 31 33 34 36 37 39 40 41 42 43 44 45 46 47 49 50 50 51 52 53 53 54 54 55
22 23 24 25 26 28 29 30 31 31 31 31 30 30 29 29 29 28 28 29 29 29 29 30 30 30 29 29 28 28 27 27 28 29 30 32 34 34 34 35 36 38 39 40 41 42 43 45 46 48 49 49 50 51 52 52 53 54 54 55 56 56 57
22 23 25 25 27 29 30 30 31 31 31 30 30 30 30 30 30 30 30 30 30 31 31 31 31 32 32 32 32 31 30 30 30 31 33 34 35 37 37 38 40 41 42 43 43 44 45 47 48 49 50 51 51 52 53 53 54 55 55 56 57 58 59

ECMWFFLT1_500_spd_063.txt.gz
Wind_Speed
16 16 17 18 21 22 22 21 21 20 18 16 15 16 16 15 15 16 16 15 13 12 11 10 10 10 10 10 10 8 8 9 8 8 7 6 6 6 6 7 8 8 8 7 7 5 5 4 4 4 4 3 3 1 1 1 0 1 1 1 1 1 1
16 16 17 18 20 23 22 21 22 21 18 16 15 16 16 16 16 17 16 14 13 13 12 11 11 11 11 10 9 9 9 10 9 8 7 6 6 6 6 7 8 8 8 8 7 6 5 5 4 4 4 4 3 2 1 1 1 2 2 2 2 2 2
20 19 18 18 19 21 22 21 21 19 18 17 17 16 17 17 17 17 15 14 14 14 13 12 12 12 11 10 9 9 10 10 9 8 7 6 6 6 6 7 8 8 8 8 7 6 5 5 5 5 5 4 3 3 3 2 2 3 3 3 3 2 2
22 22 19 18 18 19 21 22 20 18 17 18 19 19 19 19 18 17 15 14 15 15 13 12 12 12 12 11 10 10 11 10 9 8 7 6 6 6 6 7 8 7 7 7 7 6 6 5 5 5 5 5 4 3 3 3 3 3 3 4 4 3 3
19 19 18 17 17 18 20 21 20 17 17 18 19 20 19 19 18 17 14 14 16 15 14 13 13 13 12 11 11 10 10 10 10 9 7 7 7 6 7 8 8 7 7 7 6 6 7 6 6 6 5 5 4 3 4 3 4 4 5 6 6 5 5
11 11 13 15 15 17 20 21 19 17 16 17 17 18 18 19 19 17 15 16 17 17 16 15 14 13 12 12 12 11 11 11 11 9 8 8 7 6 7 9 9 9 9 9 8 8 8 8 8 7 6 7 6 5 5 4 5 6 6 8 8 6 6
15 13 12 13 14 16 18 20 19 16 16 16 17 17 18 19 20 18 17 18 19 19 17 16 14 14 13 13 12 12 11 11 11 10 9 9 8 7 8 9 10 10 9 9 9 9 9 9 9 8 8 9 8 7 6 5 6 7 7 9 9 7 8
24 22 15 11 12 15 18 19 19 17 16 16 17 18 19 20 21 20 19 19 20 19 18 16 15 14 14 13 12 12 12 12 12 11 10 10 9 8 9 9 10 10 9 10 9 9 9 9 9 10 11 11 10 9 9 7 7 7 8 10 10 8 8
22 24 20 16 13 14 17 18 18 18 16 15 16 19 20 21 21 20 19 20 21 20 18 17 15 15 15 14 13 12 12 12 12 12 12 11 10 9 10 10 11 11 11 10 10 9 9 10 11 12 12 13 12 12 11 9 9 8 9 12 11 9 9
20 22 23 21 17 16 18 18 18 17 17 16 16 18 21 22 22 20 20 21 21 20 19 17 16 16 16 15 14 13 13 13 13 13 13 12 11 11 11 11 12 12 12 11 11 11 11 12 12 13 14 15 15 14 12 11 10 9 10 13 12 10 10
18 21 21 22 21 19 19 20 19 17 17 18 17 19 22 24 22 21 21 22 22 21 19 18 16 16 17 16 16 15 14 14 14 14 14 13 12 12 11 12 13 13 13 12 12 13 13 13 14 14 16 17 16 15 12 11 10 9 11 14 14 12 11
18 20 22 23 22 20 19 21 20 18 18 18 18 20 25 25 23 22 23 23 23 21 19 18 17 18 18 18 17 16 16 15 15 15 15 14 13 12 12 12 13 14 13 13 13 13 14 15 15 16 17 17 16 14 11 11 11 10 12 15 15 13 12
20 21 22 23 22 19 18 19 20 20 20 20 19 22 26 25 22 23 24 24 23 21 19 18 18 19 20 20 19 18 17 16 15 15 15 14 13 12 12 12 13 14 14 13 13 14 15 16 17 17 18 17 15 13 11 11 12 11 13 15 15 14 12
21 21 21 21 19 18 18 19 20 21 22 22 22 24 28 24 21 22 24 24 23 21 19 19 19 20 20 21 21 20 18 16 15 15 15 14 14 13 13 14 14 14 14 14 15 15 16 17 17 17 17 16 14 12 11 12 13 12 13 16 16 14 13
23 22 20 20 18 16 17 19 20 21 21 22 24 28 31 28 23 22 24 24 23 22 20 19 20 21 21 21 21 19 18 17 16 15 15 15 15 15 15 15 15 15 15 15 15 15 15 16 16 16 16 16 15 12 11 13 14 13 14 16 16 15 14
26 23 21 20 18 17 18 19 21 20 19 22 26 29 31 30 26 24 24 25 24 22 21 21 21 22 22 21 20 18 18 18 17 16 16 16 16 15 16 16 15 15 15 16 16 15 15 15 15 15 15 16 15 12 10 12 13 14 15 15 16 16 15
25 23 23 21 18 17 18 20 21 20 19 23 26 26 27 28 26 25 25 24 23 23 22 22 22 22 21 20 19 18 18 18 17 17 17 17 16 15 15 16 15 16 16 17 16 16 16 15 15 15 15 16 16 12 10 12 13 14 15 15 16 16 16
23 23 23 21 17 17 18 20 21 21 22 23 23 24 26 26 25 24 24 23 23 23 23 23 23 22 20 20 19 18 18 18 17 17 17 17 16 15 15 16 16 17 18 18 18 18 17 16 16 16 16 17 17 14 12 14 14 15 16 16 17 18 18
22 22 22 19 18 18 18 18 18 19 21 21 22 24 26 26 25 25 24 23 23 24 24 24 23 21 20 20 18 17 17 17 17 17 17 17 17 15 15 16 17 17 18 19 20 20 19 18 18 17 17 18 18 16 15 16 16 16 17 18 19 20 20
22 22 22 21 21 20 18 17 16 18 18 19 22 25 25 26 26 25 23 22 23 24 25 24 23 21 20 20 18 17 17 17 17 17 17 18 18 17 17 18 18 18 19 19 20 21 20 20 19 18 18 19 19 19 17 17 17 17 18 19 21 22 22
21 20 22 23 22 21 20 20 19 18 18 20 22 26 27 26 24 22 21 21 22 24 25 24 23 21 20 19 18 18 19 19 19 18 18 20 20 20 21 21 20 20 20 20 20 21 21 21 20 20 19 19 20 20 19 18 18 19 19 20 21 22 23
18 20 21 22 22 21 21 23 22 20 20 22 24 26 26 24 21 20 21 22 24 25 24 23 22 21 21 21 20 20 21 20 20 20 20 20 21 22 23 23 22 21 20 20 20 21 21 21 21 21 20 19 20 22 21 20 20 20 21 21 21 22 23
19 19 20 22 23 21 21 24 24 22 21 21 23 24 22 19 19 20 22 23 23 23 23 23 22 21 22 22 22 22 22 21 21 21 21 20 20 21 22 22 21 20 20 20 20 20 20 20 21 21 21 20 22 23 22 21 20 20 20 21 21 22 22
20 21 21 23 25 26 28 29 25 22 21 22 22 21 20 19 20 21 21 21 21 21 22 23 23 23 23 23 23 23 23 22 21 22 22 21 20 21 22 21 20 20 20 20 20 20 19 20 21 22 22 21 22 22 21 20 20 19 20 21 22 22 23
19 23 26 26 26 29 30 27 22 21 22 23 22 20 20 19 19 19 19 20 20 22 23 23 23 24 24 24 24 23 24 23 23 24 24 24 23 23 22 21 21 19 19 19 19 18 18 19 20 20 21 20 20 20 20 21 21 21 22 23 23 24 24
15 20 26 26 24 24 22 20 20 20 22 21 19 19 19 19 19 19 19 20 21 22 22 22 23 24 25 26 25 25 24 24 25 26 26 26 26 26 25 23 21 19 18 18 18 18 18 18 19 19 19 19 20 20 21 22 23 23 24 24 25 26 26
14 15 21 25 24 21 20 19 19 18 18 18 18 19 19 19 19 19 20 21 21 21 22 23 23 25 26 26 26 26 25 25 26 27 27 27 27 27 26 23 20 18 18 18 19 19 19 19 19 19 20 21 22 23 24 24 25 25 25 26 26 27 28
15 14 19 24 24 22 20 17 15 16 17 18 19 19 19 19 19 20 20 21 21 21 22 22 23 25 26 27 28 29 28 27 26 26 27 28 27 27 25 23 20 19 18 19 19 20 20 20 20 21 22 23 24 25 26 26 26 26 27 27 28 29 30
16 15 18 23 23 21 19 16 15 17 18 18 19 19 19 20 20 20 21 20 21 21 21 21 23 24 26 27 28 29 28 26 24 24 26 27 28 27 25 24 22 21 20 20 21 22 23 23 23 23 24 25 26 27 27 27 28 28 29 30 30 31 33
18 18 20 24 25 23 20 19 18 19 20 20 21 21 21 20 20 20 20 21 21 20 20 21 22 22 22 22 22 23 24 24 23 23 24 26 27 27 26 25 24 22 22 23 24 25 25 25 25 25 26 27 28 28 29 29 30 31 31 32 33 34 35
22 22 22 25 25 24 23 23 23 24 24 23 22 21 21 21 21 21 21 21 21 20 20 21 21 21 20 19 20 21 23 24 23 23 24 24 25 25 25 25 24 24 24 25 26 27 27 27 27 27 27 28 29 29 30 31 32 33 34 35 36 37 38
21 23 24 25 25 25 26 27 27 27 25 24 22 21 21 23 24 24 23 23 23 23 22 22 22 22 21 21 22 23 24 24 24 24 23 23 22 23 23 24 25 25 26 27 27 28 29 29 30 30 30 30 30 31 32 34 35 36 37 38 38 39 41
21 22 24 26 27 27 28 27 25 25 26 26 26 24 24 26 28 27 26 25 24 24 24 23 23 24 24 24 25 25 25 25 24 24 23 22 21 22 23 25 26 28 29 29 29 30 30 31 31 31 32 32 33 34 35 36 38 39 40 41 42 43 44
26 26 25 26 28 28 28 26 26 26 28 31 31 30 28 29 29 27 24 23 23 24 24 24 24 25 25 25 25 26 25 25 25 24 22 21 22 23 25 26 27 28 29 29 30 31 31 32 32 33 34 35 36 37 38 40 41 42 43 44 45 46 47
29 30 28 28 29 30 30 29 29 30 32 33 32 30 29 28 26 24 23 23 24 25 25 25 26 26 26 25 25 26 26 26 26 25 24 24 24 25 26 27 28 29 29 30 31 32 33 34 35 36 37 38 39 40 41 43 44 45 46 47 48 48 49
31 32 31 29 30 33 35 34 34 34 32 30 28 27 26 26 25 25 26 26 27 27 27 27 27 26 26 26 26 26 27 27 28 29 29 29 28 28 29 29 30 31 31 32 33 34 35 37 38 39 40 41 42 43 44 45 45 46 47 48 49 50 50
27 30 29 27 27 27 27 27 28 29 28 26 25 25 26 27 28 28 28 28 28 29 29 28 28 28 28 27 27 28 29 29 30 31 32 33 33 33 33 33 33 34 34 35 35 36 37 38 40 42 43 44 45 45 46 46 47 48 49 50 51 52 53

ECMWFFLT1_500_spd_066.txt.gz
Wind_Speed
13 13 14 15 15 14 15 15 16 16 18 18 19 19 18 17 18 20 19 18 18 18 17 16 16 16 17 18 17 16 15 14 13 13 11 10 10 9 8 8 8 8 8 8 8 8 7 6 7 7 7 6 6 7 7 7 7 7 7 7 7 7 7
14 14 15 16 16 15 15 16 18 19 19 20 20 20 19 18 19 20 19 18 17 18 18 16 16 17 18 18 17 16 16 15 14 12 12 11 10 10 9 8 8 8 8 8 7 7 7 6 7 7 7 6 6 7 7 7 7 7 7 8 7 7 7
17 16 16 17 17 16 15 16 17 19 20 21 21 21 21 20 20 21 19 18 17 18 17 16 17 18 19 18 17 17 16 16 14 13 12 12 11 11 10 10 9 8 8 7 7 7 7 7 7 8 7 6 6 7 7 7 8 8 8 8 7 8 8
20 18 18 19 20 19 17 16 17 19 20 20 20 21 22 21 20 21 20 18 18 18 17 18 19 19 19 19 18 17 17 16 15 14 14 13 13 12 12 11 10 9 8 7 7 7 7 7 7 8 7 7 7 8 8 8 9 9 8 8 8 9 9
22 20 20 20 22 23 21 18 17 18 20 20 19 20 22 22 21 21 20 19 19 19 18 19 20 20 20 19 19 18 17 16 15 15 15 14 13 13 13 12 10 9 9 8 7 7 7 7 7 7 8 8 8 8 9 10 10 10 10 9 10 11 10
24 22 21 20 21 23 23 20 17 18 19 19 19 21 23 24 24 23 22 22 20 19 19 20 20 20 21 21 21 20 19 17 16 16 15 14 13 13 13 12 11 10 10 9 9 9 9 9 9 9 8 9 9 10 10 11 11 12 12 11 12 13 11
25 23 20 18 18 20 22 20 17 17 17 19 21 22 23 24 24 25 24 23 21 19 20 20 20 21 22 22 21 21 19 17 16 16 16 15 14 14 14 13 12 11 11 10 10 10 10 10 10 10 9 9 10 10 10 11 13 14 13 13 14 14 12
26 24 20 17 15 16 19 18 17 16 17 19 20 21 21 21 22 24 25 23 21 21 21 20 21 22 22 22 21 21 19 18 17 17 16 15 14 15 14 13 12 12 11 11 11 11 11 11 11 11 10 9 9 10 11 12 14 15 14 13 15 15 13
23 25 23 19 15 15 17 16 16 16 16 17 19 20 21 21 21 23 24 22 21 22 22 21 21 22 22 22 21 21 20 18 17 17 16 16 15 15 15 14 13 13 12 12 12 12 12 11 11 12 11 10 10 10 11 13 15 16 15 14 16 17 15
19 22 23 22 18 17 16 14 14 15 15 16 19 20 21 21 22 24 24 23 22 23 22 21 21 21 22 22 22 21 20 18 17 17 17 17 16 16 16 16 15 14 14 14 14 13 13 13 13 13 12 12 11 11 12 13 15 17 15 15 17 18 17
17 19 20 21 20 20 19 17 16 16 16 17 18 20 21 22 22 24 25 24 23 23 21 21 21 22 22 23 22 21 20 20 19 19 18 17 17 17 17 17 16 15 16 15 15 15 14 14 14 14 14 13 13 13 12 14 16 18 16 15 17 18 17
19 18 18 20 21 21 21 20 19 19 20 19 19 20 22 23 22 23 25 26 24 23 22 22 22 22 23 23 22 21 21 21 21 20 19 18 17 17 17 18 17 17 17 17 17 16 15 15 15 15 15 14 14 14 13 15 17 18 17 16 17 18 18
20 19 18 17 19 21 21 21 22 23 23 22 21 22 23 23 22 22 25 27 25 24 23 23 23 23 23 23 23 22 22 22 21 21 20 18 18 18 18 18 17 17 17 17 17 16 15 15 15 15 15 14 14 14 14 15 16 17 18 17 16 18 19
18 20 20 19 19 22 22 23 25 26 25 23 24 25 24 23 22 22 26 29 26 25 25 24 24 24 23 23 23 23 23 23 22 21 20 19 18 18 18 18 17 17 17 17 17 16 16 16 15 15 16 14 13 14 15 15 16 17 19 18 17 19 19
19 20 22 23 22 23 24 25 26 27 25 23 24 26 25 24 23 23 28 31 28 26 26 25 25 24 24 24 24 24 24 23 22 21 20 19 19 18 19 19 17 17 17 17 17 16 16 15 15 16 16 14 13 14 15 15 16 18 20 19 19 19 20
20 21 21 22 23 23 24 27 26 25 25 24 25 27 26 25 25 26 30 32 29 27 26 25 26 26 25 25 24 25 25 24 22 21 20 20 20 20 20 19 17 17 17 17 18 17 16 16 16 16 16 14 13 14 15 16 17 19 20 20 20 19 19
20 22 22 22 22 23 25 26 25 24 25 26 28 29 27 25 27 30 33 34 30 27 27 26 26 26 25 25 25 25 26 24 22 21 21 21 21 21 20 19 18 18 18 18 17 17 16 15 15 16 17 15 13 14 16 16 17 18 19 20 20 19 19
21 22 23 22 22 23 25 26 25 25 27 28 28 28 26 26 29 33 35 33 29 27 27 26 26 26 26 26 25 26 25 23 22 22 21 21 20 20 19 19 18 18 18 18 17 17 17 15 15 16 17 17 16 15 16 17 17 18 19 20 21 20 19
21 23 24 23 20 22 24 25 25 25 27 28 27 26 26 28 30 33 34 31 27 26 26 25 25 26 27 26 26 26 25 23 22 22 21 20 20 19 19 19 19 18 18 18 17 17 17 16 17 16 16 18 19 17 17 18 18 19 20 21 21 21 20
21 22 23 22 21 22 24 25 24 25 29 29 28 27 27 29 30 31 32 31 27 24 24 24 26 27 28 27 26 25 24 22 21 20 20 20 20 19 19 19 20 19 19 18 18 17 17 18 18 16 17 20 20 17 17 19 20 20 21 22 23 23 22
22 23 22 21 22 22 24 26 25 28 31 30 30 27 27 31 32 32 34 33 28 25 25 26 27 28 28 27 25 24 22 21 20 20 20 21 19 19 20 21 20 20 19 19 19 19 19 20 19 19 20 22 22 20 19 21 21 21 21 22 23 23 22
22 22 21 22 24 23 25 28 27 28 30 30 28 25 27 31 35 35 35 33 28 26 27 27 27 27 26 25 24 23 22 21 20 20 21 21 19 19 21 22 22 22 22 21 22 22 21 21 21 21 22 23 23 22 22 22 22 22 21 21 22 23 24
20 20 20 22 23 22 26 29 28 26 27 28 24 23 25 32 36 35 33 31 28 27 26 26 26 26 25 24 24 23 22 21 21 21 22 22 21 21 22 23 23 23 23 22 22 22 22 21 21 21 22 23 24 24 23 22 23 23 22 22 24 25 26
19 21 22 22 21 21 25 30 29 25 26 26 24 24 28 34 36 33 30 29 28 26 26 26 26 26 25 25 24 24 23 23 23 23 24 24 23 23 24 23 23 22 21 21 21 20 20 20 20 21 23 23 24 24 24 23 24 24 25 25 25 25 26
19 22 24 23 22 21 24 32 32 27 27 28 27 25 30 35 34 30 29 28 27 26 27 27 26 25 25 25 25 25 24 24 24 24 24 24 25 25 24 24 23 22 21 21 20 20 20 19 19 21 24 23 23 25 25 24 24 24 25 26 26 25 25
20 24 25 23 22 22 27 35 34 28 27 31 30 27 29 33 32 31 29 27 27 27 27 27 25 25 25 25 25 25 24 24 24 24 24 25 26 26 25 25 25 25 24 22 21 21 21 20 20 23 25 24 24 25 26 25 24 24 24 25 25 25 25
17 20 23 23 24 27 34 40 36 28 29 34 33 31 32 32 32 30 27 26 26 26 26 25 24 24 24 24 24 24 24 24 24 24 25 25 26 27 26 26 27 27 26 25 23 22 21 21 22 24 25 25 24 25 26 26 25 25 25 25 25 25 26
15 16 18 22 27 34 40 41 35 30 31 34 33 31 32 32 30 27 25 25 25 25 24 23 22 23 23 24 24 24 24 24 24 25 25 25 26 27 27 27 27 27 27 26 25 24 23 23 24 25 26 26 26 26 27 27 27 27 27 26 26 27 27
17 17 18 19 25 31 34 34 31 29 29 31 29 27 28 27 26 25 24 24 23 23 22 22 22 23 23 23 24 25 26 26 26 27 27 26 26 27 28 29 28 27 27 28 27 26 25 26 26 27 28 28 28 28 28 28 28 28 27 28 28 29 30
18 19 20 19 22 26 28 28 27 26 26 26 25 25 25 24 24 24 23 22 22 22 22 22 23 23 23 23 24 25 25 26 26 26 26 26 25 26 27 28 29 28 28 28 28 28 28 28 28 28 29 29 29 30 29 28 28 28 28 29 30 30 31
21 20 21 20 20 23 26 26 25 25 23 23 24 24 23 23 23 23 22 22 22 21 22 23 23 23 23 23 23 23 23 23 22 22 22 22 22 24 26 28 29 29 28 28 28 29 29 29 28 28 29 29 30 30 29 29 28 28 29 30 31 31 32
23 22 22 21 20 23 26 25 25 26 24 22 22 22 22 23 23 23 23 22 21 21 22 23 22 22 23 23 23 23 23 22 22 21 21 21 23 25 26 27 27 27 27 28 29 29 30 29 29 29 29 29 29 29 29 29 29 30 31 31 32 33 35
24 24 25 24 22 24 29 29 26 25 24 22 23 23 24 25 25 24 23 22 22 23 24 23 22 23 24 24 24 24 24 24 24 24 24 25 25 27 27 26 25 24 26 28 28 29 30 30 30 30 30 29 29 29 29 30 31 32 33 34 35 36 37
25 26 27 28 25 24 29 31 28 27 27 26 25 25 26 27 27 27 25 25 26 26 26 25 25 25 25 25 26 26 26 26 26 26 27 27 28 29 28 27 25 25 26 28 29 30 31 32 32 32 32 31 31 31 31 31 32 33 35 36 37 38 40
25 27 27 26 27 28 30 31 31 32 32 31 29 27 27 28 29 29 28 28 29 28 27 27 27 26 26 27 28 27 27 27 27 27 28 28 29 29 29 28 27 27 28 30 31 32 34 34 35 34 33 33 32 32 33 34 34 36 37 38 39 41 42
19 25 28 28 27 29 32 33 35 36 35 33 31 30 29 30 32 33 33 32 30 28 27 26 26 25 25 27 28 28 28 28 27 28 28 28 29 29 29 29 29 29 30 31 32 33 34 35 35 34 34 34 34 34 35 36 37 38 39 41 42 43 44
18 19 25 31 32 32 33 34 36 37 37 37 36 35 33 33 34 35 36 34 30 27 25 25 25 25 26 27 28 29 29 29 29 29 29 29 29 29 30 30 31 31 32 32 33 34 35 36 36 36 36 37 37 37 38 39 40 41 42 43 44 44 45

ECMWFFLT1_500_spd_069.txt.gz
Wind_Speed
15 14 15 16 18 20 21 22 23 23 23 23 22 22 22 21 20 19 20 20 20 19 19 21 21 20 19 19 20 20 19 19 19 18 17 17 17 16 15 14 14 13 12 11 11 11 11 11 12 12 12 12 11 10 10 9 9 9 9 9 9 8 9
16 15 15 16 18 20 21 23 24 25 25 24 24 24 24 23 21 20 20 20 20 20 21 22 22 20 19 21 22 21 20 20 19 18 18 17 17 16 15 15 14 14 14 13 12 12 12 12 13 13 13 13 11 11 11 10 9 10 10 10 9 10 10
17 18 18 17 18 20 22 23 24 26 26 25 24 25 24 24 22 21 20 20 20 22 23 23 22 21 21 22 23 22 21 20 19 19 18 17 17 17 16 16 16 16 15 13 13 12 12 12 13 13 14 13 13 13 13 11 11 11 11 11 11 12 11
19 20 21 21 20 20 22 23 25 26 26 25 25 26 26 25 24 22 21 20 21 23 23 24 23 23 23 23 23 23 22 21 19 19 18 18 18 18 17 17 16 16 15 14 13 13 13 13 12 13 14 14 14 14 13 12 12 13 13 13 13 13 12
19 21 22 23 23 22 23 24 25 25 25 26 27 27 27 27 25 24 22 21 22 24 24 24 24 25 24 24 24 24 23 21 20 20 20 19 19 18 18 17 16 16 15 14 14 14 14 14 13 13 14 15 16 15 14 14 14 14 14 14 14 14 13
20 20 22 24 24 24 24 25 26 27 26 26 28 28 28 28 27 25 24 23 23 25 24 25 25 25 25 25 25 25 23 22 21 21 21 20 19 19 18 17 17 17 16 15 15 15 15 15 14 14 15 16 16 16 16 16 15 14 15 16 16 15 14
19 20 23 24 24 24 25 26 27 28 27 26 27 28 28 29 27 25 25 24 24 25 25 25 26 26 26 26 26 25 24 23 22 21 21 20 19 19 19 18 19 18 17 16 16 16 16 15 15 15 15 16 16 17 17 17 16 16 17 18 17 16 16
19 20 22 24 26 26 25 24 24 24 25 25 26 27 27 28 27 24 23 23 24 25 25 26 27 27 26 26 26 26 25 24 22 21 21 20 20 19 19 19 19 19 18 18 18 18 17 16 16 16 16 17 17 18 18 18 17 17 18 19 19 17 17
21 21 20 23 26 26 24 24 23 21 22 23 25 25 25 26 26 24 23 25 27 27 26 27 27 27 26 26 27 26 25 24 23 22 21 21 20 20 20 20 20 20 20 19 19 19 18 17 17 18 17 17 17 18 19 19 18 17 18 20 20 19 19
24 22 21 23 24 25 24 23 22 21 20 21 22 23 23 24 25 24 24 27 29 29 28 29 29 27 26 27 27 27 25 24 22 21 21 21 20 20 20 20 21 21 20 20 20 19 19 18 18 18 18 18 18 19 20 21 20 18 19 20 21 21 21
24 20 20 22 22 24 25 22 21 20 20 21 21 22 23 24 25 25 25 28 29 29 29 31 30 27 26 27 28 27 25 24 23 22 21 21 21 21 21 21 21 22 22 21 20 19 19 19 19 19 18 18 19 20 21 22 22 20 19 21 22 22 21
19 18 19 20 21 26 27 23 22 22 22 22 21 22 22 23 24 25 25 27 28 28 28 30 29 27 27 28 28 27 25 24 23 22 22 22 22 22 21 21 21 22 22 22 22 21 20 20 20 19 19 19 20 21 22 24 25 22 20 21 23 23 22
20 20 20 18 20 24 26 25 25 25 25 24 22 21 21 21 23 25 25 26 28 27 28 30 29 28 27 28 28 27 25 24 23 22 22 22 22 22 22 22 22 22 23 23 23 22 21 21 21 20 20 20 21 22 23 25 26 24 21 21 23 24 23
21 21 21 20 19 21 22 24 26 27 27 25 23 22 21 22 24 25 25 27 27 26 28 31 30 28 28 28 28 27 25 24 23 22 22 23 23 23 23 22 22 22 23 23 24 23 23 22 22 22 21 21 21 22 24 26 26 24 22 22 23 24 23
21 21 21 20 19 18 20 22 24 28 28 25 25 26 25 23 24 26 26 27 27 27 28 31 31 30 29 29 28 27 26 25 24 23 23 23 24 24 23 23 22 22 22 23 23 24 23 23 22 22 21 20 21 23 25 25 25 24 23 22 22 23 23
22 21 19 19 18 18 19 20 23 28 27 26 27 28 26 25 26 28 28 27 27 28 28 30 32 31 29 29 29 27 27 26 24 24 24 24 24 25 24 23 23 23 22 22 23 23 23 23 22 21 20 20 21 23 25 25 25 25 24 21 21 22 23
24 22 20 20 19 19 20 20 23 26 27 28 29 29 27 26 27 29 29 27 27 28 28 30 32 32 30 29 29 28 27 26 25 25 24 25 25 25 25 24 24 23 23 23 23 23 23 23 22 21 20 20 21 24 25 24 24 26 25 22 20 20 21
25 24 23 22 21 22 23 22 23 26 27 29 30 29 28 27 27 30 31 29 28 28 28 30 33 32 30 30 30 29 28 27 26 25 25 25 26 25 25 24 24 24 24 24 24 23 23 23 22 20 20 21 23 23 24 24 24 25 25 22 20 19 20
25 25 24 24 24 26 25 24 25 27 27 29 29 29 29 28 28 31 32 28 27 27 28 31 33 33 31 31 31 30 29 27 26 26 26 26 25 25 24 24 24 25 25 25 24 24 23 23 21 21 22 24 24 24 24 26 25 24 24 23 21 20 20
24 22 22 23 25 27 28 27 28 27 27 30 30 29 30 30 30 32 30 26 26 28 29 31 33 34 32 32 32 30 29 28 27 27 26 25 25 24 24 24 24 25 25 24 24 24 23 22 21 22 23 25 25 24 24 25 25 25 25 24 24 23 22
22 21 23 25 26 27 28 29 29 26 25 29 31 31 32 32 33 33 27 25 26 27 29 31 34 35 33 32 32 30 28 28 28 28 26 25 24 23 24 24 24 24 24 24 25 25 24 22 22 23 24 25 26 25 23 23 25 26 25 25 25 24 23
20 21 25 27 27 27 27 28 28 26 25 29 31 32 31 31 34 33 26 25 26 27 28 30 34 34 32 31 30 29 28 29 29 27 26 24 23 22 22 23 23 24 24 25 26 25 25 23 22 22 24 26 27 26 25 23 25 27 26 25 25 25 26
22 23 26 27 26 25 25 26 27 26 27 31 33 32 30 32 35 32 27 27 27 28 29 30 32 32 30 29 29 28 28 29 28 27 25 23 22 22 22 23 23 24 24 25 26 26 26 25 24 23 26 28 27 27 25 23 25 27 27 26 27 27 28
23 23 24 25 24 25 25 25 26 26 29 33 34 30 29 33 34 29 29 28 28 29 30 30 31 31 30 29 28 27 28 28 27 25 23 23 22 22 23 24 24 25 25 25 26 27 27 27 26 27 29 30 29 27 26 25 26 28 28 27 28 29 29
24 23 23 23 24 25 24 23 25 27 30 32 32 29 30 34 33 29 29 28 29 30 30 31 31 32 32 31 29 28 28 27 25 23 23 23 23 23 24 25 25 26 26 26 27 28 28 28 27 27 29 29 29 28 28 27 27 28 28 28 29 30 31
23 22 21 22 23 23 23 22 23 27 30 32 31 30 31 32 31 29 28 27 28 29 31 33 34 34 33 31 29 28 27 26 24 24 24 24 24 25 26 26 27 27 27 27 28 29 29 27 26 26 26 27 28 28 28 27 27 28 29 30 31 32 33
22 20 19 20 22 22 23 22 22 26 31 32 33 34 33 30 28 28 28 28 26 26 30 34 35 34 34 32 29 27 26 25 25 25 25 25 26 26 27 27 28 28 28 28 28 29 30 29 28 27 27 28 29 30 30 29 29 29 30 31 33 33 33
20 19 18 19 21 24 25 24 22 26 31 33 36 39 37 31 28 28 30 29 26 26 29 32 33 33 33 30 27 26 26 25 25 25 26 26 26 27 28 28 29 29 29 29 29 29 30 30 30 30 29 29 28 29 29 30 31 31 31 32 33 33 33
17 17 19 21 22 24 25 25 26 30 32 35 39 43 39 32 30 29 31 30 27 26 28 31 33 33 30 28 26 25 25 25 25 26 26 26 27 28 29 30 29 30 29 29 29 29 30 31 32 32 32 30 29 28 29 30 32 32 32 32 33 33 32
19 19 20 21 22 24 24 27 32 36 36 39 43 44 37 30 29 30 32 31 28 27 30 32 32 30 27 26 26 25 25 25 25 25 26 26 27 29 30 31 30 30 29 30 30 31 31 32 33 33 32 30 30 31 32 33 33 32 32 32 32 32 32
19 21 21 19 23 28 28 28 34 40 41 41 44 42 33 29 29 31 32 31 29 28 29 30 29 27 26 26 25 25 25 24 24 25 26 26 26 27 29 29 29 29 30 31 31 31 30 31 32 32 31 30 31 32 34 33 33 32 32 32 32 33 33
15 19 22 19 20 26 23 21 28 38 40 39 40 39 34 30 29 28 27 27 27 27 28 28 28 27 26 26 25 24 24 24 25 26 26 26 25 25 25 26 27 27 29 30 29 29 29 29 30 31 32 31 32 33 34 33 33 32 32 33 33 34 34
12 16 21 21 19 20 18 17 22 31 36 36 36 35 32 28 26 25 24 25 26 27 28 28 28 27 26 26 25 25 25 26 26 26 26 25 24 24 24 24 25 25 26 26 27 28 28 27 26 28 29 31 33 34 34 34 34 35 35 36 36 36 36
14 15 20 23 23 22 21 20 23 29 34 35 34 31 28 26 26 25 24 26 27 28 28 28 27 26 26 26 26 25 24 25 26 26 27 26 26 25 25 25 25 25 25 26 26 27 26 25 26 28 30 32 34 35 35 34 35 37 38 37 37 37 37
22 20 20 21 23 24 23 23 24 27 31 32 30 29 28 27 27 26 26 27 28 28 28 28 27 27 28 29 28 26 25 27 28 28 28 28 28 27 27 26 26 26 26 26 26 25 25 26 28 30 32 33 33 33 34 34 35 36 36 37 37 38 38
26 24 22 19 20 23 24 24 23 25 29 32 31 30 29 29 29 27 26 27 28 29 29 29 29 29 30 32 30 28 28 29 30 31 30 29 28 27 27 26 26 25 25 25 25 25 26 27 29 31 33 35 35 35 36 36 37 37 37 37 38 38 39
26 24 22 21 19 21 23 25 26 26 29 35 36 33 32 32 31 28 27 29 30 32 32 32 31 31 33 34 32 30 31 32 32 32 30 29 28 28 27 27 26 26 26 25 26 26 27 29 31 33 34 36 37 37 38 38 38 38 38 39 39 40 42

ECMWFFLT1_500_spd_072.txt.gz
Wind_Speed
17 15 14 14 16 17 19 19 20 21 23 25 26 27 27 27 26 25 24 23 22 22 21 20 20 21 21 21 21 20 18 19 21 21 20 18 18 18 18 17 16 16 17 17 17 17 17 16 15 15 13 12 12 12 12 11 11 12 13 12 12 11 11
19 18 16 16 16 17 19 19 20 21 23 25 26 26 26 27 27 27 26 25 24 23 22 21 21 21 21 21 22 21 20 21 22 22 20 19 19 18 18 18 17 17 18 18 18 17 16 16 16 15 15 14 13 13 13 13 13 14 14 14 13 12 12
20 21 20 18 17 18 19 19 20 21 23 25 26 27 26 27 28 28 28 27 26 24 23 23 22 22 23 23 22 21 21 23 23 21 21 20 19 18 19 19 18 19 19 18 18 17 17 17 16 16 16 15 14 15 15 15 15 15 15 15 14 14 13
22 23 23 21 20 20 20 21 21 22 24 25 26 27 27 28 28 29 29 29 27 25 23 23 24 24 24 24 24 22 23 24 23 21 21 20 19 19 20 20 20 20 19 19 18 18 18 18 17 17 17 16 16 16 16 16 16 16 16 16 15 15 14
24 24 24 24 24 23 23 23 22 23 24 25 27 28 28 29 29 29 30 30 28 25 24 25 26 25 25 25 25 24 24 24 22 21 21 21 20 20 20 20 20 20 20 19 19 18 19 18 18 19 18 18 17 17 17 17 17 17 16 17 16 15 15
25 25 26 26 26 27 26 25 24 24 24 26 28 29 29 29 29 30 31 30 29 27 26 26 27 26 26 25 25 26 25 24 22 21 22 22 21 21 20 20 20 21 20 20 19 19 19 19 20 19 19 18 18 18 18 18 18 18 17 17 17 16 16
27 26 27 28 28 28 27 27 27 26 25 27 29 28 29 29 29 31 32 31 30 27 26 26 27 26 25 25 25 26 27 25 22 22 22 22 22 21 21 21 21 21 21 21 20 19 19 20 20 20 20 20 20 20 19 19 19 19 18 18 18 18 17
29 27 26 27 27 26 26 26 28 28 26 27 29 29 28 28 29 32 33 31 29 28 27 26 26 25 25 27 27 26 26 26 23 23 23 23 22 22 22 22 21 21 21 21 20 19 19 19 20 21 21 21 21 21 20 20 20 19 19 20 19 18 18
29 27 25 25 25 25 27 29 30 31 28 27 29 31 29 30 32 33 31 31 31 30 29 27 26 25 26 28 29 27 27 26 25 25 25 24 23 23 22 22 21 22 22 22 21 20 20 19 20 21 22 23 23 22 22 21 21 20 21 21 20 19 20
30 28 25 24 25 25 28 30 31 32 30 28 28 30 30 31 33 32 30 31 30 30 29 28 27 27 28 28 28 28 28 27 26 26 26 25 24 23 23 22 22 22 22 22 22 21 20 20 21 22 23 23 24 24 24 23 22 21 22 22 21 21 21
31 30 27 26 26 26 27 30 31 31 31 29 27 27 28 30 31 31 30 30 29 29 29 29 29 29 29 28 27 28 28 28 27 27 26 26 25 24 23 22 22 22 22 22 22 21 21 21 22 23 24 24 25 26 26 25 23 22 22 22 22 22 22
35 31 27 27 28 27 29 31 31 30 30 28 28 27 27 29 29 28 28 28 28 28 28 28 29 30 30 29 27 27 28 28 27 27 27 27 25 24 24 23 22 22 22 21 21 21 21 22 23 24 25 25 26 27 27 26 24 23 22 23 23 24 24
34 32 27 26 29 30 31 32 31 32 30 26 26 27 27 27 28 26 26 27 28 28 27 28 30 31 31 29 27 27 28 29 28 28 28 27 26 25 24 23 23 22 21 21 21 21 22 23 23 24 25 26 27 27 27 27 26 24 23 23 24 25 26
27 28 25 26 29 30 31 30 29 31 30 25 23 25 26 27 27 27 26 27 28 27 27 27 30 32 32 30 28 26 28 29 29 29 28 27 26 26 25 24 23 22 22 22 22 22 22 23 24 25 26 27 28 28 28 28 27 25 24 24 24 26 26
21 23 23 25 27 28 28 27 25 26 28 26 24 24 26 27 27 26 25 26 27 28 27 27 30 31 31 30 27 26 28 30 30 29 29 28 27 27 26 25 24 23 23 23 23 23 24 24 25 26 27 27 28 29 29 29 28 26 25 24 25 26 27
19 20 22 24 26 28 28 25 22 21 23 26 25 25 27 28 27 26 25 25 26 27 27 28 29 30 30 30 26 26 30 32 31 30 30 29 28 27 26 25 25 24 24 24 24 25 25 25 26 26 27 28 29 29 30 30 29 27 25 25 26 26 27
17 19 22 23 24 25 26 24 22 20 21 23 25 26 27 29 28 27 26 27 26 27 27 28 29 29 29 29 27 27 31 33 32 31 31 30 29 27 27 26 25 25 25 25 25 26 26 25 26 26 27 28 29 30 30 30 29 28 26 25 25 25 26
18 19 22 24 25 26 26 25 23 22 22 23 24 25 26 27 28 28 28 29 28 27 27 28 28 29 29 29 28 29 33 34 33 32 32 31 30 28 27 26 25 25 25 25 25 26 26 25 25 26 27 28 28 29 29 29 29 29 27 26 25 25 25
21 21 23 25 26 28 27 25 23 24 25 25 24 25 25 26 27 28 29 30 29 27 28 29 30 31 30 28 28 31 34 35 34 33 33 32 30 29 28 26 25 25 25 25 25 25 25 25 25 26 27 27 28 28 29 29 29 28 28 27 25 25 26
24 24 25 26 27 28 27 25 25 27 28 27 26 26 27 27 28 28 29 31 30 28 28 30 30 29 27 27 28 32 35 36 34 33 33 33 32 30 29 27 25 25 25 25 24 24 24 25 25 26 27 27 28 28 28 29 28 26 28 28 26 26 26
26 26 27 28 28 28 28 27 27 28 29 29 29 29 29 29 29 30 30 31 31 29 28 28 29 27 26 27 29 31 34 36 36 34 34 34 32 30 28 26 25 25 25 24 24 24 25 25 26 27 28 28 28 28 28 29 27 25 27 29 28 26 25
26 28 29 29 29 29 28 28 28 28 28 29 30 31 31 31 30 30 31 31 31 30 28 28 28 27 28 29 29 30 33 36 36 35 34 33 32 30 28 27 26 25 25 25 25 25 25 25 26 27 27 28 28 28 28 28 27 27 27 27 28 28 25
26 28 29 30 30 29 29 29 30 29 28 28 29 31 32 32 31 32 32 31 31 30 29 28 26 26 27 30 31 31 33 37 37 35 34 33 32 31 29 28 27 26 26 26 25 26 26 26 26 27 26 27 27 27 27 27 27 28 26 25 28 31 30
27 28 29 30 30 30 30 29 30 30 30 29 29 30 31 32 34 33 32 31 31 30 30 30 25 25 27 30 31 31 32 36 37 36 33 32 32 31 29 28 28 27 26 26 26 26 26 27 27 27 27 28 28 27 27 27 28 29 29 28 30 32 32
28 28 28 29 29 30 30 29 28 28 29 29 28 30 31 32 33 33 32 32 32 30 33 33 27 26 29 31 31 31 32 35 36 34 33 32 31 31 30 29 28 27 27 26 26 26 27 27 27 28 28 28 29 28 28 29 30 30 29 29 30 31 32
27 28 28 28 29 29 30 29 27 27 28 28 28 31 32 31 32 33 32 32 31 32 36 37 30 29 29 31 31 31 32 34 34 33 32 31 31 31 31 29 29 28 27 27 27 27 27 27 27 28 28 28 29 29 29 30 29 29 29 29 31 33 33
26 27 27 27 27 27 28 28 27 27 27 27 29 32 32 31 32 33 32 32 32 33 37 38 33 30 29 29 29 30 31 33 32 32 32 32 32 31 30 29 29 29 28 28 28 27 27 28 28 28 29 29 29 29 29 29 28 28 29 30 31 33 34
24 26 27 26 25 26 26 26 27 26 26 27 30 32 30 31 33 32 31 32 32 33 37 38 33 29 28 29 28 28 31 32 32 31 32 32 32 31 30 30 29 29 29 29 29 29 29 29 29 29 29 29 29 29 30 30 30 30 31 32 32 33 34
24 25 26 25 25 25 26 27 26 25 27 30 32 31 30 31 33 32 29 29 30 34 37 35 31 28 28 29 28 28 31 34 34 33 33 33 32 30 29 30 30 30 30 30 30 30 30 30 30 30 30 30 30 31 32 33 33 33 33 32 33 33 35
24 23 23 22 22 23 24 26 26 25 28 33 32 28 27 30 32 32 30 29 31 36 35 32 30 29 28 27 27 28 31 35 35 34 33 32 30 29 29 30 30 31 31 31 31 31 31 31 32 32 32 31 31 30 31 31 32 33 33 32 32 32 33
24 22 20 19 20 23 22 22 24 25 27 29 26 22 25 33 35 34 33 34 36 38 36 31 30 31 28 26 26 28 31 34 34 33 32 31 29 29 29 30 31 31 31 31 31 32 32 33 33 33 33 32 30 29 28 27 27 28 29 30 31 32 33
23 21 17 16 17 20 21 20 22 26 27 25 25 25 33 39 40 40 40 39 39 38 34 31 30 31 29 26 27 29 32 33 32 31 30 29 28 28 29 30 31 32 32 32 33 33 34 34 35 34 33 31 30 29 29 30 30 30 30 31 32 34 35
23 21 19 17 14 12 14 15 17 20 20 19 22 30 40 43 42 44 46 42 36 32 30 29 29 30 29 28 28 30 32 32 31 31 30 29 29 29 29 31 32 32 32 32 31 32 33 34 34 32 31 30 30 30 30 31 33 35 36 35 35 36 37
24 24 22 21 18 14 13 14 15 16 16 16 20 28 40 45 44 46 45 39 32 30 29 29 29 29 29 29 30 32 34 33 31 31 30 29 29 30 31 31 32 32 31 29 29 29 29 30 30 30 31 31 31 31 32 31 32 33 34 35 36 39 40
25 25 24 24 23 22 20 17 16 17 17 18 20 24 32 39 42 41 38 35 32 30 29 29 29 29 30 31 32 33 33 32 31 31 30 29 30 31 31 32 32 31 30 30 29 29 29 29 30 31 32 32 33 34 34 32 31 32 34 36 39 40 40
26 26 27 26 26 25 23 20 17 16 16 17 19 23 28 35 38 36 34 33 30 29 28 29 29 29 30 31 32 32 31 31 31 30 29 30 31 31 32 32 32 32 32 32 32 31 31 31 32 32 33 33 34 34 33 31 32 34 37 39 39 39 38
28 28 28 28 27 26 25 23 20 18 17 17 19 21 26 33 37 36 33 30 28 28 29 28 28 28 29 31 31 31 31 31 30 29 30 32 32 32 32 33 33 33 34 34 33 33 33 33 33 33 34 34 33 32 31 31 32 34 36 38 38 39 40

ECMWFFLT1_500_spd_075.txt.gz
Wind_Speed
26 25 24 24 23 21 17 17 19 22 25 26 26 26 26 25 25 25 25 25 25 24 22 22 22 21 22 22 21 22 23 22 21 21 20 20 19 20 19 20 20 20 20 20 20 20 19 17 16 16 16 15 14 13 13 13 13 13 12 12 11 11 11
26 28 28 26 23 19 17 20 22 22 24 25 26 26 24 25 26 26 26 26 26 25 24 24 23 22 22 22 21 23 25 24 23 22 21 21 19 19 20 20 21 22 22 22 21 20 19 18 17 17 17 16 16 15 15 15 16 15 14 14 13 12 12
25 30 30 28 26 23 21 23 24 23 23 24 26 25 24 25 28 28 27 27 27 27 26 25 24 23 23 23 23 24 25 25 24 23 23 22 19 19 20 22 22 23 22 22 21 20 20 19 18 18 18 17 17 17 17 17 17 17 16 15 14 14 13
27 30 31 30 29 26 25 27 27 25 25 26 26 26 25 26 27 28 28 27 27 26 26 25 25 24 25 25 24 25 26 26 25 24 24 23 20 20 21 23 23 23 22 22 21 21 20 19 19 19 19 18 18 18 18 18 18 18 17 17 16 15 14
31 33 33 30 29 28 27 29 28 25 26 27 28 27 27 27 28 28 27 27 27 26 26 26 27 27 27 26 25 26 27 27 25 24 24 23 21 21 22 22 23 22 22 22 22 21 20 20 20 19 19 19 18 19 19 19 19 19 18 18 17 16 15
32 33 33 30 29 29 29 30 28 25 26 28 28 28 28 28 28 29 28 28 28 28 28 29 30 29 28 27 26 27 27 26 25 24 24 23 22 22 22 22 22 22 22 22 23 22 21 20 20 20 20 19 19 19 19 20 20 19 19 19 18 17 16
31 31 30 31 33 32 31 31 30 27 27 29 30 30 30 29 29 30 29 28 28 29 29 31 33 30 28 28 28 30 29 26 26 26 25 23 23 23 23 22 21 22 22 23 23 22 21 21 20 20 20 21 21 21 20 20 20 20 20 19 18 17 17
32 30 28 29 33 34 32 32 32 30 30 32 33 32 32 32 30 30 29 28 29 29 29 31 32 31 30 30 30 32 30 27 28 27 25 24 24 23 23 22 21 22 22 23 23 22 22 21 21 21 21 22 22 21 21 21 21 21 21 20 20 19 18
33 30 28 27 29 32 33 32 32 32 32 34 36 35 33 33 32 30 29 29 29 30 29 30 31 32 32 32 31 31 30 30 29 27 26 25 24 23 23 22 21 22 22 23 22 22 22 22 22 22 22 22 22 22 21 21 21 22 22 22 21 20 20
32 30 28 27 28 31 32 32 32 33 33 34 37 37 35 33 33 32 30 29 29 30 30 29 30 33 34 33 32 31 32 31 30 28 26 26 24 23 23 23 22 22 22 22 22 22 22 22 23 23 23 23 23 22 22 21 21 23 23 23 22 21 21
31 30 29 28 29 30 31 32 32 33 33 34 36 38 36 34 33 32 32 31 30 31 31 30 31 33 34 34 33 32 32 31 30 29 28 27 24 23 24 24 23 22 22 22 22 22 22 22 23 24 24 24 23 23 23 22 22 23 24 24 23 23 23
30 31 31 30 30 31 32 33 33 33 33 33 35 38 37 35 33 32 32 32 32 32 32 31 31 31 33 34 33 32 32 31 30 30 29 27 24 23 26 25 24 23 23 23 23 22 23 23 23 24 24 25 25 24 24 23 23 23 24 24 24 24 24
29 30 30 31 31 32 34 35 34 32 31 31 34 36 36 34 33 32 32 32 32 32 32 31 31 30 32 33 32 32 33 32 31 30 29 27 24 24 27 27 25 24 24 24 24 23 23 23 23 24 25 25 25 25 25 25 24 24 24 24 25 25 24
25 27 29 30 30 32 35 36 34 32 30 29 31 34 35 33 31 31 32 32 31 31 30 30 30 31 31 32 31 32 33 33 32 31 30 28 25 26 28 28 26 26 25 25 25 24 24 24 24 24 25 25 26 26 27 27 25 24 24 25 25 25 25
22 23 26 28 27 28 31 33 34 32 30 29 31 33 34 33 31 30 32 32 30 29 28 28 28 29 30 30 30 31 32 33 32 32 31 29 27 27 28 29 28 27 26 26 26 25 25 25 25 25 25 26 27 27 28 28 26 25 25 25 26 26 26
22 21 22 23 22 21 24 28 31 31 29 29 30 31 34 34 32 30 31 31 29 28 28 28 28 28 29 30 31 31 32 33 33 33 32 31 30 28 28 29 29 28 28 28 27 26 26 25 25 26 26 27 27 28 29 29 27 26 25 26 26 27 26
20 19 20 20 19 18 21 25 28 29 28 27 27 28 30 32 32 30 29 29 29 28 28 28 28 29 30 31 31 31 32 34 34 34 33 32 31 29 29 29 29 29 28 28 28 27 26 26 26 27 26 27 28 29 30 30 28 27 26 26 26 26 26
18 17 18 18 18 18 19 22 24 25 25 25 25 26 27 28 29 30 29 29 29 28 27 27 27 28 29 31 31 31 32 33 34 34 33 32 31 30 31 30 29 29 29 29 28 28 27 26 26 27 27 28 29 29 30 30 29 28 27 26 26 26 25
19 18 17 17 18 19 19 21 23 25 26 26 26 26 26 25 27 29 29 29 29 29 28 28 28 28 28 29 30 31 31 33 34 33 32 31 30 31 33 32 30 29 29 29 29 28 27 27 27 27 28 28 28 29 29 29 29 27 26 26 26 26 26
21 20 20 19 19 19 20 21 23 26 28 28 27 26 27 27 26 27 28 28 28 29 30 30 31 30 30 29 29 30 30 32 33 32 31 29 29 31 34 33 31 31 31 30 30 29 29 28 27 28 28 28 28 29 29 29 27 25 24 25 25 24 23
21 21 22 22 21 21 21 22 23 25 28 29 28 27 28 28 28 28 27 27 27 28 30 31 33 32 31 30 29 29 30 31 32 32 31 29 27 29 33 34 32 32 32 32 31 31 30 28 27 28 28 28 28 29 29 29 27 25 25 27 26 24 23
21 21 22 22 22 22 23 24 24 25 26 27 28 28 29 30 31 31 30 29 28 28 29 31 33 33 32 31 30 30 30 31 32 31 31 29 28 30 34 35 34 33 34 33 33 32 29 28 28 29 28 28 28 28 29 29 28 27 28 29 28 27 26
22 22 23 23 23 22 23 25 26 27 27 28 28 29 29 30 31 33 34 33 32 31 29 30 32 33 34 33 32 32 32 32 32 32 31 29 29 33 36 35 33 33 34 34 33 31 29 29 29 29 29 28 27 27 28 29 28 28 28 28 29 28 27
24 24 24 24 24 23 24 24 26 28 30 30 30 29 30 31 32 34 34 34 34 34 32 31 32 33 34 34 33 33 33 32 32 33 32 30 30 34 37 36 34 33 34 34 33 31 30 30 30 30 30 30 28 27 27 28 28 28 28 28 29 29 29
26 26 25 25 24 25 25 25 26 28 30 32 32 30 30 32 33 34 34 34 34 35 34 34 34 33 33 34 34 34 33 32 31 32 32 31 32 34 36 38 38 37 35 34 33 32 31 31 30 31 31 30 30 29 29 28 28 28 29 28 27 29 30
27 27 26 25 25 25 26 26 27 27 29 32 33 32 32 33 34 34 34 34 34 35 35 36 35 33 33 34 35 34 31 28 29 31 33 35 36 37 38 39 40 38 35 34 33 33 32 32 31 31 31 31 30 30 29 29 29 29 29 27 26 29 31
28 28 28 27 26 26 26 27 27 27 28 31 34 34 34 35 35 35 35 35 36 36 36 37 36 34 33 34 36 35 30 26 26 29 34 38 40 40 40 40 40 38 35 34 34 33 33 33 32 32 31 31 30 30 29 29 29 29 29 28 28 30 31
29 29 28 28 28 27 27 27 26 26 27 30 34 35 36 35 35 35 35 35 35 35 34 35 35 34 33 34 36 35 31 29 27 28 33 38 40 39 39 39 39 37 35 35 35 34 34 34 33 32 31 31 30 30 30 30 30 30 30 30 30 32 32
31 29 28 29 29 29 28 27 26 25 26 30 34 35 34 34 34 34 34 34 33 33 32 33 34 33 33 34 36 36 34 33 31 29 32 37 38 37 37 37 36 36 36 36 36 35 35 35 34 32 31 31 31 31 31 31 32 32 32 32 32 32 33
31 30 29 29 29 29 28 27 26 25 25 28 32 33 33 32 31 33 34 34 34 32 31 34 35 34 33 33 36 39 38 36 34 32 32 35 34 34 34 34 35 36 37 37 36 35 35 35 34 33 32 32 32 32 32 32 32 33 33 33 33 33 33
31 30 29 29 28 28 27 26 25 25 25 27 28 29 30 30 31 35 35 33 34 34 35 37 36 33 33 34 37 39 38 34 33 32 32 33 32 32 32 34 35 37 37 36 35 35 35 35 34 33 33 33 33 33 33 33 34 34 34 33 33 33 32
31 31 29 28 28 28 26 25 24 23 22 24 25 26 28 28 29 32 32 31 34 36 37 36 34 34 33 34 36 37 34 31 31 32 33 33 32 31 32 34 35 36 36 35 34 34 34 35 34 34 34 34 34 34 34 34 35 35 34 34 33 33 32
32 32 31 28 27 27 27 25 25 22 19 20 22 24 26 26 26 27 31 35 37 36 36 34 33 33 33 33 35 36 33 31 31 32 32 31 31 31 31 33 34 35 35 35 34 34 34 34 34 35 35 35 35 35 35 36 36 36 35 34 34 34 34
33 34 33 31 28 27 26 26 26 26 24 22 20 20 19 20 23 27 33 38 39 38 37 35 33 34 36 35 34 33 31 30 31 31 31 30 30 30 31 32 34 35 35 34 34 34 34 35 35 35 36 36 37 37 37 37 38 37 36 36 36 36 36
34 34 35 34 31 28 26 26 26 27 27 25 22 20 17 17 21 29 34 38 38 37 38 38 39 41 39 32 28 27 28 29 30 30 31 30 30 31 32 34 35 35 34 34 34 34 34 34 35 36 36 36 36 36 36 36 37 37 37 36 37 37 38
35 35 35 35 34 32 29 27 26 26 26 23 21 21 18 16 20 27 34 38 38 38 40 41 42 41 34 25 26 28 29 29 29 30 30 31 31 32 33 35 35 34 34 35 35 35 35 35 36 37 37 35 34 33 33 34 34 35 36 36 37 37 38
37 36 35 36 36 35 33 30 27 26 26 23 21 21 19 16 17 22 29 35 37 37 38 38 38 36 32 28 31 33 33 32 31 31 31 32 33 33 34 34 31 31 33 35 35 36 36 37 38 38 36 34 33 33 33 34 35 36 36 37 37 38 38

ECMWFFLT1_500_spd_078.txt.gz
Wind_Speed
22 22 22 26 30 29 28 29 29 27 28 28 29 29 29 27 26 26 27 27 26 27 27 26 25 25 25 25 23 22 24 25 23 22 22 21 20 20 21 20 19 20 20 20 20 20 20 18 17 17 18 18 17 16 16 16 15 14 14 13 13 12 11
23 25 27 29 30 32 32 32 30 29 28 29 31 31 29 29 29 28 28 29 27 26 27 27 26 25 25 25 24 23 24 25 24 23 22 22 22 22 22 21 21 21 20 20 20 21 20 19 18 18 18 18 18 17 17 17 17 16 15 15 15 14 13
26 27 30 32 33 34 35 34 33 31 29 29 31 30 29 29 30 29 29 30 29 28 28 28 27 27 27 25 24 25 25 25 24 23 23 23 23 23 23 23 22 21 21 21 21 21 21 20 19 19 19 19 19 18 17 18 18 17 17 17 17 15 14
31 31 32 35 36 37 37 35 33 31 29 31 31 29 29 30 30 30 30 31 31 31 30 29 29 29 28 27 26 26 25 24 24 24 23 23 23 24 24 25 24 23 22 21 21 22 21 21 20 20 20 19 19 18 18 18 18 18 18 18 18 16 15
33 34 34 36 37 38 38 37 35 31 30 32 33 29 28 31 32 31 31 30 30 32 32 32 30 29 28 28 27 26 25 26 26 25 23 22 24 25 25 25 24 23 23 21 22 22 22 21 21 20 20 19 19 18 18 18 18 19 19 19 18 17 16
34 33 34 36 37 39 39 38 37 34 32 33 34 32 29 29 31 31 31 30 30 31 33 34 33 30 26 26 27 26 26 28 28 26 25 25 25 26 26 26 25 24 23 22 22 22 22 22 21 21 20 20 19 18 18 18 18 19 20 19 18 17 16
34 33 34 35 37 39 39 38 37 36 36 36 35 34 32 30 29 30 30 30 30 31 32 33 35 33 28 24 26 26 26 27 28 27 28 28 26 26 26 26 25 25 24 23 23 22 23 23 22 21 20 20 20 19 18 18 18 19 19 19 19 18 17
35 35 36 37 40 41 40 38 37 36 36 38 38 35 35 34 31 29 29 29 30 31 32 33 33 34 31 27 26 26 26 26 28 28 29 29 27 25 26 26 25 25 24 24 24 24 24 23 22 20 20 21 20 19 18 18 18 19 19 20 19 19 18
38 38 38 38 40 41 39 37 37 36 36 38 39 37 36 36 34 32 32 31 31 31 32 33 32 32 33 30 28 28 28 28 30 30 29 29 28 26 26 26 26 26 24 25 26 25 24 24 22 21 21 21 20 19 19 19 19 20 20 20 20 19 19
37 38 38 38 38 39 39 36 34 35 36 36 36 37 36 36 35 34 35 36 34 33 32 33 32 32 33 32 31 32 32 32 32 32 30 29 29 28 27 27 27 26 24 25 27 26 25 25 23 22 22 21 20 20 19 19 20 20 20 20 20 20 20
33 34 35 35 35 35 36 34 31 32 35 35 34 34 35 35 34 35 36 38 38 36 34 34 34 33 33 33 33 34 34 33 33 33 31 30 30 29 28 28 29 27 25 26 27 26 25 25 24 23 22 21 21 20 20 20 20 21 21 21 20 21 21
27 28 29 30 30 31 32 32 31 32 35 36 34 32 32 33 33 34 36 38 39 39 37 36 36 35 33 33 33 34 34 34 33 32 31 31 31 30 28 29 29 28 27 27 26 25 25 24 24 23 22 22 21 20 20 21 20 21 22 22 21 22 22
24 24 25 26 26 27 30 32 33 33 36 38 36 33 32 33 33 34 35 36 38 39 39 37 37 36 35 33 33 33 34 35 33 32 32 32 31 30 29 29 30 30 29 28 27 27 26 25 24 24 23 22 22 22 22 22 21 22 23 23 22 22 23
24 24 24 25 25 25 27 30 33 34 35 36 36 35 33 33 34 33 34 35 36 38 39 38 37 36 35 33 34 34 34 34 33 32 33 33 31 30 30 30 31 31 30 28 28 29 27 25 25 24 24 23 23 23 23 23 22 22 23 23 23 23 23
25 25 25 26 25 26 26 28 30 31 31 32 34 36 34 33 34 33 33 34 35 36 37 37 36 36 34 32 32 33 33 33 33 33 34 33 32 32 32 31 31 32 32 29 30 31 28 26 26 25 25 25 24 24 24 24 23 23 23 24 24 24 24
24 25 26 26 26 26 26 27 27 26 26 27 30 33 32 31 32 32 32 33 33 33 34 34 34 35 34 32 30 30 30 32 33 33 33 32 32 33 33 32 32 33 33 31 30 30 29 27 27 26 26 26 25 25 25 25 24 23 23 24 25 25 25
23 24 25 25 25 24 24 24 23 22 23 24 26 28 29 29 30 31 31 32 33 33 33 34 34 34 33 32 29 28 29 32 32 32 32 32 33 33 33 33 33 34 34 32 30 30 30 29 28 27 27 27 27 26 26 26 25 24 24 25 25 26 25
23 24 24 24 24 24 23 23 21 21 21 23 24 25 27 28 30 30 30 31 32 33 33 34 34 33 33 31 30 29 30 31 30 30 32 33 33 33 33 33 33 34 34 33 31 31 32 31 29 28 29 28 28 27 27 27 27 25 25 26 26 26 26
23 23 24 24 24 24 24 23 22 22 22 22 23 24 25 27 28 29 29 29 30 31 32 34 34 32 31 30 30 30 30 30 29 30 33 33 33 34 34 33 34 34 34 34 33 33 33 32 31 30 30 29 29 28 28 28 28 27 26 27 27 26 26
24 23 23 23 23 24 24 24 24 23 23 23 24 24 24 25 26 28 28 28 29 29 30 32 32 31 30 30 31 31 30 29 30 31 32 33 33 34 34 35 35 34 34 34 34 34 32 32 32 32 31 30 30 29 29 28 28 27 27 28 28 27 27
24 24 23 23 22 23 23 24 25 24 24 24 25 25 25 25 26 28 29 29 29 30 29 29 30 30 31 31 32 32 31 30 30 31 32 33 34 34 34 35 35 34 34 34 33 32 32 32 33 33 32 31 31 30 30 29 28 29 30 29 29 28 27
25 25 24 24 23 23 23 24 25 25 25 25 26 26 26 27 27 28 30 31 31 31 30 29 29 30 30 31 33 33 33 33 32 32 32 33 34 34 34 34 34 34 34 34 33 31 31 32 33 34 34 33 32 31 31 31 30 31 31 30 29 28 26
25 25 26 25 25 25 24 24 24 25 26 26 27 27 28 28 28 28 30 32 33 32 32 31 29 29 30 31 32 33 34 34 33 33 33 33 33 34 33 34 34 34 34 35 35 34 33 32 30 30 32 33 32 32 32 32 31 30 30 29 28 28 28
26 26 27 26 26 27 27 26 26 26 26 27 27 28 29 29 29 30 30 32 33 33 33 31 30 30 30 31 32 33 34 34 34 33 33 34 33 33 33 34 35 35 34 36 37 35 34 34 32 31 33 34 33 32 32 31 30 29 29 28 29 29 30
28 28 28 28 28 28 28 28 28 27 28 28 28 29 30 30 30 31 31 32 33 34 33 32 32 32 32 32 34 36 35 34 34 34 34 34 32 32 33 34 36 37 36 38 38 34 32 35 36 37 37 36 35 34 33 31 29 30 30 29 30 30 30
30 30 30 31 31 30 29 29 29 29 29 30 30 30 31 31 31 31 32 33 33 34 34 33 34 34 33 34 36 37 37 35 35 34 35 36 34 33 34 36 37 38 38 38 38 35 33 35 37 38 38 37 36 36 35 34 33 33 30 28 28 27 28
32 32 32 32 32 32 31 30 30 30 30 30 30 31 31 32 32 31 32 33 33 34 35 35 36 36 35 36 37 38 39 38 36 35 36 37 37 36 36 37 37 38 38 38 37 35 35 36 37 37 36 36 37 36 36 35 34 34 32 30 30 29 29
31 32 32 32 32 33 33 32 31 30 30 30 30 31 31 31 32 32 32 33 34 35 36 37 38 37 36 37 37 38 40 39 37 37 38 38 38 39 39 39 37 37 38 39 39 37 36 37 37 37 36 36 37 37 36 35 35 34 34 33 33 33 33
32 32 32 32 32 33 34 34 32 31 31 30 30 30 30 30 30 31 32 32 33 35 37 39 38 37 37 38 38 38 40 39 39 39 39 39 39 38 39 38 36 36 37 39 41 41 40 39 38 37 36 36 36 36 36 36 35 35 35 34 34 34 34
34 33 32 32 32 33 35 36 35 33 31 31 30 29 30 29 28 29 30 30 31 34 36 38 38 37 37 37 37 37 37 37 38 39 39 39 39 38 36 34 33 34 36 39 43 44 42 41 39 36 36 36 36 36 36 36 35 35 35 35 35 34 34
36 35 34 33 33 33 34 36 37 35 32 31 30 30 30 29 26 26 28 29 30 32 35 36 36 37 38 38 37 37 36 37 39 39 39 40 39 38 36 34 32 33 35 39 42 43 42 41 39 36 36 36 36 36 36 36 36 36 35 35 35 35 35
40 38 37 35 34 33 33 35 38 37 35 33 31 30 31 29 25 23 25 27 29 31 33 34 35 37 38 38 38 36 35 38 40 40 39 40 40 39 37 35 34 33 34 38 40 41 40 40 37 36 36 37 37 37 36 35 35 36 36 35 35 35 35
42 41 39 36 35 34 33 33 35 37 37 36 33 31 32 32 29 25 24 26 28 30 32 34 38 41 41 41 41 39 38 41 41 39 39 40 40 40 38 35 35 34 34 36 37 37 37 36 36 36 36 36 37 38 37 35 35 36 36 36 36 36 36
41 41 41 39 37 35 33 32 33 35 37 37 35 33 33 34 33 30 27 27 28 31 34 35 38 42 43 43 43 43 42 42 39 36 38 39 36 32 31 32 34 34 35 37 36 35 35 35 35 35 36 37 38 38 37 37 37 38 37 37 36 36 37
42 41 41 41 40 37 35 33 33 33 36 37 37 35 34 34 34 33 31 29 27 30 34 35 36 40 42 42 41 41 42 40 36 33 35 36 33 30 31 33 33 33 34 36 35 34 34 34 35 36 37 38 39 39 38 38 39 39 38 37 37 37 38
46 45 44 43 42 40 38 35 33 33 34 36 37 36 35 34 34 33 32 31 29 28 29 33 36 39 40 40 40 40 42 41 38 37 38 36 32 30 33 35 35 34 33 33 32 31 33 34 36 37 38 39 40 40 40 40 40 40 40 39 38 38 39
50 49 49 47 46 44 41 39 36 33 33 35 37 37 36 35 34 32 30 30 30 28 26 28 34 38 39 39 40 42 44 44 41 38 35 30 27 27 29 31 32 32 32 30 29 30 33 35 36 37 38 39 40 40 41 40 40 40 39 38 38 38 37

ECMWFFLT1_500_spd_081.txt.gz
Wind_Speed
23 25 25 26 28 30 32 33 34 35 34 32 31 31 30 28 29 30 30 30 30 30 28 28 27 27 26 23 24 27 27 28 27 26 25 25 24 23 22 21 20 20 19 18 18 17 16 17 17 17 16 16 15 14 14 14 14 13 13 14 14 13 13
24 25 27 27 28 30 32 34 35 37 37 35 32 32 33 32 32 32 33 32 32 31 29 29 28 28 26 24 25 27 26 27 27 26 26 26 25 24 22 22 21 20 19 19 20 21 20 19 19 18 18 16 16 15 15 15 14 14 14 14 15 14 14
25 26 27 29 29 30 32 35 36 38 40 39 36 33 33 34 34 34 34 33 33 32 31 31 31 30 28 26 26 27 27 27 26 26 26 26 26 24 23 23 22 21 20 20 22 22 21 21 20 19 19 17 17 17 16 15 15 15 15 15 15 15 15
27 28 29 31 31 31 32 34 36 38 40 41 39 35 33 32 33 35 35 33 33 32 31 31 32 31 30 29 28 27 27 26 26 27 27 26 26 26 24 24 23 22 20 20 21 22 21 22 21 20 19 19 18 17 16 16 16 16 15 15 15 16 16
29 30 31 33 34 34 34 35 36 38 40 41 40 37 34 32 33 36 37 34 32 32 31 31 31 31 32 32 30 28 27 27 28 28 27 27 27 26 25 24 24 23 21 20 22 23 22 22 21 21 21 20 19 18 17 17 16 16 16 15 16 16 16
31 32 33 34 35 35 37 36 35 37 39 40 40 38 36 34 33 35 38 37 33 32 31 31 33 32 32 33 32 31 30 29 29 29 28 27 27 26 25 24 24 23 21 21 23 23 23 22 22 22 22 21 19 18 18 18 17 17 17 16 17 16 16
31 32 34 34 34 36 39 39 37 36 37 38 38 38 38 36 35 35 37 38 36 34 32 31 33 33 32 32 32 32 31 30 30 30 29 28 28 27 25 25 25 24 23 22 23 24 24 23 23 22 22 21 20 19 18 19 18 18 18 17 17 17 17
32 33 34 36 36 37 40 42 41 38 37 38 39 40 40 37 36 36 37 38 37 36 34 32 32 32 31 31 32 32 31 31 30 29 29 29 29 28 27 26 26 26 25 23 23 25 25 24 23 22 22 22 21 19 19 20 19 19 19 19 18 18 18
34 35 36 37 37 38 40 42 43 40 38 39 41 41 40 37 35 35 36 37 37 37 36 35 33 32 31 31 32 32 30 31 31 30 29 29 29 29 29 28 26 27 26 24 24 26 26 25 23 22 22 22 22 21 20 21 20 20 20 19 19 19 18
37 37 37 37 37 38 40 40 41 39 38 40 41 41 40 39 37 35 33 34 36 37 37 38 36 34 32 31 30 31 30 29 31 32 31 29 29 30 30 28 27 29 28 26 27 28 27 26 25 24 24 23 22 22 21 21 21 21 20 20 20 19 19
36 35 34 34 34 35 35 36 35 35 35 37 38 37 37 38 37 37 34 32 34 36 37 38 39 37 35 33 31 31 31 29 30 32 32 30 30 31 31 29 28 30 29 28 29 29 28 27 27 27 25 24 24 23 22 22 22 21 21 21 21 20 20
30 30 29 30 31 30 31 32 31 30 31 33 33 33 33 34 36 36 35 33 33 35 37 38 39 38 37 36 34 32 33 32 31 32 32 31 32 32 32 31 30 30 29 31 32 31 29 30 30 28 26 24 25 24 22 22 22 22 22 22 21 21 21
27 27 27 28 29 29 29 30 31 29 29 30 30 30 30 33 35 35 35 35 33 35 37 37 37 38 37 36 35 34 34 33 33 33 32 33 32 32 33 33 33 32 32 33 34 31 31 31 30 28 25 25 26 24 23 23 23 23 23 23 22 22 22
27 26 26 26 27 28 29 30 31 31 30 30 30 30 29 30 33 34 35 35 32 33 37 37 35 35 36 36 35 34 34 33 33 33 34 34 32 32 33 33 33 34 33 33 32 32 33 32 31 28 26 25 25 24 24 24 24 25 25 24 23 22 22
27 25 25 25 26 27 28 30 31 30 30 30 30 30 29 29 31 32 34 35 34 31 32 34 33 32 33 35 35 34 34 34 33 33 34 34 33 33 34 33 33 33 33 33 33 34 35 33 31 29 28 26 25 24 25 25 25 26 26 25 24 23 23
26 25 25 25 25 25 26 28 29 29 28 28 28 28 28 28 28 29 30 32 34 31 28 30 33 31 31 33 33 33 34 34 34 33 34 34 34 34 34 33 33 33 34 35 35 35 35 33 31 31 30 28 25 24 25 26 27 27 26 26 25 24 24
25 25 25 25 25 25 25 26 28 29 28 27 27 26 26 26 26 26 26 28 31 31 29 30 33 33 32 33 33 33 33 33 34 34 34 34 34 34 32 32 33 34 35 35 34 34 34 33 32 32 31 28 25 25 27 27 27 27 26 27 26 25 25
26 26 26 26 26 26 26 26 27 28 28 27 27 26 25 25 25 25 26 26 27 29 31 32 33 33 33 33 33 33 31 32 32 32 33 34 34 32 31 32 33 34 35 35 34 35 35 34 33 33 32 29 27 27 27 27 28 28 27 27 28 28 27
27 27 28 27 27 27 27 27 27 28 28 28 28 27 26 25 26 26 26 26 26 27 30 34 34 32 32 32 32 32 32 32 31 31 32 34 34 32 31 32 33 34 35 35 34 36 36 35 34 34 33 31 28 28 28 28 28 28 28 28 30 30 27
28 28 28 28 28 28 27 27 27 28 28 28 29 28 27 26 26 27 27 27 27 26 28 32 32 30 29 30 31 32 32 32 31 30 31 33 34 33 32 32 33 33 34 34 34 36 37 36 34 34 33 30 29 30 31 30 29 29 29 30 30 29 27
29 29 29 29 29 28 28 27 27 27 28 28 29 29 29 28 28 28 28 27 27 28 29 30 30 29 29 30 31 31 30 31 32 31 31 32 33 34 33 33 32 32 32 33 34 36 36 35 34 34 35 32 31 31 32 32 31 31 31 31 30 29 29
30 30 29 29 29 29 28 27 26 26 27 27 28 29 30 30 30 29 29 29 29 30 31 31 29 29 29 29 31 32 30 32 33 31 32 33 32 33 33 33 33 33 33 34 35 36 37 36 36 36 37 37 35 32 31 31 33 34 33 33 32 31 30
32 31 30 30 30 29 29 29 28 27 27 27 28 29 30 31 31 31 31 31 31 32 33 32 30 30 30 30 31 32 32 33 32 31 32 33 31 31 33 32 33 34 34 34 36 37 37 38 39 38 38 40 39 36 33 32 32 32 32 32 33 33 33
33 33 32 32 32 32 32 32 31 30 29 28 29 29 29 30 31 32 33 33 33 34 35 34 32 31 31 32 33 33 33 34 33 31 31 31 31 32 32 32 33 35 34 35 37 37 37 39 40 39 40 41 40 37 34 31 30 30 30 30 32 33 31
34 34 34 34 34 34 34 34 34 33 31 30 30 30 30 30 31 32 33 34 35 35 36 35 33 32 32 34 35 35 35 35 35 33 30 30 31 32 32 32 34 36 36 36 37 37 37 38 40 40 41 42 41 38 35 33 31 30 30 31 33 31 27
36 35 35 35 35 36 36 36 36 35 34 32 31 30 31 31 31 32 33 34 35 36 36 36 34 33 35 35 36 36 36 36 36 34 31 31 32 32 33 34 35 36 36 36 36 36 36 37 39 40 41 42 42 40 38 36 34 31 30 30 33 32 29
38 37 37 37 37 37 37 36 36 35 35 34 32 31 31 31 32 32 33 33 34 35 36 36 35 34 36 37 37 37 36 36 36 35 33 33 32 32 34 35 35 35 36 36 35 34 35 37 38 39 40 41 41 41 39 38 37 35 33 32 33 34 33
41 40 39 39 38 38 37 37 36 35 35 34 33 32 31 31 32 32 33 33 33 34 35 36 36 35 35 37 37 36 36 36 36 36 36 34 32 33 36 36 35 35 36 37 36 34 34 36 38 39 40 40 40 40 40 40 40 39 38 36 35 35 35
42 42 41 40 40 39 38 38 37 36 35 34 34 34 32 32 32 32 32 32 32 33 34 35 36 35 36 37 37 35 36 36 36 37 37 36 35 36 37 35 34 34 35 37 37 36 36 37 39 40 40 40 40 40 38 38 39 41 40 37 34 34 35
44 44 44 43 42 41 40 39 39 39 38 36 36 36 34 33 32 32 32 32 31 32 33 34 35 35 35 36 36 35 35 36 37 38 37 37 37 37 36 34 34 35 36 37 38 38 38 39 40 39 39 39 40 40 39 38 38 39 40 40 39 39 38
45 45 45 45 44 43 42 41 41 42 41 38 37 37 37 35 34 33 32 32 31 31 32 32 32 33 33 34 34 33 34 36 36 37 37 36 36 36 36 36 35 35 35 36 37 38 39 40 39 37 36 38 39 41 42 41 38 39 41 41 42 42 41
46 46 45 45 45 45 44 43 43 43 43 40 38 38 38 38 36 35 34 32 31 31 32 32 31 30 30 31 31 31 33 35 36 38 38 36 36 36 36 36 37 37 37 38 38 39 40 40 38 36 35 37 39 41 43 42 40 40 41 41 42 41 41
47 47 47 46 47 47 47 46 45 43 41 40 39 38 39 39 38 37 36 34 32 32 32 31 31 30 29 29 30 31 32 34 35 36 37 36 38 40 37 37 39 41 40 39 40 41 40 39 37 36 36 37 39 41 43 43 42 39 38 40 41 41 40
48 48 48 48 48 48 48 48 47 43 40 39 39 38 38 39 40 39 37 36 35 34 34 32 31 31 30 29 29 31 33 35 36 38 39 40 43 42 40 40 42 42 39 38 40 42 41 38 37 38 39 39 40 41 41 42 40 37 35 36 37 37 37
50 50 51 50 50 49 48 48 47 45 43 42 42 40 38 38 40 41 40 38 36 36 35 33 31 31 31 30 29 30 33 37 39 40 41 41 40 39 40 42 43 43 41 40 40 41 41 40 40 40 40 39 39 38 38 37 36 34 34 34 34 34 34
53 53 53 54 53 53 52 51 50 50 49 47 46 44 41 39 39 41 41 40 38 37 36 34 32 31 30 30 30 31 33 37 38 38 40 40 38 36 38 41 43 44 44 43 43 43 43 42 41 41 40 39 37 36 34 33 33 33 34 35 36 35 35
53 54 54 55 56 56 56 55 54 54 53 52 49 47 43 40 39 41 42 42 40 39 37 35 33 32 31 30 30 30 31 33 33 35 40 43 41 39 40 41 41 42 43 43 42 41 39 37 36 35 34 34 33 32 31 31 32 33 35 37 38 39 40

ECMWFFLT1_500_spd_084.txt.gz
Wind_Speed
22 23 24 26 28 29 30 32 32 33 33 33 33 34 35 36 35 32 30 29 29 29 29 29 28 27 26 25 25 26 25 24 24 24 25 26 26 25 25 24 24 24 23 23 22 20 19 18 16 14 14 14 13 14 14 14 14 12 11 11 10 10 10
23 25 26 27 28 29 30 32 33 33 34 35 35 35 36 37 38 36 33 30 30 29 29 30 30 29 27 26 26 26 25 24 23 24 25 25 25 25 26 25 25 25 23 23 23 22 22 20 18 16 16 15 15 15 15 15 15 14 13 12 12 11 11
24 26 28 30 30 31 31 33 33 33 34 35 35 36 37 36 37 38 35 32 31 30 28 28 30 29 28 26 25 26 26 25 25 24 24 24 24 25 26 25 26 26 24 23 24 24 23 22 20 19 18 17 15 15 16 16 15 15 14 13 13 13 12
25 27 29 31 32 32 33 34 34 34 34 35 35 36 38 38 37 37 35 33 31 30 27 27 29 29 28 26 25 26 26 26 26 25 24 25 25 24 25 25 25 26 26 25 25 25 24 23 22 21 19 17 17 16 17 17 16 16 15 14 14 14 13
26 28 30 31 33 33 34 34 34 34 34 34 35 36 38 39 36 34 33 30 28 28 27 26 28 29 29 27 26 26 26 26 25 25 25 25 25 24 24 25 25 26 26 25 26 26 24 23 23 21 19 18 18 18 18 18 17 17 16 15 15 15 14
27 29 30 31 32 33 34 34 35 35 36 36 36 38 39 39 37 35 35 32 29 29 29 27 26 27 28 27 25 24 25 26 25 25 25 26 26 25 26 26 26 26 27 27 27 26 25 24 23 22 20 19 20 20 20 20 19 18 17 16 16 16 15
28 29 30 31 32 33 34 35 36 36 38 39 39 40 41 41 39 37 38 38 34 33 32 29 26 26 28 28 27 25 24 24 25 24 24 26 26 27 27 27 26 26 27 27 27 27 27 25 24 25 23 20 21 22 21 21 20 20 19 17 17 17 16
28 29 31 32 32 33 34 35 37 37 37 38 39 40 40 39 37 35 35 37 36 35 34 32 28 27 27 28 28 27 25 24 24 23 24 24 25 26 26 26 27 27 27 26 27 27 27 26 26 26 25 24 23 22 22 22 21 21 21 19 18 18 17
29 30 31 32 33 34 34 34 35 35 35 35 35 36 36 34 33 32 32 34 35 35 35 34 31 27 27 29 29 27 26 25 23 23 24 23 24 26 27 26 26 27 28 28 27 27 27 28 28 27 27 26 24 23 23 22 22 22 22 20 19 18 18
29 30 31 32 32 33 33 33 32 32 33 33 33 33 33 31 30 29 30 32 32 33 33 32 32 29 27 28 30 28 27 26 25 24 24 23 23 25 26 26 26 26 28 28 28 28 29 30 29 28 29 27 24 24 25 24 23 23 22 21 20 20 19
29 30 31 31 32 32 33 32 32 32 32 32 32 32 32 31 30 29 28 29 29 30 30 29 30 31 28 27 29 30 28 27 27 26 25 25 24 24 25 26 26 27 28 28 30 30 30 30 29 28 30 29 26 26 27 26 24 23 23 23 22 21 21
29 30 30 31 32 32 33 33 33 33 33 32 30 30 31 31 31 30 28 27 26 27 28 29 30 30 29 26 27 30 30 28 27 26 27 28 27 26 26 26 26 28 29 29 30 30 31 31 31 31 32 32 29 28 28 28 26 25 24 23 22 23 22
28 29 30 31 31 32 32 32 32 32 31 31 29 28 29 30 30 30 29 27 26 25 25 26 28 29 29 26 26 28 30 29 27 27 27 28 29 29 28 27 27 28 30 30 31 31 32 32 33 33 34 33 31 30 29 29 28 26 25 24 24 23 22
28 29 30 30 31 30 30 29 30 29 29 29 28 28 28 28 28 28 28 27 27 26 25 24 25 27 28 27 27 28 29 28 26 26 26 28 29 29 29 29 29 29 30 31 32 33 33 34 34 34 34 34 33 31 30 29 29 28 27 26 25 24 22
29 29 30 30 30 29 28 28 28 28 27 26 26 26 26 26 26 27 27 27 26 26 26 25 24 25 26 26 26 27 28 26 24 25 26 27 28 29 29 30 30 30 31 32 32 32 33 35 36 36 35 36 34 32 31 30 29 29 28 27 26 24 23
29 30 30 31 30 30 28 27 26 27 27 25 24 24 24 24 25 25 26 27 26 25 25 25 24 24 25 25 24 25 27 26 25 24 26 28 28 29 30 31 31 31 32 32 32 32 34 35 37 37 37 36 35 33 30 29 29 29 29 28 26 26 27
30 30 31 31 31 30 29 27 27 27 28 27 25 24 23 23 23 24 25 27 27 25 24 25 24 24 24 24 24 26 28 29 28 26 26 27 29 30 31 31 31 32 32 33 33 33 34 35 35 36 36 35 34 32 30 30 31 30 29 28 28 28 29
30 30 31 31 32 31 30 28 28 28 28 28 27 26 24 23 23 23 24 26 27 27 26 24 24 25 25 25 25 26 29 30 28 26 26 28 30 31 31 30 30 32 33 33 33 33 34 34 34 35 35 33 32 32 32 32 32 31 30 29 30 30 29
31 31 31 31 32 31 31 30 29 29 29 29 29 28 26 25 24 24 24 24 26 28 28 26 25 26 27 27 26 27 29 31 29 27 27 29 31 32 31 30 29 31 33 32 32 32 33 35 34 35 36 33 33 35 34 32 32 33 31 30 31 31 30
33 32 32 32 32 32 32 32 32 31 29 28 28 29 28 27 26 25 25 26 26 28 28 27 27 28 29 30 28 27 29 30 30 29 29 29 30 31 31 30 28 30 32 32 32 31 32 34 34 35 37 36 36 36 34 33 33 33 33 32 33 34 33
35 35 34 34 34 34 35 35 34 32 31 29 28 29 29 29 28 27 27 27 28 28 28 27 27 28 30 32 32 30 30 30 30 31 31 29 29 31 32 30 30 31 31 30 31 31 31 33 34 35 37 37 37 35 32 32 33 34 35 35 33 34 33
37 36 36 36 36 36 36 36 35 34 32 31 30 30 31 31 30 29 29 29 29 29 28 27 27 27 29 31 33 33 33 32 32 32 31 30 30 31 31 31 32 33 32 31 32 32 32 33 33 34 37 37 35 34 32 33 35 37 37 36 34 34 33
38 38 38 38 38 38 38 37 36 35 35 34 33 32 32 32 32 32 31 30 31 31 30 27 26 27 29 31 31 32 34 35 35 33 32 31 31 31 31 31 32 33 34 34 33 32 32 32 33 34 36 36 34 33 33 34 37 39 37 36 37 37 35
40 40 39 39 39 39 39 38 38 37 36 36 35 34 33 33 33 34 34 33 32 32 31 29 27 28 30 32 31 31 32 34 35 34 34 32 31 31 32 32 32 34 36 35 33 32 32 32 32 34 36 36 35 33 32 34 38 40 39 39 39 39 37
41 41 42 41 41 41 40 40 39 38 38 37 37 36 35 34 34 35 35 35 35 34 32 30 28 27 29 32 33 32 31 33 34 33 34 34 33 32 33 33 33 34 35 35 34 33 32 32 33 35 36 36 34 33 33 36 39 40 40 41 40 39 36
43 44 44 44 43 43 42 42 41 40 40 39 39 39 38 36 35 35 36 36 36 36 35 33 31 29 28 31 33 33 31 33 34 33 33 36 35 33 34 34 34 35 34 34 33 32 32 33 34 35 34 33 33 34 37 39 39 40 41 41 41 39 37
45 45 45 45 45 44 44 44 43 43 43 42 42 41 40 39 37 36 36 36 37 37 36 35 33 31 30 29 32 33 33 33 34 33 32 35 36 35 35 34 34 34 33 34 34 32 31 31 31 31 31 30 32 36 38 38 39 41 43 43 43 41 40
46 46 46 46 45 45 44 44 44 44 44 43 43 43 42 41 39 37 36 36 37 37 37 37 36 34 32 30 31 33 33 33 34 34 32 33 35 36 35 34 34 34 33 35 35 33 33 32 32 32 31 31 33 36 38 39 41 43 43 43 43 41 40
46 46 47 47 47 46 45 45 44 44 44 44 44 44 43 43 42 40 38 37 37 38 38 38 37 35 34 32 31 32 33 32 33 34 33 32 33 35 36 35 35 34 33 33 33 32 32 33 34 34 32 32 33 36 38 40 42 43 43 43 43 42 41
46 47 48 48 48 48 48 48 47 47 46 46 46 46 45 45 44 43 41 39 38 38 39 39 38 37 35 33 32 31 32 32 32 33 32 32 32 34 35 35 35 34 33 33 33 32 32 33 35 36 35 33 34 36 37 38 40 42 42 42 43 43 44
47 48 49 49 50 50 50 50 50 49 49 48 47 46 46 46 45 44 43 41 39 38 39 40 39 37 36 35 33 31 31 31 31 31 31 31 32 32 33 34 35 35 35 34 32 32 34 34 33 34 33 33 33 35 36 38 39 41 41 42 43 44 44
47 47 48 49 49 50 51 51 51 51 50 49 48 47 46 46 46 45 44 43 40 38 38 40 41 38 36 35 34 32 31 30 30 29 29 30 30 31 32 34 35 34 33 32 32 32 33 33 33 34 33 33 34 36 38 39 40 41 42 42 42 42 43
48 48 49 49 49 50 50 50 51 51 50 49 48 47 46 46 46 46 45 43 41 38 37 39 41 40 37 36 35 33 31 30 29 28 27 27 28 30 33 35 36 35 33 33 33 34 35 35 36 37 37 35 36 39 40 40 40 40 40 41 40 40 40
51 52 52 53 53 53 53 53 53 52 52 52 51 50 49 48 47 46 45 44 42 40 37 37 39 40 39 37 36 34 32 30 29 27 26 26 27 30 33 34 34 34 34 35 37 38 39 40 40 39 38 38 38 39 39 39 38 36 36 37 38 39 41
52 53 54 54 54 55 55 56 56 56 56 55 55 54 54 52 51 49 48 47 45 43 41 40 39 39 39 38 37 36 34 31 29 27 26 25 25 28 33 35 35 36 37 38 39 37 37 39 41 42 42 41 39 37 38 38 37 36 35 36 38 40 41
52 52 53 53 54 54 55 55 56 56 56 56 56 56 56 55 54 52 51 49 48 47 46 44 42 41 40 39 38 37 36 33 31 28 26 24 25 30 35 36 36 38 39 41 42 40 38 40 43 44 43 41 38 37 38 39 39 38 37 38 39 38 36
52 53 53 54 54 54 55 55 55 55 55 55 55 55 55 54 54 53 51 50 49 48 47 46 45 43 41 40 39 38 37 35 33 31 26 24 26 32 35 36 37 37 39 42 44 42 41 41 42 42 41 40 38 38 39 40 38 37 36 36 36 35 32

ECMWFFLT1_500_spd_087.txt.gz
Wind_Speed
21 21 22 22 22 23 24 24 25 26 26 26 26 26 26 26 26 26 26 28 29 29 29 28 26 24 26 27 28 27 25 23 21 20 20 19 18 19 21 20 20 21 22 22 22 23 24 24 22 19 18 17 17 17 16 16 15 15 15 13 12 11 10
22 22 23 23 23 24 25 26 27 27 28 28 27 27 27 27 27 26 27 27 29 29 29 28 26 23 23 25 26 27 26 25 24 22 20 20 19 19 20 20 21 21 23 23 23 23 24 25 24 22 20 18 17 18 17 17 16 16 16 15 13 12 12
23 23 24 24 24 25 26 27 28 28 29 29 29 29 29 29 28 28 28 29 29 29 28 27 26 23 22 23 25 26 25 25 25 23 22 22 21 20 19 20 21 21 22 23 24 24 25 25 24 23 22 20 19 19 18 18 18 17 16 16 15 13 13
24 24 25 25 26 26 26 27 28 29 29 29 30 30 30 30 29 29 29 30 30 29 28 27 27 25 23 23 24 25 25 24 23 23 22 22 22 22 21 21 21 21 22 23 24 25 25 25 25 24 24 22 22 21 20 21 20 18 17 17 17 15 14
25 25 26 26 27 27 27 27 28 29 29 30 30 31 31 30 29 28 29 30 29 29 28 27 27 28 28 26 24 23 24 23 21 21 22 23 23 23 22 22 23 22 21 21 23 24 24 25 26 25 24 24 23 24 23 22 21 20 19 18 18 16 15
25 26 26 27 28 27 27 28 28 29 29 30 30 30 30 29 28 28 28 29 29 28 27 26 26 27 28 27 25 23 23 24 23 21 20 22 24 24 23 23 23 23 22 21 22 23 25 26 26 25 26 25 24 25 24 23 23 23 20 19 19 17 16
26 26 27 28 28 27 28 28 28 28 28 29 29 29 29 29 29 28 28 28 28 28 27 26 25 25 25 25 24 23 23 24 24 24 23 22 23 23 24 24 24 24 24 23 23 23 25 27 27 27 27 25 24 25 25 24 25 24 22 20 20 19 17
27 27 28 28 28 28 28 28 28 28 27 28 28 28 29 29 29 29 29 28 27 26 26 26 25 24 23 22 23 22 22 22 22 24 25 24 22 22 22 24 25 25 26 25 24 24 25 27 28 28 27 26 26 26 27 26 26 25 24 22 20 19 18
27 28 28 28 28 28 29 29 28 28 27 27 27 28 28 28 28 28 28 27 25 25 25 26 25 24 23 22 22 22 21 22 22 23 25 25 23 23 23 23 25 25 26 26 26 25 26 27 28 28 27 27 27 28 29 28 26 25 25 23 21 20 20
28 28 29 29 29 29 30 29 28 27 26 26 26 27 27 27 26 26 26 26 24 23 24 25 25 24 22 21 21 21 21 22 23 24 26 26 25 26 25 24 24 25 26 27 26 25 26 27 28 28 27 27 27 28 28 28 27 27 27 24 22 21 21
29 29 29 29 29 30 30 30 29 27 25 24 24 25 26 26 25 24 24 24 24 23 23 23 24 25 23 21 21 20 21 22 22 23 27 28 27 27 27 25 25 25 26 26 27 27 26 27 28 29 28 28 28 28 28 29 29 28 27 25 23 22 22
29 30 30 30 30 30 31 31 29 27 24 23 23 23 24 24 23 23 23 24 24 23 23 23 23 25 24 22 22 21 21 22 21 22 25 28 29 29 28 26 26 26 26 26 27 28 28 28 28 29 30 31 30 28 28 29 30 29 28 26 25 25 24
30 30 31 30 30 30 31 31 30 27 24 23 22 21 22 22 22 23 23 24 23 23 23 23 22 23 24 22 22 22 22 22 22 21 23 25 28 30 30 28 27 27 28 28 28 29 30 29 29 30 31 32 31 30 29 29 29 30 29 28 27 27 26
31 31 32 31 31 31 31 31 30 28 25 23 22 21 21 22 22 23 24 24 23 23 23 24 22 22 22 22 22 22 22 22 22 22 23 24 28 30 30 30 29 29 30 30 29 30 30 30 30 31 31 31 31 31 29 29 30 31 32 31 30 28 27
32 33 33 32 32 32 31 31 30 28 25 24 22 21 21 22 23 23 24 24 24 23 23 23 23 22 22 22 22 22 22 22 22 22 22 24 26 28 29 29 30 30 30 31 30 30 31 31 31 32 32 32 31 31 30 30 31 32 33 33 32 29 28
34 34 34 34 33 33 32 31 30 29 27 25 23 22 21 22 23 24 24 24 24 24 23 23 23 23 22 22 22 22 22 22 22 22 22 22 24 25 26 28 29 30 31 31 30 30 31 32 32 32 32 32 32 32 32 32 32 34 35 35 34 31 29
35 35 35 34 34 33 33 32 32 30 28 26 25 24 24 23 24 25 25 25 25 25 24 23 23 23 23 23 22 23 22 22 23 23 22 23 24 25 26 28 30 31 32 31 30 29 30 32 32 32 31 32 32 32 32 33 34 35 36 37 35 32 31
37 36 36 36 35 35 34 34 34 33 31 29 28 27 27 26 26 26 27 27 27 27 26 24 23 23 24 24 23 22 22 22 23 24 24 24 25 25 26 29 31 32 32 32 31 31 31 31 32 32 32 32 32 32 32 33 35 37 38 38 35 34 33
38 38 37 37 36 36 36 36 36 35 35 33 32 31 30 29 28 27 28 28 29 30 28 25 23 23 24 25 25 24 23 23 24 25 25 26 27 26 25 29 32 31 32 33 32 32 31 31 33 33 33 33 33 33 34 34 35 36 39 39 36 35 35
39 39 39 38 38 38 38 38 38 38 37 36 35 34 33 32 30 29 29 29 30 31 30 27 25 25 24 25 26 25 24 24 24 24 24 26 27 27 25 28 31 32 33 33 33 32 30 31 34 33 33 33 34 35 35 34 34 36 38 40 38 36 35
39 40 40 40 40 40 40 40 40 39 39 38 38 36 35 34 33 32 31 30 30 31 31 29 28 27 27 26 26 26 26 25 24 24 24 25 27 27 27 27 29 31 34 34 33 33 32 31 32 32 33 34 34 35 35 35 35 36 37 39 39 37 36
39 40 41 41 41 41 42 42 42 41 41 40 40 39 38 36 35 34 33 32 31 31 32 31 30 29 29 28 27 27 27 26 25 25 25 25 26 28 29 29 28 29 33 34 33 33 33 32 31 32 33 34 35 35 36 35 36 37 37 38 38 37 37
40 40 41 42 42 43 43 43 43 42 42 42 42 42 41 39 38 36 34 34 33 32 32 33 32 31 31 29 29 29 29 28 27 26 26 26 26 27 29 30 29 29 31 32 32 33 34 33 33 33 34 35 35 35 35 35 35 37 38 38 37 37 38
40 41 42 43 43 44 44 44 44 44 43 44 44 44 43 43 41 39 37 36 36 35 34 34 34 34 34 32 30 29 30 30 29 28 27 27 27 27 29 31 30 29 29 30 32 34 34 34 34 34 34 35 35 35 35 35 35 37 38 38 37 37 38
40 41 42 43 44 45 45 45 45 45 45 45 45 46 45 45 44 43 41 39 38 38 37 36 36 36 36 36 34 31 30 31 31 30 29 28 28 28 29 31 30 29 28 29 31 33 34 34 34 34 34 34 35 35 35 35 36 36 36 37 37 37 38
40 41 42 43 44 45 46 46 47 47 47 47 47 47 47 46 45 44 43 41 40 39 39 38 37 36 36 36 36 34 32 31 32 32 31 30 30 29 29 30 30 29 29 30 31 33 33 33 34 35 34 34 34 35 35 34 34 34 34 35 36 37 39
41 42 43 44 45 46 46 47 48 48 49 49 49 49 48 48 47 46 45 43 42 40 40 39 38 37 36 36 36 36 35 33 33 33 33 33 32 31 30 30 30 29 30 31 31 32 32 34 35 35 34 34 34 33 34 34 33 32 33 34 35 37 39
43 43 44 45 46 46 47 48 48 49 49 50 50 50 50 49 49 49 48 47 46 44 42 41 40 39 38 37 37 37 37 36 35 34 34 34 34 33 31 30 30 29 30 31 31 31 32 34 35 34 33 34 35 33 33 34 34 34 33 34 34 36 38
44 45 45 46 46 47 48 49 49 50 50 51 51 51 51 51 51 51 50 50 49 48 46 44 43 42 40 38 37 37 37 38 37 36 35 35 35 34 33 31 29 29 30 31 31 31 32 32 34 34 33 34 35 33 32 33 33 33 33 32 33 36 37
44 45 46 47 48 48 49 50 50 51 51 52 52 52 52 52 52 52 52 52 51 50 48 47 45 44 43 40 37 37 38 38 38 38 37 36 35 35 34 32 30 28 29 30 31 32 32 31 33 33 33 33 34 33 32 32 32 33 32 32 33 37 39
43 44 45 46 47 48 49 50 51 51 52 52 52 52 52 53 53 53 52 52 51 50 49 48 46 45 44 42 39 36 37 38 39 39 38 36 35 35 35 33 30 28 28 29 30 32 31 30 32 33 32 32 33 33 33 32 32 33 32 32 34 38 41
46 46 46 47 48 49 50 51 51 52 53 53 53 53 53 54 53 53 53 53 52 51 50 49 48 46 44 43 40 37 36 37 38 39 38 36 35 35 34 33 31 29 28 27 29 31 31 30 32 32 31 30 32 34 34 32 32 34 35 35 35 37 41
48 48 49 49 50 51 51 52 53 53 54 54 55 55 56 56 56 56 55 55 54 54 53 52 51 49 47 45 42 39 36 36 37 38 38 36 35 34 33 33 31 29 28 28 28 29 29 30 30 30 29 29 31 33 33 33 35 36 36 36 36 37 39
50 51 51 52 53 53 54 55 55 55 56 56 56 56 57 57 57 57 57 57 57 56 55 54 54 53 51 49 46 43 40 37 37 37 37 37 35 34 33 32 30 29 28 28 28 28 29 30 29 29 30 31 31 31 33 36 38 38 34 33 33 34 35
52 53 54 54 55 56 57 57 58 58 58 58 58 58 58 58 58 58 57 57 57 56 56 55 55 54 53 52 49 47 44 41 39 38 38 37 35 34 33 32 30 29 27 26 27 30 32 32 30 30 32 34 34 34 34 36 37 36 33 32 32 33 34
51 53 54 55 56 57 58 58 59 59 59 60 60 60 60 60 59 59 58 57 57 56 55 54 54 53 53 51 49 47 45 44 41 40 39 39 37 35 34 32 30 28 27 26 28 33 35 32 30 32 35 37 38 37 34 34 35 36 36 36 37 39 39
49 50 51 52 53 54 55 56 57 58 59 59 59 59 60 60 59 59 58 58 57 56 55 54 53 52 51 50 48 46 44 42 42 41 41 40 39 36 35 33 30 27 26 27 30 38 38 32 30 31 33 35 36 37 37 38 40 41 42 43 43 42 42

ECMWFFLT1_500_spd_090.txt.gz
Wind_Speed
20 20 20 21 21 22 23 23 24 24 25 25 24 23 23 23 22 22 21 21 20 20 21 22 23 23 23 23 23 23 23 21 22 22 22 22 23 24 24 24 24 25 26 27 27 27 26 25 25 25 24 23 22 22 22 22 22 22 21 20 19 17 17
20 21 21 21 22 22 23 23 24 25 26 25 25 24 24 23 23 22 22 21 21 21 21 22 23 23 23 22 22 23 24 23 22 22 21 21 22 23 24 24 24 25 26 28 27 27 27 27 27 27 27 26 25 24 24 24 24 23 23 22 21 19 18
22 22 22 23 23 23 24 24 25 26 26 26 25 24 23 23 22 21 20 20 20 20 21 22 23 23 23 22 23 24 25 24 22 22 21 21 21 23 24 24 24 24 25 26 27 28 29 29 29 29 29 28 27 26 26 25 25 24 24 22 21 20 19
22 23 23 24 24 25 25 26 26 27 27 26 25 25 24 23 22 21 20 20 20 20 21 21 23 24 24 24 24 25 26 26 25 23 22 21 22 23 24 25 25 25 25 25 27 29 30 29 30 30 30 29 28 28 27 26 25 25 24 23 22 21 21
23 23 24 25 25 25 26 27 27 28 28 27 26 25 24 23 22 21 21 20 20 21 21 22 23 25 25 24 24 24 25 27 27 25 23 22 22 23 24 25 26 27 27 26 26 28 28 28 29 30 30 30 29 29 29 28 26 26 26 25 23 23 23
24 24 24 25 25 26 27 27 28 28 28 27 26 24 23 22 22 21 21 20 20 21 22 22 24 26 26 25 24 23 24 26 27 27 26 25 24 24 25 26 28 29 27 27 28 28 29 29 29 29 31 32 31 31 31 30 29 29 28 26 25 24 23
24 25 25 25 26 27 27 28 28 28 28 27 26 24 22 21 21 20 21 21 21 21 22 23 23 25 26 25 23 22 22 24 25 27 28 28 26 26 28 27 28 29 29 30 30 29 30 30 29 29 31 32 32 32 32 30 30 30 29 28 27 25 24
25 25 25 26 27 27 28 28 29 29 28 27 26 24 22 21 20 20 20 21 21 21 21 22 23 24 26 25 23 22 23 24 25 26 28 29 28 27 29 29 28 29 29 31 32 30 30 30 30 29 30 31 32 33 32 31 30 30 30 31 30 27 25
27 27 27 27 28 28 29 29 30 30 29 28 26 24 22 20 19 19 19 19 20 20 21 21 22 23 24 24 23 23 24 25 25 25 27 29 28 27 28 29 30 30 30 31 31 31 30 30 30 31 31 31 31 32 33 32 31 29 31 33 31 28 27
28 28 28 29 29 29 29 30 30 30 30 28 26 24 22 20 19 19 19 18 18 19 20 20 21 22 23 24 24 23 24 24 23 24 27 29 28 28 28 28 30 31 32 32 31 32 32 32 31 31 31 31 31 33 33 33 31 31 33 34 32 30 29
28 29 30 30 31 31 31 31 31 31 31 29 26 24 21 20 20 19 18 18 18 19 20 20 20 21 22 23 23 23 23 23 21 22 25 28 29 29 29 29 30 31 32 33 32 31 32 33 32 32 32 33 33 34 34 33 32 33 34 34 32 31 30
29 30 30 31 32 33 33 33 32 32 32 30 27 24 22 21 20 19 18 18 19 19 20 20 21 21 21 21 21 21 21 21 20 20 23 27 29 29 30 31 31 32 32 33 33 32 32 32 33 33 34 34 35 34 33 33 33 33 35 35 32 32 32
29 30 31 32 34 34 35 34 34 33 33 31 29 25 23 21 21 20 20 19 19 19 20 21 21 21 21 21 21 20 19 19 19 19 20 24 27 29 31 32 31 32 33 33 34 34 33 33 33 33 34 34 35 34 34 34 32 32 34 34 33 34 34
30 31 32 33 34 36 36 36 35 34 34 33 31 28 25 23 22 21 21 21 21 20 20 21 21 21 21 21 22 21 20 20 20 20 20 21 24 27 30 31 31 33 34 35 35 34 35 35 33 32 33 34 34 34 34 34 32 31 34 34 33 34 35
31 32 33 34 35 36 37 37 36 36 36 35 33 31 28 26 24 23 22 23 23 22 22 22 23 23 22 22 22 22 22 21 21 21 22 22 23 25 27 30 31 33 35 36 36 35 35 35 35 33 32 33 34 34 34 34 32 32 35 36 34 34 35
32 33 34 34 35 37 38 38 37 37 36 36 35 33 32 29 27 25 25 25 25 25 24 25 26 26 26 24 23 23 23 22 22 22 22 22 23 24 25 27 29 31 33 35 35 36 36 36 36 34 33 33 34 34 34 34 32 32 35 37 36 35 36
34 34 35 36 36 37 38 38 38 37 37 37 36 35 34 33 31 29 28 28 28 27 27 27 27 28 28 26 24 23 23 23 23 23 23 23 24 25 24 25 27 29 30 31 33 34 35 36 36 35 34 34 34 34 34 34 33 33 36 38 37 36 37
36 36 36 37 38 38 39 39 39 39 38 38 38 37 36 36 35 34 32 31 31 30 29 28 28 29 29 28 26 25 24 24 24 24 24 25 25 25 25 25 27 28 28 28 30 33 35 35 35 35 35 35 35 36 35 35 35 35 37 39 38 37 37
37 38 38 39 39 39 40 41 41 41 40 39 39 39 38 38 37 37 36 35 34 33 32 30 28 28 29 30 29 27 25 25 26 26 26 26 27 26 26 26 26 28 28 28 28 31 34 36 35 35 35 36 36 37 37 37 37 37 38 39 38 37 37
38 39 39 40 40 41 41 42 42 42 42 41 40 40 40 40 40 39 38 38 38 37 36 33 31 29 29 30 30 29 27 27 27 27 27 28 28 28 28 27 27 28 28 28 28 28 31 34 36 36 35 36 37 39 39 38 37 37 38 38 39 38 38
39 40 40 41 41 42 42 43 43 43 43 43 42 42 42 42 42 41 41 40 40 39 39 37 35 32 30 29 30 30 29 28 28 28 29 29 29 29 30 29 29 29 29 29 29 28 29 31 34 36 35 35 37 39 40 39 38 38 38 38 39 39 39
40 40 41 41 42 42 43 43 43 44 44 44 44 44 43 43 43 43 43 43 42 42 41 41 40 37 34 31 31 31 31 31 30 30 30 30 30 30 31 31 31 30 30 30 30 30 30 31 32 34 35 36 37 38 39 39 39 38 39 39 39 39 40
41 41 41 42 42 42 43 43 43 44 44 45 45 45 45 45 45 45 45 44 44 44 43 43 43 42 40 36 33 32 33 33 33 32 32 32 32 32 31 31 32 32 31 30 30 30 31 32 32 32 33 35 37 37 38 39 39 38 38 39 40 40 41
41 41 41 42 42 42 43 43 43 44 44 45 46 46 46 46 46 46 46 46 46 46 46 45 45 45 44 42 38 35 34 34 35 34 34 33 33 33 33 32 32 33 32 31 31 31 32 32 33 31 31 34 36 37 38 39 39 38 38 39 40 40 41
41 42 42 42 42 43 43 43 44 45 45 46 46 47 47 48 48 47 47 47 47 47 47 47 47 46 46 45 43 40 37 35 35 35 35 34 34 34 34 34 33 33 33 33 32 32 32 33 33 33 32 33 35 37 38 38 38 39 39 39 40 40 40
41 42 42 42 42 43 43 44 45 45 46 47 47 48 48 49 49 49 49 49 49 49 49 48 48 48 47 47 45 43 41 39 37 36 36 36 35 35 35 35 34 33 33 34 34 34 34 33 34 34 33 33 34 36 37 38 38 39 40 40 40 40 39
41 41 42 42 43 43 44 44 45 45 46 47 48 48 49 50 50 51 51 51 51 51 50 50 49 49 49 49 48 46 45 43 41 40 39 38 37 36 36 36 36 35 34 34 34 35 35 35 35 35 34 34 34 35 36 37 38 38 38 39 40 40 40
42 43 43 44 44 44 44 44 45 45 46 47 47 48 49 50 51 52 52 53 53 53 53 52 52 51 51 51 50 49 47 46 44 43 41 40 39 38 37 37 37 37 35 35 35 36 36 36 36 36 35 35 34 34 35 37 37 37 37 38 39 39 40
44 44 45 44 45 45 45 45 46 46 47 48 48 49 50 50 51 52 53 53 54 55 55 54 54 53 53 52 52 51 50 48 46 44 42 41 41 40 39 38 38 38 37 36 36 37 37 37 37 36 36 35 34 34 35 36 36 36 37 38 38 39 40
44 44 45 45 46 46 47 48 49 50 50 51 52 52 53 53 53 53 54 54 55 55 56 56 56 55 54 53 52 52 51 49 48 46 44 42 40 40 40 39 38 38 38 38 37 37 38 38 36 36 36 35 35 35 35 35 36 36 37 38 38 38 39
44 45 46 47 48 49 50 52 53 54 55 56 56 57 57 58 58 57 57 57 57 57 57 57 57 57 56 55 54 53 52 50 49 47 45 43 41 40 40 40 40 39 38 38 38 38 38 38 36 35 35 35 35 36 35 34 35 35 36 37 37 37 37
46 47 48 50 51 52 54 55 56 57 58 58 59 60 61 61 62 62 62 62 61 61 60 59 58 58 57 57 56 55 54 52 51 49 47 45 43 40 39 40 40 39 38 38 38 39 39 38 36 34 35 35 35 35 35 34 34 35 34 35 36 37 37
48 49 50 51 52 53 54 55 56 57 58 59 60 61 61 62 63 64 64 64 64 64 63 63 62 61 60 59 58 57 55 54 52 51 49 48 45 42 40 39 40 40 40 38 38 39 39 38 36 35 35 35 34 33 33 33 33 33 34 34 35 35 36
47 47 48 49 50 51 52 53 53 55 56 57 58 59 60 61 62 63 64 64 65 65 65 65 64 63 62 61 60 59 57 55 53 51 51 49 47 44 42 40 39 40 41 40 39 38 39 38 36 35 36 35 33 32 31 32 33 33 33 34 34 33 34
43 44 44 45 45 46 46 47 48 48 49 50 52 53 54 56 57 59 60 61 63 63 64 64 64 64 63 62 61 60 59 57 54 52 51 50 48 46 44 41 39 40 42 43 40 38 38 38 36 36 36 35 33 31 30 29 31 32 32 31 32 35 37
38 38 38 38 38 38 38 39 40 41 42 43 44 45 47 48 49 51 52 54 56 58 59 60 61 61 62 61 61 60 59 57 55 52 51 50 48 46 44 42 40 40 42 44 43 39 37 37 36 36 36 34 33 32 30 28 30 32 33 32 33 38 40
31 31 30 31 31 32 33 34 35 36 37 38 39 40 41 42 42 43 44 45 47 48 50 52 54 55 56 57 57 57 57 57 55 52 50 49 48 46 43 42 41 40 41 44 44 42 39 37 36 36 36 35 35 33 31 32 35 37 37 37 38 41 41

ECMWFFLT1_500_spd_093.txt.gz
Wind_Speed
20 20 19 19 19 19 20 20 21 21 21 21 21 21 22 22 22 23 23 23 23 22 21 20 19 19 20 20 21 21 22 22 23 24 25 26 25 25 27 27 26 26 25 24 25 27 30 31 30 30 30 31 33 32 31 30 28 28 29 28 27 25 24
22 21 20 20 19 19 20 20 21 21 21 21 22 22 22 22 23 23 23 22 22 21 19 18 18 19 20 20 21 20 21 22 23 25 26 27 26 26 27 27 27 27 27 27 27 27 29 30 31 31 30 32 33 32 33 33 31 30 30 30 28 26 25
23 22 22 21 20 20 20 21 21 22 22 22 23 23 23 23 23 23 23 22 21 20 19 18 18 19 20 21 22 22 21 21 22 24 26 27 27 27 28 28 27 28 29 28 28 29 29 29 30 31 31 32 33 34 35 35 33 32 31 30 29 27 26
24 23 23 23 22 21 21 22 22 23 23 23 24 24 24 24 24 24 23 22 21 20 19 18 19 20 21 22 23 24 24 23 23 23 24 27 28 29 30 30 29 30 30 29 29 30 30 29 30 31 32 33 33 34 35 35 35 34 32 31 30 29 28
24 24 24 24 23 23 23 23 23 24 24 24 24 24 24 24 24 24 23 22 21 20 19 18 19 20 21 23 24 25 26 26 25 24 24 26 28 29 30 31 31 31 31 30 31 32 31 31 30 31 32 34 34 34 34 35 35 35 33 31 31 31 30
25 25 25 25 24 24 24 24 24 24 24 24 24 24 24 25 25 24 23 22 21 20 19 19 19 19 20 22 23 24 26 27 26 26 25 26 28 28 29 30 31 32 32 31 32 32 32 33 33 32 32 34 34 34 34 35 35 36 35 32 32 33 32
26 26 26 25 25 25 25 25 25 25 25 25 25 25 25 25 25 24 23 22 21 20 20 19 19 18 18 19 21 23 24 26 27 26 26 26 27 28 29 29 30 32 33 32 33 33 33 34 34 35 35 34 34 35 35 36 36 36 36 34 34 35 34
26 26 26 26 26 26 26 26 26 26 27 27 26 26 26 26 25 25 24 22 21 20 19 19 19 18 18 18 19 20 22 24 26 26 27 27 27 27 28 28 29 31 33 33 34 36 35 33 33 35 37 36 35 35 36 36 36 36 36 36 36 36 35
27 26 26 27 26 27 27 27 28 28 28 28 28 28 27 27 26 25 24 23 22 20 20 19 19 19 19 18 19 20 21 23 24 25 26 27 27 27 27 27 27 28 31 33 34 36 36 35 34 35 37 38 37 36 36 37 37 36 35 36 37 36 36
28 27 27 27 27 27 28 28 28 29 29 29 29 29 29 28 27 26 25 25 23 22 21 20 20 20 20 20 20 20 21 22 23 24 25 26 27 28 27 27 27 27 29 32 34 35 36 37 37 36 35 36 37 37 36 37 37 36 34 35 37 37 37
29 29 29 29 28 28 28 28 29 29 30 30 30 30 30 30 29 28 27 26 25 24 23 22 21 21 21 21 21 21 21 22 23 24 24 25 26 27 28 28 28 28 29 32 33 34 35 37 38 38 35 34 34 36 36 36 37 36 34 35 37 38 38
31 31 31 30 29 29 29 30 30 30 30 31 31 31 31 31 31 30 29 27 26 26 25 25 23 23 22 23 23 22 22 22 23 23 24 24 25 26 27 28 29 28 29 31 32 34 36 37 37 38 37 35 34 34 35 36 37 36 36 36 37 38 38
32 33 33 32 31 31 31 31 31 31 31 32 32 32 32 32 32 32 31 30 28 27 28 27 26 25 25 24 24 24 25 25 25 24 24 24 24 25 25 27 28 29 29 29 30 32 34 36 37 37 37 37 36 34 34 35 36 37 37 37 37 38 38
34 34 34 34 33 33 33 32 32 32 33 33 33 33 33 33 33 33 33 33 31 30 30 29 29 28 27 27 27 27 27 27 27 27 26 25 25 25 25 25 27 29 29 29 29 30 31 33 35 36 37 37 38 37 35 34 35 36 38 39 38 39 39
35 35 35 35 34 34 34 34 34 34 35 35 35 35 35 35 35 35 35 35 34 33 32 31 31 31 30 30 30 30 30 30 29 29 28 28 27 26 25 25 25 28 30 29 28 29 30 31 32 34 35 37 38 38 37 36 35 34 36 38 39 39 40
36 36 35 35 35 35 34 35 35 36 36 36 36 37 37 37 37 37 37 37 37 36 35 33 33 33 33 32 32 32 32 32 31 31 30 30 29 28 27 26 25 26 28 29 28 29 30 31 32 32 33 35 38 39 39 38 37 35 34 35 38 40 40
37 37 36 36 36 35 35 36 36 37 37 37 37 37 38 38 38 39 39 39 38 38 37 36 35 34 34 34 34 34 33 33 33 33 32 31 31 30 29 27 27 27 27 28 28 28 30 31 32 32 32 32 35 38 39 39 39 37 34 33 36 39 39
39 38 37 37 37 36 37 37 38 39 39 39 39 39 39 40 40 41 41 41 41 40 39 38 37 37 36 35 35 34 34 34 34 34 34 33 33 32 31 30 29 29 28 28 28 29 30 30 31 32 32 31 33 36 38 39 39 39 37 34 34 37 38
40 39 38 38 38 38 38 38 39 40 40 40 40 40 41 41 42 43 43 44 44 43 42 41 40 39 38 38 37 36 35 34 34 35 35 35 35 34 33 32 31 31 31 30 29 29 30 31 31 31 31 31 33 35 37 39 38 39 39 37 35 35 37
41 40 39 40 40 39 39 40 40 41 41 41 41 41 42 42 43 44 45 45 46 46 45 44 43 42 41 40 39 39 38 36 35 35 36 37 37 36 36 35 33 32 32 32 32 31 31 32 32 31 30 31 33 35 36 38 38 39 39 40 38 36 37
42 41 41 41 40 40 40 41 41 41 42 42 42 42 43 43 44 45 46 47 47 48 48 47 46 45 44 43 42 41 40 39 38 37 36 37 38 38 38 37 36 35 34 34 34 33 33 33 33 32 31 31 32 34 36 37 38 39 40 41 40 38 38
43 43 42 42 41 41 41 42 42 42 43 43 43 43 44 44 45 46 47 48 49 49 49 49 49 48 46 45 44 44 43 42 41 40 38 37 38 40 40 40 39 38 37 36 35 35 35 35 35 34 32 32 33 34 35 36 36 38 40 41 41 40 40
43 43 43 42 42 42 43 43 43 43 43 44 44 44 45 45 46 47 48 49 50 50 50 50 50 50 49 48 47 46 45 45 44 43 42 40 39 39 41 41 41 41 40 39 37 37 37 36 37 36 34 33 34 34 35 35 35 36 39 41 42 42 42
44 43 42 42 42 42 43 43 44 44 44 44 45 45 46 46 47 47 48 49 50 50 51 51 51 51 52 51 50 49 48 47 47 46 45 44 42 41 40 41 42 42 42 41 40 39 39 38 38 38 36 35 35 35 35 35 35 36 37 39 42 43 43
43 42 41 41 41 42 43 43 44 45 45 46 46 47 47 47 47 47 48 49 49 50 50 50 51 51 52 52 52 52 51 50 49 49 48 47 46 44 42 41 41 42 42 42 41 40 40 39 39 39 38 37 36 36 36 36 36 36 36 38 41 43 43
41 40 40 41 41 43 44 44 45 45 46 46 46 46 46 47 47 48 48 49 50 50 50 51 51 51 52 52 53 53 53 52 51 51 50 50 49 47 46 44 43 42 42 42 42 41 40 40 40 40 40 39 37 37 36 36 36 36 36 38 40 42 43
40 40 41 42 43 44 45 45 45 45 45 46 46 47 48 49 50 51 52 52 53 53 54 54 54 54 53 53 54 54 54 54 53 53 52 52 51 50 49 47 46 44 44 44 43 42 41 40 40 40 41 40 39 38 37 37 36 36 37 37 39 41 42
40 41 43 44 45 44 44 45 45 46 48 49 50 51 53 54 55 56 56 57 58 58 59 59 59 59 59 58 57 57 56 55 55 54 54 54 53 53 51 50 49 48 46 45 45 44 43 41 40 40 41 41 41 39 38 37 37 37 37 37 38 40 41
41 43 44 44 44 45 46 47 49 50 51 52 53 54 55 56 56 57 58 59 59 60 61 62 62 62 63 63 63 62 61 60 58 57 55 54 54 54 53 52 51 50 48 47 46 45 44 42 41 40 41 42 43 42 39 38 37 38 38 38 39 40 41
43 43 43 44 45 47 48 49 50 51 51 52 52 53 54 54 55 55 56 57 58 59 60 61 62 63 64 65 65 65 65 65 64 62 60 58 56 55 54 53 52 51 49 47 47 46 44 43 42 42 41 42 43 43 41 39 38 39 38 38 39 40 41
42 42 43 45 46 47 48 48 48 49 49 50 50 51 51 52 52 53 54 55 56 57 58 59 60 62 63 64 66 67 67 67 66 65 64 63 61 58 55 54 53 51 49 48 48 46 44 43 43 43 41 41 42 43 42 41 39 39 39 39 39 40 41
41 43 43 44 45 45 45 45 45 46 46 46 47 47 48 49 50 50 51 52 53 54 56 57 58 59 60 62 63 65 66 67 67 67 66 64 64 62 60 56 54 52 50 49 49 47 44 42 43 43 42 41 41 42 42 42 41 40 39 39 38 39 41
40 41 41 41 41 41 42 42 42 42 43 43 44 45 46 47 48 49 50 51 51 52 53 54 54 55 57 58 59 61 62 64 65 66 66 65 64 63 62 60 57 54 51 49 49 48 45 42 42 44 43 42 41 41 42 43 42 40 39 39 38 37 39
38 37 37 37 38 38 38 39 39 40 41 42 43 44 45 45 46 47 48 48 49 50 50 50 50 51 51 52 54 55 57 59 60 62 63 63 63 62 62 61 59 56 53 50 48 48 45 43 42 43 44 43 42 41 42 42 42 40 40 39 38 37 38
34 34 34 35 35 35 36 37 38 40 41 42 42 43 43 44 44 45 46 47 47 48 49 49 49 48 48 47 47 48 49 51 53 55 57 59 60 60 60 59 58 56 54 51 49 47 45 43 43 43 43 43 43 42 42 42 42 41 40 40 38 37 38
31 31 32 32 33 34 35 37 38 39 40 40 40 41 41 42 42 43 44 46 47 48 49 49 49 48 47 45 44 43 42 43 45 47 49 52 54 55 56 57 56 55 53 51 50 48 45 44 43 43 43 43 43 44 43 42 41 41 40 40 38 37 38
29 30 31 31 33 34 35 36 37 37 37 37 38 39 39 40 40 41 43 44 46 47 49 51 51 49 47 45 43 41 38 37 37 39 41 44 46 49 51 52 53 52 51 50 49 48 46 43 43 43 44 44 44 44 43 42 41 40 41 39 38 38 39

ECMWFFLT1_500_spd_096.txt.gz
Wind_Speed
23 23 23 23 22 22 21 21 21 21 20 20 20 20 20 21 22 23 23 23 23 23 22 23 23 23 23 23 23 23 24 24 24 24 25 26 27 27 28 28 27 27 27 27 28 29 29 28 28 29 29 29 30 32 33 34 34 34 35 34 31 29 29
24 24 24 24 23 23 22 22 22 21 21 20 20 20 21 21 22 22 23 23 23 22 22 23 23 23 23 22 22 23 24 24 24 25 25 25 26 26 27 27 27 27 27 28 28 29 30 29 29 30 30 30 30 31 33 35 35 35 36 35 32 29 30
25 25 25 25 24 24 23 23 23 23 22 22 22 21 21 22 22 22 23 23 23 22 22 23 23 23 23 22 22 23 24 25 25 26 26 26 26 26 26 27 27 26 27 28 29 30 31 30 29 31 33 32 30 30 32 34 35 35 36 35 32 31 31
26 25 25 25 25 25 25 25 25 25 25 24 24 23 23 23 23 23 23 24 23 23 23 23 23 23 23 23 23 23 24 25 26 26 27 27 27 27 27 27 27 27 27 27 28 30 31 31 30 30 33 34 31 30 30 32 34 35 34 34 34 33 32
27 27 27 27 27 27 26 27 27 27 27 26 26 25 25 24 24 24 24 24 24 23 23 23 23 23 23 23 23 23 24 24 25 25 26 27 27 26 26 27 27 28 28 27 27 29 30 31 31 29 31 34 33 31 30 30 32 34 34 35 34 34 34
28 28 28 28 28 28 28 28 28 28 28 27 27 27 26 25 25 25 25 25 24 24 24 24 24 24 24 24 24 24 24 24 24 25 25 26 26 26 25 25 26 27 27 27 28 29 30 31 31 29 30 33 35 35 32 30 31 33 35 35 35 35 36
29 29 29 29 29 28 28 28 28 29 29 28 28 28 27 27 26 26 26 26 25 25 25 25 25 25 25 25 24 24 24 24 24 25 25 26 27 26 24 23 25 26 26 26 27 29 30 30 31 30 30 33 36 37 34 31 31 32 34 35 35 36 37
30 30 30 30 29 29 29 29 29 29 29 29 29 29 28 28 28 27 27 27 27 27 26 26 26 26 26 26 26 26 26 25 25 25 25 26 27 27 25 24 24 25 26 26 26 28 29 29 30 30 31 33 34 35 36 34 32 31 33 35 35 36 37
32 32 32 32 31 31 30 30 30 30 30 30 30 30 30 29 29 28 28 28 28 28 28 28 27 27 28 28 28 27 27 27 26 26 26 26 27 27 27 26 24 25 26 26 26 27 28 29 29 29 30 33 33 34 36 36 33 31 32 34 36 36 37
33 34 35 34 34 33 32 32 31 31 31 31 31 31 31 31 30 29 29 28 29 29 29 29 29 28 28 29 29 29 29 29 29 28 27 27 27 27 28 27 26 25 26 27 27 27 27 28 29 29 29 31 33 34 34 35 35 33 32 33 35 36 36
34 35 36 36 35 35 34 34 33 33 33 33 32 32 32 32 32 31 30 30 29 30 30 30 30 29 29 29 30 31 31 31 31 31 30 29 29 29 28 29 28 27 26 27 27 27 27 28 28 28 29 30 32 33 33 33 33 33 34 33 32 34 36
36 37 38 38 37 36 36 35 35 35 35 35 35 34 34 33 33 32 32 31 31 31 31 31 31 31 30 31 31 32 33 33 34 34 34 33 32 31 31 30 30 30 28 27 27 28 27 27 28 28 28 29 30 32 33 33 33 31 34 35 33 33 36
37 38 38 38 38 38 38 37 37 37 37 37 37 37 36 35 35 34 34 34 33 33 33 33 32 32 32 32 32 33 34 35 36 36 36 36 36 35 33 33 32 32 31 29 28 28 28 27 27 28 28 28 29 31 32 34 34 31 32 35 35 33 34
37 38 39 40 40 40 39 38 38 38 38 39 39 39 39 38 37 36 36 36 35 35 35 35 35 34 34 34 34 34 35 36 37 38 38 39 39 38 37 36 35 34 34 32 30 30 29 28 28 27 28 28 28 30 31 33 34 33 31 33 35 34 33
38 40 41 42 42 41 40 39 39 39 39 39 40 40 40 39 39 38 37 37 37 37 37 37 37 37 36 36 36 36 36 37 38 39 40 40 40 40 39 39 38 37 36 34 33 32 31 31 30 28 28 28 28 29 30 33 34 33 32 32 34 35 34
39 40 41 42 42 42 41 40 40 40 40 41 41 41 40 40 40 40 39 39 38 38 38 38 38 38 38 38 38 38 38 38 39 40 41 41 41 41 41 41 41 40 38 36 35 35 34 33 33 31 29 29 29 28 29 32 34 33 31 32 33 35 35
40 41 42 43 43 42 41 41 41 41 41 42 42 42 42 41 41 41 41 40 40 39 39 39 39 39 39 39 39 40 40 40 41 41 41 42 42 43 42 42 42 42 41 39 38 37 36 35 35 34 32 31 30 29 28 30 32 33 32 31 31 33 35
41 42 43 43 43 43 42 42 42 42 42 43 43 43 43 43 42 42 42 42 42 41 41 41 41 41 41 41 41 41 41 41 42 43 43 43 43 43 44 43 43 43 42 42 41 39 38 38 37 37 35 33 32 31 30 30 31 32 32 32 31 32 34
42 43 44 44 44 43 43 43 42 43 43 44 44 44 44 43 43 43 43 43 43 43 43 43 43 43 44 44 44 44 43 43 43 44 44 44 44 45 45 45 44 44 44 43 43 42 41 40 39 39 38 36 35 34 32 31 31 31 32 32 32 32 33
43 44 45 45 44 44 44 43 43 43 44 44 44 44 44 44 43 44 44 44 44 44 45 45 45 46 46 46 46 46 46 46 45 45 46 46 46 46 46 46 45 45 45 45 44 44 44 43 41 40 40 39 38 37 35 33 32 32 32 31 32 32 33
43 45 45 45 45 45 44 44 44 44 44 44 43 43 43 43 43 44 44 45 45 46 46 47 47 48 48 48 49 49 48 48 48 48 48 48 47 47 47 47 47 46 46 46 46 45 45 45 44 43 42 41 41 39 38 36 34 33 33 31 31 31 33
45 46 46 46 46 45 44 44 45 45 44 43 42 42 42 43 44 44 45 45 46 47 47 48 48 49 49 49 49 50 50 50 50 50 50 50 50 49 49 49 49 48 48 48 47 47 47 47 47 45 44 43 43 42 40 39 36 35 34 33 31 30 32
46 46 46 46 45 45 44 45 44 44 42 42 41 42 43 43 44 44 45 45 46 47 47 48 49 49 50 50 49 50 50 51 51 52 52 52 52 52 51 51 50 51 50 50 49 49 48 48 48 48 47 46 45 44 43 41 39 37 36 35 33 31 32
45 45 45 44 44 44 44 44 43 42 41 41 42 43 44 44 44 45 45 46 47 48 48 49 50 51 52 53 53 53 53 53 53 54 54 54 54 53 53 53 52 52 53 52 52 51 50 49 49 49 49 49 47 46 45 44 42 40 38 37 36 33 32
43 42 42 42 42 42 42 41 40 40 41 42 43 44 45 45 46 47 47 48 48 49 49 50 51 52 53 54 55 55 56 56 56 56 57 57 57 57 56 55 54 54 54 54 54 53 52 51 50 50 50 50 49 48 47 46 44 42 40 39 38 36 34
40 40 40 41 40 40 39 39 40 41 42 43 44 45 46 47 47 47 48 48 48 48 48 49 50 51 52 53 54 55 56 57 57 58 58 59 59 60 59 58 57 57 56 56 56 56 55 53 52 51 50 50 50 49 48 47 46 44 43 41 39 38 36
39 39 39 38 38 38 38 39 41 42 44 44 45 46 46 46 46 46 46 46 46 46 47 48 49 50 51 53 54 55 56 57 58 59 59 60 60 61 61 61 60 60 59 59 58 58 57 56 55 54 52 50 50 49 49 48 47 46 45 44 42 39 37
37 37 36 36 37 38 39 40 42 43 44 44 44 44 44 44 44 44 44 45 45 46 47 48 49 50 51 53 54 56 57 58 59 60 61 62 62 62 62 62 62 62 62 61 61 60 59 58 57 56 54 51 50 50 50 49 48 47 46 45 43 42 39
35 35 35 36 37 38 39 40 41 42 42 42 41 41 41 41 41 42 43 44 45 46 46 47 48 49 50 51 52 54 56 57 59 60 61 61 62 63 64 64 64 63 63 62 62 62 61 60 59 58 57 54 51 50 51 51 49 48 47 46 45 43 41
34 34 35 35 36 38 39 40 40 39 39 39 39 39 39 40 41 42 43 43 44 44 45 46 46 47 48 49 50 51 53 55 56 58 60 60 61 62 63 63 64 64 64 63 63 62 62 62 61 60 59 56 53 51 52 52 50 49 48 48 46 45 43
33 33 34 35 36 37 37 37 36 36 36 36 37 38 39 40 41 42 42 42 43 43 44 45 46 46 47 48 48 49 51 52 54 55 57 59 60 60 61 61 62 63 63 64 63 62 62 62 63 62 60 57 53 52 52 52 51 49 49 49 48 46 44
32 32 33 34 34 34 34 33 34 34 35 36 37 38 40 40 41 41 41 42 43 43 44 45 46 46 47 48 48 49 50 51 52 53 54 55 56 58 59 60 60 61 61 62 62 62 61 61 62 63 62 58 54 52 52 52 51 50 50 50 49 47 45
31 32 32 32 31 31 31 32 33 34 35 36 38 39 39 40 40 40 41 42 43 44 45 45 46 47 48 48 49 50 50 51 52 53 52 52 52 53 54 56 57 58 58 59 60 60 60 59 60 61 61 59 54 51 50 50 50 50 50 50 49 48 46
30 30 29 28 28 29 31 32 33 34 35 36 37 38 38 39 40 41 42 43 44 44 45 45 46 47 48 49 49 50 52 53 54 54 53 50 48 47 48 49 51 52 54 55 55 56 56 56 57 59 59 58 55 52 50 49 49 49 50 50 49 48 46
27 26 26 26 28 29 30 32 33 34 35 36 36 37 38 39 41 42 43 43 44 44 45 45 46 47 48 49 50 52 53 55 57 56 54 50 46 43 42 43 45 46 46 48 49 50 51 51 54 57 57 56 54 51 49 48 48 49 49 49 49 47 46
24 24 25 26 27 29 30 31 32 33 34 35 35 36 38 39 40 41 41 42 42 43 43 44 45 46 47 49 50 52 54 56 58 57 53 49 45 41 39 38 40 41 41 40 42 43 44 45 49 54 55 54 52 51 49 48 47 48 48 48 48 47 46
23 24 25 26 27 28 29 30 31 32 33 33 34 35 36 37 38 39 40 40 41 41 42 43 44 45 47 48 50 52 54 56 57 55 51 48 44 40 36 34 34 35 36 35 34 35 37 38 41 47 52 53 51 49 49 48 47 47 48 48 48 47 46

ECMWFFLT1_500_spd_099.txt.gz
Wind_Speed
19 19 20 20 21 22 22 23 23 23 24 24 24 25 25 24 24 24 23 23 23 23 24 24 25 25 25 25 25 26 26 26 25 26 26 26 26 27 28 28 28 27 26 26 27 27 25 24 26 30 31 31 30 29 29 31 30 28 28 32 35 35 34
19 20 20 21 21 22 23 23 24 24 24 24 24 25 25 25 25 25 25 25 24 24 24 24 25 25 25 25 26 26 26 26 26 26 26 26 26 27 27 27 27 27 26 26 27 28 27 25 24 28 31 32 31 30 30 31 32 31 29 29 32 36 35
20 21 21 22 22 23 23 24 24 25 25 25 25 25 25 26 26 26 26 26 26 26 26 26 26 26 26 26 26 27 27 27 27 27 27 27 27 27 27 26 25 25 25 25 27 28 28 27 24 25 29 32 32 31 32 32 32 33 33 30 30 33 36
22 22 23 23 24 24 25 25 25 26 26 26 26 26 26 27 27 27 27 28 28 28 28 27 27 27 27 27 27 27 28 28 28 28 28 28 28 27 27 26 25 25 24 24 25 27 27 27 25 24 26 30 30 31 33 33 33 33 35 33 30 30 34
23 23 24 24 25 25 26 26 27 27 27 27 27 27 27 27 28 28 29 29 29 30 29 29 28 28 28 28 28 28 28 29 29 29 30 29 29 28 28 27 26 25 25 24 24 26 26 26 25 23 25 28 28 28 32 34 33 33 34 35 33 30 32
24 25 25 25 26 27 27 27 27 27 27 27 28 27 27 27 28 28 29 30 30 31 31 30 30 29 29 29 29 29 29 29 30 30 31 31 30 30 30 29 29 27 26 25 25 25 26 26 25 23 24 26 26 26 29 32 33 33 33 34 35 32 31
25 26 26 26 27 27 28 28 28 28 28 29 29 29 29 28 28 28 29 30 30 31 31 31 31 31 31 30 30 30 30 30 30 31 31 32 32 32 32 31 31 30 29 27 26 26 26 26 25 24 24 25 25 25 26 29 32 32 32 34 35 33 30
26 27 27 28 28 29 29 30 30 30 30 30 30 30 30 30 30 30 30 31 31 31 32 32 32 32 32 32 31 31 31 31 31 31 32 33 33 33 33 33 33 32 32 30 29 28 27 27 27 26 25 24 25 25 25 27 29 31 33 33 33 33 31
28 28 29 29 30 31 31 31 32 32 32 32 32 32 32 32 32 32 32 33 33 33 33 33 33 33 33 33 33 32 32 32 32 32 32 33 34 35 35 36 35 35 35 34 33 32 30 29 28 28 27 26 25 25 25 26 27 29 32 34 32 31 32
29 30 30 31 32 33 33 34 34 34 34 33 33 33 34 34 34 34 34 35 35 35 35 35 35 35 35 34 34 34 33 33 33 33 33 33 34 35 36 37 38 38 38 37 36 35 34 32 31 30 29 29 27 26 25 26 26 28 30 33 33 31 31
31 31 32 32 33 34 35 35 36 36 35 35 35 35 35 35 35 35 36 36 37 37 37 37 37 37 37 36 36 36 35 35 35 35 35 35 35 36 37 38 39 40 40 40 39 39 38 36 34 32 32 31 30 29 27 26 25 26 29 31 32 32 31
32 33 33 34 35 36 37 37 37 37 37 37 37 37 37 36 36 36 37 37 38 39 39 39 39 39 39 38 38 37 37 37 37 36 36 36 36 37 37 38 39 40 41 42 42 42 41 40 37 35 34 33 33 31 30 29 26 25 28 30 30 32 32
33 34 35 35 36 37 38 38 38 38 38 38 38 38 38 37 37 37 38 38 39 40 41 41 41 41 41 40 40 39 39 39 38 38 38 38 38 38 38 39 40 41 42 42 43 44 43 43 41 39 37 35 35 34 32 31 28 25 27 30 30 30 32
34 35 36 37 38 38 38 39 39 39 40 40 39 39 38 39 39 39 39 39 40 40 41 42 43 42 42 42 42 41 40 40 40 40 40 40 40 40 40 40 41 41 42 43 43 45 45 45 44 42 40 38 37 36 35 34 31 26 26 29 30 31 32
34 36 37 38 38 39 40 40 40 41 42 41 40 40 40 40 40 40 40 40 40 41 41 42 43 43 44 44 43 43 42 41 41 41 41 41 41 41 41 42 42 42 42 43 44 45 45 46 46 45 44 42 39 38 38 37 35 31 27 28 30 31 32
34 36 37 38 38 39 41 41 42 43 43 43 42 41 42 42 41 41 41 41 41 41 42 42 42 43 43 44 43 43 43 43 42 42 42 42 42 42 43 43 43 43 43 43 44 44 45 46 47 46 46 45 43 40 40 40 39 35 31 28 29 31 32
34 35 36 37 39 40 41 42 43 44 44 44 43 43 44 44 43 42 42 42 42 42 42 42 42 42 43 43 43 43 43 43 43 43 43 43 43 43 44 44 45 45 45 45 44 45 45 46 47 47 47 46 46 44 42 42 41 39 36 31 30 31 32
35 35 36 37 39 40 42 43 44 45 45 45 45 45 45 44 43 43 43 43 42 42 42 42 42 42 42 43 43 43 43 44 44 44 45 45 45 45 45 46 46 46 46 46 46 45 46 46 47 48 48 47 47 47 45 44 43 42 40 36 32 31 32
35 36 37 38 39 41 43 44 45 45 46 46 46 46 45 44 43 43 43 42 42 42 41 41 42 42 42 43 43 44 44 45 45 46 46 47 47 47 47 47 48 48 48 48 48 47 47 47 47 48 49 48 48 48 47 46 46 45 43 40 36 34 33
35 36 37 38 40 42 43 45 45 46 46 47 46 45 44 44 44 43 43 42 42 42 42 42 42 43 43 44 44 45 45 46 46 47 47 48 49 49 49 49 49 49 50 50 50 49 49 49 48 48 49 49 50 50 49 49 48 47 45 43 40 37 35
35 36 38 39 41 43 44 44 45 46 46 45 45 44 44 44 44 43 42 42 42 42 43 43 44 44 45 45 46 46 47 47 48 48 49 49 50 51 51 51 52 51 52 52 51 52 51 51 50 49 49 50 51 51 51 51 50 49 47 46 44 41 39
35 37 38 40 42 42 43 44 44 44 43 43 43 43 44 44 43 42 42 42 43 44 44 45 45 45 45 45 46 46 46 47 47 48 49 49 50 51 52 53 53 54 54 54 54 54 54 54 53 52 51 51 52 52 52 52 52 51 49 48 46 44 42
36 38 39 41 41 42 42 42 41 41 41 41 42 43 42 42 41 42 42 43 44 44 44 45 45 45 45 44 44 44 45 45 46 46 47 48 49 50 51 52 53 54 55 55 56 56 56 56 56 56 55 54 53 53 53 54 54 53 52 50 48 47 45
37 38 39 39 39 39 39 38 39 39 40 41 41 41 40 40 41 41 42 42 43 43 43 43 43 43 44 44 44 44 45 45 46 46 47 48 49 49 50 51 53 54 55 56 57 57 57 58 59 59 58 57 56 55 55 54 55 55 55 52 50 49 47
36 36 36 36 36 36 36 37 38 39 39 39 39 39 39 40 41 41 41 41 41 41 41 42 42 43 43 44 45 45 46 47 48 48 49 50 50 51 51 52 53 54 55 57 58 58 59 59 60 60 61 61 60 59 58 56 55 56 56 55 53 50 49
32 32 32 32 33 34 35 36 37 37 37 37 37 38 39 39 40 39 39 39 39 39 40 41 42 43 43 44 45 46 47 48 49 50 51 51 52 53 53 54 54 55 56 57 58 59 60 61 61 61 62 62 63 63 62 60 58 56 56 57 56 53 51
29 29 30 30 31 33 34 34 35 35 36 36 37 38 38 38 38 37 37 37 38 38 39 40 41 42 42 43 44 46 47 48 49 50 51 52 53 54 55 55 56 56 56 57 58 59 60 61 62 62 62 63 64 65 65 64 62 59 57 57 57 55 54
27 27 28 29 30 31 32 33 33 34 35 36 36 36 36 35 35 35 36 36 37 38 38 39 39 40 42 43 44 45 46 47 48 50 51 52 54 55 56 57 57 58 58 58 58 59 60 61 62 63 63 63 64 65 66 66 65 63 59 57 57 56 54
25 26 27 28 29 30 31 32 32 33 34 34 34 33 33 34 34 34 35 36 36 37 37 38 39 40 41 42 43 44 45 46 47 48 50 52 53 55 56 56 57 58 59 60 60 60 60 60 61 62 63 63 64 66 67 68 67 66 63 60 58 56 54
25 26 27 28 29 30 31 31 32 32 32 32 32 32 32 32 33 34 34 35 35 36 37 38 39 39 40 41 42 42 43 44 46 47 49 51 52 53 55 56 57 58 59 61 61 61 60 59 59 61 62 62 64 65 66 68 68 67 65 63 59 57 55
26 26 27 28 29 30 30 30 30 30 30 30 30 30 31 31 32 33 34 34 35 36 37 38 38 39 39 40 41 42 43 44 45 47 48 49 50 52 54 55 57 58 59 60 60 60 59 58 57 58 60 60 62 63 64 67 68 68 67 65 61 58 56
26 27 27 28 29 29 29 29 28 28 28 29 29 30 30 31 32 33 33 34 35 36 37 37 38 39 40 41 41 42 43 44 46 47 48 49 50 51 53 55 57 58 58 58 57 56 56 55 54 55 56 57 58 60 61 64 66 66 66 65 63 59 56
26 27 27 28 28 27 27 26 27 27 28 28 28 29 30 30 31 32 34 35 36 36 37 38 39 40 40 41 42 43 43 45 46 48 48 49 50 52 54 57 59 59 57 54 52 51 50 49 48 48 49 50 51 54 56 59 62 65 66 64 62 60 57
26 27 27 27 26 25 25 25 26 26 27 27 28 29 29 30 31 32 34 35 36 37 38 39 40 41 41 42 42 43 44 45 47 48 49 50 51 53 55 58 59 58 54 49 46 44 43 41 41 40 40 40 41 44 45 44 45 52 61 64 62 59 57
26 26 26 25 24 24 24 25 25 26 27 27 28 29 30 31 32 33 34 35 37 38 39 40 41 41 42 42 43 43 44 46 48 48 49 50 51 54 57 59 59 56 50 44 40 38 36 34 33 32 31 31 32 35 37 36 32 33 45 58 62 58 55
25 24 23 23 23 24 24 25 25 25 26 27 28 29 30 31 32 33 35 36 38 39 40 40 40 41 41 42 43 44 45 46 48 48 49 50 52 55 58 60 58 53 47 40 35 32 30 28 27 26 23 20 20 22 27 32 34 33 36 47 57 58 54
23 22 22 22 23 24 24 24 24 25 26 26 27 28 29 31 32 33 35 37 38 39 39 40 40 40 41 42 43 43 44 46 47 48 49 51 52 55 58 58 56 50 43 37 32 29 26 23 22 20 14 9 9 10 12 18 26 30 32 37 47 54 53

ECMWFFLT1_500_spd_102.txt.gz
Wind_Speed
18 18 17 17 17 17 18 18 19 19 20 20 21 22 23 23 24 25 26 27 27 28 28 28 29 29 29 29 29 29 29 29 29 29 29 29 29 29 29 29 29 29 29 28 28 26 25 24 26 28 29 28 29 29 28 28 28 27 29 31 32 32 32
18 17 17 17 17 18 18 19 20 20 20 21 22 22 23 24 24 25 26 27 27 28 28 29 29 30 30 31 31 31 31 30 30 30 30 29 29 30 30 30 31 30 30 29 29 27 26 25 24 26 29 28 28 28 29 28 28 27 27 30 32 32 32
18 17 17 17 18 19 20 20 21 21 22 22 22 23 24 24 25 25 26 26 27 28 28 29 30 30 31 31 32 32 32 32 32 31 31 30 30 30 31 31 32 32 31 31 30 29 28 27 25 25 28 28 27 28 29 28 28 28 27 28 30 33 33
18 18 18 19 20 21 21 22 22 23 23 23 23 23 24 24 25 25 26 26 27 28 29 29 30 30 31 32 32 33 33 33 33 32 32 32 31 31 32 32 33 33 32 32 32 31 30 29 27 26 27 28 27 28 29 28 28 29 28 28 29 31 33
19 19 20 20 21 22 23 24 24 24 25 24 24 24 24 25 25 26 27 27 28 28 29 30 30 31 31 32 32 33 34 34 34 34 33 33 33 33 33 33 33 34 34 34 33 33 33 31 30 28 29 29 27 28 29 28 28 29 29 29 29 30 32
20 20 21 22 22 23 24 25 25 25 25 25 25 25 25 26 26 27 27 28 29 29 30 30 31 32 32 32 33 33 34 35 35 35 35 34 34 34 34 34 34 34 35 35 35 35 35 34 33 32 31 31 29 29 29 29 28 28 29 30 30 30 31
21 21 22 23 24 25 25 26 26 26 26 26 26 27 27 27 27 27 28 29 29 30 31 31 32 33 33 34 34 34 34 35 36 36 36 36 36 36 35 35 35 35 36 36 36 37 37 36 36 35 34 33 32 31 31 30 29 29 29 30 30 30 30
21 22 23 24 25 26 27 27 27 27 28 29 29 29 29 29 29 29 29 30 30 31 31 32 33 33 34 35 35 35 35 35 36 36 37 38 38 38 37 37 37 36 36 36 37 37 37 37 38 37 37 36 35 34 33 32 31 31 30 30 30 30 30
23 23 24 26 27 27 28 29 29 30 30 31 32 32 32 31 31 31 32 32 32 32 32 33 33 34 34 35 36 36 37 37 37 37 38 38 39 39 39 39 38 38 38 37 38 38 38 38 38 38 39 39 38 36 35 34 33 33 33 32 31 31 31
25 26 27 28 28 29 30 31 31 32 33 33 34 34 34 34 33 33 34 34 35 35 34 34 34 35 35 36 36 37 38 38 38 38 38 39 39 40 40 40 40 40 40 39 39 39 39 39 39 39 39 40 40 39 38 37 35 34 35 34 33 33 33
28 28 29 30 30 31 32 32 33 34 34 35 35 35 35 35 35 35 35 36 36 36 36 36 36 36 37 37 37 38 38 39 40 40 40 40 40 41 41 42 42 41 41 41 41 40 40 41 41 41 41 41 41 41 41 39 36 35 36 36 35 35 34
28 29 31 32 32 32 33 33 34 35 35 36 36 36 36 36 36 36 37 37 38 38 38 38 38 38 38 38 38 39 39 40 40 41 41 41 41 42 43 43 43 43 43 43 42 42 42 42 42 42 42 42 42 43 42 41 38 36 37 38 36 36 37
28 30 30 31 33 33 34 34 35 35 36 37 37 37 37 37 38 38 38 39 40 40 40 40 40 39 39 39 39 39 40 40 40 41 41 41 41 42 43 44 44 44 44 44 44 44 44 44 43 44 44 44 44 44 43 43 41 38 38 40 38 37 38
27 28 29 29 31 32 33 34 35 36 37 37 38 38 38 38 39 40 40 40 41 42 42 41 40 40 39 39 39 39 39 40 40 40 41 41 41 42 42 43 44 45 45 46 46 46 46 45 45 45 45 45 45 46 45 45 43 40 39 41 40 39 40
28 28 28 29 30 31 33 34 35 36 37 37 38 38 39 40 41 41 41 42 43 43 42 41 40 40 39 39 39 39 39 39 39 40 41 41 42 42 42 43 44 45 46 46 47 47 47 47 47 47 47 48 47 47 47 47 46 43 40 41 42 41 41
30 31 31 31 32 32 33 34 35 36 37 37 38 39 40 41 42 42 43 43 44 44 42 41 41 40 40 39 39 39 39 39 40 40 41 41 42 43 43 44 44 45 46 47 47 48 49 49 49 49 49 49 49 49 49 49 48 46 42 41 42 43 43
32 32 33 33 33 33 34 35 35 36 37 37 39 40 42 43 43 43 44 44 44 43 42 41 41 41 41 40 40 40 41 41 41 42 42 42 43 43 44 44 45 46 46 47 48 49 50 50 51 51 51 51 51 51 51 51 50 49 46 43 42 43 44
32 32 32 33 33 34 34 35 35 36 37 38 40 42 43 43 44 44 44 44 43 42 41 41 41 41 41 41 42 42 43 43 43 44 44 44 44 45 45 46 46 47 47 48 49 49 50 51 52 52 52 52 53 52 52 52 52 52 50 47 44 44 45
33 33 32 32 33 34 34 35 35 36 38 40 41 42 43 44 44 44 43 42 41 41 41 42 42 42 42 43 43 44 45 45 45 45 45 45 45 45 46 46 47 47 48 49 49 50 51 52 52 53 54 54 54 54 54 53 53 53 53 51 48 45 45
33 33 33 33 33 33 34 35 36 37 39 40 41 42 43 43 43 42 41 41 41 41 41 42 42 43 43 44 45 45 45 45 45 45 45 45 45 46 46 47 47 48 48 49 49 50 51 52 53 54 55 55 55 56 56 55 55 55 55 54 51 49 47
32 32 33 33 33 33 34 35 37 38 39 40 42 42 42 42 41 40 40 40 41 41 41 42 43 44 44 45 45 45 45 44 44 45 45 45 45 46 46 47 48 48 49 49 50 51 52 52 53 54 55 56 57 57 57 57 57 57 56 56 54 52 50
33 33 34 34 34 34 35 36 37 38 40 40 41 40 40 39 39 39 40 40 40 41 42 42 43 43 43 44 44 44 44 43 43 43 44 44 44 45 46 47 48 49 49 50 51 52 53 54 55 55 56 57 57 58 58 59 59 59 59 58 57 55 53
34 35 35 35 35 35 36 37 38 38 39 38 38 38 38 38 38 39 39 40 41 41 42 43 43 43 43 43 43 43 43 43 43 43 43 43 44 45 46 47 48 49 50 51 52 53 54 55 56 57 58 59 59 59 60 60 60 60 61 60 59 58 56
36 36 35 35 36 36 37 37 37 36 35 35 36 36 37 37 37 38 39 40 41 41 42 42 42 42 42 42 42 42 42 42 43 43 44 44 45 45 46 47 48 50 51 52 53 53 54 55 57 59 60 61 62 62 62 62 62 62 62 62 61 60 59
34 34 35 36 36 35 34 33 32 32 33 34 35 35 36 36 37 38 39 39 40 40 41 41 41 41 41 41 42 42 42 43 43 44 45 45 45 46 46 47 48 50 51 52 53 54 54 55 57 59 60 62 63 64 65 65 64 64 64 64 63 62 61
26 27 30 31 30 29 29 29 30 31 32 33 34 34 35 35 36 37 38 39 39 39 40 40 40 40 40 41 41 42 42 43 43 44 44 45 45 46 46 47 49 50 51 52 53 54 55 55 56 57 59 61 63 64 66 66 67 67 66 66 65 64 63
22 23 24 25 26 26 27 28 29 30 31 32 33 33 34 35 36 36 37 37 38 38 38 39 39 39 40 40 41 42 42 42 43 43 44 44 45 46 47 48 49 50 51 53 54 54 55 56 57 57 58 59 61 63 65 67 68 68 68 68 67 66 65
21 22 22 23 24 25 26 28 29 30 30 31 32 33 34 34 35 35 36 36 36 37 37 37 38 38 39 40 40 41 41 42 42 43 43 44 46 47 48 49 49 50 52 53 54 56 56 57 58 59 59 59 60 61 63 65 67 68 69 69 69 68 66
20 20 21 23 24 25 26 27 28 29 30 31 32 33 33 33 33 34 34 35 35 35 35 36 37 38 38 39 39 40 40 41 42 42 43 44 45 46 48 49 50 51 53 54 55 56 57 58 59 60 61 61 61 61 62 64 65 67 68 69 69 69 67
19 20 21 22 24 24 25 26 27 28 30 31 32 32 32 32 32 33 33 33 34 34 35 35 36 37 37 38 39 39 40 40 41 42 43 43 44 45 47 49 51 52 54 55 56 56 57 58 59 60 61 62 62 62 62 63 64 64 66 67 67 68 68
20 21 22 22 23 24 24 26 27 29 29 30 30 30 31 31 31 32 32 32 33 33 34 35 35 36 37 37 38 39 39 40 40 41 41 42 43 45 47 49 51 52 54 55 56 57 58 58 59 60 60 60 59 58 57 58 59 60 62 64 65 65 66
20 21 22 22 23 23 25 26 27 28 29 29 29 30 30 30 31 31 31 32 33 33 34 34 35 35 36 37 38 39 39 39 39 40 40 41 42 44 46 49 50 52 53 54 55 57 59 59 59 57 55 53 51 48 47 47 49 50 53 57 61 63 63
20 21 21 22 23 24 25 27 27 28 28 28 29 29 30 30 30 31 31 32 33 33 34 34 35 35 36 37 38 38 38 39 39 40 40 41 42 44 47 48 49 51 52 53 55 57 58 57 54 50 47 44 40 38 36 36 36 38 39 42 49 56 59
21 21 22 23 24 25 26 27 27 27 27 28 29 29 29 30 30 30 31 32 33 33 34 34 35 36 37 38 38 38 38 38 39 40 40 42 43 45 47 48 49 50 51 53 56 57 56 52 46 42 39 36 33 30 27 25 26 26 24 25 32 41 46
21 22 23 24 25 26 26 26 26 27 27 28 28 28 29 29 30 30 31 32 32 33 34 35 36 37 37 37 37 38 38 39 39 40 41 42 44 46 47 48 49 50 52 54 57 56 52 44 38 34 34 32 28 22 17 16 18 18 17 20 22 24 27
22 23 24 25 26 26 26 26 26 27 27 28 28 28 28 29 30 30 31 31 32 33 34 35 36 37 37 37 37 37 38 39 39 39 40 42 44 46 47 48 49 50 52 56 58 55 47 38 31 28 28 28 23 17 13 14 16 15 15 20 22 17 16
24 25 25 25 25 25 25 25 26 26 27 27 27 28 28 29 29 30 31 31 32 33 35 36 37 37 37 36 36 37 38 38 38 39 40 42 44 46 47 47 49 51 53 57 59 54 44 33 26 22 23 26 23 18 17 17 15 12 11 17 22 16 11

ECMWFFLT1_500_spd_105.txt.gz
Wind_Speed
20 20 20 19 19 19 19 19 19 20 20 21 21 21 22 22 23 24 24 25 26 26 26 26 27 27 28 29 30 31 31 32 32 33 33 33 33 34 33 33 33 33 32 32 32 31 29 29 31 32 31 31 31 31 30 29 28 28 28 28 27 28 28
21 21 21 20 20 20 19 19 18 19 20 20 21 22 22 23 24 25 25 26 27 27 28 28 28 29 29 29 30 31 31 32 32 32 33 33 33 34 34 34 34 34 34 34 33 33 32 31 31 32 33 32 32 33 32 30 29 29 29 28 27 28 29
22 22 22 21 21 20 19 19 19 19 20 21 22 22 23 24 24 25 26 27 27 28 28 29 29 30 30 30 31 32 33 33 33 34 34 34 34 34 34 34 34 35 35 35 35 34 34 33 32 33 34 33 33 34 34 32 30 30 30 30 28 27 29
22 21 21 21 21 20 20 21 20 20 21 21 22 23 24 24 24 25 25 26 26 27 28 29 29 30 31 31 32 32 33 34 35 35 36 35 35 35 35 35 35 35 35 35 35 35 35 35 34 34 35 35 34 34 35 34 32 31 30 30 30 29 28
21 21 21 21 21 21 22 22 22 22 22 22 23 23 24 24 24 24 25 25 26 26 27 28 29 30 30 31 32 32 33 34 35 36 37 37 37 37 37 37 36 36 37 37 36 36 36 36 35 34 35 36 35 35 36 36 35 33 32 31 31 31 29
21 21 21 22 22 23 23 23 23 23 23 24 24 24 24 24 25 25 25 25 26 26 27 27 28 29 30 31 32 32 33 34 35 36 37 38 38 39 38 38 39 38 38 38 38 38 38 38 37 36 36 36 36 36 36 37 36 36 35 33 32 32 31
21 21 22 23 23 24 24 25 25 26 26 26 26 26 26 26 27 27 27 27 27 27 28 28 29 30 31 31 32 33 34 34 36 36 37 38 39 40 40 40 40 40 40 40 40 40 40 40 39 39 38 37 37 37 36 37 37 37 37 36 35 34 33
22 22 23 23 24 24 25 26 27 28 28 28 29 29 29 29 29 30 30 30 29 29 29 30 31 31 32 33 33 34 35 35 36 37 38 39 39 40 41 41 41 41 42 42 42 42 43 42 42 41 41 40 39 38 37 37 37 37 38 38 37 36 36
23 24 24 24 25 25 26 28 29 30 31 31 31 31 32 31 32 32 32 32 32 32 32 32 33 33 34 35 36 37 37 38 38 39 39 39 40 40 41 41 42 42 42 42 42 43 44 44 44 44 43 43 41 40 39 38 37 38 39 39 38 37 38
24 24 24 25 26 26 27 28 30 31 32 33 33 33 33 33 34 34 34 34 34 34 34 35 35 35 36 37 38 39 40 41 41 41 41 41 41 41 42 42 43 43 43 42 43 43 44 44 45 46 45 45 45 43 41 39 37 37 39 41 40 39 39
24 24 25 26 26 27 28 28 30 31 32 33 33 34 34 34 34 35 35 35 36 36 36 36 36 37 38 39 40 41 41 42 42 42 41 41 42 42 42 43 43 43 43 43 43 44 44 44 45 46 46 47 47 46 45 43 40 38 39 41 41 41 40
24 25 25 26 27 27 28 29 29 30 31 31 32 33 33 34 35 36 37 37 38 38 38 38 38 39 40 41 42 42 42 42 42 41 41 42 42 42 42 42 42 42 43 43 44 44 44 45 45 46 46 47 48 48 48 47 44 41 41 41 41 42 42
24 24 25 26 26 27 28 29 30 30 31 31 31 32 33 35 36 37 38 38 39 39 39 39 40 41 42 43 43 43 43 42 42 42 42 41 41 41 41 42 42 42 42 43 44 44 45 45 46 46 47 47 48 49 49 50 49 45 43 44 43 43 44
23 24 25 26 27 28 29 30 31 32 33 33 34 34 35 36 37 38 39 39 39 40 40 41 42 43 43 44 44 43 43 42 41 41 41 41 41 41 41 41 42 42 43 43 44 45 46 46 47 47 48 48 49 50 50 51 51 49 45 45 46 45 45
24 25 26 28 29 30 31 33 34 35 36 36 37 37 37 38 39 39 40 40 40 40 41 42 43 44 44 44 43 43 42 42 42 41 41 41 41 41 42 42 43 43 44 45 45 46 47 47 48 48 49 49 50 50 51 52 52 51 49 47 48 48 47
27 28 29 30 32 33 34 35 36 36 37 37 37 37 38 38 39 40 40 40 41 41 42 44 45 44 44 43 43 42 42 42 42 42 42 42 43 43 44 44 45 45 46 46 47 47 48 48 49 49 50 51 51 51 52 53 53 53 52 49 49 50 50
29 31 32 33 34 35 36 36 36 37 37 36 36 37 38 38 39 40 40 41 42 42 44 45 45 44 43 42 42 42 42 42 42 43 44 44 45 45 45 46 46 46 46 47 47 48 49 49 50 50 51 51 52 52 53 54 54 55 54 52 50 51 52
31 33 34 34 35 36 36 37 37 36 36 35 36 36 37 38 39 40 41 41 42 44 45 45 44 43 42 43 43 42 43 43 44 45 45 46 46 46 46 46 46 46 46 47 47 48 49 49 50 51 51 51 52 53 53 54 55 55 56 55 53 53 53
33 34 35 36 36 37 37 37 36 35 35 35 36 36 37 38 39 40 41 42 44 44 44 43 42 42 42 43 43 43 44 45 45 46 46 46 46 46 46 46 47 47 47 48 48 49 49 50 51 51 52 53 53 54 54 54 55 56 56 57 56 55 55
34 35 36 36 37 38 38 37 36 35 35 35 35 36 38 39 39 40 41 43 43 43 42 42 42 42 42 43 44 44 45 45 46 46 46 46 46 46 46 47 47 47 48 49 49 50 50 51 51 52 53 54 54 55 56 56 56 57 57 57 57 57 56
34 35 37 37 38 38 38 37 36 36 36 36 36 37 38 39 40 41 41 42 41 41 41 41 42 42 43 44 44 45 45 45 45 45 45 46 46 46 46 47 47 48 48 49 50 51 52 52 53 53 54 54 55 56 57 57 58 58 59 59 59 59 58
35 36 37 37 37 37 37 37 37 37 37 36 36 37 38 39 40 40 39 39 39 39 40 41 42 43 44 44 44 45 45 45 45 44 45 45 45 46 46 47 47 48 48 49 50 51 52 53 54 55 56 56 56 56 57 58 58 59 60 60 61 61 60
36 36 35 35 34 35 36 37 38 38 38 38 37 38 38 38 37 36 36 37 38 39 40 41 42 43 43 44 44 44 44 44 44 44 44 45 45 46 47 47 48 48 49 49 50 51 52 53 55 56 58 59 59 59 59 59 59 60 61 61 62 62 62
35 34 33 32 32 33 33 33 34 37 38 38 37 35 35 34 33 34 35 36 38 39 40 41 42 42 43 43 43 43 43 43 43 44 44 45 45 46 47 48 48 49 49 49 50 51 52 53 54 55 57 59 61 62 63 62 62 61 61 62 62 63 63
33 32 31 31 32 32 30 29 30 33 33 32 31 31 31 32 33 34 35 36 38 39 40 41 41 41 42 42 42 42 42 43 43 44 44 45 46 46 47 47 48 49 49 50 50 51 52 53 54 55 56 58 60 61 63 65 65 65 64 63 63 63 64
33 32 31 30 29 28 28 27 28 28 28 28 29 30 31 32 33 34 35 36 37 38 39 40 40 41 41 41 41 42 42 43 43 44 45 45 46 46 46 47 47 48 49 50 51 52 53 54 55 56 57 59 60 61 63 64 66 67 67 67 66 65 64
32 30 30 29 27 26 26 26 26 26 27 28 29 30 31 32 33 34 35 36 37 38 39 39 39 40 40 40 41 42 42 43 44 44 45 45 45 46 46 46 47 48 49 50 51 52 53 54 56 57 59 60 62 63 64 65 65 66 68 69 69 68 67
30 29 28 27 25 25 25 25 25 26 26 27 29 30 31 32 33 34 35 36 37 38 38 38 39 39 40 40 41 42 43 43 44 44 44 45 45 45 46 47 47 48 49 50 51 52 53 55 57 58 60 62 63 63 65 66 66 66 66 67 68 69 69
27 27 26 25 24 23 23 24 25 25 26 27 29 30 31 32 33 34 35 36 36 37 37 37 38 39 39 40 41 42 43 43 44 44 44 45 45 45 46 46 47 48 49 50 51 52 54 56 57 59 60 61 62 63 64 65 66 66 66 66 67 68 68
25 25 24 23 23 23 23 24 24 25 26 27 28 30 31 32 33 33 34 35 35 36 36 37 38 38 39 40 41 42 42 43 43 43 43 44 44 44 44 45 46 46 48 49 51 52 54 55 55 57 58 59 60 61 62 62 63 62 62 62 63 64 66
23 23 23 23 23 23 23 24 24 25 26 27 29 30 31 31 32 33 33 34 34 35 36 37 38 38 39 40 41 41 42 42 42 42 42 42 42 42 42 43 44 45 47 49 51 52 52 52 53 55 57 58 59 57 55 54 52 51 50 51 52 54 57
23 22 22 22 22 23 23 24 25 25 26 28 29 30 30 31 31 32 33 33 34 35 36 36 37 38 39 39 40 41 41 41 41 40 40 40 40 41 41 42 43 45 47 48 49 50 50 51 53 55 57 58 54 49 45 44 42 41 40 38 39 42 46
22 22 22 22 22 23 24 24 25 26 27 28 29 29 30 31 31 32 32 33 34 35 35 36 37 38 38 39 39 39 40 39 39 39 38 38 39 40 41 42 43 45 46 47 48 48 50 52 55 57 57 54 46 39 36 38 38 34 29 27 30 33 36
22 22 22 23 23 23 24 24 25 26 27 28 29 30 30 31 31 32 33 33 34 35 35 36 37 37 38 38 38 38 38 38 37 37 37 38 39 39 40 42 43 44 45 46 47 49 51 54 57 58 54 46 38 33 33 35 33 25 21 24 28 29 30
22 22 23 23 23 24 24 25 26 27 29 29 30 30 30 31 31 32 32 33 34 35 36 36 37 37 37 37 37 37 37 36 36 36 37 38 39 40 41 42 43 44 44 45 47 50 52 55 58 56 48 37 31 29 31 33 28 22 23 26 26 25 25
22 23 23 23 23 24 25 26 27 28 29 29 29 30 30 31 31 31 32 33 34 35 35 36 36 36 36 37 37 37 36 35 35 36 37 38 39 40 41 42 42 43 44 45 47 49 52 55 58 55 44 32 26 27 30 32 28 25 26 27 25 23 22
23 23 23 23 24 25 26 27 28 29 29 29 29 30 30 30 31 32 32 33 34 34 34 35 35 35 36 36 36 35 34 34 35 36 37 38 39 40 40 41 41 42 43 45 47 49 52 55 58 53 42 30 24 25 29 32 29 25 26 25 22 19 17

ECMWFFLT1_500_spd_111.txt.gz
Wind_Speed
9 8 10 10 8 6 6 5 5 6 7 8 9 11 12 14 15 17 18 20 21 22 23 24 24 25 25 26 27 27 28 29 29 30 31 32 32 33 34 34 35 35 35 35 34 33 32 30 31 33 35 36 36 35 34 34 33 33 32 32 32 31 30
12 12 12 9 8 8 7 6 7 8 8 9 11 13 14 15 16 17 19 20 21 22 23 24 24 25 26 27 28 29 29 30 30 30 31 31 32 33 33 34 35 36 36 37 37 37 37 35 33 33 34 35 36 36 36 36 35 34 34 34 34 33 32
13 12 10 9 9 9 8 8 9 9 10 11 13 15 16 17 18 19 20 21 22 23 24 25 25 26 28 29 30 30 31 31 32 32 33 33 34 34 35 35 36 36 37 37 38 39 40 40 38 36 35 35 35 35 36 37 37 36 36 36 36 36 34
11 9 8 9 10 9 9 9 10 11 12 13 15 17 18 19 20 21 22 23 24 25 26 27 27 28 29 30 31 32 33 33 34 34 35 36 36 37 37 38 38 38 38 38 39 40 41 41 41 40 38 37 36 35 35 36 36 37 37 38 37 37 36
10 9 9 10 10 10 10 11 12 13 14 16 17 19 20 21 22 23 24 25 26 27 28 29 30 30 31 32 32 33 34 34 35 36 37 38 39 39 40 40 41 41 42 42 43 43 44 44 44 42 40 38 37 36 36 35 35 36 37 38 38 38 37
10 10 10 10 10 10 11 13 14 15 17 18 19 20 21 22 23 25 26 27 28 29 30 31 31 32 32 32 33 34 34 35 36 37 38 39 40 41 42 43 43 43 44 46 46 46 46 46 45 44 42 40 38 37 36 36 35 35 36 37 38 40 38
11 11 11 11 12 12 13 14 16 17 18 19 20 21 22 24 25 26 27 29 30 31 31 31 32 33 33 34 35 36 36 37 38 39 40 41 42 43 44 44 44 45 46 47 47 47 46 45 45 44 42 41 40 38 37 37 36 35 35 36 37 39 39
11 12 12 13 13 14 14 16 17 18 19 20 21 22 24 25 27 28 29 30 31 31 32 33 33 34 35 37 38 39 40 41 41 42 43 44 45 45 45 45 45 46 46 46 46 45 45 45 44 44 43 41 40 39 38 38 38 38 37 37 38 39 40
12 13 13 14 15 16 16 17 18 19 20 21 22 24 26 27 28 29 30 30 31 32 33 34 36 37 38 39 41 42 43 44 44 45 45 46 46 46 46 45 45 46 46 45 45 45 45 45 44 44 44 43 42 40 39 38 39 40 39 39 39 40 41
14 14 15 15 16 17 18 19 19 20 21 23 24 25 27 28 29 29 30 31 32 34 35 37 38 39 41 42 43 44 44 45 45 46 46 46 46 46 45 45 45 45 45 44 44 44 44 44 45 45 45 45 45 43 42 40 39 40 40 40 40 40 41
15 16 16 17 18 18 19 20 21 22 23 24 25 26 27 28 29 30 32 33 35 36 38 39 40 41 43 44 45 45 45 45 46 46 46 46 46 45 45 45 45 44 44 44 44 44 44 44 45 45 46 46 46 46 45 43 42 42 41 41 41 41 41
17 17 18 18 19 20 21 22 22 23 24 24 26 27 28 29 31 32 34 36 37 39 40 41 43 44 45 45 46 46 46 45 46 45 45 45 45 45 44 44 44 44 44 44 44 44 45 45 45 46 46 47 47 47 47 46 45 44 43 42 42 42 42
18 19 19 19 20 20 21 22 23 24 24 26 27 29 30 32 33 35 36 38 39 41 42 43 44 45 46 46 46 46 46 46 46 46 46 45 45 44 44 44 44 44 45 45 45 46 46 46 47 47 47 48 48 48 48 48 47 45 45 45 44 43 43
19 19 19 20 20 21 22 23 24 25 26 28 29 31 32 34 35 37 38 40 41 42 44 45 45 46 46 46 45 45 46 46 46 46 45 45 44 44 44 44 45 46 46 46 46 47 47 47 48 48 48 48 48 48 48 48 48 46 45 46 46 45 45
20 20 21 22 23 24 25 25 26 27 28 29 31 32 34 35 37 38 40 41 42 43 44 45 45 45 45 45 45 45 45 46 46 45 44 44 44 45 45 46 46 47 47 47 48 48 48 48 48 48 48 48 48 48 48 48 48 48 46 46 47 47 47
22 23 23 24 25 25 26 26 27 28 29 31 32 34 36 37 39 40 41 42 43 44 44 44 44 44 44 44 44 45 45 45 45 44 44 44 45 46 46 47 47 47 48 48 48 48 48 48 48 48 48 48 48 49 49 50 50 50 49 48 48 48 48
24 25 25 25 26 26 27 27 28 29 31 33 34 36 37 39 40 40 41 42 43 43 43 43 43 43 43 43 43 43 43 44 43 43 44 44 45 46 47 47 48 48 48 48 48 48 48 48 48 48 48 49 49 49 50 51 51 52 52 51 51 51 51
25 25 25 25 27 28 28 28 29 30 32 34 35 37 38 39 39 40 41 42 42 42 43 43 42 42 41 41 41 42 41 42 42 42 43 44 45 46 47 47 48 48 48 48 48 48 48 48 48 48 49 49 49 50 50 51 51 52 53 53 52 52 53
25 25 26 27 28 29 29 30 30 31 33 34 36 37 37 38 39 40 41 41 41 42 42 41 40 40 40 40 41 40 40 41 41 42 43 44 45 46 47 47 47 47 47 47 47 47 47 48 48 48 49 49 49 50 50 51 51 52 52 52 53 53 53
26 26 27 28 29 30 30 31 31 32 33 35 36 36 37 38 39 40 40 40 40 41 40 39 39 39 40 40 40 40 40 41 41 42 43 44 45 45 46 46 46 46 47 47 47 48 48 49 49 49 50 50 50 50 51 51 51 52 52 52 52 52 53
27 27 28 29 30 30 31 31 32 33 34 35 36 37 38 39 40 40 39 39 39 39 38 37 38 39 39 39 39 40 40 41 41 42 43 44 44 44 44 45 45 46 47 48 48 49 49 49 50 50 50 50 50 51 51 52 52 53 53 53 54 54 54
28 28 29 30 31 31 32 32 33 33 34 35 36 37 38 39 39 38 38 37 37 37 37 37 37 38 38 38 39 39 40 41 42 42 43 43 43 43 43 44 45 46 47 48 49 50 50 50 50 50 50 50 50 51 52 52 53 54 54 55 56 56 56
29 29 30 31 32 32 32 33 33 34 35 36 36 37 38 38 37 37 36 36 36 36 37 37 37 37 38 38 39 40 41 41 42 42 42 42 42 43 43 44 45 46 47 48 49 50 50 50 50 50 51 51 51 52 52 53 54 55 56 56 57 57 57
30 30 31 32 32 33 33 33 34 34 35 36 36 37 37 36 35 34 34 34 35 35 36 36 36 37 37 38 39 40 40 40 40 41 41 41 42 42 43 44 45 46 47 47 48 48 49 49 49 50 51 51 53 53 54 54 55 55 56 56 56 56 56
31 32 33 33 33 33 33 33 34 34 35 35 36 35 34 33 32 32 32 33 34 34 35 35 36 37 38 39 39 39 39 39 39 39 40 41 42 43 44 45 46 46 46 47 47 46 46 47 48 49 50 51 52 54 54 55 55 55 54 54 54 55 56
32 33 34 34 33 33 33 33 33 34 34 34 33 32 31 30 30 31 32 32 33 33 34 35 36 37 38 38 38 38 38 38 38 39 40 41 42 43 44 45 46 46 45 45 45 45 45 46 47 48 49 51 51 52 53 53 53 54 54 54 55 56 58
34 34 34 33 33 32 32 33 33 33 33 32 31 30 29 29 30 31 31 31 31 33 34 35 36 36 37 37 37 37 37 38 38 39 41 42 43 44 45 45 45 44 44 43 43 43 44 45 47 48 49 50 50 50 51 51 52 53 54 55 56 56 55
35 34 33 32 31 31 32 32 32 32 31 30 29 28 29 29 30 30 30 30 31 33 34 35 35 36 36 36 36 36 37 37 38 40 41 42 44 44 44 44 43 43 42 42 42 43 44 45 47 48 49 49 49 50 50 51 52 53 54 55 53 50 48
34 33 32 31 31 31 32 32 31 30 29 29 28 28 29 29 28 29 29 30 32 33 34 34 35 35 35 36 36 36 37 38 39 40 42 42 43 43 42 42 41 40 40 41 41 43 44 45 46 47 47 48 48 49 50 50 52 53 52 49 45 43 44
33 32 31 30 30 31 31 31 30 30 29 28 28 28 28 27 28 28 30 31 32 33 34 34 34 35 35 35 36 36 37 38 40 41 42 42 41 41 40 39 39 38 39 40 41 43 44 45 45 46 46 47 48 48 49 50 52 50 45 40 38 40 42
31 30 30 30 31 31 31 30 30 29 29 28 28 27 27 27 27 29 30 31 32 33 33 34 34 34 35 35 36 37 38 39 40 41 41 40 39 39 38 37 37 37 38 40 42 43 43 44 45 46 46 47 47 48 48 49 50 45 37 33 35 39 40
30 29 29 30 30 30 30 29 29 29 28 28 27 26 26 27 28 30 30 31 32 33 33 33 34 34 35 35 36 37 38 40 40 40 39 38 37 37 36 35 36 37 38 40 41 42 43 44 45 46 46 46 46 47 48 50 49 41 32 30 34 37 38
29 29 29 30 29 29 29 29 29 28 28 27 26 26 26 27 29 30 30 31 32 33 33 33 33 34 34 35 36 38 39 39 38 38 37 36 35 35 34 34 35 37 38 39 40 41 42 43 44 44 45 45 45 47 48 50 49 39 30 28 32 36 36
29 29 29 29 28 28 28 28 28 28 27 26 26 26 27 28 29 30 30 31 32 32 32 32 33 33 34 35 36 37 37 37 36 35 34 34 33 32 33 33 34 36 36 37 38 40 41 43 43 43 44 44 46 47 49 51 48 39 29 27 30 34 35
29 29 29 29 28 28 28 28 28 27 26 26 25 26 28 29 29 30 30 31 31 31 31 32 32 33 34 35 36 36 35 34 33 33 33 32 31 31 31 32 33 34 34 36 38 39 41 42 42 43 43 44 46 47 48 50 47 38 30 26 28 31 32
30 30 30 29 29 28 28 27 27 27 26 25 26 27 29 29 29 30 30 30 30 30 31 31 32 33 34 35 35 34 33 32 32 31 31 30 30 30 30 31 32 32 33 35 37 39 40 42 42 42 42 43 45 46 47 49 46 37 30 26 26 29 30
31 31 30 30 29 28 27 27 27 26 26 26 27 28 29 28 29 29 29 29 29 30 31 31 32 33 34 34 33 31 31 30 30 30 29 29 29 29 30 30 31 31 33 35 37 39 41 42 42 42 42 42 43 44 46 48 46 38 30 25 24 27 30

ECMWFFLT1_500_spd_114.txt.gz
Wind_Speed
9 9 10 9 7 7 10 11 10 10 11 12 13 13 12 13 14 14 14 15 16 17 17 19 20 22 23 23 24 25 26 27 28 29 30 30 31 32 32 33 33 33 33 32 32 31 30 29 28 28 29 31 33 35 36 36 35 36 37 37 36 34 33
9 9 8 6 7 9 11 11 10 10 12 13 13 12 13 14 14 14 15 16 17 18 19 20 21 22 23 24 24 25 26 27 28 29 29 30 31 33 34 35 36 37 38 38 38 38 38 36 34 33 31 31 32 34 36 37 37 37 37 37 37 36 35
9 8 8 8 10 11 12 11 11 12 13 13 13 13 15 15 15 15 15 17 18 18 19 21 22 24 24 25 25 26 27 28 29 30 31 32 33 34 35 36 38 39 40 41 41 42 43 43 42 40 38 35 33 33 34 36 37 38 38 37 37 36 35
9 10 10 11 12 13 12 12 11 13 13 13 14 14 15 15 15 16 17 18 18 19 20 21 24 25 26 26 27 28 29 30 31 33 34 35 36 36 37 38 39 40 41 41 42 43 43 43 43 42 41 39 37 35 34 35 36 37 38 38 37 36 36
10 12 13 13 13 13 13 12 13 14 14 14 15 15 16 16 16 17 18 19 20 21 22 23 25 26 27 28 29 31 32 33 34 35 36 37 37 38 38 39 40 40 41 42 42 43 43 43 43 42 41 40 38 37 36 35 36 36 37 38 38 37 37
13 14 14 13 13 13 14 14 14 14 14 15 16 16 16 17 17 18 19 20 22 23 24 25 27 28 29 30 32 33 34 35 36 37 38 38 38 38 39 39 40 40 41 42 43 44 44 43 43 42 42 40 39 38 38 37 37 37 37 38 38 38 38
14 14 13 12 13 14 15 15 14 14 15 16 17 17 17 18 19 20 21 22 23 25 26 27 29 30 31 32 34 35 35 36 38 38 38 38 39 39 40 40 40 41 42 43 44 44 44 44 43 42 41 41 40 40 40 39 39 38 39 39 40 39 39
13 13 12 12 13 14 15 15 14 15 17 17 17 18 18 20 20 21 23 24 25 26 28 29 31 32 33 34 35 36 37 38 39 39 39 40 40 40 40 41 41 42 43 44 44 44 44 43 43 42 41 41 41 41 41 42 41 41 40 40 41 41 41
12 12 11 12 13 15 15 15 16 17 17 18 18 19 20 20 21 22 24 25 27 28 29 31 32 33 34 36 37 38 38 39 40 40 41 41 41 41 41 42 42 43 44 44 45 44 44 43 42 42 42 42 43 43 43 43 42 42 42 42 42 43 43
11 11 12 13 14 15 16 16 17 17 18 18 19 19 20 21 22 24 25 27 28 30 31 32 34 35 36 37 38 39 39 40 41 41 41 41 42 42 42 43 43 44 44 44 44 43 43 43 44 44 45 45 46 46 45 45 44 43 44 44 43 43 44
12 13 14 15 15 15 16 16 17 18 18 18 18 19 21 23 24 26 27 28 29 31 32 34 35 36 38 39 39 40 41 41 41 41 42 42 43 43 43 43 44 44 44 43 43 44 44 45 46 46 47 47 47 48 47 47 47 46 45 45 45 44 44
14 15 15 15 16 16 15 16 17 17 17 18 19 21 23 25 26 27 28 29 31 32 34 35 37 38 39 40 40 41 41 41 42 42 43 43 43 43 43 43 43 43 43 43 44 45 46 47 47 48 48 48 49 49 49 49 48 48 47 47 47 47 46
15 15 15 16 16 15 15 16 17 17 18 20 22 24 25 26 27 29 30 31 32 34 35 37 38 39 40 40 41 41 42 42 42 43 43 43 42 42 42 42 42 42 43 44 45 46 47 47 48 49 49 50 50 50 51 51 50 50 50 50 49 49 49
15 15 16 16 16 16 16 17 18 19 20 22 24 25 26 28 29 30 31 32 34 35 37 38 39 40 40 41 42 42 42 42 42 42 42 41 41 40 41 41 42 43 44 45 46 47 48 49 50 51 51 52 52 53 53 53 53 52 52 52 52 51 51
16 16 16 17 17 18 18 19 19 21 22 24 25 26 28 29 30 31 32 33 35 36 37 39 40 40 41 42 42 42 41 41 40 41 41 41 41 41 42 43 44 45 46 47 48 49 50 51 52 52 52 53 53 54 54 54 54 53 53 52 53 53 53
16 17 18 19 20 20 20 20 21 22 24 25 27 28 29 30 31 32 33 35 36 37 39 40 41 41 42 42 41 41 40 39 40 40 41 41 42 43 43 44 45 46 47 48 49 50 50 51 51 51 52 52 53 53 54 55 55 55 54 54 53 54 54
17 19 20 21 21 22 22 22 23 24 26 27 28 29 30 31 32 33 34 35 37 38 40 41 41 41 41 41 40 39 39 39 40 41 41 42 43 44 44 45 46 47 48 49 49 49 49 50 50 51 51 52 53 54 54 55 56 56 56 55 55 55 55
19 20 21 22 23 23 23 24 25 26 27 28 29 30 31 32 33 34 35 36 38 39 40 41 41 40 40 39 38 38 38 39 40 40 41 42 43 44 45 46 47 47 48 48 48 48 48 49 50 51 52 53 53 54 55 55 56 56 56 56 55 55 55
21 22 23 24 24 25 26 26 27 27 28 29 30 31 32 33 34 35 36 37 38 39 40 40 39 38 37 37 37 38 38 39 40 41 42 43 44 45 46 46 47 47 47 47 47 48 48 49 50 51 52 53 53 54 54 54 54 54 54 54 53 52 52
23 24 25 25 26 27 27 27 27 28 29 30 32 33 34 34 35 35 37 38 38 39 39 38 37 35 35 35 37 38 39 39 40 41 42 44 45 45 46 46 46 46 46 47 48 48 49 50 51 52 52 52 52 52 52 52 52 51 51 51 51 51 51
25 25 26 26 27 28 28 28 28 29 30 32 33 34 34 35 35 36 37 37 38 37 37 35 34 33 34 35 36 37 38 39 41 42 43 44 44 45 45 45 45 46 47 48 49 50 51 51 51 51 51 50 50 50 50 50 50 50 51 51 51 51 51
25 25 26 27 28 29 29 29 29 30 32 33 34 34 35 35 36 36 36 36 36 35 33 32 32 33 34 34 36 37 39 40 41 42 43 43 43 44 44 45 45 46 47 49 50 51 51 51 51 50 49 49 48 48 49 49 50 50 51 52 52 52 52
26 26 26 28 30 30 30 30 30 31 33 34 35 35 35 35 35 35 35 34 33 32 31 31 31 32 33 34 36 38 40 41 41 42 42 42 42 43 44 45 46 47 48 49 49 49 49 49 48 48 48 48 48 48 48 49 50 51 51 52 52 52 51
27 27 28 30 31 30 31 31 32 33 35 35 35 35 35 35 34 34 33 32 31 30 31 31 31 31 33 35 37 38 40 41 41 41 41 41 42 43 44 45 46 47 47 47 46 46 46 45 46 46 46 47 47 48 48 49 50 50 51 51 51 51 51
28 29 30 30 31 31 31 32 34 35 35 35 35 35 35 34 33 32 31 30 30 30 30 30 30 32 34 36 37 39 39 40 40 40 40 41 42 43 44 45 46 46 46 45 44 43 43 43 44 44 45 46 47 48 49 50 50 50 51 51 51 51 51
30 30 30 31 31 32 33 34 35 35 35 35 34 35 34 33 32 31 31 30 31 31 30 30 31 33 35 36 38 39 39 39 39 40 41 41 42 43 44 45 45 45 43 42 41 41 41 41 42 43 44 45 46 48 49 50 51 51 51 51 51 51 51
30 31 31 31 32 33 34 35 35 35 34 34 34 34 33 32 31 31 31 31 31 30 30 30 32 34 36 37 38 38 38 38 39 40 41 42 43 44 45 44 44 42 41 40 39 39 39 39 40 42 43 45 47 49 50 51 51 51 51 51 51 51 49
30 31 31 32 32 33 34 35 35 34 34 34 34 33 32 31 31 31 31 31 30 30 30 31 33 35 36 37 37 37 37 38 39 40 41 42 43 44 43 42 41 40 38 37 37 37 37 38 39 41 44 46 48 50 51 51 51 51 51 51 51 49 43
30 31 31 31 32 33 33 33 33 33 33 33 33 32 31 31 31 31 31 30 30 30 31 32 34 35 36 37 37 36 37 38 39 40 41 42 43 42 41 40 38 37 36 36 36 36 36 37 39 42 44 47 49 50 50 50 50 50 51 52 50 44 37
28 29 30 31 32 32 32 32 32 33 32 32 31 31 30 30 31 31 30 29 29 30 32 33 34 35 36 36 36 36 36 37 39 40 42 42 42 40 39 37 36 35 35 34 35 35 36 37 40 42 45 47 48 49 48 47 47 48 50 51 48 40 35
28 28 30 30 31 31 32 32 31 31 31 31 30 30 30 30 30 30 29 29 29 31 32 34 34 35 35 35 35 36 36 38 39 40 41 41 39 38 36 35 34 34 34 34 34 35 36 38 40 42 45 47 48 47 46 45 45 46 49 49 44 37 34
29 29 30 30 30 31 31 31 31 30 30 30 30 30 29 29 29 29 28 29 30 32 33 34 34 35 34 34 35 36 37 38 39 40 40 39 37 35 34 33 33 33 33 34 35 35 37 38 40 42 44 46 47 46 45 45 45 46 48 47 41 35 33
29 29 29 29 30 31 31 31 30 30 30 30 30 29 29 29 29 28 28 29 31 32 33 34 34 34 33 34 34 36 37 38 39 39 38 36 34 33 33 32 32 32 33 34 35 35 37 38 40 42 44 45 46 45 44 45 45 47 49 47 40 34 33
28 28 28 30 31 31 31 30 30 30 30 30 29 29 28 28 28 28 28 30 32 32 33 33 33 33 33 33 34 36 37 38 37 37 35 33 32 32 31 31 31 32 33 34 34 35 36 37 39 41 43 45 45 44 43 44 45 46 48 48 42 36 34
27 28 29 31 32 31 31 31 31 31 31 30 29 28 28 28 27 27 29 31 32 32 33 33 33 32 32 33 35 36 36 36 35 34 32 31 30 30 30 30 31 32 33 33 33 34 35 36 38 40 42 43 43 42 42 42 43 45 47 48 45 38 33
27 29 30 32 32 32 31 32 32 32 31 30 29 28 28 27 27 28 30 31 32 32 32 32 32 31 32 33 34 35 35 34 33 31 30 29 29 29 30 30 31 31 32 32 33 34 34 35 36 38 41 42 41 41 41 41 42 43 45 47 46 40 34
28 30 31 32 32 32 32 32 32 31 30 29 28 28 27 27 27 28 30 31 32 32 32 31 30 31 32 33 33 34 33 32 30 29 28 28 28 29 29 30 30 30 31 31 32 33 33 33 35 37 39 41 41 40 40 40 40 42 44 46 46 42 36

ECMWFFLT1_500_spd_117.txt.gz
Wind_Speed
13 12 12 14 14 14 15 14 13 12 13 14 15 16 16 16 16 16 16 16 17 17 18 19 20 21 22 23 24 24 25 25 25 26 27 27 28 29 30 31 31 31 31 32 32 33 33 32 32 33 34 35 36 37 37 37 37 37 37 36 35 35 34
13 13 13 14 14 15 16 14 13 12 13 13 14 15 16 16 16 16 17 18 18 19 20 21 21 22 22 23 24 25 25 25 26 27 28 29 31 32 33 35 35 35 35 36 36 36 36 35 34 34 34 34 35 36 36 36 36 36 35 35 34 34 33
13 14 16 16 16 15 14 13 12 12 12 13 15 16 16 16 16 17 18 19 19 20 21 22 22 22 23 23 24 25 25 26 27 29 30 31 33 34 36 37 38 38 39 39 39 39 39 40 39 38 37 36 36 37 37 37 37 37 36 35 35 35 34
14 16 16 16 15 14 12 11 11 12 13 14 15 16 16 16 17 18 19 20 20 21 22 23 23 23 23 23 24 25 27 28 29 31 33 34 36 38 39 39 40 40 41 41 41 41 41 42 41 40 39 39 39 39 38 38 38 37 37 37 37 37 36
15 15 15 14 13 11 10 10 11 12 13 15 15 16 16 17 18 18 19 20 21 22 22 23 23 23 23 25 26 27 29 30 32 34 36 37 39 40 41 41 42 43 43 44 44 44 43 43 42 40 39 39 39 40 39 38 38 38 38 38 39 39 40
14 14 14 13 12 10 9 10 11 13 13 14 15 16 17 18 19 20 20 21 21 22 22 22 23 24 25 27 28 29 31 32 34 36 38 40 41 42 43 44 45 45 45 46 46 45 44 43 41 40 40 39 39 40 40 39 40 40 40 41 41 41 41
14 13 11 11 10 9 9 10 11 12 13 14 16 17 18 19 20 21 21 21 21 22 22 23 25 26 27 28 29 31 33 34 36 38 40 42 42 43 44 45 46 46 46 45 45 44 43 42 41 40 40 40 41 42 42 42 42 42 42 42 43 43 43
12 10 9 10 10 10 10 10 11 12 14 16 17 18 19 20 21 21 21 21 21 22 24 26 27 28 29 30 31 32 34 36 38 40 42 42 43 44 45 45 45 45 44 43 42 42 41 41 41 41 40 40 41 42 43 44 44 44 44 43 44 45 44
10 9 9 10 10 11 11 11 12 14 15 17 18 19 20 20 20 20 20 21 23 24 26 28 28 29 30 31 32 34 36 38 40 42 42 43 44 44 45 44 44 43 42 41 41 41 42 42 42 43 42 42 43 43 44 45 45 45 45 45 45 45 46
9 9 9 10 11 12 12 13 14 15 16 18 19 19 19 18 18 19 21 23 25 26 28 29 29 30 31 32 34 36 38 40 41 42 43 43 44 44 44 43 42 42 41 42 42 43 44 44 44 44 45 45 45 45 46 46 46 46 46 46 46 45 46
9 10 10 11 13 13 14 15 15 16 17 18 18 18 17 17 19 21 23 25 27 28 29 30 31 31 32 34 35 37 39 41 42 42 43 43 43 43 43 42 42 42 42 43 44 44 45 45 46 46 47 47 48 48 49 49 49 49 48 48 49 48 47
10 11 11 12 13 14 15 15 16 17 17 17 17 16 17 19 21 23 25 27 28 30 31 31 32 33 34 35 37 39 41 41 42 43 43 43 43 42 42 41 41 42 43 44 44 45 46 46 47 48 49 50 50 50 50 50 50 51 50 49 50 51 50
11 12 12 12 13 14 15 16 16 17 16 16 16 17 19 20 22 24 26 28 30 31 32 32 33 34 35 36 38 40 41 41 42 43 43 42 42 41 41 41 42 42 43 44 45 46 47 48 49 50 50 51 51 51 51 51 51 52 53 52 52 52 53
12 12 12 12 13 14 15 16 16 16 16 16 17 18 20 22 24 26 28 29 31 32 33 33 34 35 36 38 39 41 41 42 42 42 41 40 40 40 40 41 42 43 44 45 46 48 48 49 50 51 51 51 52 52 52 52 52 52 53 54 54 54 54
13 12 12 13 14 14 15 15 16 16 16 17 18 20 22 23 25 27 29 31 32 33 33 34 35 36 37 39 40 41 41 42 42 40 39 39 39 39 40 41 43 44 45 46 48 49 49 50 51 51 51 52 52 53 53 53 54 54 54 54 55 55 55
14 14 14 14 14 14 15 15 16 17 18 19 20 22 23 25 27 28 30 32 33 34 34 35 36 37 38 39 40 41 41 40 39 38 38 37 38 39 41 42 44 45 46 47 48 49 50 50 51 51 52 52 53 54 54 55 55 55 55 54 55 55 55
15 15 15 15 15 15 16 17 18 19 19 21 22 24 25 26 28 30 31 33 34 34 35 36 37 37 39 40 40 40 39 38 37 36 36 37 38 40 42 43 45 46 47 48 48 49 50 50 51 52 52 53 54 54 54 55 54 54 54 53 53 53 53
17 17 16 16 16 16 17 19 20 20 21 23 24 26 27 28 30 31 33 34 35 35 36 36 37 38 39 39 39 38 37 36 35 34 35 37 39 41 43 44 45 46 47 48 48 49 50 51 52 52 53 53 53 53 53 53 52 52 51 50 50 49 50
19 19 18 18 18 18 19 20 21 22 23 25 26 27 29 30 31 33 34 35 36 36 36 37 38 38 38 38 37 36 35 34 34 34 37 39 41 42 43 45 46 46 47 48 49 50 50 51 52 52 53 52 52 51 50 50 49 49 48 48 48 48 49
21 21 20 20 20 20 21 22 23 24 25 27 28 29 30 31 32 34 35 36 36 36 37 37 37 37 37 36 35 35 34 33 34 36 39 40 42 43 44 45 46 46 47 48 49 50 51 52 52 52 51 50 49 48 47 47 47 46 47 48 48 49 49
23 23 23 22 22 22 23 23 24 26 27 29 30 31 32 33 34 35 36 37 37 37 37 37 37 36 35 35 34 34 33 33 35 38 40 42 43 44 44 45 45 46 47 48 50 51 51 52 51 50 49 48 47 46 45 45 45 46 48 49 49 49 49
24 24 25 24 24 24 24 25 26 28 29 30 31 33 33 34 35 36 37 37 37 37 36 36 35 35 34 34 34 34 33 34 37 39 41 43 44 44 44 45 46 47 48 49 51 51 51 51 50 48 47 46 45 44 44 45 47 48 49 49 49 49 48
25 25 26 26 25 26 26 26 27 29 31 32 33 34 34 35 36 37 37 37 36 36 35 35 34 34 34 34 34 34 34 36 38 40 42 43 43 44 44 45 46 47 49 50 50 50 50 49 48 46 45 44 44 44 45 47 49 50 50 50 50 49 47
25 26 27 27 26 26 27 28 29 31 32 33 34 35 35 36 37 37 37 36 36 35 34 33 33 33 33 33 33 34 35 37 39 41 42 43 43 43 44 45 47 47 48 48 48 47 47 45 45 44 44 44 45 46 48 49 50 51 51 51 50 50 48
26 28 29 28 27 27 28 29 31 32 34 34 35 35 36 37 37 36 36 35 34 34 33 33 33 33 33 33 33 34 36 38 40 41 42 42 42 43 44 45 46 47 47 46 45 44 44 43 42 42 43 44 46 48 50 51 52 52 52 51 51 50 49
28 30 31 29 28 29 30 31 33 34 35 35 35 35 36 36 36 35 35 34 33 32 32 31 32 32 32 33 34 35 37 39 40 41 42 42 42 43 45 46 46 46 45 44 43 42 41 41 41 42 43 45 46 48 50 52 53 53 52 51 51 51 51
30 30 30 30 30 31 32 33 34 34 35 35 35 35 36 35 35 34 33 32 31 31 30 30 31 31 32 33 34 36 38 39 40 41 41 42 42 43 45 45 45 44 43 41 40 39 39 39 40 41 43 44 46 48 49 51 52 51 50 50 50 51 52
30 30 30 30 32 33 33 33 33 34 34 35 35 35 34 33 33 32 31 31 30 29 29 30 30 31 32 33 35 37 38 39 40 40 41 41 42 44 45 45 44 42 41 39 38 38 37 38 40 41 42 43 45 47 49 50 50 49 49 49 50 52 52
29 28 28 29 30 31 31 31 32 33 33 34 33 33 33 32 31 30 30 30 29 29 29 29 30 31 32 34 36 37 38 39 40 40 40 41 42 44 44 43 42 40 38 37 37 37 37 38 39 40 41 42 44 46 48 49 49 48 48 49 51 53 52
30 28 28 28 29 30 30 31 31 32 32 31 31 31 31 31 30 30 30 29 29 28 28 29 29 31 33 35 36 37 38 39 39 39 40 41 43 43 43 41 39 37 36 36 36 36 36 37 38 38 39 40 42 44 46 47 47 47 47 48 50 52 51
31 29 29 29 29 29 30 30 30 30 30 30 30 31 31 30 30 30 29 29 28 28 28 28 29 31 33 35 36 37 38 38 38 39 40 42 42 42 40 38 37 36 35 35 35 35 36 36 36 36 37 38 40 42 44 44 45 45 46 47 48 49 49
28 28 28 28 28 28 28 29 29 28 28 29 31 31 31 30 30 30 29 28 28 28 28 28 29 31 33 34 36 37 37 37 38 39 40 41 41 40 38 36 35 34 34 34 34 35 35 35 34 35 36 37 39 41 42 44 44 44 45 46 46 47 48
26 26 26 27 27 28 28 28 27 27 28 30 31 31 31 30 30 29 29 28 28 28 28 28 30 31 33 34 35 36 36 37 38 39 40 40 39 38 36 35 34 33 33 33 33 34 33 33 33 34 35 36 38 39 41 43 45 46 46 46 47 47 47
25 24 25 26 27 28 28 27 26 27 29 30 31 31 31 30 29 29 28 28 28 28 28 29 30 31 33 34 35 36 36 37 38 39 39 39 38 37 35 33 32 32 32 32 32 31 31 31 32 33 34 36 37 38 40 42 44 46 47 47 47 46 46
25 25 25 26 27 27 27 26 26 27 29 30 31 31 31 30 29 28 28 28 27 28 28 29 30 31 33 34 35 35 36 36 37 38 38 38 37 35 33 31 31 31 31 31 30 29 29 30 31 33 34 35 36 37 39 40 42 45 46 47 47 46 46
29 27 26 26 27 27 26 25 25 27 29 31 31 31 30 29 28 28 28 27 27 28 28 29 30 31 33 34 34 34 35 36 37 37 37 36 34 32 31 30 30 29 29 29 27 27 28 29 30 31 32 34 35 36 38 39 40 42 44 46 47 47 47
33 30 27 26 26 26 26 25 26 28 30 31 31 31 30 29 28 28 28 27 28 28 29 29 30 31 32 33 33 33 34 35 36 35 35 34 32 30 29 28 28 28 28 26 25 26 27 28 29 30 31 33 34 36 37 38 39 40 42 44 46 47 48

ECMWFFLT1_500_spd_120.txt.gz
Wind_Speed
17 19 21 21 19 18 17 16 16 14 14 15 16 17 17 15 15 14 14 15 15 16 17 17 18 19 21 22 23 24 25 26 26 26 26 26 27 28 28 29 29 30 31 32 33 34 33 33 33 35 36 38 40 41 40 39 39 38 37 37 37 37 37
17 17 19 18 18 17 16 15 15 13 13 14 15 16 16 15 14 14 15 16 16 16 17 17 18 20 22 23 24 25 26 26 27 27 28 29 30 31 31 32 32 33 35 36 37 38 38 38 37 36 36 36 38 40 39 39 38 38 37 37 37 37 37
17 15 15 17 17 16 15 15 14 12 11 12 14 14 14 14 14 15 16 16 16 16 17 18 19 21 23 24 25 25 26 26 27 28 30 31 31 32 32 33 35 36 38 39 40 41 42 42 42 41 39 38 38 38 38 38 38 38 37 37 37 38 39
16 16 17 18 18 16 14 14 12 11 11 13 13 14 14 14 15 15 15 15 16 16 17 19 21 23 24 24 25 25 26 27 28 30 31 31 31 32 33 34 36 38 39 40 41 42 42 43 43 42 41 41 40 40 39 39 39 39 38 38 38 39 40
16 16 18 19 17 15 14 11 10 11 12 13 13 13 14 14 15 15 15 15 16 17 19 21 22 24 24 24 25 26 27 28 30 31 31 31 31 32 34 36 38 39 40 41 42 42 42 42 42 42 41 41 41 41 41 41 40 40 40 39 39 40 41
17 17 17 18 16 14 11 10 10 11 12 13 14 14 14 14 14 15 15 16 17 18 20 22 23 23 24 25 26 27 29 30 31 31 31 31 33 35 36 38 40 41 42 43 43 43 44 43 43 43 42 42 42 43 43 42 42 42 43 42 42 43 43
18 17 17 17 14 11 10 10 11 11 12 13 14 14 14 14 14 15 15 16 18 19 21 22 22 23 25 26 27 29 30 31 31 31 32 33 35 37 38 40 41 42 43 44 44 44 44 44 43 42 42 42 43 44 45 45 45 45 46 46 46 46 46
17 17 16 14 12 10 10 10 10 11 12 13 14 14 14 14 15 15 16 17 18 19 20 21 22 24 26 27 29 30 31 31 31 32 34 35 37 39 40 41 42 43 44 44 44 44 43 42 41 41 40 41 43 44 46 47 47 47 47 48 49 48 48
17 16 15 13 12 11 11 11 11 11 12 13 14 14 14 15 16 16 17 18 18 19 20 21 23 25 27 29 30 31 32 32 33 34 35 37 38 40 41 42 43 44 44 43 42 42 41 40 40 41 42 42 43 44 46 47 47 48 48 48 49 50 50
16 16 14 13 12 12 12 11 11 12 13 14 14 14 15 15 15 16 17 17 18 19 21 23 25 27 28 30 31 32 32 33 34 35 37 38 39 41 42 42 43 42 42 41 40 40 40 41 42 43 44 45 45 45 45 47 48 48 49 50 50 51 52
15 15 14 13 13 12 12 12 12 13 14 14 14 14 15 15 15 16 16 17 18 20 22 24 26 28 29 31 32 33 33 34 35 37 38 39 40 41 41 41 41 40 39 38 39 40 41 42 44 45 46 46 46 46 46 48 50 50 51 52 53 54 54
15 15 14 14 13 13 12 13 13 14 15 14 14 14 15 15 15 16 16 17 19 21 23 25 27 29 30 32 33 33 34 35 37 38 39 39 40 40 40 39 38 37 37 38 39 41 43 44 45 46 47 47 47 48 48 50 52 54 53 54 55 56 56
16 15 14 13 13 12 13 13 14 15 15 14 14 14 15 15 15 16 17 19 21 23 24 26 28 30 32 33 34 34 35 36 37 38 39 39 39 39 38 37 36 36 38 39 41 43 44 46 47 47 47 48 48 49 51 52 53 55 56 56 56 57 57
16 15 14 13 13 13 14 15 15 15 14 14 14 14 15 15 15 17 19 21 22 24 26 28 30 32 33 34 35 35 36 37 37 38 38 38 38 37 36 35 36 37 39 42 43 44 46 47 48 48 48 49 50 51 53 54 54 55 55 55 55 55 55
16 15 14 14 14 15 15 16 15 15 14 14 14 14 14 15 17 19 20 22 24 26 28 30 32 33 34 34 35 36 36 37 38 38 37 37 37 36 35 35 37 39 42 44 45 46 47 48 48 49 50 51 53 54 55 55 56 55 54 53 52 51 51
17 16 16 15 16 16 17 16 16 15 14 14 14 15 15 17 19 20 22 24 26 28 30 32 33 34 35 35 36 37 37 37 37 37 37 36 36 35 35 36 39 41 44 45 46 47 48 48 49 50 52 53 54 55 56 56 55 54 52 50 50 49 49
18 18 17 17 18 18 18 17 16 15 15 15 15 16 17 19 20 22 24 26 28 30 32 33 34 35 36 36 37 37 37 37 37 36 36 36 35 35 36 38 41 43 45 46 47 48 48 49 50 52 53 54 55 55 54 53 52 51 49 48 48 49 50
19 19 19 19 20 20 19 19 18 17 17 17 17 18 19 21 22 23 26 28 30 32 33 34 36 36 37 37 37 37 37 37 37 36 35 35 35 36 38 40 42 44 46 47 48 48 49 50 52 53 53 54 53 52 51 49 48 48 48 47 48 49 50
21 21 21 21 21 21 21 21 20 19 19 19 19 20 21 22 24 25 27 30 32 33 34 35 37 37 37 37 37 37 37 37 36 35 35 35 36 38 39 41 44 45 46 47 48 48 50 51 52 53 53 52 50 49 47 46 46 46 47 48 48 48 48
22 22 22 22 22 23 23 23 22 21 21 21 21 22 23 24 25 27 29 32 33 34 35 36 38 38 38 37 37 37 37 35 34 34 34 35 37 39 40 42 44 46 46 47 48 49 50 51 52 52 51 49 48 46 45 45 46 47 47 47 47 47 46
24 24 24 24 24 24 24 24 23 22 22 23 23 24 24 25 27 28 31 33 34 35 36 37 38 38 37 37 37 37 35 34 33 33 34 35 37 39 41 43 45 45 46 47 48 49 50 51 51 50 48 47 46 45 45 45 45 46 46 46 46 46 46
26 26 26 26 26 25 25 24 24 23 24 24 25 25 26 26 28 30 32 34 35 36 37 38 38 37 37 37 36 35 34 32 32 33 35 36 38 40 42 44 45 45 46 47 49 50 51 51 50 48 46 45 44 44 45 45 44 45 45 46 46 46 46
27 28 28 28 27 26 26 25 24 24 24 25 26 26 27 28 29 31 33 35 36 36 37 38 37 37 37 36 35 33 32 32 32 33 35 37 38 41 42 43 44 45 47 48 49 50 51 50 48 47 45 44 44 44 43 43 43 44 45 46 46 46 47
28 29 29 29 29 29 28 26 24 24 24 25 26 27 27 29 30 32 34 35 36 36 37 37 36 36 36 35 33 32 31 31 32 34 35 37 39 41 42 43 44 46 47 48 49 49 49 48 46 45 44 44 44 43 42 42 43 44 45 47 47 47 48
28 29 30 30 30 30 29 28 28 27 26 26 27 27 29 30 32 33 35 35 35 36 36 36 36 36 35 33 32 31 31 31 32 34 36 37 39 41 42 43 44 45 46 47 48 48 46 45 43 43 43 43 42 41 41 42 43 44 46 47 48 48 49
29 30 31 31 32 32 32 32 32 29 26 26 28 28 30 31 33 34 34 34 34 35 35 35 35 34 33 32 31 30 30 31 32 34 36 37 39 40 41 42 44 45 46 46 46 45 43 42 42 42 41 40 39 40 41 42 43 44 46 47 48 49 50
30 31 31 33 34 34 33 31 29 27 26 27 29 30 32 33 33 33 33 33 34 34 34 34 33 33 32 31 30 30 30 31 32 34 36 38 39 40 41 42 43 44 45 44 43 42 41 40 40 39 38 37 37 39 40 41 42 44 45 46 48 49 51
33 34 34 34 33 34 36 35 32 30 30 30 30 31 32 32 32 31 31 32 33 33 33 33 32 32 31 30 30 30 30 31 32 34 36 37 38 39 40 41 43 43 43 42 41 39 39 39 38 36 35 35 37 38 39 40 41 43 44 46 47 49 51
33 33 32 32 32 32 34 36 34 31 29 28 28 29 29 29 30 30 31 32 32 32 32 32 31 31 30 30 29 29 29 30 32 34 36 37 38 39 40 41 42 42 41 40 38 37 37 36 34 33 34 35 37 38 39 40 41 42 44 45 47 48 51
30 30 31 33 33 30 29 29 28 27 26 25 26 27 27 28 30 30 31 31 31 31 31 31 30 30 29 29 29 29 29 30 32 34 35 37 37 38 40 41 41 40 39 37 36 36 35 33 31 32 33 34 35 36 38 39 40 42 43 45 46 48 49
30 30 30 31 30 28 28 29 29 27 27 27 27 27 28 29 30 30 30 30 31 31 30 30 29 29 29 29 28 28 29 30 32 34 35 36 37 38 39 39 39 38 37 35 34 34 32 30 30 31 32 33 34 35 36 37 38 40 42 44 46 47 48
30 31 30 29 29 28 27 27 26 26 26 26 26 27 28 29 29 29 29 30 30 30 30 29 28 28 28 28 28 28 28 30 32 34 35 36 37 38 38 37 37 36 35 33 33 31 29 27 29 30 31 32 33 33 34 35 36 39 41 43 45 46 48
31 32 31 31 30 29 27 25 24 24 25 26 27 28 29 29 29 28 29 30 30 30 29 28 28 28 28 28 27 27 28 30 32 33 34 35 36 36 36 36 35 35 33 32 31 29 26 26 28 29 30 30 31 32 33 34 36 39 41 43 45 46 48
32 33 33 32 29 27 25 23 23 24 25 27 28 28 28 28 28 28 29 30 30 29 28 28 28 27 27 27 27 27 28 30 32 33 34 34 35 35 35 34 34 33 31 30 28 26 25 26 27 28 28 29 30 31 33 34 36 39 41 43 45 46 48
32 31 30 27 24 22 23 23 23 24 26 26 27 27 27 28 27 28 29 30 30 29 28 28 27 27 27 26 26 27 28 30 31 33 33 33 34 34 33 33 32 31 30 28 26 24 24 25 26 27 27 28 29 30 32 34 36 38 41 43 44 46 47
34 34 31 27 25 26 27 25 24 25 26 26 26 27 27 27 27 28 29 30 29 29 28 28 27 27 26 26 26 27 28 30 31 32 32 33 33 33 32 31 30 29 28 26 23 22 23 24 25 25 26 27 28 29 31 33 36 38 40 42 44 45 47
36 35 33 31 31 32 31 28 26 26 26 27 27 27 27 27 28 28 29 30 29 29 28 28 27 27 26 26 26 27 29 30 31 32 32 32 32 31 30 30 28 27 26 24 22 21 22 23 23 24 25 26 26 28 30 32 35 37 39 41 43 45 47

ECMWFFLT1_500_spd_123.txt.gz
Wind_Speed
22 23 24 26 26 24 22 22 23 22 21 19 18 18 17 17 18 16 14 12 10 10 10 11 12 14 15 17 18 19 21 22 23 24 24 24 25 26 27 27 28 29 29 30 31 32 33 34 35 37 38 40 41 42 42 42 42 41 41 41 41 41 41
23 23 23 24 25 24 24 23 23 21 20 19 19 18 17 18 18 15 11 9 9 10 11 12 13 15 16 18 19 21 22 23 24 24 24 25 26 26 27 27 28 28 29 30 31 32 33 35 36 37 38 40 41 41 41 41 40 40 41 40 41 41 41
23 22 22 22 24 25 25 24 22 20 19 19 18 18 18 18 16 13 9 9 9 10 12 13 14 16 18 19 21 22 23 23 24 25 25 26 27 27 27 28 29 30 31 32 33 34 35 36 37 38 39 40 40 40 40 40 40 40 40 41 42 42 42
20 20 20 21 23 23 22 22 20 19 19 18 16 16 15 15 13 11 10 9 10 12 13 15 16 18 19 21 21 22 23 23 24 25 26 27 28 28 28 29 31 32 33 35 35 36 37 38 39 39 39 39 39 39 40 40 41 42 42 42 43 43 43
19 19 19 21 22 21 20 19 19 19 18 16 14 13 12 12 11 10 9 10 11 13 15 16 18 19 20 21 21 22 22 23 24 25 26 27 28 29 30 31 32 34 35 36 37 37 38 38 38 37 37 38 39 40 40 42 43 44 44 45 45 45 45
19 18 18 20 21 21 21 18 18 18 16 14 12 12 11 11 10 10 10 12 13 15 16 18 19 20 20 21 21 22 22 23 25 26 27 28 29 30 31 32 34 35 36 36 37 37 37 37 37 37 38 39 40 41 42 44 45 46 46 46 47 48 48
19 18 18 20 20 20 19 18 18 17 15 13 12 11 11 10 10 11 12 13 15 16 18 19 19 20 20 20 21 22 23 24 25 27 28 29 30 31 32 33 34 35 36 37 37 37 36 36 36 37 38 40 42 43 44 46 47 47 47 48 48 50 51
20 19 19 20 20 19 19 18 17 15 14 13 12 11 11 11 11 12 13 15 16 17 18 19 19 19 20 20 21 23 24 26 27 28 29 30 31 32 33 34 35 36 37 37 37 36 35 35 35 36 39 41 43 45 45 46 47 47 48 49 51 51 52
17 17 16 16 17 18 17 15 14 14 14 13 12 12 11 12 13 14 14 16 17 17 18 18 18 19 20 21 22 24 25 27 28 29 30 31 32 33 34 35 36 37 37 37 36 35 34 34 36 38 40 41 43 45 46 47 48 49 49 50 52 53 54
13 13 13 14 15 15 14 14 14 14 13 12 12 12 12 13 13 14 15 16 16 17 17 17 18 19 20 22 23 25 26 27 29 30 31 32 33 34 35 36 37 37 37 36 35 34 34 36 38 40 42 43 44 46 47 48 49 50 52 53 54 56 56
12 12 12 13 14 15 15 14 14 13 12 12 12 12 12 13 14 15 15 16 16 16 16 17 18 19 21 22 24 25 27 28 30 31 32 33 34 35 36 37 37 37 36 35 34 35 36 38 40 42 43 45 45 46 48 50 51 52 54 56 57 57 57
14 14 14 14 14 15 15 15 14 13 12 12 12 12 13 14 15 15 15 15 15 16 16 17 19 20 22 24 25 27 29 30 31 32 33 34 35 36 37 37 37 36 35 34 35 36 38 40 42 44 44 45 46 47 49 52 54 56 57 57 57 57 56
16 15 14 14 15 15 16 15 14 14 13 13 13 13 14 15 15 15 15 15 15 16 17 18 19 21 23 25 27 29 31 32 33 33 34 35 36 36 37 36 35 34 34 34 35 37 40 42 43 44 45 45 47 49 51 53 55 56 57 56 55 54 53
16 15 15 16 16 17 17 16 15 14 13 13 14 14 15 15 15 15 15 16 16 17 17 19 21 23 25 27 29 30 32 33 34 34 35 35 36 36 36 35 34 34 34 35 37 39 41 43 44 44 45 47 49 51 53 55 55 54 53 52 51 50 50
17 17 17 17 17 18 17 16 15 14 14 15 15 16 16 16 16 16 17 17 17 18 19 20 23 25 27 28 30 32 33 34 34 34 35 36 36 36 35 34 34 34 35 36 38 40 42 43 44 45 47 49 51 53 55 55 53 51 50 49 49 48 49
17 18 18 18 18 18 17 16 16 15 15 16 17 17 17 17 17 18 18 18 18 19 20 22 24 26 28 30 32 33 33 34 34 35 35 36 36 35 35 34 34 34 36 37 39 41 42 43 44 46 49 51 53 54 54 52 51 49 48 47 47 47 47
18 19 19 20 20 19 18 17 17 17 17 18 18 19 18 18 18 19 19 19 20 21 22 24 26 28 29 31 32 33 34 34 34 35 36 36 36 35 34 34 34 35 36 38 40 41 42 43 46 48 50 52 53 52 50 49 47 46 45 45 46 46 46
19 20 21 21 21 20 19 19 18 18 19 19 19 19 19 19 20 20 21 21 22 22 24 25 27 28 30 32 33 34 34 35 35 36 36 36 36 35 34 34 34 36 37 39 40 41 43 44 47 49 51 51 50 48 46 45 44 43 43 43 44 44 44
19 20 22 22 22 21 20 20 20 20 20 20 21 21 21 21 22 22 22 23 23 24 25 27 28 30 32 33 34 34 35 35 36 36 36 36 35 34 33 33 35 36 38 39 40 41 43 45 48 49 50 49 47 45 43 42 41 41 42 42 43 43 43
19 20 22 22 22 22 21 21 21 22 22 21 22 23 23 23 23 24 24 24 25 26 27 28 29 31 33 34 34 35 35 35 36 36 36 36 34 33 33 33 35 37 38 39 40 42 44 46 48 49 48 46 44 41 40 39 39 40 41 41 42 42 43
19 20 22 22 23 23 22 22 23 23 23 23 23 24 25 25 25 25 25 26 26 27 28 29 30 32 34 34 34 35 35 36 36 36 36 34 33 32 32 33 35 37 38 39 41 42 44 46 47 47 45 43 40 38 37 37 38 39 40 40 41 42 43
19 21 22 23 24 24 24 24 24 25 24 24 25 25 26 26 27 27 27 27 27 28 28 30 31 33 34 35 35 35 35 36 36 36 35 33 32 31 32 34 35 37 38 39 41 42 44 45 46 45 42 39 37 36 36 37 38 39 39 40 41 42 43
19 20 22 23 24 25 25 26 26 26 26 26 26 27 27 28 28 27 27 27 28 28 29 30 32 33 34 35 35 35 35 35 35 35 33 32 31 31 32 34 36 37 38 40 41 43 44 45 45 43 41 37 35 35 36 37 38 38 39 40 41 42 43
19 21 22 23 24 25 26 27 27 28 28 28 29 29 29 29 29 28 27 28 28 28 29 30 32 34 34 34 34 34 34 35 35 34 32 31 31 31 33 34 36 37 39 40 41 43 44 44 44 42 39 36 34 35 36 37 37 38 39 40 41 42 43
21 22 23 24 25 26 26 26 28 29 30 30 32 33 32 31 30 29 28 28 28 28 29 31 33 34 34 33 33 33 34 34 34 33 32 31 31 31 33 34 36 37 39 40 41 42 43 43 41 39 36 34 34 35 36 36 37 37 38 40 41 42 43
23 24 25 26 26 27 27 27 29 29 30 32 35 36 36 35 34 31 28 27 27 27 29 31 32 33 32 32 32 33 34 34 33 32 31 30 30 31 33 34 36 37 39 40 41 41 41 40 38 36 33 33 34 35 35 36 36 37 37 38 40 42 43
25 26 27 28 29 29 29 30 30 31 32 35 37 39 40 39 35 30 26 25 26 27 29 31 31 31 31 31 32 33 34 33 32 31 30 30 30 31 32 34 36 37 38 39 40 40 39 38 35 33 31 32 33 33 34 34 35 35 36 37 39 42 44
26 26 27 29 30 31 32 32 33 34 35 35 38 41 40 34 27 23 22 23 25 26 28 29 30 30 30 31 32 33 33 32 31 30 29 29 29 30 32 34 36 37 38 38 38 37 37 35 32 30 30 31 31 31 32 33 33 34 35 37 39 42 45
26 27 28 29 31 32 33 34 34 35 35 33 34 33 30 25 20 20 22 23 24 26 27 29 29 30 30 31 32 32 31 30 30 29 29 28 29 30 32 34 35 36 37 36 36 35 34 32 30 29 29 30 30 31 31 31 32 33 35 37 40 43 45
27 27 29 30 32 32 32 31 30 30 31 31 28 23 21 21 21 21 21 22 24 26 27 28 29 30 30 31 31 31 30 29 29 29 28 28 28 29 31 34 35 35 35 35 34 33 32 30 28 28 28 29 29 30 30 30 31 32 34 37 40 43 45
29 29 30 31 31 30 28 27 27 27 25 24 22 20 20 21 21 20 21 22 24 26 27 28 28 29 29 30 30 29 29 29 29 28 27 27 28 29 31 33 34 34 34 33 32 31 30 28 27 27 27 28 28 28 28 28 30 31 34 36 39 42 44
31 30 31 31 29 28 27 27 28 27 25 23 22 21 20 19 19 20 21 23 25 26 27 27 28 28 28 29 29 29 29 29 28 27 27 27 28 29 31 33 33 33 33 32 30 29 28 27 26 26 26 27 26 26 26 27 28 30 32 34 37 41 43
32 31 30 29 28 28 28 28 28 27 26 24 21 18 18 19 19 20 22 24 26 26 26 27 28 27 28 28 28 28 28 28 27 27 27 27 28 29 31 32 32 32 31 30 28 27 26 25 25 25 25 25 26 26 25 26 27 29 31 33 36 39 42
32 31 30 29 28 28 27 27 27 26 23 20 17 18 20 21 21 21 23 25 26 26 26 27 27 27 28 28 28 28 28 27 27 27 27 28 28 29 31 32 31 31 30 28 27 26 25 24 24 23 24 25 25 25 25 26 28 30 32 34 36 38 41
32 31 31 30 29 29 28 27 26 24 21 19 21 23 23 22 22 22 24 25 26 26 26 26 27 27 28 28 28 28 27 27 27 27 28 28 28 29 30 31 30 30 29 27 26 25 25 24 23 23 23 24 25 25 26 27 28 30 32 34 35 37 40
33 32 32 32 31 30 29 28 26 25 24 25 26 26 23 22 22 23 24 25 26 26 26 27 27 28 28 28 28 28 27 27 27 27 28 28 28 29 30 30 29 29 28 27 26 25 24 24 23 23 23 24 24 25 26 27 28 30 32 33 35 37 38
34 33 33 33 32 31 29 27 26 26 27 27 27 25 23 22 23 23 24 25 26 26 27 27 27 28 28 28 28 27 27 27 27 28 28 28 28 28 29 28 28 28 27 26 26 25 25 24 23 23 23 23 24 25 26 27 28 30 31 33 34 36 37